<?xml version="1.0" encoding="UTF-8" standalone="no" ?>
<gpx xmlns="http://www.topografix.com/GPX/1/1" xmlns:xsi="http://www.w3.org/2001/XMLSchema-instance" xsi:schemaLocation="http://www.topografix.com/GPX/1/1 http://www.topografix.com/GPX/1/1/gpx.xsd" version="1.1" creator="VisuGPX - https://www.visugpx.com">
  <metadata>
    <name>Far_West_Realisé</name>
  </metadata>
  <trk>
    <name><![CDATA[J5 - Far west - Odos - Lestelle-Bétharram - Petite journée tranquille 👌]]></name>
    <extensions>
      <line xmlns="http://www.topografix.com/GPX/gpx_style/0/2">
        <color>00FFFF</color>
        <width>4</width>
      </line>
    </extensions>
    <trkseg>
      <trkpt lat="43.19491" lon="0.05494">
        <ele>334.2</ele>
        <time>2022-09-07T09:11:52Z</time>
      </trkpt>
      <trkpt lat="43.19493" lon="0.05486">
        <ele>334.2</ele>
        <time>2022-09-07T09:12:17Z</time>
      </trkpt>
      <trkpt lat="43.19493" lon="0.05478">
        <ele>333.8</ele>
        <time>2022-09-07T09:12:19Z</time>
      </trkpt>
      <trkpt lat="43.19495" lon="0.0547">
        <ele>333.4</ele>
        <time>2022-09-07T09:12:21Z</time>
      </trkpt>
      <trkpt lat="43.19497" lon="0.05459">
        <ele>333</ele>
        <time>2022-09-07T09:12:23Z</time>
      </trkpt>
      <trkpt lat="43.19497" lon="0.05453">
        <ele>332.8</ele>
        <time>2022-09-07T09:12:24Z</time>
      </trkpt>
      <trkpt lat="43.19492" lon="0.05423">
        <ele>332</ele>
        <time>2022-09-07T09:12:28Z</time>
      </trkpt>
      <trkpt lat="43.1949" lon="0.05415">
        <ele>331.8</ele>
        <time>2022-09-07T09:12:29Z</time>
      </trkpt>
      <trkpt lat="43.19483" lon="0.054">
        <ele>331.4</ele>
        <time>2022-09-07T09:12:31Z</time>
      </trkpt>
      <trkpt lat="43.19476" lon="0.05385">
        <ele>330.8</ele>
        <time>2022-09-07T09:12:33Z</time>
      </trkpt>
      <trkpt lat="43.19466" lon="0.05359">
        <ele>329.8</ele>
        <time>2022-09-07T09:12:37Z</time>
      </trkpt>
      <trkpt lat="43.19464" lon="0.05352">
        <ele>329.6</ele>
        <time>2022-09-07T09:12:38Z</time>
      </trkpt>
      <trkpt lat="43.19462" lon="0.05321">
        <ele>329.2</ele>
        <time>2022-09-07T09:12:42Z</time>
      </trkpt>
      <trkpt lat="43.19462" lon="0.05272">
        <ele>329.2</ele>
        <time>2022-09-07T09:12:49Z</time>
      </trkpt>
      <trkpt lat="43.19463" lon="0.05248">
        <ele>328.8</ele>
        <time>2022-09-07T09:12:53Z</time>
      </trkpt>
      <trkpt lat="43.19464" lon="0.0523">
        <ele>329</ele>
        <time>2022-09-07T09:12:56Z</time>
      </trkpt>
      <trkpt lat="43.19469" lon="0.05182">
        <ele>328.6</ele>
        <time>2022-09-07T09:13:05Z</time>
      </trkpt>
      <trkpt lat="43.19476" lon="0.05129">
        <ele>328.6</ele>
        <time>2022-09-07T09:13:15Z</time>
      </trkpt>
      <trkpt lat="43.1948" lon="0.05098">
        <ele>328.8</ele>
        <time>2022-09-07T09:13:21Z</time>
      </trkpt>
      <trkpt lat="43.19484" lon="0.05062">
        <ele>328.8</ele>
        <time>2022-09-07T09:13:28Z</time>
      </trkpt>
      <trkpt lat="43.1949" lon="0.05022">
        <ele>329</ele>
        <time>2022-09-07T09:13:36Z</time>
      </trkpt>
      <trkpt lat="43.19497" lon="0.04966">
        <ele>329.2</ele>
        <time>2022-09-07T09:13:47Z</time>
      </trkpt>
      <trkpt lat="43.19501" lon="0.04935">
        <ele>328.8</ele>
        <time>2022-09-07T09:13:53Z</time>
      </trkpt>
      <trkpt lat="43.19505" lon="0.04897">
        <ele>329.2</ele>
        <time>2022-09-07T09:14:01Z</time>
      </trkpt>
      <trkpt lat="43.19504" lon="0.04853">
        <ele>329</ele>
        <time>2022-09-07T09:14:09Z</time>
      </trkpt>
      <trkpt lat="43.19505" lon="0.04814">
        <ele>329</ele>
        <time>2022-09-07T09:14:16Z</time>
      </trkpt>
      <trkpt lat="43.19505" lon="0.04764">
        <ele>329.6</ele>
        <time>2022-09-07T09:14:25Z</time>
      </trkpt>
      <trkpt lat="43.19503" lon="0.04729">
        <ele>329.6</ele>
        <time>2022-09-07T09:14:32Z</time>
      </trkpt>
      <trkpt lat="43.195" lon="0.04704">
        <ele>329.8</ele>
        <time>2022-09-07T09:14:37Z</time>
      </trkpt>
      <trkpt lat="43.19499" lon="0.04694">
        <ele>329.8</ele>
        <time>2022-09-07T09:14:39Z</time>
      </trkpt>
      <trkpt lat="43.19496" lon="0.04646">
        <ele>330.2</ele>
        <time>2022-09-07T09:14:49Z</time>
      </trkpt>
      <trkpt lat="43.19493" lon="0.04601">
        <ele>330.6</ele>
        <time>2022-09-07T09:14:58Z</time>
      </trkpt>
      <trkpt lat="43.19491" lon="0.04584">
        <ele>330.4</ele>
        <time>2022-09-07T09:15:01Z</time>
      </trkpt>
      <trkpt lat="43.19491" lon="0.04573">
        <ele>330.4</ele>
        <time>2022-09-07T09:15:03Z</time>
      </trkpt>
      <trkpt lat="43.19486" lon="0.04529">
        <ele>330.2</ele>
        <time>2022-09-07T09:15:11Z</time>
      </trkpt>
      <trkpt lat="43.19486" lon="0.04499">
        <ele>330.4</ele>
        <time>2022-09-07T09:15:17Z</time>
      </trkpt>
      <trkpt lat="43.19486" lon="0.04475">
        <ele>330.4</ele>
        <time>2022-09-07T09:15:23Z</time>
      </trkpt>
      <trkpt lat="43.19476" lon="0.04463">
        <ele>330.6</ele>
        <time>2022-09-07T09:15:27Z</time>
      </trkpt>
      <trkpt lat="43.19457" lon="0.04448">
        <ele>330.8</ele>
        <time>2022-09-07T09:15:33Z</time>
      </trkpt>
      <trkpt lat="43.19454" lon="0.04445">
        <ele>330.8</ele>
        <time>2022-09-07T09:15:34Z</time>
      </trkpt>
      <trkpt lat="43.19427" lon="0.04423">
        <ele>331</ele>
        <time>2022-09-07T09:15:42Z</time>
      </trkpt>
      <trkpt lat="43.1939" lon="0.04393">
        <ele>331.4</ele>
        <time>2022-09-07T09:15:53Z</time>
      </trkpt>
      <trkpt lat="43.19371" lon="0.04376">
        <ele>331.8</ele>
        <time>2022-09-07T09:15:59Z</time>
      </trkpt>
      <trkpt lat="43.19364" lon="0.0437">
        <ele>331.8</ele>
        <time>2022-09-07T09:16:01Z</time>
      </trkpt>
      <trkpt lat="43.19344" lon="0.04345">
        <ele>332</ele>
        <time>2022-09-07T09:16:08Z</time>
      </trkpt>
      <trkpt lat="43.19329" lon="0.04318">
        <ele>332</ele>
        <time>2022-09-07T09:16:15Z</time>
      </trkpt>
      <trkpt lat="43.19314" lon="0.04298">
        <ele>332.4</ele>
        <time>2022-09-07T09:16:21Z</time>
      </trkpt>
      <trkpt lat="43.19294" lon="0.04279">
        <ele>332.4</ele>
        <time>2022-09-07T09:16:27Z</time>
      </trkpt>
      <trkpt lat="43.19272" lon="0.04258">
        <ele>332.4</ele>
        <time>2022-09-07T09:16:34Z</time>
      </trkpt>
      <trkpt lat="43.19252" lon="0.04238">
        <ele>332.8</ele>
        <time>2022-09-07T09:16:40Z</time>
      </trkpt>
      <trkpt lat="43.19243" lon="0.04228">
        <ele>332.8</ele>
        <time>2022-09-07T09:16:43Z</time>
      </trkpt>
      <trkpt lat="43.19236" lon="0.04207">
        <ele>332.6</ele>
        <time>2022-09-07T09:16:48Z</time>
      </trkpt>
      <trkpt lat="43.19241" lon="0.0418">
        <ele>333</ele>
        <time>2022-09-07T09:16:54Z</time>
      </trkpt>
      <trkpt lat="43.19242" lon="0.0415">
        <ele>333</ele>
        <time>2022-09-07T09:17:01Z</time>
      </trkpt>
      <trkpt lat="43.1924" lon="0.04147">
        <ele>333</ele>
        <time>2022-09-07T09:17:02Z</time>
      </trkpt>
      <trkpt lat="43.19233" lon="0.04138">
        <ele>333</ele>
        <time>2022-09-07T09:17:05Z</time>
      </trkpt>
      <trkpt lat="43.19225" lon="0.04128">
        <ele>333.2</ele>
        <time>2022-09-07T09:17:08Z</time>
      </trkpt>
      <trkpt lat="43.19198" lon="0.04093">
        <ele>333.6</ele>
        <time>2022-09-07T09:17:18Z</time>
      </trkpt>
      <trkpt lat="43.19187" lon="0.04079">
        <ele>333.8</ele>
        <time>2022-09-07T09:17:22Z</time>
      </trkpt>
      <trkpt lat="43.19175" lon="0.04064">
        <ele>334.2</ele>
        <time>2022-09-07T09:17:26Z</time>
      </trkpt>
      <trkpt lat="43.19147" lon="0.04032">
        <ele>334.6</ele>
        <time>2022-09-07T09:17:35Z</time>
      </trkpt>
      <trkpt lat="43.19117" lon="0.03994">
        <ele>334.8</ele>
        <time>2022-09-07T09:17:45Z</time>
      </trkpt>
      <trkpt lat="43.19114" lon="0.0399">
        <ele>335</ele>
        <time>2022-09-07T09:17:46Z</time>
      </trkpt>
      <trkpt lat="43.19095" lon="0.03966">
        <ele>335.2</ele>
        <time>2022-09-07T09:17:52Z</time>
      </trkpt>
      <trkpt lat="43.19058" lon="0.03921">
        <ele>335.6</ele>
        <time>2022-09-07T09:18:04Z</time>
      </trkpt>
      <trkpt lat="43.19034" lon="0.03891">
        <ele>336</ele>
        <time>2022-09-07T09:18:12Z</time>
      </trkpt>
      <trkpt lat="43.19028" lon="0.03883">
        <ele>336.2</ele>
        <time>2022-09-07T09:18:14Z</time>
      </trkpt>
      <trkpt lat="43.1901" lon="0.03864">
        <ele>337.2</ele>
        <time>2022-09-07T09:18:20Z</time>
      </trkpt>
      <trkpt lat="43.19006" lon="0.03858">
        <ele>337.4</ele>
        <time>2022-09-07T09:18:22Z</time>
      </trkpt>
      <trkpt lat="43.18994" lon="0.03843">
        <ele>338.4</ele>
        <time>2022-09-07T09:18:28Z</time>
      </trkpt>
      <trkpt lat="43.18992" lon="0.03841">
        <ele>338.6</ele>
        <time>2022-09-07T09:18:29Z</time>
      </trkpt>
      <trkpt lat="43.18983" lon="0.0383">
        <ele>339.6</ele>
        <time>2022-09-07T09:18:34Z</time>
      </trkpt>
      <trkpt lat="43.18976" lon="0.03822">
        <ele>340.2</ele>
        <time>2022-09-07T09:18:38Z</time>
      </trkpt>
      <trkpt lat="43.18972" lon="0.03817">
        <ele>340.6</ele>
        <time>2022-09-07T09:18:40Z</time>
      </trkpt>
      <trkpt lat="43.18961" lon="0.03801">
        <ele>341.6</ele>
        <time>2022-09-07T09:18:47Z</time>
      </trkpt>
      <trkpt lat="43.18959" lon="0.03799">
        <ele>341.8</ele>
        <time>2022-09-07T09:18:48Z</time>
      </trkpt>
      <trkpt lat="43.18949" lon="0.03787">
        <ele>342.8</ele>
        <time>2022-09-07T09:18:54Z</time>
      </trkpt>
      <trkpt lat="43.1894" lon="0.03774">
        <ele>343.8</ele>
        <time>2022-09-07T09:19:00Z</time>
      </trkpt>
      <trkpt lat="43.18938" lon="0.03772">
        <ele>344</ele>
        <time>2022-09-07T09:19:01Z</time>
      </trkpt>
      <trkpt lat="43.18928" lon="0.03759">
        <ele>345</ele>
        <time>2022-09-07T09:19:07Z</time>
      </trkpt>
      <trkpt lat="43.18927" lon="0.03757">
        <ele>345</ele>
        <time>2022-09-07T09:19:08Z</time>
      </trkpt>
      <trkpt lat="43.18915" lon="0.03745">
        <ele>346</ele>
        <time>2022-09-07T09:19:15Z</time>
      </trkpt>
      <trkpt lat="43.18913" lon="0.03743">
        <ele>346.2</ele>
        <time>2022-09-07T09:19:16Z</time>
      </trkpt>
      <trkpt lat="43.189" lon="0.03726">
        <ele>347</ele>
        <time>2022-09-07T09:19:24Z</time>
      </trkpt>
      <trkpt lat="43.18894" lon="0.0372">
        <ele>347.2</ele>
        <time>2022-09-07T09:19:27Z</time>
      </trkpt>
      <trkpt lat="43.18887" lon="0.03709">
        <ele>347.8</ele>
        <time>2022-09-07T09:19:32Z</time>
      </trkpt>
      <trkpt lat="43.18879" lon="0.03701">
        <ele>348.2</ele>
        <time>2022-09-07T09:19:36Z</time>
      </trkpt>
      <trkpt lat="43.1887" lon="0.0369">
        <ele>349</ele>
        <time>2022-09-07T09:19:42Z</time>
      </trkpt>
      <trkpt lat="43.18867" lon="0.03686">
        <ele>349.4</ele>
        <time>2022-09-07T09:19:44Z</time>
      </trkpt>
      <trkpt lat="43.18854" lon="0.03671">
        <ele>350.2</ele>
        <time>2022-09-07T09:19:51Z</time>
      </trkpt>
      <trkpt lat="43.18849" lon="0.03664">
        <ele>350.6</ele>
        <time>2022-09-07T09:19:54Z</time>
      </trkpt>
      <trkpt lat="43.18835" lon="0.03647">
        <ele>351</ele>
        <time>2022-09-07T09:20:01Z</time>
      </trkpt>
      <trkpt lat="43.18812" lon="0.03618">
        <ele>351.4</ele>
        <time>2022-09-07T09:20:11Z</time>
      </trkpt>
      <trkpt lat="43.18804" lon="0.03608">
        <ele>351.6</ele>
        <time>2022-09-07T09:20:14Z</time>
      </trkpt>
      <trkpt lat="43.18787" lon="0.03589">
        <ele>351.8</ele>
        <time>2022-09-07T09:20:20Z</time>
      </trkpt>
      <trkpt lat="43.18767" lon="0.03565">
        <ele>352.4</ele>
        <time>2022-09-07T09:20:28Z</time>
      </trkpt>
      <trkpt lat="43.18764" lon="0.03562">
        <ele>352.6</ele>
        <time>2022-09-07T09:20:29Z</time>
      </trkpt>
      <trkpt lat="43.18753" lon="0.03548">
        <ele>353</ele>
        <time>2022-09-07T09:20:35Z</time>
      </trkpt>
      <trkpt lat="43.18747" lon="0.03541">
        <ele>353.8</ele>
        <time>2022-09-07T09:20:38Z</time>
      </trkpt>
      <trkpt lat="43.18741" lon="0.0353">
        <ele>354.6</ele>
        <time>2022-09-07T09:20:43Z</time>
      </trkpt>
      <trkpt lat="43.18737" lon="0.03524">
        <ele>355</ele>
        <time>2022-09-07T09:20:46Z</time>
      </trkpt>
      <trkpt lat="43.18733" lon="0.03516">
        <ele>356</ele>
        <time>2022-09-07T09:20:50Z</time>
      </trkpt>
      <trkpt lat="43.18732" lon="0.03515">
        <ele>356</ele>
        <time>2022-09-07T09:20:51Z</time>
      </trkpt>
      <trkpt lat="43.18726" lon="0.03508">
        <ele>357</ele>
        <time>2022-09-07T09:20:56Z</time>
      </trkpt>
      <trkpt lat="43.18724" lon="0.03506">
        <ele>357.2</ele>
        <time>2022-09-07T09:20:57Z</time>
      </trkpt>
      <trkpt lat="43.18713" lon="0.03493">
        <ele>357.4</ele>
        <time>2022-09-07T09:21:03Z</time>
      </trkpt>
      <trkpt lat="43.18695" lon="0.03485">
        <ele>357.2</ele>
        <time>2022-09-07T09:21:09Z</time>
      </trkpt>
      <trkpt lat="43.18678" lon="0.03485">
        <ele>357.2</ele>
        <time>2022-09-07T09:21:14Z</time>
      </trkpt>
      <trkpt lat="43.18669" lon="0.03497">
        <ele>357.2</ele>
        <time>2022-09-07T09:21:18Z</time>
      </trkpt>
      <trkpt lat="43.18668" lon="0.035">
        <ele>357.2</ele>
        <time>2022-09-07T09:21:19Z</time>
      </trkpt>
      <trkpt lat="43.18663" lon="0.03522">
        <ele>357.6</ele>
        <time>2022-09-07T09:21:25Z</time>
      </trkpt>
      <trkpt lat="43.18657" lon="0.03528">
        <ele>357.6</ele>
        <time>2022-09-07T09:21:28Z</time>
      </trkpt>
      <trkpt lat="43.18654" lon="0.03528">
        <ele>357.8</ele>
        <time>2022-09-07T09:21:29Z</time>
      </trkpt>
      <trkpt lat="43.18646" lon="0.03528">
        <ele>358</ele>
        <time>2022-09-07T09:21:32Z</time>
      </trkpt>
      <trkpt lat="43.18641" lon="0.03525">
        <ele>358.2</ele>
        <time>2022-09-07T09:21:34Z</time>
      </trkpt>
      <trkpt lat="43.18629" lon="0.03524">
        <ele>359</ele>
        <time>2022-09-07T09:21:39Z</time>
      </trkpt>
      <trkpt lat="43.18627" lon="0.03524">
        <ele>359.2</ele>
        <time>2022-09-07T09:21:40Z</time>
      </trkpt>
      <trkpt lat="43.18614" lon="0.03521">
        <ele>360.2</ele>
        <time>2022-09-07T09:21:46Z</time>
      </trkpt>
      <trkpt lat="43.18602" lon="0.03519">
        <ele>361.2</ele>
        <time>2022-09-07T09:21:52Z</time>
      </trkpt>
      <trkpt lat="43.186" lon="0.03519">
        <ele>361.2</ele>
        <time>2022-09-07T09:21:53Z</time>
      </trkpt>
      <trkpt lat="43.18585" lon="0.03515">
        <ele>362.2</ele>
        <time>2022-09-07T09:22:00Z</time>
      </trkpt>
      <trkpt lat="43.18582" lon="0.03514">
        <ele>362.4</ele>
        <time>2022-09-07T09:22:02Z</time>
      </trkpt>
      <trkpt lat="43.18572" lon="0.03509">
        <ele>363.2</ele>
        <time>2022-09-07T09:22:08Z</time>
      </trkpt>
      <trkpt lat="43.1857" lon="0.03508">
        <ele>363.4</ele>
        <time>2022-09-07T09:22:09Z</time>
      </trkpt>
      <trkpt lat="43.18562" lon="0.03505">
        <ele>364.4</ele>
        <time>2022-09-07T09:22:14Z</time>
      </trkpt>
      <trkpt lat="43.18559" lon="0.03505">
        <ele>364.6</ele>
        <time>2022-09-07T09:22:15Z</time>
      </trkpt>
      <trkpt lat="43.18546" lon="0.03503">
        <ele>365.4</ele>
        <time>2022-09-07T09:22:22Z</time>
      </trkpt>
      <trkpt lat="43.18537" lon="0.03499">
        <ele>366.4</ele>
        <time>2022-09-07T09:22:28Z</time>
      </trkpt>
      <trkpt lat="43.18536" lon="0.03499">
        <ele>366.6</ele>
        <time>2022-09-07T09:22:29Z</time>
      </trkpt>
      <trkpt lat="43.18532" lon="0.03498">
        <ele>366.8</ele>
        <time>2022-09-07T09:22:32Z</time>
      </trkpt>
      <trkpt lat="43.18524" lon="0.03495">
        <ele>367.6</ele>
        <time>2022-09-07T09:22:37Z</time>
      </trkpt>
      <trkpt lat="43.18522" lon="0.03495">
        <ele>367.8</ele>
        <time>2022-09-07T09:22:38Z</time>
      </trkpt>
      <trkpt lat="43.18514" lon="0.03494">
        <ele>368.4</ele>
        <time>2022-09-07T09:22:44Z</time>
      </trkpt>
      <trkpt lat="43.18512" lon="0.03494">
        <ele>368.6</ele>
        <time>2022-09-07T09:22:45Z</time>
      </trkpt>
      <trkpt lat="43.185" lon="0.03492">
        <ele>369.6</ele>
        <time>2022-09-07T09:22:53Z</time>
      </trkpt>
      <trkpt lat="43.18498" lon="0.0349">
        <ele>369.8</ele>
        <time>2022-09-07T09:22:55Z</time>
      </trkpt>
      <trkpt lat="43.18493" lon="0.03489">
        <ele>370.4</ele>
        <time>2022-09-07T09:22:58Z</time>
      </trkpt>
      <trkpt lat="43.18491" lon="0.03489">
        <ele>370.4</ele>
        <time>2022-09-07T09:22:59Z</time>
      </trkpt>
      <trkpt lat="43.18487" lon="0.03489">
        <ele>370.8</ele>
        <time>2022-09-07T09:23:01Z</time>
      </trkpt>
      <trkpt lat="43.18482" lon="0.03487">
        <ele>371.4</ele>
        <time>2022-09-07T09:23:04Z</time>
      </trkpt>
      <trkpt lat="43.18476" lon="0.03486">
        <ele>371.8</ele>
        <time>2022-09-07T09:23:08Z</time>
      </trkpt>
      <trkpt lat="43.18471" lon="0.03485">
        <ele>372.2</ele>
        <time>2022-09-07T09:23:11Z</time>
      </trkpt>
      <trkpt lat="43.18467" lon="0.03484">
        <ele>372.4</ele>
        <time>2022-09-07T09:23:13Z</time>
      </trkpt>
      <trkpt lat="43.18461" lon="0.03482">
        <ele>372.8</ele>
        <time>2022-09-07T09:23:16Z</time>
      </trkpt>
      <trkpt lat="43.18454" lon="0.03479">
        <ele>373.4</ele>
        <time>2022-09-07T09:23:19Z</time>
      </trkpt>
      <trkpt lat="43.18446" lon="0.03478">
        <ele>373.8</ele>
        <time>2022-09-07T09:23:23Z</time>
      </trkpt>
      <trkpt lat="43.18439" lon="0.03475">
        <ele>374.4</ele>
        <time>2022-09-07T09:23:27Z</time>
      </trkpt>
      <trkpt lat="43.18428" lon="0.03474">
        <ele>375</ele>
        <time>2022-09-07T09:23:33Z</time>
      </trkpt>
      <trkpt lat="43.18417" lon="0.03471">
        <ele>375.8</ele>
        <time>2022-09-07T09:23:40Z</time>
      </trkpt>
      <trkpt lat="43.18414" lon="0.0347">
        <ele>376</ele>
        <time>2022-09-07T09:23:42Z</time>
      </trkpt>
      <trkpt lat="43.18406" lon="0.03468">
        <ele>376.4</ele>
        <time>2022-09-07T09:23:46Z</time>
      </trkpt>
      <trkpt lat="43.18395" lon="0.03468">
        <ele>377.2</ele>
        <time>2022-09-07T09:23:52Z</time>
      </trkpt>
      <trkpt lat="43.18391" lon="0.03467">
        <ele>377.4</ele>
        <time>2022-09-07T09:23:54Z</time>
      </trkpt>
      <trkpt lat="43.18378" lon="0.03462">
        <ele>378.2</ele>
        <time>2022-09-07T09:24:01Z</time>
      </trkpt>
      <trkpt lat="43.18375" lon="0.0346">
        <ele>378.4</ele>
        <time>2022-09-07T09:24:03Z</time>
      </trkpt>
      <trkpt lat="43.18363" lon="0.03455">
        <ele>379.4</ele>
        <time>2022-09-07T09:24:10Z</time>
      </trkpt>
      <trkpt lat="43.18357" lon="0.03455">
        <ele>379.6</ele>
        <time>2022-09-07T09:24:13Z</time>
      </trkpt>
      <trkpt lat="43.18349" lon="0.03451">
        <ele>380.4</ele>
        <time>2022-09-07T09:24:18Z</time>
      </trkpt>
      <trkpt lat="43.18345" lon="0.03451">
        <ele>380.6</ele>
        <time>2022-09-07T09:24:20Z</time>
      </trkpt>
      <trkpt lat="43.18335" lon="0.0345">
        <ele>381.4</ele>
        <time>2022-09-07T09:24:26Z</time>
      </trkpt>
      <trkpt lat="43.18333" lon="0.0345">
        <ele>381.6</ele>
        <time>2022-09-07T09:24:27Z</time>
      </trkpt>
      <trkpt lat="43.18325" lon="0.03448">
        <ele>382.4</ele>
        <time>2022-09-07T09:24:32Z</time>
      </trkpt>
      <trkpt lat="43.18323" lon="0.03447">
        <ele>382.6</ele>
        <time>2022-09-07T09:24:33Z</time>
      </trkpt>
      <trkpt lat="43.18321" lon="0.03447">
        <ele>382.8</ele>
        <time>2022-09-07T09:24:34Z</time>
      </trkpt>
      <trkpt lat="43.18317" lon="0.03444">
        <ele>383.6</ele>
        <time>2022-09-07T09:24:38Z</time>
      </trkpt>
      <trkpt lat="43.18315" lon="0.03444">
        <ele>383.8</ele>
        <time>2022-09-07T09:24:39Z</time>
      </trkpt>
      <trkpt lat="43.18312" lon="0.03445">
        <ele>384.2</ele>
        <time>2022-09-07T09:24:41Z</time>
      </trkpt>
      <trkpt lat="43.18306" lon="0.03444">
        <ele>384.8</ele>
        <time>2022-09-07T09:24:45Z</time>
      </trkpt>
      <trkpt lat="43.18305" lon="0.03444">
        <ele>385</ele>
        <time>2022-09-07T09:24:46Z</time>
      </trkpt>
      <trkpt lat="43.18298" lon="0.03442">
        <ele>385.8</ele>
        <time>2022-09-07T09:24:51Z</time>
      </trkpt>
      <trkpt lat="43.18297" lon="0.03441">
        <ele>386</ele>
        <time>2022-09-07T09:24:52Z</time>
      </trkpt>
      <trkpt lat="43.18295" lon="0.03441">
        <ele>386.2</ele>
        <time>2022-09-07T09:24:53Z</time>
      </trkpt>
      <trkpt lat="43.18289" lon="0.03438">
        <ele>387</ele>
        <time>2022-09-07T09:24:57Z</time>
      </trkpt>
      <trkpt lat="43.18288" lon="0.03438">
        <ele>387</ele>
        <time>2022-09-07T09:24:58Z</time>
      </trkpt>
      <trkpt lat="43.1828" lon="0.03435">
        <ele>388</ele>
        <time>2022-09-07T09:25:03Z</time>
      </trkpt>
      <trkpt lat="43.18278" lon="0.03435">
        <ele>388.2</ele>
        <time>2022-09-07T09:25:04Z</time>
      </trkpt>
      <trkpt lat="43.18272" lon="0.03432">
        <ele>389</ele>
        <time>2022-09-07T09:25:08Z</time>
      </trkpt>
      <trkpt lat="43.1827" lon="0.03429">
        <ele>389.2</ele>
        <time>2022-09-07T09:25:10Z</time>
      </trkpt>
      <trkpt lat="43.18262" lon="0.03418">
        <ele>390.4</ele>
        <time>2022-09-07T09:25:18Z</time>
      </trkpt>
      <trkpt lat="43.18248" lon="0.03409">
        <ele>391.2</ele>
        <time>2022-09-07T09:25:26Z</time>
      </trkpt>
      <trkpt lat="43.18247" lon="0.03408">
        <ele>391.4</ele>
        <time>2022-09-07T09:25:27Z</time>
      </trkpt>
      <trkpt lat="43.1824" lon="0.03404">
        <ele>391.8</ele>
        <time>2022-09-07T09:25:31Z</time>
      </trkpt>
      <trkpt lat="43.18238" lon="0.03405">
        <ele>392</ele>
        <time>2022-09-07T09:25:32Z</time>
      </trkpt>
      <trkpt lat="43.18233" lon="0.03404">
        <ele>392.4</ele>
        <time>2022-09-07T09:25:35Z</time>
      </trkpt>
      <trkpt lat="43.1823" lon="0.03402">
        <ele>392.8</ele>
        <time>2022-09-07T09:25:37Z</time>
      </trkpt>
      <trkpt lat="43.18228" lon="0.03401">
        <ele>393.2</ele>
        <time>2022-09-07T09:25:38Z</time>
      </trkpt>
      <trkpt lat="43.18224" lon="0.03402">
        <ele>393.4</ele>
        <time>2022-09-07T09:25:41Z</time>
      </trkpt>
      <trkpt lat="43.18221" lon="0.03401">
        <ele>393.6</ele>
        <time>2022-09-07T09:25:43Z</time>
      </trkpt>
      <trkpt lat="43.18212" lon="0.03399">
        <ele>394.2</ele>
        <time>2022-09-07T09:25:49Z</time>
      </trkpt>
      <trkpt lat="43.1821" lon="0.03397">
        <ele>394.6</ele>
        <time>2022-09-07T09:25:51Z</time>
      </trkpt>
      <trkpt lat="43.18205" lon="0.03394">
        <ele>395.2</ele>
        <time>2022-09-07T09:25:54Z</time>
      </trkpt>
      <trkpt lat="43.18198" lon="0.03394">
        <ele>395.8</ele>
        <time>2022-09-07T09:25:59Z</time>
      </trkpt>
      <trkpt lat="43.18186" lon="0.03393">
        <ele>396.8</ele>
        <time>2022-09-07T09:26:06Z</time>
      </trkpt>
      <trkpt lat="43.18185" lon="0.03392">
        <ele>396.8</ele>
        <time>2022-09-07T09:26:07Z</time>
      </trkpt>
      <trkpt lat="43.18177" lon="0.03389">
        <ele>397.4</ele>
        <time>2022-09-07T09:26:12Z</time>
      </trkpt>
      <trkpt lat="43.18162" lon="0.03382">
        <ele>397.8</ele>
        <time>2022-09-07T09:26:19Z</time>
      </trkpt>
      <trkpt lat="43.18155" lon="0.03379">
        <ele>398</ele>
        <time>2022-09-07T09:26:22Z</time>
      </trkpt>
      <trkpt lat="43.18145" lon="0.03372">
        <ele>398.6</ele>
        <time>2022-09-07T09:26:27Z</time>
      </trkpt>
      <trkpt lat="43.1814" lon="0.03368">
        <ele>399</ele>
        <time>2022-09-07T09:26:30Z</time>
      </trkpt>
      <trkpt lat="43.18131" lon="0.0336">
        <ele>399.6</ele>
        <time>2022-09-07T09:26:35Z</time>
      </trkpt>
      <trkpt lat="43.18124" lon="0.03353">
        <ele>400.2</ele>
        <time>2022-09-07T09:26:39Z</time>
      </trkpt>
      <trkpt lat="43.1811" lon="0.03341">
        <ele>400.6</ele>
        <time>2022-09-07T09:26:46Z</time>
      </trkpt>
      <trkpt lat="43.181" lon="0.03332">
        <ele>401.2</ele>
        <time>2022-09-07T09:26:51Z</time>
      </trkpt>
      <trkpt lat="43.18093" lon="0.03325">
        <ele>401.4</ele>
        <time>2022-09-07T09:26:55Z</time>
      </trkpt>
      <trkpt lat="43.18081" lon="0.03316">
        <ele>402.2</ele>
        <time>2022-09-07T09:27:01Z</time>
      </trkpt>
      <trkpt lat="43.18076" lon="0.03312">
        <ele>403</ele>
        <time>2022-09-07T09:27:04Z</time>
      </trkpt>
      <trkpt lat="43.18068" lon="0.03304">
        <ele>403.2</ele>
        <time>2022-09-07T09:27:09Z</time>
      </trkpt>
      <trkpt lat="43.18067" lon="0.03303">
        <ele>403.4</ele>
        <time>2022-09-07T09:27:10Z</time>
      </trkpt>
      <trkpt lat="43.18063" lon="0.03301">
        <ele>403.6</ele>
        <time>2022-09-07T09:27:12Z</time>
      </trkpt>
      <trkpt lat="43.18051" lon="0.033">
        <ele>404</ele>
        <time>2022-09-07T09:27:17Z</time>
      </trkpt>
      <trkpt lat="43.18036" lon="0.03301">
        <ele>404.4</ele>
        <time>2022-09-07T09:27:23Z</time>
      </trkpt>
      <trkpt lat="43.18031" lon="0.03302">
        <ele>404.4</ele>
        <time>2022-09-07T09:27:25Z</time>
      </trkpt>
      <trkpt lat="43.18014" lon="0.03302">
        <ele>405.2</ele>
        <time>2022-09-07T09:27:32Z</time>
      </trkpt>
      <trkpt lat="43.18007" lon="0.03304">
        <ele>405.6</ele>
        <time>2022-09-07T09:27:35Z</time>
      </trkpt>
      <trkpt lat="43.18" lon="0.03306">
        <ele>405.8</ele>
        <time>2022-09-07T09:27:38Z</time>
      </trkpt>
      <trkpt lat="43.17992" lon="0.03307">
        <ele>406.6</ele>
        <time>2022-09-07T09:27:43Z</time>
      </trkpt>
      <trkpt lat="43.1799" lon="0.03307">
        <ele>406.6</ele>
        <time>2022-09-07T09:27:44Z</time>
      </trkpt>
      <trkpt lat="43.1798" lon="0.0331">
        <ele>407.8</ele>
        <time>2022-09-07T09:27:50Z</time>
      </trkpt>
      <trkpt lat="43.17976" lon="0.0331">
        <ele>408</ele>
        <time>2022-09-07T09:27:52Z</time>
      </trkpt>
      <trkpt lat="43.17969" lon="0.03314">
        <ele>408.6</ele>
        <time>2022-09-07T09:27:56Z</time>
      </trkpt>
      <trkpt lat="43.17968" lon="0.03313">
        <ele>408.8</ele>
        <time>2022-09-07T09:27:57Z</time>
      </trkpt>
      <trkpt lat="43.17967" lon="0.03313">
        <ele>409</ele>
        <time>2022-09-07T09:27:58Z</time>
      </trkpt>
      <trkpt lat="43.17957" lon="0.03313">
        <ele>409.4</ele>
        <time>2022-09-07T09:28:03Z</time>
      </trkpt>
      <trkpt lat="43.17944" lon="0.03312">
        <ele>409.8</ele>
        <time>2022-09-07T09:28:09Z</time>
      </trkpt>
      <trkpt lat="43.17932" lon="0.0331">
        <ele>409.8</ele>
        <time>2022-09-07T09:28:15Z</time>
      </trkpt>
      <trkpt lat="43.17922" lon="0.03308">
        <ele>410</ele>
        <time>2022-09-07T09:28:19Z</time>
      </trkpt>
      <trkpt lat="43.17919" lon="0.03306">
        <ele>410.2</ele>
        <time>2022-09-07T09:28:21Z</time>
      </trkpt>
      <trkpt lat="43.17906" lon="0.03304">
        <ele>410.4</ele>
        <time>2022-09-07T09:28:27Z</time>
      </trkpt>
      <trkpt lat="43.17898" lon="0.03303">
        <ele>410.6</ele>
        <time>2022-09-07T09:28:30Z</time>
      </trkpt>
      <trkpt lat="43.1789" lon="0.03302">
        <ele>411</ele>
        <time>2022-09-07T09:28:33Z</time>
      </trkpt>
      <trkpt lat="43.17884" lon="0.03301">
        <ele>411.4</ele>
        <time>2022-09-07T09:28:35Z</time>
      </trkpt>
      <trkpt lat="43.17867" lon="0.03298">
        <ele>411.6</ele>
        <time>2022-09-07T09:28:41Z</time>
      </trkpt>
      <trkpt lat="43.17845" lon="0.03301">
        <ele>411.2</ele>
        <time>2022-09-07T09:28:47Z</time>
      </trkpt>
      <trkpt lat="43.17814" lon="0.03304">
        <ele>410.8</ele>
        <time>2022-09-07T09:28:55Z</time>
      </trkpt>
      <trkpt lat="43.17781" lon="0.03302">
        <ele>410.8</ele>
        <time>2022-09-07T09:29:03Z</time>
      </trkpt>
      <trkpt lat="43.17754" lon="0.03298">
        <ele>410.6</ele>
        <time>2022-09-07T09:29:10Z</time>
      </trkpt>
      <trkpt lat="43.17734" lon="0.03292">
        <ele>410.6</ele>
        <time>2022-09-07T09:29:16Z</time>
      </trkpt>
      <trkpt lat="43.17712" lon="0.03284">
        <ele>411.2</ele>
        <time>2022-09-07T09:29:23Z</time>
      </trkpt>
      <trkpt lat="43.177" lon="0.03278">
        <ele>412</ele>
        <time>2022-09-07T09:29:27Z</time>
      </trkpt>
      <trkpt lat="43.17694" lon="0.03276">
        <ele>412.4</ele>
        <time>2022-09-07T09:29:29Z</time>
      </trkpt>
      <trkpt lat="43.17685" lon="0.03274">
        <ele>413.4</ele>
        <time>2022-09-07T09:29:34Z</time>
      </trkpt>
      <trkpt lat="43.17682" lon="0.03273">
        <ele>413.6</ele>
        <time>2022-09-07T09:29:35Z</time>
      </trkpt>
      <trkpt lat="43.17673" lon="0.0327">
        <ele>414.4</ele>
        <time>2022-09-07T09:29:40Z</time>
      </trkpt>
      <trkpt lat="43.17671" lon="0.0327">
        <ele>414.6</ele>
        <time>2022-09-07T09:29:41Z</time>
      </trkpt>
      <trkpt lat="43.17666" lon="0.03265">
        <ele>415.4</ele>
        <time>2022-09-07T09:29:45Z</time>
      </trkpt>
      <trkpt lat="43.17663" lon="0.03264">
        <ele>415.6</ele>
        <time>2022-09-07T09:29:47Z</time>
      </trkpt>
      <trkpt lat="43.17654" lon="0.03259">
        <ele>416.4</ele>
        <time>2022-09-07T09:29:54Z</time>
      </trkpt>
      <trkpt lat="43.17644" lon="0.03255">
        <ele>416</ele>
        <time>2022-09-07T09:29:59Z</time>
      </trkpt>
      <trkpt lat="43.17629" lon="0.03249">
        <ele>414.8</ele>
        <time>2022-09-07T09:30:03Z</time>
      </trkpt>
      <trkpt lat="43.17624" lon="0.03247">
        <ele>414.4</ele>
        <time>2022-09-07T09:30:04Z</time>
      </trkpt>
      <trkpt lat="43.17613" lon="0.03242">
        <ele>413.8</ele>
        <time>2022-09-07T09:30:06Z</time>
      </trkpt>
      <trkpt lat="43.17607" lon="0.0324">
        <ele>413.4</ele>
        <time>2022-09-07T09:30:07Z</time>
      </trkpt>
      <trkpt lat="43.17602" lon="0.03238">
        <ele>413</ele>
        <time>2022-09-07T09:30:08Z</time>
      </trkpt>
      <trkpt lat="43.17594" lon="0.03234">
        <ele>412.4</ele>
        <time>2022-09-07T09:30:10Z</time>
      </trkpt>
      <trkpt lat="43.17586" lon="0.03234">
        <ele>412.4</ele>
        <time>2022-09-07T09:30:12Z</time>
      </trkpt>
      <trkpt lat="43.17581" lon="0.03238">
        <ele>412.6</ele>
        <time>2022-09-07T09:30:14Z</time>
      </trkpt>
      <trkpt lat="43.17574" lon="0.0325">
        <ele>413.4</ele>
        <time>2022-09-07T09:30:20Z</time>
      </trkpt>
      <trkpt lat="43.17567" lon="0.03262">
        <ele>414.4</ele>
        <time>2022-09-07T09:30:26Z</time>
      </trkpt>
      <trkpt lat="43.17564" lon="0.03271">
        <ele>415.4</ele>
        <time>2022-09-07T09:30:31Z</time>
      </trkpt>
      <trkpt lat="43.17563" lon="0.03273">
        <ele>415.6</ele>
        <time>2022-09-07T09:30:32Z</time>
      </trkpt>
      <trkpt lat="43.17562" lon="0.03275">
        <ele>415.8</ele>
        <time>2022-09-07T09:30:33Z</time>
      </trkpt>
      <trkpt lat="43.17558" lon="0.03283">
        <ele>416.4</ele>
        <time>2022-09-07T09:30:38Z</time>
      </trkpt>
      <trkpt lat="43.17557" lon="0.03285">
        <ele>416.6</ele>
        <time>2022-09-07T09:30:39Z</time>
      </trkpt>
      <trkpt lat="43.17557" lon="0.03286">
        <ele>416.8</ele>
        <time>2022-09-07T09:30:40Z</time>
      </trkpt>
      <trkpt lat="43.17555" lon="0.03292">
        <ele>417.4</ele>
        <time>2022-09-07T09:30:43Z</time>
      </trkpt>
      <trkpt lat="43.17553" lon="0.03297">
        <ele>417.8</ele>
        <time>2022-09-07T09:30:46Z</time>
      </trkpt>
      <trkpt lat="43.17551" lon="0.03301">
        <ele>418.4</ele>
        <time>2022-09-07T09:30:49Z</time>
      </trkpt>
      <trkpt lat="43.17545" lon="0.03319">
        <ele>420</ele>
        <time>2022-09-07T09:30:59Z</time>
      </trkpt>
      <trkpt lat="43.17544" lon="0.03327">
        <ele>420.4</ele>
        <time>2022-09-07T09:31:02Z</time>
      </trkpt>
      <trkpt lat="43.17542" lon="0.03332">
        <ele>421</ele>
        <time>2022-09-07T09:31:05Z</time>
      </trkpt>
      <trkpt lat="43.1754" lon="0.03338">
        <ele>421.6</ele>
        <time>2022-09-07T09:31:08Z</time>
      </trkpt>
      <trkpt lat="43.17537" lon="0.03345">
        <ele>422</ele>
        <time>2022-09-07T09:31:11Z</time>
      </trkpt>
      <trkpt lat="43.17532" lon="0.03356">
        <ele>422.4</ele>
        <time>2022-09-07T09:31:16Z</time>
      </trkpt>
      <trkpt lat="43.17528" lon="0.03364">
        <ele>423</ele>
        <time>2022-09-07T09:31:20Z</time>
      </trkpt>
      <trkpt lat="43.17525" lon="0.03369">
        <ele>423.4</ele>
        <time>2022-09-07T09:31:23Z</time>
      </trkpt>
      <trkpt lat="43.17516" lon="0.03375">
        <ele>424</ele>
        <time>2022-09-07T09:31:29Z</time>
      </trkpt>
      <trkpt lat="43.17508" lon="0.03382">
        <ele>425</ele>
        <time>2022-09-07T09:31:35Z</time>
      </trkpt>
      <trkpt lat="43.17504" lon="0.03385">
        <ele>425.2</ele>
        <time>2022-09-07T09:31:38Z</time>
      </trkpt>
      <trkpt lat="43.17498" lon="0.03388">
        <ele>425.6</ele>
        <time>2022-09-07T09:31:42Z</time>
      </trkpt>
      <trkpt lat="43.17492" lon="0.03391">
        <ele>426.2</ele>
        <time>2022-09-07T09:31:46Z</time>
      </trkpt>
      <trkpt lat="43.17488" lon="0.03394">
        <ele>426.4</ele>
        <time>2022-09-07T09:31:49Z</time>
      </trkpt>
      <trkpt lat="43.17474" lon="0.03401">
        <ele>427.2</ele>
        <time>2022-09-07T09:31:57Z</time>
      </trkpt>
      <trkpt lat="43.17465" lon="0.03408">
        <ele>427.8</ele>
        <time>2022-09-07T09:32:02Z</time>
      </trkpt>
      <trkpt lat="43.17459" lon="0.03411">
        <ele>428</ele>
        <time>2022-09-07T09:32:04Z</time>
      </trkpt>
      <trkpt lat="43.17451" lon="0.03415">
        <ele>428.4</ele>
        <time>2022-09-07T09:32:08Z</time>
      </trkpt>
      <trkpt lat="43.17447" lon="0.03417">
        <ele>428.6</ele>
        <time>2022-09-07T09:32:10Z</time>
      </trkpt>
      <trkpt lat="43.17435" lon="0.03424">
        <ele>428.8</ele>
        <time>2022-09-07T09:32:16Z</time>
      </trkpt>
      <trkpt lat="43.17425" lon="0.03432">
        <ele>429.4</ele>
        <time>2022-09-07T09:32:21Z</time>
      </trkpt>
      <trkpt lat="43.1742" lon="0.03436">
        <ele>429.6</ele>
        <time>2022-09-07T09:32:23Z</time>
      </trkpt>
      <trkpt lat="43.17402" lon="0.0345">
        <ele>430.4</ele>
        <time>2022-09-07T09:32:32Z</time>
      </trkpt>
      <trkpt lat="43.174" lon="0.03451">
        <ele>430.4</ele>
        <time>2022-09-07T09:32:33Z</time>
      </trkpt>
      <trkpt lat="43.17382" lon="0.03462">
        <ele>430.6</ele>
        <time>2022-09-07T09:32:40Z</time>
      </trkpt>
      <trkpt lat="43.17375" lon="0.03467">
        <ele>430.8</ele>
        <time>2022-09-07T09:32:43Z</time>
      </trkpt>
      <trkpt lat="43.17363" lon="0.03475">
        <ele>431</ele>
        <time>2022-09-07T09:32:48Z</time>
      </trkpt>
      <trkpt lat="43.17352" lon="0.03481">
        <ele>431.4</ele>
        <time>2022-09-07T09:32:53Z</time>
      </trkpt>
      <trkpt lat="43.17348" lon="0.03485">
        <ele>431.6</ele>
        <time>2022-09-07T09:32:55Z</time>
      </trkpt>
      <trkpt lat="43.17339" lon="0.03497">
        <ele>432.4</ele>
        <time>2022-09-07T09:33:01Z</time>
      </trkpt>
      <trkpt lat="43.17336" lon="0.03501">
        <ele>432.6</ele>
        <time>2022-09-07T09:33:03Z</time>
      </trkpt>
      <trkpt lat="43.1733" lon="0.03511">
        <ele>432.8</ele>
        <time>2022-09-07T09:33:07Z</time>
      </trkpt>
      <trkpt lat="43.17322" lon="0.03524">
        <ele>433.2</ele>
        <time>2022-09-07T09:33:12Z</time>
      </trkpt>
      <trkpt lat="43.17308" lon="0.03544">
        <ele>433.8</ele>
        <time>2022-09-07T09:33:20Z</time>
      </trkpt>
      <trkpt lat="43.17299" lon="0.0356">
        <ele>434.2</ele>
        <time>2022-09-07T09:33:26Z</time>
      </trkpt>
      <trkpt lat="43.17294" lon="0.03575">
        <ele>434.8</ele>
        <time>2022-09-07T09:33:31Z</time>
      </trkpt>
      <trkpt lat="43.17293" lon="0.03578">
        <ele>434.8</ele>
        <time>2022-09-07T09:33:32Z</time>
      </trkpt>
      <trkpt lat="43.17284" lon="0.03593">
        <ele>435.4</ele>
        <time>2022-09-07T09:33:38Z</time>
      </trkpt>
      <trkpt lat="43.17276" lon="0.03607">
        <ele>435.8</ele>
        <time>2022-09-07T09:33:43Z</time>
      </trkpt>
      <trkpt lat="43.17273" lon="0.03613">
        <ele>436.2</ele>
        <time>2022-09-07T09:33:46Z</time>
      </trkpt>
      <trkpt lat="43.17268" lon="0.03625">
        <ele>437.2</ele>
        <time>2022-09-07T09:33:51Z</time>
      </trkpt>
      <trkpt lat="43.17267" lon="0.03627">
        <ele>437.4</ele>
        <time>2022-09-07T09:33:52Z</time>
      </trkpt>
      <trkpt lat="43.17262" lon="0.03636">
        <ele>438.4</ele>
        <time>2022-09-07T09:33:57Z</time>
      </trkpt>
      <trkpt lat="43.17261" lon="0.03639">
        <ele>438.6</ele>
        <time>2022-09-07T09:33:59Z</time>
      </trkpt>
      <trkpt lat="43.17258" lon="0.03648">
        <ele>439.4</ele>
        <time>2022-09-07T09:34:04Z</time>
      </trkpt>
      <trkpt lat="43.17256" lon="0.03649">
        <ele>439.4</ele>
        <time>2022-09-07T09:34:05Z</time>
      </trkpt>
      <trkpt lat="43.1725" lon="0.0366">
        <ele>440.4</ele>
        <time>2022-09-07T09:34:11Z</time>
      </trkpt>
      <trkpt lat="43.17249" lon="0.03662">
        <ele>440.4</ele>
        <time>2022-09-07T09:34:12Z</time>
      </trkpt>
      <trkpt lat="43.17244" lon="0.0367">
        <ele>441.2</ele>
        <time>2022-09-07T09:34:17Z</time>
      </trkpt>
      <trkpt lat="43.17242" lon="0.03672">
        <ele>441.4</ele>
        <time>2022-09-07T09:34:19Z</time>
      </trkpt>
      <trkpt lat="43.17234" lon="0.03682">
        <ele>442</ele>
        <time>2022-09-07T09:34:25Z</time>
      </trkpt>
      <trkpt lat="43.1723" lon="0.03688">
        <ele>442.6</ele>
        <time>2022-09-07T09:34:29Z</time>
      </trkpt>
      <trkpt lat="43.17224" lon="0.03695">
        <ele>442.8</ele>
        <time>2022-09-07T09:34:34Z</time>
      </trkpt>
      <trkpt lat="43.17217" lon="0.03703">
        <ele>443.6</ele>
        <time>2022-09-07T09:34:40Z</time>
      </trkpt>
      <trkpt lat="43.17215" lon="0.03704">
        <ele>443.8</ele>
        <time>2022-09-07T09:34:41Z</time>
      </trkpt>
      <trkpt lat="43.17203" lon="0.03714">
        <ele>444.2</ele>
        <time>2022-09-07T09:34:49Z</time>
      </trkpt>
      <trkpt lat="43.17192" lon="0.03725">
        <ele>444.6</ele>
        <time>2022-09-07T09:34:56Z</time>
      </trkpt>
      <trkpt lat="43.17182" lon="0.03736">
        <ele>444.6</ele>
        <time>2022-09-07T09:35:02Z</time>
      </trkpt>
      <trkpt lat="43.17173" lon="0.03746">
        <ele>444.6</ele>
        <time>2022-09-07T09:35:08Z</time>
      </trkpt>
      <trkpt lat="43.17172" lon="0.03747">
        <ele>444.8</ele>
        <time>2022-09-07T09:35:09Z</time>
      </trkpt>
      <trkpt lat="43.17168" lon="0.03753">
        <ele>444.8</ele>
        <time>2022-09-07T09:35:14Z</time>
      </trkpt>
      <trkpt lat="43.17159" lon="0.03768">
        <ele>445.2</ele>
        <time>2022-09-07T09:40:04Z</time>
      </trkpt>
      <trkpt lat="43.17154" lon="0.03773">
        <ele>445.4</ele>
        <time>2022-09-07T09:40:06Z</time>
      </trkpt>
      <trkpt lat="43.17137" lon="0.03786">
        <ele>444.8</ele>
        <time>2022-09-07T09:40:11Z</time>
      </trkpt>
      <trkpt lat="43.17113" lon="0.038">
        <ele>445.2</ele>
        <time>2022-09-07T09:40:18Z</time>
      </trkpt>
      <trkpt lat="43.17093" lon="0.03814">
        <ele>445.2</ele>
        <time>2022-09-07T09:40:24Z</time>
      </trkpt>
      <trkpt lat="43.17075" lon="0.03823">
        <ele>445.2</ele>
        <time>2022-09-07T09:40:31Z</time>
      </trkpt>
      <trkpt lat="43.17055" lon="0.03835">
        <ele>445.4</ele>
        <time>2022-09-07T09:40:38Z</time>
      </trkpt>
      <trkpt lat="43.17049" lon="0.03839">
        <ele>445.8</ele>
        <time>2022-09-07T09:40:40Z</time>
      </trkpt>
      <trkpt lat="43.17034" lon="0.0385">
        <ele>445.6</ele>
        <time>2022-09-07T09:40:45Z</time>
      </trkpt>
      <trkpt lat="43.17014" lon="0.03862">
        <ele>445.8</ele>
        <time>2022-09-07T09:40:52Z</time>
      </trkpt>
      <trkpt lat="43.17" lon="0.03872">
        <ele>445.8</ele>
        <time>2022-09-07T09:40:57Z</time>
      </trkpt>
      <trkpt lat="43.1698" lon="0.03888">
        <ele>445.4</ele>
        <time>2022-09-07T09:41:04Z</time>
      </trkpt>
      <trkpt lat="43.16963" lon="0.03905">
        <ele>445</ele>
        <time>2022-09-07T09:41:09Z</time>
      </trkpt>
      <trkpt lat="43.16956" lon="0.0391">
        <ele>444.8</ele>
        <time>2022-09-07T09:41:11Z</time>
      </trkpt>
      <trkpt lat="43.1694" lon="0.03922">
        <ele>444.4</ele>
        <time>2022-09-07T09:41:15Z</time>
      </trkpt>
      <trkpt lat="43.16928" lon="0.0393">
        <ele>443.8</ele>
        <time>2022-09-07T09:41:18Z</time>
      </trkpt>
      <trkpt lat="43.16924" lon="0.03932">
        <ele>443.8</ele>
        <time>2022-09-07T09:41:19Z</time>
      </trkpt>
      <trkpt lat="43.16912" lon="0.03941">
        <ele>443.4</ele>
        <time>2022-09-07T09:41:22Z</time>
      </trkpt>
      <trkpt lat="43.16905" lon="0.03948">
        <ele>443.4</ele>
        <time>2022-09-07T09:41:24Z</time>
      </trkpt>
      <trkpt lat="43.16901" lon="0.03952">
        <ele>443.6</ele>
        <time>2022-09-07T09:41:25Z</time>
      </trkpt>
      <trkpt lat="43.1689" lon="0.03969">
        <ele>443.4</ele>
        <time>2022-09-07T09:41:30Z</time>
      </trkpt>
      <trkpt lat="43.16876" lon="0.03988">
        <ele>443.8</ele>
        <time>2022-09-07T09:41:35Z</time>
      </trkpt>
      <trkpt lat="43.16864" lon="0.0401">
        <ele>443.6</ele>
        <time>2022-09-07T09:41:41Z</time>
      </trkpt>
      <trkpt lat="43.16852" lon="0.04031">
        <ele>443.6</ele>
        <time>2022-09-07T09:41:47Z</time>
      </trkpt>
      <trkpt lat="43.16838" lon="0.04054">
        <ele>443</ele>
        <time>2022-09-07T09:41:54Z</time>
      </trkpt>
      <trkpt lat="43.16827" lon="0.04068">
        <ele>442.6</ele>
        <time>2022-09-07T09:41:58Z</time>
      </trkpt>
      <trkpt lat="43.16821" lon="0.04075">
        <ele>442.2</ele>
        <time>2022-09-07T09:42:00Z</time>
      </trkpt>
      <trkpt lat="43.16798" lon="0.04096">
        <ele>442</ele>
        <time>2022-09-07T09:42:06Z</time>
      </trkpt>
      <trkpt lat="43.16777" lon="0.04115">
        <ele>441.6</ele>
        <time>2022-09-07T09:42:12Z</time>
      </trkpt>
      <trkpt lat="43.16774" lon="0.04118">
        <ele>441.6</ele>
        <time>2022-09-07T09:42:13Z</time>
      </trkpt>
      <trkpt lat="43.16754" lon="0.04144">
        <ele>441.4</ele>
        <time>2022-09-07T09:42:21Z</time>
      </trkpt>
      <trkpt lat="43.16743" lon="0.04163">
        <ele>441.6</ele>
        <time>2022-09-07T09:42:27Z</time>
      </trkpt>
      <trkpt lat="43.1673" lon="0.04188">
        <ele>441.8</ele>
        <time>2022-09-07T09:42:34Z</time>
      </trkpt>
      <trkpt lat="43.16718" lon="0.04211">
        <ele>441.8</ele>
        <time>2022-09-07T09:42:40Z</time>
      </trkpt>
      <trkpt lat="43.16705" lon="0.04236">
        <ele>442.2</ele>
        <time>2022-09-07T09:42:47Z</time>
      </trkpt>
      <trkpt lat="43.16697" lon="0.04251">
        <ele>442.8</ele>
        <time>2022-09-07T09:42:51Z</time>
      </trkpt>
      <trkpt lat="43.16691" lon="0.04262">
        <ele>443.4</ele>
        <time>2022-09-07T09:42:54Z</time>
      </trkpt>
      <trkpt lat="43.16669" lon="0.04295">
        <ele>443.4</ele>
        <time>2022-09-07T09:43:04Z</time>
      </trkpt>
      <trkpt lat="43.16656" lon="0.04321">
        <ele>443.8</ele>
        <time>2022-09-07T09:43:11Z</time>
      </trkpt>
      <trkpt lat="43.16649" lon="0.04335">
        <ele>443.8</ele>
        <time>2022-09-07T09:43:15Z</time>
      </trkpt>
      <trkpt lat="43.16642" lon="0.04344">
        <ele>444</ele>
        <time>2022-09-07T09:43:18Z</time>
      </trkpt>
      <trkpt lat="43.16627" lon="0.04369">
        <ele>444.6</ele>
        <time>2022-09-07T09:43:26Z</time>
      </trkpt>
      <trkpt lat="43.16613" lon="0.04396">
        <ele>444.6</ele>
        <time>2022-09-07T09:43:33Z</time>
      </trkpt>
      <trkpt lat="43.16595" lon="0.04421">
        <ele>445</ele>
        <time>2022-09-07T09:43:41Z</time>
      </trkpt>
      <trkpt lat="43.16574" lon="0.04439">
        <ele>444</ele>
        <time>2022-09-07T09:43:49Z</time>
      </trkpt>
      <trkpt lat="43.16564" lon="0.04443">
        <ele>443.6</ele>
        <time>2022-09-07T09:43:52Z</time>
      </trkpt>
      <trkpt lat="43.16554" lon="0.04445">
        <ele>443.4</ele>
        <time>2022-09-07T09:43:56Z</time>
      </trkpt>
      <trkpt lat="43.16544" lon="0.04436">
        <ele>442.6</ele>
        <time>2022-09-07T09:44:01Z</time>
      </trkpt>
      <trkpt lat="43.16542" lon="0.04435">
        <ele>442.6</ele>
        <time>2022-09-07T09:44:02Z</time>
      </trkpt>
      <trkpt lat="43.16538" lon="0.04431">
        <ele>441.8</ele>
        <time>2022-09-07T09:44:13Z</time>
      </trkpt>
      <trkpt lat="43.16534" lon="0.04425">
        <ele>441.8</ele>
        <time>2022-09-07T09:44:15Z</time>
      </trkpt>
      <trkpt lat="43.16531" lon="0.04421">
        <ele>441.2</ele>
        <time>2022-09-07T09:44:16Z</time>
      </trkpt>
      <trkpt lat="43.1652" lon="0.04405">
        <ele>440.2</ele>
        <time>2022-09-07T09:44:19Z</time>
      </trkpt>
      <trkpt lat="43.16509" lon="0.04379">
        <ele>438.6</ele>
        <time>2022-09-07T09:44:22Z</time>
      </trkpt>
      <trkpt lat="43.16504" lon="0.0437">
        <ele>437.6</ele>
        <time>2022-09-07T09:44:23Z</time>
      </trkpt>
      <trkpt lat="43.165" lon="0.04361">
        <ele>437.2</ele>
        <time>2022-09-07T09:44:24Z</time>
      </trkpt>
      <trkpt lat="43.16492" lon="0.04342">
        <ele>435.6</ele>
        <time>2022-09-07T09:44:26Z</time>
      </trkpt>
      <trkpt lat="43.16488" lon="0.04333">
        <ele>434.4</ele>
        <time>2022-09-07T09:44:27Z</time>
      </trkpt>
      <trkpt lat="43.16481" lon="0.04314">
        <ele>432.6</ele>
        <time>2022-09-07T09:44:29Z</time>
      </trkpt>
      <trkpt lat="43.16476" lon="0.04297">
        <ele>431.4</ele>
        <time>2022-09-07T09:44:31Z</time>
      </trkpt>
      <trkpt lat="43.16474" lon="0.04282">
        <ele>430.2</ele>
        <time>2022-09-07T09:44:33Z</time>
      </trkpt>
      <trkpt lat="43.16472" lon="0.04267">
        <ele>428.8</ele>
        <time>2022-09-07T09:44:35Z</time>
      </trkpt>
      <trkpt lat="43.16472" lon="0.04253">
        <ele>427.6</ele>
        <time>2022-09-07T09:44:37Z</time>
      </trkpt>
      <trkpt lat="43.16471" lon="0.04246">
        <ele>427.2</ele>
        <time>2022-09-07T09:44:38Z</time>
      </trkpt>
      <trkpt lat="43.1647" lon="0.04239">
        <ele>426.6</ele>
        <time>2022-09-07T09:44:39Z</time>
      </trkpt>
      <trkpt lat="43.16468" lon="0.04233">
        <ele>425.8</ele>
        <time>2022-09-07T09:44:40Z</time>
      </trkpt>
      <trkpt lat="43.16466" lon="0.04228">
        <ele>425.2</ele>
        <time>2022-09-07T09:44:41Z</time>
      </trkpt>
      <trkpt lat="43.16463" lon="0.04224">
        <ele>424.6</ele>
        <time>2022-09-07T09:44:42Z</time>
      </trkpt>
      <trkpt lat="43.16461" lon="0.0422">
        <ele>423.8</ele>
        <time>2022-09-07T09:44:43Z</time>
      </trkpt>
      <trkpt lat="43.16453" lon="0.04217">
        <ele>422.6</ele>
        <time>2022-09-07T09:44:45Z</time>
      </trkpt>
      <trkpt lat="43.16448" lon="0.04217">
        <ele>422</ele>
        <time>2022-09-07T09:44:46Z</time>
      </trkpt>
      <trkpt lat="43.16442" lon="0.04217">
        <ele>421.4</ele>
        <time>2022-09-07T09:44:47Z</time>
      </trkpt>
      <trkpt lat="43.1643" lon="0.0422">
        <ele>420.4</ele>
        <time>2022-09-07T09:44:49Z</time>
      </trkpt>
      <trkpt lat="43.16425" lon="0.04222">
        <ele>420.2</ele>
        <time>2022-09-07T09:44:50Z</time>
      </trkpt>
      <trkpt lat="43.16412" lon="0.04226">
        <ele>419</ele>
        <time>2022-09-07T09:44:53Z</time>
      </trkpt>
      <trkpt lat="43.16409" lon="0.04227">
        <ele>418.6</ele>
        <time>2022-09-07T09:44:54Z</time>
      </trkpt>
      <trkpt lat="43.16403" lon="0.04226">
        <ele>417.8</ele>
        <time>2022-09-07T09:44:56Z</time>
      </trkpt>
      <trkpt lat="43.16394" lon="0.04224">
        <ele>417</ele>
        <time>2022-09-07T09:44:58Z</time>
      </trkpt>
      <trkpt lat="43.16388" lon="0.04225">
        <ele>416.8</ele>
        <time>2022-09-07T09:44:59Z</time>
      </trkpt>
      <trkpt lat="43.16376" lon="0.04231">
        <ele>415.8</ele>
        <time>2022-09-07T09:45:01Z</time>
      </trkpt>
      <trkpt lat="43.16369" lon="0.04236">
        <ele>415.4</ele>
        <time>2022-09-07T09:45:02Z</time>
      </trkpt>
      <trkpt lat="43.16362" lon="0.04242">
        <ele>414.8</ele>
        <time>2022-09-07T09:45:03Z</time>
      </trkpt>
      <trkpt lat="43.16355" lon="0.04249">
        <ele>413.2</ele>
        <time>2022-09-07T09:45:04Z</time>
      </trkpt>
      <trkpt lat="43.16348" lon="0.04257">
        <ele>412.6</ele>
        <time>2022-09-07T09:45:05Z</time>
      </trkpt>
      <trkpt lat="43.16341" lon="0.04265">
        <ele>412</ele>
        <time>2022-09-07T09:45:06Z</time>
      </trkpt>
      <trkpt lat="43.16327" lon="0.04281">
        <ele>410.4</ele>
        <time>2022-09-07T09:45:08Z</time>
      </trkpt>
      <trkpt lat="43.16321" lon="0.04291">
        <ele>409.6</ele>
        <time>2022-09-07T09:45:09Z</time>
      </trkpt>
      <trkpt lat="43.16317" lon="0.04302">
        <ele>408.4</ele>
        <time>2022-09-07T09:45:10Z</time>
      </trkpt>
      <trkpt lat="43.16313" lon="0.04314">
        <ele>407.4</ele>
        <time>2022-09-07T09:45:11Z</time>
      </trkpt>
      <trkpt lat="43.16309" lon="0.04326">
        <ele>406.2</ele>
        <time>2022-09-07T09:45:12Z</time>
      </trkpt>
      <trkpt lat="43.16306" lon="0.04338">
        <ele>405.8</ele>
        <time>2022-09-07T09:45:13Z</time>
      </trkpt>
      <trkpt lat="43.16303" lon="0.0435">
        <ele>405.2</ele>
        <time>2022-09-07T09:45:14Z</time>
      </trkpt>
      <trkpt lat="43.16296" lon="0.04369">
        <ele>403.6</ele>
        <time>2022-09-07T09:45:16Z</time>
      </trkpt>
      <trkpt lat="43.16291" lon="0.04376">
        <ele>402.4</ele>
        <time>2022-09-07T09:45:17Z</time>
      </trkpt>
      <trkpt lat="43.16278" lon="0.04378">
        <ele>401</ele>
        <time>2022-09-07T09:45:19Z</time>
      </trkpt>
      <trkpt lat="43.16269" lon="0.04368">
        <ele>399.8</ele>
        <time>2022-09-07T09:45:21Z</time>
      </trkpt>
      <trkpt lat="43.16266" lon="0.04359">
        <ele>398.8</ele>
        <time>2022-09-07T09:45:22Z</time>
      </trkpt>
      <trkpt lat="43.16264" lon="0.0435">
        <ele>398.4</ele>
        <time>2022-09-07T09:45:23Z</time>
      </trkpt>
      <trkpt lat="43.16261" lon="0.04328">
        <ele>396.8</ele>
        <time>2022-09-07T09:45:25Z</time>
      </trkpt>
      <trkpt lat="43.1626" lon="0.04316">
        <ele>396</ele>
        <time>2022-09-07T09:45:26Z</time>
      </trkpt>
      <trkpt lat="43.16259" lon="0.04303">
        <ele>395.2</ele>
        <time>2022-09-07T09:45:27Z</time>
      </trkpt>
      <trkpt lat="43.16258" lon="0.04288">
        <ele>393</ele>
        <time>2022-09-07T09:45:28Z</time>
      </trkpt>
      <trkpt lat="43.16257" lon="0.04274">
        <ele>391.6</ele>
        <time>2022-09-07T09:45:29Z</time>
      </trkpt>
      <trkpt lat="43.16256" lon="0.0426">
        <ele>390.4</ele>
        <time>2022-09-07T09:45:30Z</time>
      </trkpt>
      <trkpt lat="43.16254" lon="0.04244">
        <ele>389.2</ele>
        <time>2022-09-07T09:45:31Z</time>
      </trkpt>
      <trkpt lat="43.16252" lon="0.04215">
        <ele>387.6</ele>
        <time>2022-09-07T09:45:33Z</time>
      </trkpt>
      <trkpt lat="43.16252" lon="0.04201">
        <ele>386.6</ele>
        <time>2022-09-07T09:45:34Z</time>
      </trkpt>
      <trkpt lat="43.16253" lon="0.04187">
        <ele>385.8</ele>
        <time>2022-09-07T09:45:35Z</time>
      </trkpt>
      <trkpt lat="43.16259" lon="0.04161">
        <ele>384.2</ele>
        <time>2022-09-07T09:45:37Z</time>
      </trkpt>
      <trkpt lat="43.16264" lon="0.04148">
        <ele>383.2</ele>
        <time>2022-09-07T09:45:38Z</time>
      </trkpt>
      <trkpt lat="43.16269" lon="0.04136">
        <ele>382.4</ele>
        <time>2022-09-07T09:45:39Z</time>
      </trkpt>
      <trkpt lat="43.16275" lon="0.04124">
        <ele>381.8</ele>
        <time>2022-09-07T09:45:40Z</time>
      </trkpt>
      <trkpt lat="43.16281" lon="0.04112">
        <ele>381.4</ele>
        <time>2022-09-07T09:45:41Z</time>
      </trkpt>
      <trkpt lat="43.16284" lon="0.04098">
        <ele>380.8</ele>
        <time>2022-09-07T09:45:42Z</time>
      </trkpt>
      <trkpt lat="43.16288" lon="0.04069">
        <ele>378.8</ele>
        <time>2022-09-07T09:45:44Z</time>
      </trkpt>
      <trkpt lat="43.16288" lon="0.04055">
        <ele>377.8</ele>
        <time>2022-09-07T09:45:45Z</time>
      </trkpt>
      <trkpt lat="43.16288" lon="0.04041">
        <ele>377</ele>
        <time>2022-09-07T09:45:46Z</time>
      </trkpt>
      <trkpt lat="43.1629" lon="0.04029">
        <ele>376.2</ele>
        <time>2022-09-07T09:45:47Z</time>
      </trkpt>
      <trkpt lat="43.16293" lon="0.04018">
        <ele>375.4</ele>
        <time>2022-09-07T09:45:48Z</time>
      </trkpt>
      <trkpt lat="43.16298" lon="0.04008">
        <ele>374.2</ele>
        <time>2022-09-07T09:45:49Z</time>
      </trkpt>
      <trkpt lat="43.16305" lon="0.03999">
        <ele>373.4</ele>
        <time>2022-09-07T09:45:50Z</time>
      </trkpt>
      <trkpt lat="43.16313" lon="0.03992">
        <ele>372.4</ele>
        <time>2022-09-07T09:45:51Z</time>
      </trkpt>
      <trkpt lat="43.16322" lon="0.03986">
        <ele>370</ele>
        <time>2022-09-07T09:45:52Z</time>
      </trkpt>
      <trkpt lat="43.16331" lon="0.03979">
        <ele>368.8</ele>
        <time>2022-09-07T09:45:53Z</time>
      </trkpt>
      <trkpt lat="43.1634" lon="0.03972">
        <ele>368.2</ele>
        <time>2022-09-07T09:45:54Z</time>
      </trkpt>
      <trkpt lat="43.16349" lon="0.03964">
        <ele>367.8</ele>
        <time>2022-09-07T09:45:55Z</time>
      </trkpt>
      <trkpt lat="43.16367" lon="0.0395">
        <ele>366.6</ele>
        <time>2022-09-07T09:45:57Z</time>
      </trkpt>
      <trkpt lat="43.16376" lon="0.03943">
        <ele>365.8</ele>
        <time>2022-09-07T09:45:58Z</time>
      </trkpt>
      <trkpt lat="43.16383" lon="0.03932">
        <ele>365.2</ele>
        <time>2022-09-07T09:45:59Z</time>
      </trkpt>
      <trkpt lat="43.16389" lon="0.0392">
        <ele>364</ele>
        <time>2022-09-07T09:46:00Z</time>
      </trkpt>
      <trkpt lat="43.16395" lon="0.03894">
        <ele>362.4</ele>
        <time>2022-09-07T09:46:02Z</time>
      </trkpt>
      <trkpt lat="43.16398" lon="0.0388">
        <ele>361.4</ele>
        <time>2022-09-07T09:46:03Z</time>
      </trkpt>
      <trkpt lat="43.16403" lon="0.03867">
        <ele>360</ele>
        <time>2022-09-07T09:46:04Z</time>
      </trkpt>
      <trkpt lat="43.16413" lon="0.03841">
        <ele>358.4</ele>
        <time>2022-09-07T09:46:06Z</time>
      </trkpt>
      <trkpt lat="43.16425" lon="0.03818">
        <ele>357</ele>
        <time>2022-09-07T09:46:08Z</time>
      </trkpt>
      <trkpt lat="43.16431" lon="0.03808">
        <ele>356.4</ele>
        <time>2022-09-07T09:46:09Z</time>
      </trkpt>
      <trkpt lat="43.16438" lon="0.03798">
        <ele>355.2</ele>
        <time>2022-09-07T09:46:10Z</time>
      </trkpt>
      <trkpt lat="43.16445" lon="0.03788">
        <ele>353.8</ele>
        <time>2022-09-07T09:46:11Z</time>
      </trkpt>
      <trkpt lat="43.16452" lon="0.03779">
        <ele>352.6</ele>
        <time>2022-09-07T09:46:12Z</time>
      </trkpt>
      <trkpt lat="43.16466" lon="0.0376">
        <ele>351</ele>
        <time>2022-09-07T09:46:14Z</time>
      </trkpt>
      <trkpt lat="43.16472" lon="0.03749">
        <ele>349.8</ele>
        <time>2022-09-07T09:46:15Z</time>
      </trkpt>
      <trkpt lat="43.16477" lon="0.03739">
        <ele>347.8</ele>
        <time>2022-09-07T09:46:16Z</time>
      </trkpt>
      <trkpt lat="43.16485" lon="0.03715">
        <ele>346.2</ele>
        <time>2022-09-07T09:46:18Z</time>
      </trkpt>
      <trkpt lat="43.16488" lon="0.03702">
        <ele>345.8</ele>
        <time>2022-09-07T09:46:19Z</time>
      </trkpt>
      <trkpt lat="43.1649" lon="0.03689">
        <ele>345.4</ele>
        <time>2022-09-07T09:46:20Z</time>
      </trkpt>
      <trkpt lat="43.16491" lon="0.03677">
        <ele>345.2</ele>
        <time>2022-09-07T09:46:21Z</time>
      </trkpt>
      <trkpt lat="43.16493" lon="0.03654">
        <ele>344</ele>
        <time>2022-09-07T09:46:23Z</time>
      </trkpt>
      <trkpt lat="43.16494" lon="0.03645">
        <ele>343.4</ele>
        <time>2022-09-07T09:46:24Z</time>
      </trkpt>
      <trkpt lat="43.16496" lon="0.0362">
        <ele>342.4</ele>
        <time>2022-09-07T09:46:27Z</time>
      </trkpt>
      <trkpt lat="43.16497" lon="0.03606">
        <ele>341.6</ele>
        <time>2022-09-07T09:46:29Z</time>
      </trkpt>
      <trkpt lat="43.16499" lon="0.03599">
        <ele>341.4</ele>
        <time>2022-09-07T09:46:30Z</time>
      </trkpt>
      <trkpt lat="43.16504" lon="0.03584">
        <ele>341.2</ele>
        <time>2022-09-07T09:46:33Z</time>
      </trkpt>
      <trkpt lat="43.16509" lon="0.03576">
        <ele>341</ele>
        <time>2022-09-07T09:46:37Z</time>
      </trkpt>
      <trkpt lat="43.16509" lon="0.03571">
        <ele>341</ele>
        <time>2022-09-07T09:46:39Z</time>
      </trkpt>
      <trkpt lat="43.16506" lon="0.03567">
        <ele>341</ele>
        <time>2022-09-07T09:46:41Z</time>
      </trkpt>
      <trkpt lat="43.16498" lon="0.0357">
        <ele>340.8</ele>
        <time>2022-09-07T09:46:44Z</time>
      </trkpt>
      <trkpt lat="43.16493" lon="0.03573">
        <ele>340.8</ele>
        <time>2022-09-07T09:46:46Z</time>
      </trkpt>
      <trkpt lat="43.16465" lon="0.03581">
        <ele>341.2</ele>
        <time>2022-09-07T09:46:54Z</time>
      </trkpt>
      <trkpt lat="43.1643" lon="0.03592">
        <ele>341.4</ele>
        <time>2022-09-07T09:47:03Z</time>
      </trkpt>
      <trkpt lat="43.16392" lon="0.03591">
        <ele>342</ele>
        <time>2022-09-07T09:47:13Z</time>
      </trkpt>
      <trkpt lat="43.16369" lon="0.03588">
        <ele>342.4</ele>
        <time>2022-09-07T09:47:19Z</time>
      </trkpt>
      <trkpt lat="43.16358" lon="0.03587">
        <ele>342.6</ele>
        <time>2022-09-07T09:47:22Z</time>
      </trkpt>
      <trkpt lat="43.1634" lon="0.03582">
        <ele>342.4</ele>
        <time>2022-09-07T09:47:28Z</time>
      </trkpt>
      <trkpt lat="43.16322" lon="0.03579">
        <ele>342.4</ele>
        <time>2022-09-07T09:47:35Z</time>
      </trkpt>
      <trkpt lat="43.16309" lon="0.03577">
        <ele>342.2</ele>
        <time>2022-09-07T09:47:41Z</time>
      </trkpt>
      <trkpt lat="43.16287" lon="0.03573">
        <ele>342.4</ele>
        <time>2022-09-07T09:47:49Z</time>
      </trkpt>
      <trkpt lat="43.16265" lon="0.03568">
        <ele>341.8</ele>
        <time>2022-09-07T09:47:56Z</time>
      </trkpt>
      <trkpt lat="43.16255" lon="0.03564">
        <ele>341.4</ele>
        <time>2022-09-07T09:47:59Z</time>
      </trkpt>
      <trkpt lat="43.16241" lon="0.03558">
        <ele>341.4</ele>
        <time>2022-09-07T09:48:03Z</time>
      </trkpt>
      <trkpt lat="43.16209" lon="0.03546">
        <ele>341.6</ele>
        <time>2022-09-07T09:48:11Z</time>
      </trkpt>
      <trkpt lat="43.16173" lon="0.0353">
        <ele>342</ele>
        <time>2022-09-07T09:48:20Z</time>
      </trkpt>
      <trkpt lat="43.16137" lon="0.03509">
        <ele>342.2</ele>
        <time>2022-09-07T09:48:29Z</time>
      </trkpt>
      <trkpt lat="43.16113" lon="0.03498">
        <ele>342.4</ele>
        <time>2022-09-07T09:48:36Z</time>
      </trkpt>
      <trkpt lat="43.16106" lon="0.03495">
        <ele>342.6</ele>
        <time>2022-09-07T09:48:38Z</time>
      </trkpt>
      <trkpt lat="43.16083" lon="0.03485">
        <ele>342.4</ele>
        <time>2022-09-07T09:48:45Z</time>
      </trkpt>
      <trkpt lat="43.16053" lon="0.03474">
        <ele>342</ele>
        <time>2022-09-07T09:48:53Z</time>
      </trkpt>
      <trkpt lat="43.16049" lon="0.03474">
        <ele>342</ele>
        <time>2022-09-07T09:48:54Z</time>
      </trkpt>
      <trkpt lat="43.1603" lon="0.03476">
        <ele>341.8</ele>
        <time>2022-09-07T09:48:59Z</time>
      </trkpt>
      <trkpt lat="43.16018" lon="0.03474">
        <ele>342</ele>
        <time>2022-09-07T09:49:02Z</time>
      </trkpt>
      <trkpt lat="43.16011" lon="0.03469">
        <ele>342.2</ele>
        <time>2022-09-07T09:49:04Z</time>
      </trkpt>
      <trkpt lat="43.16002" lon="0.03458">
        <ele>342.2</ele>
        <time>2022-09-07T09:49:07Z</time>
      </trkpt>
      <trkpt lat="43.15999" lon="0.03454">
        <ele>342.2</ele>
        <time>2022-09-07T09:49:08Z</time>
      </trkpt>
      <trkpt lat="43.15991" lon="0.0345">
        <ele>342</ele>
        <time>2022-09-07T09:49:10Z</time>
      </trkpt>
      <trkpt lat="43.15975" lon="0.0345">
        <ele>342.4</ele>
        <time>2022-09-07T09:49:14Z</time>
      </trkpt>
      <trkpt lat="43.15971" lon="0.03452">
        <ele>342.6</ele>
        <time>2022-09-07T09:49:15Z</time>
      </trkpt>
      <trkpt lat="43.15955" lon="0.03462">
        <ele>342.4</ele>
        <time>2022-09-07T09:49:19Z</time>
      </trkpt>
      <trkpt lat="43.15947" lon="0.03468">
        <ele>342.4</ele>
        <time>2022-09-07T09:49:21Z</time>
      </trkpt>
      <trkpt lat="43.15923" lon="0.0349">
        <ele>343.2</ele>
        <time>2022-09-07T09:49:28Z</time>
      </trkpt>
      <trkpt lat="43.15913" lon="0.03501">
        <ele>343.6</ele>
        <time>2022-09-07T09:49:31Z</time>
      </trkpt>
      <trkpt lat="43.15892" lon="0.03519">
        <ele>344</ele>
        <time>2022-09-07T09:49:37Z</time>
      </trkpt>
      <trkpt lat="43.15872" lon="0.03524">
        <ele>344.6</ele>
        <time>2022-09-07T09:49:42Z</time>
      </trkpt>
      <trkpt lat="43.15863" lon="0.03524">
        <ele>344.8</ele>
        <time>2022-09-07T09:49:44Z</time>
      </trkpt>
      <trkpt lat="43.15835" lon="0.03522">
        <ele>345.6</ele>
        <time>2022-09-07T09:49:51Z</time>
      </trkpt>
      <trkpt lat="43.15832" lon="0.03522">
        <ele>345.8</ele>
        <time>2022-09-07T09:49:52Z</time>
      </trkpt>
      <trkpt lat="43.15807" lon="0.03516">
        <ele>347</ele>
        <time>2022-09-07T09:49:59Z</time>
      </trkpt>
      <trkpt lat="43.15781" lon="0.03511">
        <ele>347.6</ele>
        <time>2022-09-07T09:50:07Z</time>
      </trkpt>
      <trkpt lat="43.15768" lon="0.03508">
        <ele>348</ele>
        <time>2022-09-07T09:50:11Z</time>
      </trkpt>
      <trkpt lat="43.15743" lon="0.03502">
        <ele>348.8</ele>
        <time>2022-09-07T09:50:19Z</time>
      </trkpt>
      <trkpt lat="43.15737" lon="0.035">
        <ele>349.2</ele>
        <time>2022-09-07T09:50:21Z</time>
      </trkpt>
      <trkpt lat="43.15722" lon="0.03496">
        <ele>349.4</ele>
        <time>2022-09-07T09:50:26Z</time>
      </trkpt>
      <trkpt lat="43.157" lon="0.03491">
        <ele>350.2</ele>
        <time>2022-09-07T09:50:33Z</time>
      </trkpt>
      <trkpt lat="43.15677" lon="0.03493">
        <ele>351.2</ele>
        <time>2022-09-07T09:50:41Z</time>
      </trkpt>
      <trkpt lat="43.15674" lon="0.03493">
        <ele>351.2</ele>
        <time>2022-09-07T09:50:42Z</time>
      </trkpt>
      <trkpt lat="43.15662" lon="0.03484">
        <ele>351.4</ele>
        <time>2022-09-07T09:50:47Z</time>
      </trkpt>
      <trkpt lat="43.15658" lon="0.03475">
        <ele>351</ele>
        <time>2022-09-07T09:50:49Z</time>
      </trkpt>
      <trkpt lat="43.15653" lon="0.03457">
        <ele>350.4</ele>
        <time>2022-09-07T09:50:52Z</time>
      </trkpt>
      <trkpt lat="43.15651" lon="0.0345">
        <ele>350.2</ele>
        <time>2022-09-07T09:50:53Z</time>
      </trkpt>
      <trkpt lat="43.15642" lon="0.03408">
        <ele>349.4</ele>
        <time>2022-09-07T09:50:59Z</time>
      </trkpt>
      <trkpt lat="43.15638" lon="0.03396">
        <ele>349</ele>
        <time>2022-09-07T09:51:01Z</time>
      </trkpt>
      <trkpt lat="43.15636" lon="0.0339">
        <ele>349</ele>
        <time>2022-09-07T09:51:02Z</time>
      </trkpt>
      <trkpt lat="43.15628" lon="0.03366">
        <ele>349.4</ele>
        <time>2022-09-07T09:51:06Z</time>
      </trkpt>
      <trkpt lat="43.15608" lon="0.03323">
        <ele>349.2</ele>
        <time>2022-09-07T09:51:14Z</time>
      </trkpt>
      <trkpt lat="43.15585" lon="0.03282">
        <ele>349.4</ele>
        <time>2022-09-07T09:51:22Z</time>
      </trkpt>
      <trkpt lat="43.1556" lon="0.03246">
        <ele>348.6</ele>
        <time>2022-09-07T09:51:30Z</time>
      </trkpt>
      <trkpt lat="43.15542" lon="0.03214">
        <ele>348.8</ele>
        <time>2022-09-07T09:51:37Z</time>
      </trkpt>
      <trkpt lat="43.1554" lon="0.03209">
        <ele>348.8</ele>
        <time>2022-09-07T09:51:38Z</time>
      </trkpt>
      <trkpt lat="43.15536" lon="0.03199">
        <ele>348.6</ele>
        <time>2022-09-07T09:51:40Z</time>
      </trkpt>
      <trkpt lat="43.15531" lon="0.03183">
        <ele>348.2</ele>
        <time>2022-09-07T09:51:43Z</time>
      </trkpt>
      <trkpt lat="43.15528" lon="0.03171">
        <ele>347.8</ele>
        <time>2022-09-07T09:51:45Z</time>
      </trkpt>
      <trkpt lat="43.15517" lon="0.03141">
        <ele>347.4</ele>
        <time>2022-09-07T09:51:50Z</time>
      </trkpt>
      <trkpt lat="43.15512" lon="0.03128">
        <ele>346.8</ele>
        <time>2022-09-07T09:51:52Z</time>
      </trkpt>
      <trkpt lat="43.15499" lon="0.03096">
        <ele>346.8</ele>
        <time>2022-09-07T09:51:57Z</time>
      </trkpt>
      <trkpt lat="43.15478" lon="0.03051">
        <ele>345.8</ele>
        <time>2022-09-07T09:52:06Z</time>
      </trkpt>
      <trkpt lat="43.15473" lon="0.03041">
        <ele>345.6</ele>
        <time>2022-09-07T09:52:08Z</time>
      </trkpt>
      <trkpt lat="43.15463" lon="0.03023">
        <ele>345.8</ele>
        <time>2022-09-07T09:52:12Z</time>
      </trkpt>
      <trkpt lat="43.15445" lon="0.02988">
        <ele>345.8</ele>
        <time>2022-09-07T09:52:19Z</time>
      </trkpt>
      <trkpt lat="43.15443" lon="0.02982">
        <ele>345.8</ele>
        <time>2022-09-07T09:52:20Z</time>
      </trkpt>
      <trkpt lat="43.15433" lon="0.02942">
        <ele>346.2</ele>
        <time>2022-09-07T09:52:27Z</time>
      </trkpt>
      <trkpt lat="43.15432" lon="0.02936">
        <ele>346</ele>
        <time>2022-09-07T09:52:28Z</time>
      </trkpt>
      <trkpt lat="43.15421" lon="0.02891">
        <ele>346</ele>
        <time>2022-09-07T09:52:36Z</time>
      </trkpt>
      <trkpt lat="43.15408" lon="0.0284">
        <ele>346.2</ele>
        <time>2022-09-07T09:52:45Z</time>
      </trkpt>
      <trkpt lat="43.15405" lon="0.02829">
        <ele>346.6</ele>
        <time>2022-09-07T09:52:47Z</time>
      </trkpt>
      <trkpt lat="43.154" lon="0.02807">
        <ele>346.2</ele>
        <time>2022-09-07T09:52:51Z</time>
      </trkpt>
      <trkpt lat="43.15394" lon="0.02755">
        <ele>346.4</ele>
        <time>2022-09-07T09:53:00Z</time>
      </trkpt>
      <trkpt lat="43.15395" lon="0.02722">
        <ele>347</ele>
        <time>2022-09-07T09:53:06Z</time>
      </trkpt>
      <trkpt lat="43.15395" lon="0.02717">
        <ele>347</ele>
        <time>2022-09-07T09:53:07Z</time>
      </trkpt>
      <trkpt lat="43.15391" lon="0.02689">
        <ele>347.6</ele>
        <time>2022-09-07T09:53:13Z</time>
      </trkpt>
      <trkpt lat="43.15387" lon="0.02654">
        <ele>348</ele>
        <time>2022-09-07T09:53:20Z</time>
      </trkpt>
      <trkpt lat="43.15385" lon="0.02639">
        <ele>348</ele>
        <time>2022-09-07T09:53:23Z</time>
      </trkpt>
      <trkpt lat="43.15379" lon="0.02605">
        <ele>348.2</ele>
        <time>2022-09-07T09:53:30Z</time>
      </trkpt>
      <trkpt lat="43.1537" lon="0.0258">
        <ele>348.2</ele>
        <time>2022-09-07T09:53:36Z</time>
      </trkpt>
      <trkpt lat="43.15355" lon="0.02571">
        <ele>348.6</ele>
        <time>2022-09-07T09:53:41Z</time>
      </trkpt>
      <trkpt lat="43.15328" lon="0.02572">
        <ele>348.8</ele>
        <time>2022-09-07T09:53:48Z</time>
      </trkpt>
      <trkpt lat="43.15325" lon="0.02572">
        <ele>349</ele>
        <time>2022-09-07T09:53:49Z</time>
      </trkpt>
      <trkpt lat="43.15314" lon="0.02572">
        <ele>349.4</ele>
        <time>2022-09-07T09:53:53Z</time>
      </trkpt>
      <trkpt lat="43.15309" lon="0.02563">
        <ele>350</ele>
        <time>2022-09-07T09:53:57Z</time>
      </trkpt>
      <trkpt lat="43.1531" lon="0.02555">
        <ele>350</ele>
        <time>2022-09-07T09:53:59Z</time>
      </trkpt>
      <trkpt lat="43.15309" lon="0.02542">
        <ele>350.2</ele>
        <time>2022-09-07T09:54:02Z</time>
      </trkpt>
      <trkpt lat="43.1531" lon="0.02511">
        <ele>349.4</ele>
        <time>2022-09-07T09:54:09Z</time>
      </trkpt>
      <trkpt lat="43.15309" lon="0.025">
        <ele>349</ele>
        <time>2022-09-07T09:54:13Z</time>
      </trkpt>
      <trkpt lat="43.15307" lon="0.02498">
        <ele>349</ele>
        <time>2022-09-07T09:54:14Z</time>
      </trkpt>
      <trkpt lat="43.153" lon="0.02492">
        <ele>349.2</ele>
        <time>2022-09-07T09:54:17Z</time>
      </trkpt>
      <trkpt lat="43.15282" lon="0.02487">
        <ele>349.6</ele>
        <time>2022-09-07T09:54:22Z</time>
      </trkpt>
      <trkpt lat="43.15267" lon="0.02486">
        <ele>350</ele>
        <time>2022-09-07T09:54:26Z</time>
      </trkpt>
      <trkpt lat="43.15256" lon="0.02485">
        <ele>350.2</ele>
        <time>2022-09-07T09:54:29Z</time>
      </trkpt>
      <trkpt lat="43.15235" lon="0.02476">
        <ele>350.2</ele>
        <time>2022-09-07T09:54:35Z</time>
      </trkpt>
      <trkpt lat="43.15222" lon="0.02459">
        <ele>350.4</ele>
        <time>2022-09-07T09:54:40Z</time>
      </trkpt>
      <trkpt lat="43.15203" lon="0.02435">
        <ele>350.8</ele>
        <time>2022-09-07T09:54:47Z</time>
      </trkpt>
      <trkpt lat="43.15183" lon="0.02419">
        <ele>350.8</ele>
        <time>2022-09-07T09:54:53Z</time>
      </trkpt>
      <trkpt lat="43.15172" lon="0.02418">
        <ele>351.2</ele>
        <time>2022-09-07T09:54:56Z</time>
      </trkpt>
      <trkpt lat="43.1516" lon="0.02418">
        <ele>351</ele>
        <time>2022-09-07T09:54:59Z</time>
      </trkpt>
      <trkpt lat="43.15134" lon="0.02421">
        <ele>350.6</ele>
        <time>2022-09-07T09:55:06Z</time>
      </trkpt>
      <trkpt lat="43.151" lon="0.02426">
        <ele>350.6</ele>
        <time>2022-09-07T09:55:15Z</time>
      </trkpt>
      <trkpt lat="43.15073" lon="0.02427">
        <ele>350.8</ele>
        <time>2022-09-07T09:55:22Z</time>
      </trkpt>
      <trkpt lat="43.15041" lon="0.02419">
        <ele>352</ele>
        <time>2022-09-07T09:55:30Z</time>
      </trkpt>
      <trkpt lat="43.15037" lon="0.02419">
        <ele>352.2</ele>
        <time>2022-09-07T09:55:31Z</time>
      </trkpt>
      <trkpt lat="43.15011" lon="0.02415">
        <ele>352.6</ele>
        <time>2022-09-07T09:55:38Z</time>
      </trkpt>
      <trkpt lat="43.14978" lon="0.02411">
        <ele>352.8</ele>
        <time>2022-09-07T09:55:46Z</time>
      </trkpt>
      <trkpt lat="43.14937" lon="0.02405">
        <ele>352.8</ele>
        <time>2022-09-07T09:55:55Z</time>
      </trkpt>
      <trkpt lat="43.14901" lon="0.02403">
        <ele>352.8</ele>
        <time>2022-09-07T09:56:03Z</time>
      </trkpt>
      <trkpt lat="43.14892" lon="0.02405">
        <ele>352.8</ele>
        <time>2022-09-07T09:56:05Z</time>
      </trkpt>
      <trkpt lat="43.14858" lon="0.02416">
        <ele>353</ele>
        <time>2022-09-07T09:56:13Z</time>
      </trkpt>
      <trkpt lat="43.14846" lon="0.02421">
        <ele>353.4</ele>
        <time>2022-09-07T09:56:16Z</time>
      </trkpt>
      <trkpt lat="43.14824" lon="0.02425">
        <ele>353.6</ele>
        <time>2022-09-07T09:56:21Z</time>
      </trkpt>
      <trkpt lat="43.14793" lon="0.02425">
        <ele>354.2</ele>
        <time>2022-09-07T09:56:28Z</time>
      </trkpt>
      <trkpt lat="43.14788" lon="0.02424">
        <ele>354.4</ele>
        <time>2022-09-07T09:56:29Z</time>
      </trkpt>
      <trkpt lat="43.14751" lon="0.02415">
        <ele>354.2</ele>
        <time>2022-09-07T09:56:37Z</time>
      </trkpt>
      <trkpt lat="43.14708" lon="0.02404">
        <ele>354.8</ele>
        <time>2022-09-07T09:56:46Z</time>
      </trkpt>
      <trkpt lat="43.14675" lon="0.02407">
        <ele>354.8</ele>
        <time>2022-09-07T09:56:53Z</time>
      </trkpt>
      <trkpt lat="43.14645" lon="0.02412">
        <ele>354.6</ele>
        <time>2022-09-07T09:57:00Z</time>
      </trkpt>
      <trkpt lat="43.14618" lon="0.02418">
        <ele>354.6</ele>
        <time>2022-09-07T09:57:07Z</time>
      </trkpt>
      <trkpt lat="43.14594" lon="0.02426">
        <ele>354.2</ele>
        <time>2022-09-07T09:57:14Z</time>
      </trkpt>
      <trkpt lat="43.14581" lon="0.02425">
        <ele>354.4</ele>
        <time>2022-09-07T09:57:20Z</time>
      </trkpt>
      <trkpt lat="43.14574" lon="0.02421">
        <ele>354.2</ele>
        <time>2022-09-07T09:57:26Z</time>
      </trkpt>
      <trkpt lat="43.14575" lon="0.0243">
        <ele>354.6</ele>
        <time>2022-09-07T10:01:37Z</time>
      </trkpt>
      <trkpt lat="43.14574" lon="0.02435">
        <ele>354.4</ele>
        <time>2022-09-07T10:01:39Z</time>
      </trkpt>
      <trkpt lat="43.14564" lon="0.02442">
        <ele>354.4</ele>
        <time>2022-09-07T10:01:43Z</time>
      </trkpt>
      <trkpt lat="43.14544" lon="0.02456">
        <ele>354.6</ele>
        <time>2022-09-07T10:01:51Z</time>
      </trkpt>
      <trkpt lat="43.14523" lon="0.02471">
        <ele>354.4</ele>
        <time>2022-09-07T10:01:58Z</time>
      </trkpt>
      <trkpt lat="43.14506" lon="0.02481">
        <ele>354.4</ele>
        <time>2022-09-07T10:02:03Z</time>
      </trkpt>
      <trkpt lat="43.14487" lon="0.02493">
        <ele>354.6</ele>
        <time>2022-09-07T10:02:09Z</time>
      </trkpt>
      <trkpt lat="43.14461" lon="0.02505">
        <ele>354.8</ele>
        <time>2022-09-07T10:02:16Z</time>
      </trkpt>
      <trkpt lat="43.14422" lon="0.02522">
        <ele>355.2</ele>
        <time>2022-09-07T10:02:26Z</time>
      </trkpt>
      <trkpt lat="43.14391" lon="0.02536">
        <ele>355.6</ele>
        <time>2022-09-07T10:02:34Z</time>
      </trkpt>
      <trkpt lat="43.14384" lon="0.0254">
        <ele>355.4</ele>
        <time>2022-09-07T10:02:36Z</time>
      </trkpt>
      <trkpt lat="43.14336" lon="0.02561">
        <ele>355.6</ele>
        <time>2022-09-07T10:02:48Z</time>
      </trkpt>
      <trkpt lat="43.14306" lon="0.02574">
        <ele>355.8</ele>
        <time>2022-09-07T10:02:56Z</time>
      </trkpt>
      <trkpt lat="43.1427" lon="0.02589">
        <ele>355.8</ele>
        <time>2022-09-07T10:03:05Z</time>
      </trkpt>
      <trkpt lat="43.14243" lon="0.02607">
        <ele>356.2</ele>
        <time>2022-09-07T10:03:12Z</time>
      </trkpt>
      <trkpt lat="43.14232" lon="0.02631">
        <ele>356.6</ele>
        <time>2022-09-07T10:03:17Z</time>
      </trkpt>
      <trkpt lat="43.14229" lon="0.02649">
        <ele>356.6</ele>
        <time>2022-09-07T10:03:20Z</time>
      </trkpt>
      <trkpt lat="43.14225" lon="0.02673">
        <ele>356.8</ele>
        <time>2022-09-07T10:03:24Z</time>
      </trkpt>
      <trkpt lat="43.14223" lon="0.02679">
        <ele>357</ele>
        <time>2022-09-07T10:03:25Z</time>
      </trkpt>
      <trkpt lat="43.14214" lon="0.02698">
        <ele>357</ele>
        <time>2022-09-07T10:03:29Z</time>
      </trkpt>
      <trkpt lat="43.14208" lon="0.02705">
        <ele>357.4</ele>
        <time>2022-09-07T10:03:31Z</time>
      </trkpt>
      <trkpt lat="43.14193" lon="0.02717">
        <ele>357.4</ele>
        <time>2022-09-07T10:03:35Z</time>
      </trkpt>
      <trkpt lat="43.14173" lon="0.0273">
        <ele>357.6</ele>
        <time>2022-09-07T10:03:40Z</time>
      </trkpt>
      <trkpt lat="43.1416" lon="0.02736">
        <ele>357.6</ele>
        <time>2022-09-07T10:03:43Z</time>
      </trkpt>
      <trkpt lat="43.14117" lon="0.02757">
        <ele>357.6</ele>
        <time>2022-09-07T10:03:53Z</time>
      </trkpt>
      <trkpt lat="43.1407" lon="0.02778">
        <ele>358.6</ele>
        <time>2022-09-07T10:04:04Z</time>
      </trkpt>
      <trkpt lat="43.14034" lon="0.02802">
        <ele>359.2</ele>
        <time>2022-09-07T10:04:13Z</time>
      </trkpt>
      <trkpt lat="43.14016" lon="0.02817">
        <ele>359.6</ele>
        <time>2022-09-07T10:04:18Z</time>
      </trkpt>
      <trkpt lat="43.13994" lon="0.02829">
        <ele>359.6</ele>
        <time>2022-09-07T10:04:23Z</time>
      </trkpt>
      <trkpt lat="43.13964" lon="0.02841">
        <ele>359.8</ele>
        <time>2022-09-07T10:04:30Z</time>
      </trkpt>
      <trkpt lat="43.13955" lon="0.02846">
        <ele>360</ele>
        <time>2022-09-07T10:04:32Z</time>
      </trkpt>
      <trkpt lat="43.13941" lon="0.02861">
        <ele>360.2</ele>
        <time>2022-09-07T10:04:36Z</time>
      </trkpt>
      <trkpt lat="43.13919" lon="0.02894">
        <ele>360</ele>
        <time>2022-09-07T10:04:43Z</time>
      </trkpt>
      <trkpt lat="43.13894" lon="0.02934">
        <ele>360.2</ele>
        <time>2022-09-07T10:04:51Z</time>
      </trkpt>
      <trkpt lat="43.13869" lon="0.02976">
        <ele>360.2</ele>
        <time>2022-09-07T10:04:59Z</time>
      </trkpt>
      <trkpt lat="43.13845" lon="0.03018">
        <ele>360.6</ele>
        <time>2022-09-07T10:05:07Z</time>
      </trkpt>
      <trkpt lat="43.13836" lon="0.03033">
        <ele>360.8</ele>
        <time>2022-09-07T10:05:10Z</time>
      </trkpt>
      <trkpt lat="43.13818" lon="0.03056">
        <ele>361</ele>
        <time>2022-09-07T10:05:15Z</time>
      </trkpt>
      <trkpt lat="43.13785" lon="0.03095">
        <ele>361</ele>
        <time>2022-09-07T10:05:24Z</time>
      </trkpt>
      <trkpt lat="43.13757" lon="0.03135">
        <ele>360.8</ele>
        <time>2022-09-07T10:05:32Z</time>
      </trkpt>
      <trkpt lat="43.13722" lon="0.03192">
        <ele>360.6</ele>
        <time>2022-09-07T10:05:42Z</time>
      </trkpt>
      <trkpt lat="43.13689" lon="0.03252">
        <ele>360.8</ele>
        <time>2022-09-07T10:05:52Z</time>
      </trkpt>
      <trkpt lat="43.13686" lon="0.03258">
        <ele>360.6</ele>
        <time>2022-09-07T10:05:53Z</time>
      </trkpt>
      <trkpt lat="43.13668" lon="0.0331">
        <ele>361.4</ele>
        <time>2022-09-07T10:06:01Z</time>
      </trkpt>
      <trkpt lat="43.13664" lon="0.03329">
        <ele>361.8</ele>
        <time>2022-09-07T10:06:04Z</time>
      </trkpt>
      <trkpt lat="43.13652" lon="0.03361">
        <ele>362.8</ele>
        <time>2022-09-07T10:06:10Z</time>
      </trkpt>
      <trkpt lat="43.1365" lon="0.03365">
        <ele>363</ele>
        <time>2022-09-07T10:06:11Z</time>
      </trkpt>
      <trkpt lat="43.13637" lon="0.03384">
        <ele>363.8</ele>
        <time>2022-09-07T10:06:16Z</time>
      </trkpt>
      <trkpt lat="43.13631" lon="0.0339">
        <ele>364.2</ele>
        <time>2022-09-07T10:06:18Z</time>
      </trkpt>
      <trkpt lat="43.13614" lon="0.0341">
        <ele>364.2</ele>
        <time>2022-09-07T10:06:24Z</time>
      </trkpt>
      <trkpt lat="43.13591" lon="0.03433">
        <ele>365</ele>
        <time>2022-09-07T10:06:32Z</time>
      </trkpt>
      <trkpt lat="43.13581" lon="0.03441">
        <ele>365.2</ele>
        <time>2022-09-07T10:06:35Z</time>
      </trkpt>
      <trkpt lat="43.13566" lon="0.03453">
        <ele>365.8</ele>
        <time>2022-09-07T10:06:40Z</time>
      </trkpt>
      <trkpt lat="43.13545" lon="0.03467">
        <ele>366.2</ele>
        <time>2022-09-07T10:06:46Z</time>
      </trkpt>
      <trkpt lat="43.13537" lon="0.03471">
        <ele>366.6</ele>
        <time>2022-09-07T10:06:48Z</time>
      </trkpt>
      <trkpt lat="43.13507" lon="0.03489">
        <ele>367</ele>
        <time>2022-09-07T10:06:56Z</time>
      </trkpt>
      <trkpt lat="43.13483" lon="0.03503">
        <ele>367.2</ele>
        <time>2022-09-07T10:07:02Z</time>
      </trkpt>
      <trkpt lat="43.13468" lon="0.03512">
        <ele>367.8</ele>
        <time>2022-09-07T10:07:06Z</time>
      </trkpt>
      <trkpt lat="43.13442" lon="0.03531">
        <ele>368.4</ele>
        <time>2022-09-07T10:07:13Z</time>
      </trkpt>
      <trkpt lat="43.13438" lon="0.03533">
        <ele>368.8</ele>
        <time>2022-09-07T10:07:14Z</time>
      </trkpt>
      <trkpt lat="43.13434" lon="0.03535">
        <ele>368.6</ele>
        <time>2022-09-07T10:07:15Z</time>
      </trkpt>
      <trkpt lat="43.1343" lon="0.03538">
        <ele>368.4</ele>
        <time>2022-09-07T10:07:16Z</time>
      </trkpt>
      <trkpt lat="43.13409" lon="0.03556">
        <ele>367.8</ele>
        <time>2022-09-07T10:07:22Z</time>
      </trkpt>
      <trkpt lat="43.13388" lon="0.03576">
        <ele>367.8</ele>
        <time>2022-09-07T10:07:29Z</time>
      </trkpt>
      <trkpt lat="43.13372" lon="0.03589">
        <ele>367.8</ele>
        <time>2022-09-07T10:07:36Z</time>
      </trkpt>
      <trkpt lat="43.13362" lon="0.03597">
        <ele>367.6</ele>
        <time>2022-09-07T10:07:44Z</time>
      </trkpt>
      <trkpt lat="43.13361" lon="0.03599">
        <ele>367.4</ele>
        <time>2022-09-07T10:08:19Z</time>
      </trkpt>
      <trkpt lat="43.13357" lon="0.03602">
        <ele>367.4</ele>
        <time>2022-09-07T10:08:21Z</time>
      </trkpt>
      <trkpt lat="43.13348" lon="0.03607">
        <ele>367.4</ele>
        <time>2022-09-07T10:08:24Z</time>
      </trkpt>
      <trkpt lat="43.13341" lon="0.03613">
        <ele>367.2</ele>
        <time>2022-09-07T10:08:26Z</time>
      </trkpt>
      <trkpt lat="43.13314" lon="0.03634">
        <ele>367</ele>
        <time>2022-09-07T10:08:34Z</time>
      </trkpt>
      <trkpt lat="43.13276" lon="0.03662">
        <ele>367</ele>
        <time>2022-09-07T10:08:44Z</time>
      </trkpt>
      <trkpt lat="43.13245" lon="0.03686">
        <ele>366.8</ele>
        <time>2022-09-07T10:08:52Z</time>
      </trkpt>
      <trkpt lat="43.13241" lon="0.03689">
        <ele>366.8</ele>
        <time>2022-09-07T10:08:53Z</time>
      </trkpt>
      <trkpt lat="43.13213" lon="0.0371">
        <ele>366.8</ele>
        <time>2022-09-07T10:09:00Z</time>
      </trkpt>
      <trkpt lat="43.13179" lon="0.03731">
        <ele>367</ele>
        <time>2022-09-07T10:09:08Z</time>
      </trkpt>
      <trkpt lat="43.13145" lon="0.03741">
        <ele>368</ele>
        <time>2022-09-07T10:09:16Z</time>
      </trkpt>
      <trkpt lat="43.13129" lon="0.03743">
        <ele>368.4</ele>
        <time>2022-09-07T10:09:20Z</time>
      </trkpt>
      <trkpt lat="43.13118" lon="0.03745">
        <ele>368.6</ele>
        <time>2022-09-07T10:09:23Z</time>
      </trkpt>
      <trkpt lat="43.13096" lon="0.03751">
        <ele>368.6</ele>
        <time>2022-09-07T10:09:30Z</time>
      </trkpt>
      <trkpt lat="43.13089" lon="0.03756">
        <ele>368.8</ele>
        <time>2022-09-07T10:09:32Z</time>
      </trkpt>
      <trkpt lat="43.13081" lon="0.03759">
        <ele>369</ele>
        <time>2022-09-07T10:09:34Z</time>
      </trkpt>
      <trkpt lat="43.13074" lon="0.03764">
        <ele>369</ele>
        <time>2022-09-07T10:09:36Z</time>
      </trkpt>
      <trkpt lat="43.13068" lon="0.03771">
        <ele>369.2</ele>
        <time>2022-09-07T10:09:38Z</time>
      </trkpt>
      <trkpt lat="43.13064" lon="0.03773">
        <ele>369.4</ele>
        <time>2022-09-07T10:09:39Z</time>
      </trkpt>
      <trkpt lat="43.13061" lon="0.03777">
        <ele>369.4</ele>
        <time>2022-09-07T10:09:40Z</time>
      </trkpt>
      <trkpt lat="43.13043" lon="0.03798">
        <ele>369.6</ele>
        <time>2022-09-07T10:09:46Z</time>
      </trkpt>
      <trkpt lat="43.13031" lon="0.03811">
        <ele>369.4</ele>
        <time>2022-09-07T10:09:50Z</time>
      </trkpt>
      <trkpt lat="43.13023" lon="0.03815">
        <ele>369.4</ele>
        <time>2022-09-07T10:09:52Z</time>
      </trkpt>
      <trkpt lat="43.12994" lon="0.03839">
        <ele>369.2</ele>
        <time>2022-09-07T10:10:00Z</time>
      </trkpt>
      <trkpt lat="43.12975" lon="0.03858">
        <ele>369</ele>
        <time>2022-09-07T10:10:06Z</time>
      </trkpt>
      <trkpt lat="43.12952" lon="0.03876">
        <ele>369</ele>
        <time>2022-09-07T10:10:12Z</time>
      </trkpt>
      <trkpt lat="43.12921" lon="0.03892">
        <ele>369.6</ele>
        <time>2022-09-07T10:10:19Z</time>
      </trkpt>
      <trkpt lat="43.12888" lon="0.03909">
        <ele>369.8</ele>
        <time>2022-09-07T10:10:27Z</time>
      </trkpt>
      <trkpt lat="43.12849" lon="0.0392">
        <ele>369.4</ele>
        <time>2022-09-07T10:10:36Z</time>
      </trkpt>
      <trkpt lat="43.12831" lon="0.03922">
        <ele>369.4</ele>
        <time>2022-09-07T10:10:40Z</time>
      </trkpt>
      <trkpt lat="43.12817" lon="0.03923">
        <ele>369.4</ele>
        <time>2022-09-07T10:10:43Z</time>
      </trkpt>
      <trkpt lat="43.12812" lon="0.03924">
        <ele>369.6</ele>
        <time>2022-09-07T10:10:44Z</time>
      </trkpt>
      <trkpt lat="43.12794" lon="0.03927">
        <ele>370.4</ele>
        <time>2022-09-07T10:10:48Z</time>
      </trkpt>
      <trkpt lat="43.12772" lon="0.03929">
        <ele>370.6</ele>
        <time>2022-09-07T10:10:53Z</time>
      </trkpt>
      <trkpt lat="43.12741" lon="0.03933">
        <ele>371.4</ele>
        <time>2022-09-07T10:11:00Z</time>
      </trkpt>
      <trkpt lat="43.12722" lon="0.03935">
        <ele>371.6</ele>
        <time>2022-09-07T10:11:04Z</time>
      </trkpt>
      <trkpt lat="43.12689" lon="0.03934">
        <ele>371.4</ele>
        <time>2022-09-07T10:11:11Z</time>
      </trkpt>
      <trkpt lat="43.12676" lon="0.0394">
        <ele>371.6</ele>
        <time>2022-09-07T10:11:14Z</time>
      </trkpt>
      <trkpt lat="43.12672" lon="0.03944">
        <ele>371.6</ele>
        <time>2022-09-07T10:11:15Z</time>
      </trkpt>
      <trkpt lat="43.12667" lon="0.03959">
        <ele>372</ele>
        <time>2022-09-07T10:11:18Z</time>
      </trkpt>
      <trkpt lat="43.12655" lon="0.0398">
        <ele>372.2</ele>
        <time>2022-09-07T10:11:24Z</time>
      </trkpt>
      <trkpt lat="43.12651" lon="0.03979">
        <ele>372.2</ele>
        <time>2022-09-07T10:11:25Z</time>
      </trkpt>
      <trkpt lat="43.12644" lon="0.03975">
        <ele>372.2</ele>
        <time>2022-09-07T10:11:27Z</time>
      </trkpt>
      <trkpt lat="43.12628" lon="0.03964">
        <ele>372.6</ele>
        <time>2022-09-07T10:11:32Z</time>
      </trkpt>
      <trkpt lat="43.12613" lon="0.03953">
        <ele>373</ele>
        <time>2022-09-07T10:11:36Z</time>
      </trkpt>
      <trkpt lat="43.12609" lon="0.03951">
        <ele>373.2</ele>
        <time>2022-09-07T10:11:37Z</time>
      </trkpt>
      <trkpt lat="43.12586" lon="0.03944">
        <ele>373</ele>
        <time>2022-09-07T10:11:42Z</time>
      </trkpt>
      <trkpt lat="43.12554" lon="0.03936">
        <ele>373</ele>
        <time>2022-09-07T10:11:49Z</time>
      </trkpt>
      <trkpt lat="43.1252" lon="0.03927">
        <ele>372.8</ele>
        <time>2022-09-07T10:11:56Z</time>
      </trkpt>
      <trkpt lat="43.12506" lon="0.03924">
        <ele>372.8</ele>
        <time>2022-09-07T10:11:59Z</time>
      </trkpt>
      <trkpt lat="43.12486" lon="0.03922">
        <ele>372.6</ele>
        <time>2022-09-07T10:12:03Z</time>
      </trkpt>
      <trkpt lat="43.12481" lon="0.03922">
        <ele>372.6</ele>
        <time>2022-09-07T10:12:04Z</time>
      </trkpt>
      <trkpt lat="43.12457" lon="0.03926">
        <ele>372.6</ele>
        <time>2022-09-07T10:12:09Z</time>
      </trkpt>
      <trkpt lat="43.12432" lon="0.0393">
        <ele>372.6</ele>
        <time>2022-09-07T10:12:15Z</time>
      </trkpt>
      <trkpt lat="43.12418" lon="0.03931">
        <ele>372.6</ele>
        <time>2022-09-07T10:12:18Z</time>
      </trkpt>
      <trkpt lat="43.12402" lon="0.0393">
        <ele>372.2</ele>
        <time>2022-09-07T10:12:21Z</time>
      </trkpt>
      <trkpt lat="43.12386" lon="0.03929">
        <ele>371.6</ele>
        <time>2022-09-07T10:12:24Z</time>
      </trkpt>
      <trkpt lat="43.12363" lon="0.03924">
        <ele>371</ele>
        <time>2022-09-07T10:12:28Z</time>
      </trkpt>
      <trkpt lat="43.12338" lon="0.03922">
        <ele>371.2</ele>
        <time>2022-09-07T10:12:32Z</time>
      </trkpt>
      <trkpt lat="43.12325" lon="0.03925">
        <ele>370.8</ele>
        <time>2022-09-07T10:12:34Z</time>
      </trkpt>
      <trkpt lat="43.12314" lon="0.03931">
        <ele>370.6</ele>
        <time>2022-09-07T10:12:36Z</time>
      </trkpt>
      <trkpt lat="43.12298" lon="0.03941">
        <ele>370.6</ele>
        <time>2022-09-07T10:12:39Z</time>
      </trkpt>
      <trkpt lat="43.12292" lon="0.03944">
        <ele>370.6</ele>
        <time>2022-09-07T10:12:40Z</time>
      </trkpt>
      <trkpt lat="43.12286" lon="0.03946">
        <ele>370.4</ele>
        <time>2022-09-07T10:12:41Z</time>
      </trkpt>
      <trkpt lat="43.12269" lon="0.03947">
        <ele>370</ele>
        <time>2022-09-07T10:12:44Z</time>
      </trkpt>
      <trkpt lat="43.12254" lon="0.03942">
        <ele>370.2</ele>
        <time>2022-09-07T10:12:47Z</time>
      </trkpt>
      <trkpt lat="43.12243" lon="0.03937">
        <ele>370.4</ele>
        <time>2022-09-07T10:12:49Z</time>
      </trkpt>
      <trkpt lat="43.12218" lon="0.03922">
        <ele>370.2</ele>
        <time>2022-09-07T10:12:54Z</time>
      </trkpt>
      <trkpt lat="43.12176" lon="0.03889">
        <ele>371</ele>
        <time>2022-09-07T10:13:03Z</time>
      </trkpt>
      <trkpt lat="43.12162" lon="0.0388">
        <ele>371.6</ele>
        <time>2022-09-07T10:13:06Z</time>
      </trkpt>
      <trkpt lat="43.12147" lon="0.0387">
        <ele>372.8</ele>
        <time>2022-09-07T10:13:10Z</time>
      </trkpt>
      <trkpt lat="43.12143" lon="0.03867">
        <ele>373</ele>
        <time>2022-09-07T10:13:11Z</time>
      </trkpt>
      <trkpt lat="43.12126" lon="0.0386">
        <ele>373.8</ele>
        <time>2022-09-07T10:13:16Z</time>
      </trkpt>
      <trkpt lat="43.1212" lon="0.03858">
        <ele>374.2</ele>
        <time>2022-09-07T10:13:18Z</time>
      </trkpt>
      <trkpt lat="43.1211" lon="0.03857">
        <ele>375</ele>
        <time>2022-09-07T10:13:21Z</time>
      </trkpt>
      <trkpt lat="43.121" lon="0.03857">
        <ele>375.4</ele>
        <time>2022-09-07T10:13:24Z</time>
      </trkpt>
      <trkpt lat="43.12092" lon="0.03858">
        <ele>376</ele>
        <time>2022-09-07T10:13:27Z</time>
      </trkpt>
      <trkpt lat="43.12081" lon="0.0386">
        <ele>376.6</ele>
        <time>2022-09-07T10:13:31Z</time>
      </trkpt>
      <trkpt lat="43.12076" lon="0.0386">
        <ele>377.2</ele>
        <time>2022-09-07T10:13:33Z</time>
      </trkpt>
      <trkpt lat="43.12066" lon="0.03864">
        <ele>377.8</ele>
        <time>2022-09-07T10:13:37Z</time>
      </trkpt>
      <trkpt lat="43.12053" lon="0.03868">
        <ele>378.4</ele>
        <time>2022-09-07T10:13:42Z</time>
      </trkpt>
      <trkpt lat="43.12051" lon="0.03868">
        <ele>378.4</ele>
        <time>2022-09-07T10:13:43Z</time>
      </trkpt>
      <trkpt lat="43.12033" lon="0.03875">
        <ele>378.6</ele>
        <time>2022-09-07T10:13:50Z</time>
      </trkpt>
      <trkpt lat="43.12016" lon="0.0388">
        <ele>379.2</ele>
        <time>2022-09-07T10:13:56Z</time>
      </trkpt>
      <trkpt lat="43.11999" lon="0.03885">
        <ele>379.4</ele>
        <time>2022-09-07T10:14:01Z</time>
      </trkpt>
      <trkpt lat="43.11992" lon="0.03886">
        <ele>379.6</ele>
        <time>2022-09-07T10:14:03Z</time>
      </trkpt>
      <trkpt lat="43.11955" lon="0.03893">
        <ele>379.6</ele>
        <time>2022-09-07T10:14:13Z</time>
      </trkpt>
      <trkpt lat="43.11918" lon="0.039">
        <ele>380</ele>
        <time>2022-09-07T10:14:22Z</time>
      </trkpt>
      <trkpt lat="43.11881" lon="0.03905">
        <ele>380.2</ele>
        <time>2022-09-07T10:14:31Z</time>
      </trkpt>
      <trkpt lat="43.11851" lon="0.03906">
        <ele>380.4</ele>
        <time>2022-09-07T10:14:38Z</time>
      </trkpt>
      <trkpt lat="43.11843" lon="0.03904">
        <ele>380.4</ele>
        <time>2022-09-07T10:14:40Z</time>
      </trkpt>
      <trkpt lat="43.11825" lon="0.03888">
        <ele>380.6</ele>
        <time>2022-09-07T10:14:45Z</time>
      </trkpt>
      <trkpt lat="43.11816" lon="0.03867">
        <ele>381</ele>
        <time>2022-09-07T10:14:49Z</time>
      </trkpt>
      <trkpt lat="43.11812" lon="0.03857">
        <ele>381.4</ele>
        <time>2022-09-07T10:14:51Z</time>
      </trkpt>
      <trkpt lat="43.1181" lon="0.03852">
        <ele>381.6</ele>
        <time>2022-09-07T10:14:52Z</time>
      </trkpt>
      <trkpt lat="43.11798" lon="0.03824">
        <ele>382.6</ele>
        <time>2022-09-07T10:14:58Z</time>
      </trkpt>
      <trkpt lat="43.11784" lon="0.03795">
        <ele>383.4</ele>
        <time>2022-09-07T10:15:06Z</time>
      </trkpt>
      <trkpt lat="43.1177" lon="0.03773">
        <ele>383.6</ele>
        <time>2022-09-07T10:15:12Z</time>
      </trkpt>
      <trkpt lat="43.11766" lon="0.03764">
        <ele>383.6</ele>
        <time>2022-09-07T10:15:14Z</time>
      </trkpt>
      <trkpt lat="43.11756" lon="0.03742">
        <ele>383.6</ele>
        <time>2022-09-07T10:15:19Z</time>
      </trkpt>
      <trkpt lat="43.11737" lon="0.03709">
        <ele>383.8</ele>
        <time>2022-09-07T10:15:27Z</time>
      </trkpt>
      <trkpt lat="43.11718" lon="0.03666">
        <ele>384.4</ele>
        <time>2022-09-07T10:15:36Z</time>
      </trkpt>
      <trkpt lat="43.11713" lon="0.03651">
        <ele>384.8</ele>
        <time>2022-09-07T10:15:39Z</time>
      </trkpt>
      <trkpt lat="43.11707" lon="0.03627">
        <ele>385.4</ele>
        <time>2022-09-07T10:15:44Z</time>
      </trkpt>
      <trkpt lat="43.11705" lon="0.03614">
        <ele>385.8</ele>
        <time>2022-09-07T10:15:47Z</time>
      </trkpt>
      <trkpt lat="43.11702" lon="0.03598">
        <ele>386.6</ele>
        <time>2022-09-07T10:15:51Z</time>
      </trkpt>
      <trkpt lat="43.117" lon="0.03586">
        <ele>387</ele>
        <time>2022-09-07T10:15:54Z</time>
      </trkpt>
      <trkpt lat="43.11697" lon="0.03571">
        <ele>387.6</ele>
        <time>2022-09-07T10:15:58Z</time>
      </trkpt>
      <trkpt lat="43.11693" lon="0.03556">
        <ele>387.8</ele>
        <time>2022-09-07T10:16:03Z</time>
      </trkpt>
      <trkpt lat="43.11693" lon="0.03552">
        <ele>388</ele>
        <time>2022-09-07T10:16:04Z</time>
      </trkpt>
      <trkpt lat="43.11686" lon="0.0352">
        <ele>388.8</ele>
        <time>2022-09-07T10:16:13Z</time>
      </trkpt>
      <trkpt lat="43.11685" lon="0.0351">
        <ele>389.2</ele>
        <time>2022-09-07T10:16:16Z</time>
      </trkpt>
      <trkpt lat="43.11683" lon="0.03499">
        <ele>389.4</ele>
        <time>2022-09-07T10:16:19Z</time>
      </trkpt>
      <trkpt lat="43.11677" lon="0.03466">
        <ele>390.2</ele>
        <time>2022-09-07T10:16:28Z</time>
      </trkpt>
      <trkpt lat="43.11672" lon="0.03433">
        <ele>391.2</ele>
        <time>2022-09-07T10:16:37Z</time>
      </trkpt>
      <trkpt lat="43.11671" lon="0.03426">
        <ele>391.4</ele>
        <time>2022-09-07T10:16:39Z</time>
      </trkpt>
      <trkpt lat="43.1167" lon="0.03402">
        <ele>392</ele>
        <time>2022-09-07T10:16:45Z</time>
      </trkpt>
      <trkpt lat="43.11669" lon="0.03387">
        <ele>392.4</ele>
        <time>2022-09-07T10:16:49Z</time>
      </trkpt>
      <trkpt lat="43.11669" lon="0.03363">
        <ele>393</ele>
        <time>2022-09-07T10:16:55Z</time>
      </trkpt>
      <trkpt lat="43.11669" lon="0.03343">
        <ele>393.4</ele>
        <time>2022-09-07T10:17:00Z</time>
      </trkpt>
      <trkpt lat="43.11669" lon="0.03324">
        <ele>394</ele>
        <time>2022-09-07T10:17:05Z</time>
      </trkpt>
      <trkpt lat="43.11669" lon="0.03308">
        <ele>394.4</ele>
        <time>2022-09-07T10:17:09Z</time>
      </trkpt>
      <trkpt lat="43.11669" lon="0.0329">
        <ele>394.6</ele>
        <time>2022-09-07T10:17:13Z</time>
      </trkpt>
      <trkpt lat="43.11666" lon="0.03256">
        <ele>394.4</ele>
        <time>2022-09-07T10:17:20Z</time>
      </trkpt>
      <trkpt lat="43.11661" lon="0.03202">
        <ele>395.8</ele>
        <time>2022-09-07T10:17:30Z</time>
      </trkpt>
      <trkpt lat="43.11658" lon="0.0316">
        <ele>395.2</ele>
        <time>2022-09-07T10:17:39Z</time>
      </trkpt>
      <trkpt lat="43.1166" lon="0.03137">
        <ele>396.4</ele>
        <time>2022-09-07T10:17:44Z</time>
      </trkpt>
      <trkpt lat="43.11659" lon="0.03128">
        <ele>396.8</ele>
        <time>2022-09-07T10:17:46Z</time>
      </trkpt>
      <trkpt lat="43.11659" lon="0.03118">
        <ele>396.8</ele>
        <time>2022-09-07T10:17:48Z</time>
      </trkpt>
      <trkpt lat="43.11658" lon="0.03095">
        <ele>397.8</ele>
        <time>2022-09-07T10:17:53Z</time>
      </trkpt>
      <trkpt lat="43.11657" lon="0.03091">
        <ele>397.8</ele>
        <time>2022-09-07T10:17:54Z</time>
      </trkpt>
      <trkpt lat="43.11654" lon="0.03062">
        <ele>398.8</ele>
        <time>2022-09-07T10:18:01Z</time>
      </trkpt>
      <trkpt lat="43.1165" lon="0.03038">
        <ele>398.4</ele>
        <time>2022-09-07T10:18:07Z</time>
      </trkpt>
      <trkpt lat="43.11643" lon="0.03004">
        <ele>398.6</ele>
        <time>2022-09-07T10:18:15Z</time>
      </trkpt>
      <trkpt lat="43.11641" lon="0.02995">
        <ele>398.8</ele>
        <time>2022-09-07T10:18:17Z</time>
      </trkpt>
      <trkpt lat="43.11634" lon="0.02967">
        <ele>399.4</ele>
        <time>2022-09-07T10:18:24Z</time>
      </trkpt>
      <trkpt lat="43.11624" lon="0.02928">
        <ele>400.2</ele>
        <time>2022-09-07T10:18:33Z</time>
      </trkpt>
      <trkpt lat="43.11624" lon="0.02924">
        <ele>400.6</ele>
        <time>2022-09-07T10:18:34Z</time>
      </trkpt>
      <trkpt lat="43.11614" lon="0.02887">
        <ele>400.4</ele>
        <time>2022-09-07T10:18:42Z</time>
      </trkpt>
      <trkpt lat="43.11611" lon="0.02871">
        <ele>398.8</ele>
        <time>2022-09-07T10:18:45Z</time>
      </trkpt>
      <trkpt lat="43.11605" lon="0.02844">
        <ele>398.2</ele>
        <time>2022-09-07T10:18:50Z</time>
      </trkpt>
      <trkpt lat="43.116" lon="0.0282">
        <ele>399.8</ele>
        <time>2022-09-07T10:18:54Z</time>
      </trkpt>
      <trkpt lat="43.11597" lon="0.02798">
        <ele>398.4</ele>
        <time>2022-09-07T10:18:58Z</time>
      </trkpt>
      <trkpt lat="43.11597" lon="0.02792">
        <ele>398.4</ele>
        <time>2022-09-07T10:18:59Z</time>
      </trkpt>
      <trkpt lat="43.11591" lon="0.02769">
        <ele>397.2</ele>
        <time>2022-09-07T10:19:03Z</time>
      </trkpt>
      <trkpt lat="43.1159" lon="0.02763">
        <ele>397.2</ele>
        <time>2022-09-07T10:19:04Z</time>
      </trkpt>
      <trkpt lat="43.11579" lon="0.0271">
        <ele>396.4</ele>
        <time>2022-09-07T10:19:13Z</time>
      </trkpt>
      <trkpt lat="43.11578" lon="0.02704">
        <ele>396.2</ele>
        <time>2022-09-07T10:19:14Z</time>
      </trkpt>
      <trkpt lat="43.11573" lon="0.02677">
        <ele>396</ele>
        <time>2022-09-07T10:19:19Z</time>
      </trkpt>
      <trkpt lat="43.11571" lon="0.02647">
        <ele>396.4</ele>
        <time>2022-09-07T10:19:25Z</time>
      </trkpt>
      <trkpt lat="43.11572" lon="0.0263">
        <ele>397.2</ele>
        <time>2022-09-07T10:19:29Z</time>
      </trkpt>
      <trkpt lat="43.11576" lon="0.02607">
        <ele>397.4</ele>
        <time>2022-09-07T10:19:34Z</time>
      </trkpt>
      <trkpt lat="43.11582" lon="0.02582">
        <ele>398.4</ele>
        <time>2022-09-07T10:19:40Z</time>
      </trkpt>
      <trkpt lat="43.11584" lon="0.02562">
        <ele>398.8</ele>
        <time>2022-09-07T10:19:46Z</time>
      </trkpt>
      <trkpt lat="43.11584" lon="0.02532">
        <ele>398.8</ele>
        <time>2022-09-07T10:19:52Z</time>
      </trkpt>
      <trkpt lat="43.11576" lon="0.02476">
        <ele>399</ele>
        <time>2022-09-07T10:20:02Z</time>
      </trkpt>
      <trkpt lat="43.11572" lon="0.02459">
        <ele>399.4</ele>
        <time>2022-09-07T10:20:05Z</time>
      </trkpt>
      <trkpt lat="43.11567" lon="0.02428">
        <ele>400.2</ele>
        <time>2022-09-07T10:20:11Z</time>
      </trkpt>
      <trkpt lat="43.11562" lon="0.02397">
        <ele>400.6</ele>
        <time>2022-09-07T10:20:17Z</time>
      </trkpt>
      <trkpt lat="43.1156" lon="0.02387">
        <ele>400.6</ele>
        <time>2022-09-07T10:20:19Z</time>
      </trkpt>
      <trkpt lat="43.11549" lon="0.02337">
        <ele>400.4</ele>
        <time>2022-09-07T10:20:28Z</time>
      </trkpt>
      <trkpt lat="43.11536" lon="0.02273">
        <ele>400.4</ele>
        <time>2022-09-07T10:20:39Z</time>
      </trkpt>
      <trkpt lat="43.11528" lon="0.02228">
        <ele>400.8</ele>
        <time>2022-09-07T10:20:47Z</time>
      </trkpt>
      <trkpt lat="43.11518" lon="0.02185">
        <ele>401</ele>
        <time>2022-09-07T10:20:55Z</time>
      </trkpt>
      <trkpt lat="43.11517" lon="0.02174">
        <ele>400.8</ele>
        <time>2022-09-07T10:20:57Z</time>
      </trkpt>
      <trkpt lat="43.11513" lon="0.02144">
        <ele>400.6</ele>
        <time>2022-09-07T10:21:03Z</time>
      </trkpt>
      <trkpt lat="43.11512" lon="0.02114">
        <ele>399.8</ele>
        <time>2022-09-07T10:21:09Z</time>
      </trkpt>
      <trkpt lat="43.11515" lon="0.02099">
        <ele>399.8</ele>
        <time>2022-09-07T10:21:13Z</time>
      </trkpt>
      <trkpt lat="43.11519" lon="0.02092">
        <ele>400.4</ele>
        <time>2022-09-07T10:21:18Z</time>
      </trkpt>
      <trkpt lat="43.1152" lon="0.02095">
        <ele>400.4</ele>
        <time>2022-09-07T10:23:32Z</time>
      </trkpt>
      <trkpt lat="43.11517" lon="0.021">
        <ele>400.4</ele>
        <time>2022-09-07T10:23:34Z</time>
      </trkpt>
      <trkpt lat="43.11512" lon="0.02106">
        <ele>399.8</ele>
        <time>2022-09-07T10:23:37Z</time>
      </trkpt>
      <trkpt lat="43.11507" lon="0.02105">
        <ele>399.6</ele>
        <time>2022-09-07T10:23:39Z</time>
      </trkpt>
      <trkpt lat="43.11498" lon="0.02089">
        <ele>399.2</ele>
        <time>2022-09-07T10:23:43Z</time>
      </trkpt>
      <trkpt lat="43.11487" lon="0.02072">
        <ele>398.6</ele>
        <time>2022-09-07T10:23:47Z</time>
      </trkpt>
      <trkpt lat="43.11483" lon="0.02069">
        <ele>398.4</ele>
        <time>2022-09-07T10:23:48Z</time>
      </trkpt>
      <trkpt lat="43.11479" lon="0.02065">
        <ele>398.2</ele>
        <time>2022-09-07T10:23:49Z</time>
      </trkpt>
      <trkpt lat="43.11471" lon="0.02058">
        <ele>397.8</ele>
        <time>2022-09-07T10:23:51Z</time>
      </trkpt>
      <trkpt lat="43.11459" lon="0.02047">
        <ele>397.4</ele>
        <time>2022-09-07T10:23:54Z</time>
      </trkpt>
      <trkpt lat="43.11455" lon="0.02044">
        <ele>397.2</ele>
        <time>2022-09-07T10:23:55Z</time>
      </trkpt>
      <trkpt lat="43.11432" lon="0.0202">
        <ele>397.2</ele>
        <time>2022-09-07T10:24:02Z</time>
      </trkpt>
      <trkpt lat="43.11429" lon="0.02017">
        <ele>397</ele>
        <time>2022-09-07T10:24:03Z</time>
      </trkpt>
      <trkpt lat="43.11407" lon="0.01999">
        <ele>397</ele>
        <time>2022-09-07T10:24:10Z</time>
      </trkpt>
      <trkpt lat="43.11384" lon="0.01979">
        <ele>397.8</ele>
        <time>2022-09-07T10:24:18Z</time>
      </trkpt>
      <trkpt lat="43.11375" lon="0.01969">
        <ele>398.4</ele>
        <time>2022-09-07T10:24:22Z</time>
      </trkpt>
      <trkpt lat="43.11369" lon="0.01961">
        <ele>399.2</ele>
        <time>2022-09-07T10:24:26Z</time>
      </trkpt>
      <trkpt lat="43.11367" lon="0.01959">
        <ele>399.4</ele>
        <time>2022-09-07T10:24:27Z</time>
      </trkpt>
      <trkpt lat="43.11361" lon="0.01951">
        <ele>400.6</ele>
        <time>2022-09-07T10:24:32Z</time>
      </trkpt>
      <trkpt lat="43.11359" lon="0.01947">
        <ele>400.8</ele>
        <time>2022-09-07T10:24:34Z</time>
      </trkpt>
      <trkpt lat="43.11352" lon="0.01937">
        <ele>401.6</ele>
        <time>2022-09-07T10:24:39Z</time>
      </trkpt>
      <trkpt lat="43.11348" lon="0.01929">
        <ele>402.4</ele>
        <time>2022-09-07T10:24:43Z</time>
      </trkpt>
      <trkpt lat="43.11347" lon="0.01927">
        <ele>402.6</ele>
        <time>2022-09-07T10:24:44Z</time>
      </trkpt>
      <trkpt lat="43.11339" lon="0.01908">
        <ele>403.4</ele>
        <time>2022-09-07T10:24:52Z</time>
      </trkpt>
      <trkpt lat="43.11337" lon="0.019">
        <ele>403.8</ele>
        <time>2022-09-07T10:24:55Z</time>
      </trkpt>
      <trkpt lat="43.11335" lon="0.01884">
        <ele>404.2</ele>
        <time>2022-09-07T10:25:01Z</time>
      </trkpt>
      <trkpt lat="43.11333" lon="0.01868">
        <ele>404.8</ele>
        <time>2022-09-07T10:25:06Z</time>
      </trkpt>
      <trkpt lat="43.11332" lon="0.01859">
        <ele>405.2</ele>
        <time>2022-09-07T10:25:09Z</time>
      </trkpt>
      <trkpt lat="43.11331" lon="0.01848">
        <ele>405.8</ele>
        <time>2022-09-07T10:25:13Z</time>
      </trkpt>
      <trkpt lat="43.1133" lon="0.01835">
        <ele>406.4</ele>
        <time>2022-09-07T10:25:17Z</time>
      </trkpt>
      <trkpt lat="43.11329" lon="0.01817">
        <ele>407</ele>
        <time>2022-09-07T10:25:23Z</time>
      </trkpt>
      <trkpt lat="43.11328" lon="0.01811">
        <ele>407.2</ele>
        <time>2022-09-07T10:25:25Z</time>
      </trkpt>
      <trkpt lat="43.11327" lon="0.01796">
        <ele>408</ele>
        <time>2022-09-07T10:25:30Z</time>
      </trkpt>
      <trkpt lat="43.11325" lon="0.01782">
        <ele>408.6</ele>
        <time>2022-09-07T10:25:35Z</time>
      </trkpt>
      <trkpt lat="43.11322" lon="0.01766">
        <ele>409</ele>
        <time>2022-09-07T10:25:40Z</time>
      </trkpt>
      <trkpt lat="43.11317" lon="0.01754">
        <ele>409.4</ele>
        <time>2022-09-07T10:25:44Z</time>
      </trkpt>
      <trkpt lat="43.11309" lon="0.01738">
        <ele>410</ele>
        <time>2022-09-07T10:25:50Z</time>
      </trkpt>
      <trkpt lat="43.11308" lon="0.01736">
        <ele>410</ele>
        <time>2022-09-07T10:25:51Z</time>
      </trkpt>
      <trkpt lat="43.11296" lon="0.0172">
        <ele>410.6</ele>
        <time>2022-09-07T10:25:58Z</time>
      </trkpt>
      <trkpt lat="43.11287" lon="0.01706">
        <ele>411.2</ele>
        <time>2022-09-07T10:26:04Z</time>
      </trkpt>
      <trkpt lat="43.11279" lon="0.01691">
        <ele>411.2</ele>
        <time>2022-09-07T10:26:10Z</time>
      </trkpt>
      <trkpt lat="43.11266" lon="0.01667">
        <ele>410.6</ele>
        <time>2022-09-07T10:26:16Z</time>
      </trkpt>
      <trkpt lat="43.11261" lon="0.01657">
        <ele>410</ele>
        <time>2022-09-07T10:26:18Z</time>
      </trkpt>
      <trkpt lat="43.11254" lon="0.01638">
        <ele>409</ele>
        <time>2022-09-07T10:26:21Z</time>
      </trkpt>
      <trkpt lat="43.11244" lon="0.01616">
        <ele>408.4</ele>
        <time>2022-09-07T10:26:24Z</time>
      </trkpt>
      <trkpt lat="43.11236" lon="0.01603">
        <ele>408.2</ele>
        <time>2022-09-07T10:26:26Z</time>
      </trkpt>
      <trkpt lat="43.11229" lon="0.0159">
        <ele>408</ele>
        <time>2022-09-07T10:26:28Z</time>
      </trkpt>
      <trkpt lat="43.1122" lon="0.01573">
        <ele>408.2</ele>
        <time>2022-09-07T10:26:31Z</time>
      </trkpt>
      <trkpt lat="43.11203" lon="0.01537">
        <ele>409</ele>
        <time>2022-09-07T10:26:38Z</time>
      </trkpt>
      <trkpt lat="43.11201" lon="0.01533">
        <ele>409</ele>
        <time>2022-09-07T10:26:39Z</time>
      </trkpt>
      <trkpt lat="43.11188" lon="0.01505">
        <ele>409.8</ele>
        <time>2022-09-07T10:26:45Z</time>
      </trkpt>
      <trkpt lat="43.11178" lon="0.01476">
        <ele>410</ele>
        <time>2022-09-07T10:26:51Z</time>
      </trkpt>
      <trkpt lat="43.11176" lon="0.01465">
        <ele>410</ele>
        <time>2022-09-07T10:26:53Z</time>
      </trkpt>
      <trkpt lat="43.11168" lon="0.01431">
        <ele>410.6</ele>
        <time>2022-09-07T10:27:00Z</time>
      </trkpt>
      <trkpt lat="43.11157" lon="0.01402">
        <ele>410.2</ele>
        <time>2022-09-07T10:27:06Z</time>
      </trkpt>
      <trkpt lat="43.11143" lon="0.01369">
        <ele>409</ele>
        <time>2022-09-07T10:27:12Z</time>
      </trkpt>
      <trkpt lat="43.11141" lon="0.01363">
        <ele>409</ele>
        <time>2022-09-07T10:27:13Z</time>
      </trkpt>
      <trkpt lat="43.1113" lon="0.01341">
        <ele>408.6</ele>
        <time>2022-09-07T10:27:17Z</time>
      </trkpt>
      <trkpt lat="43.11122" lon="0.01329">
        <ele>409</ele>
        <time>2022-09-07T10:27:20Z</time>
      </trkpt>
      <trkpt lat="43.11109" lon="0.01312">
        <ele>410</ele>
        <time>2022-09-07T10:27:26Z</time>
      </trkpt>
      <trkpt lat="43.111" lon="0.01301">
        <ele>411.2</ele>
        <time>2022-09-07T10:27:32Z</time>
      </trkpt>
      <trkpt lat="43.11099" lon="0.01299">
        <ele>411.6</ele>
        <time>2022-09-07T10:27:33Z</time>
      </trkpt>
      <trkpt lat="43.11096" lon="0.01295">
        <ele>412.2</ele>
        <time>2022-09-07T10:27:36Z</time>
      </trkpt>
      <trkpt lat="43.11092" lon="0.01289">
        <ele>413.2</ele>
        <time>2022-09-07T10:27:40Z</time>
      </trkpt>
      <trkpt lat="43.11091" lon="0.01287">
        <ele>413.4</ele>
        <time>2022-09-07T10:27:41Z</time>
      </trkpt>
      <trkpt lat="43.11085" lon="0.01278">
        <ele>414.6</ele>
        <time>2022-09-07T10:27:47Z</time>
      </trkpt>
      <trkpt lat="43.11084" lon="0.01277">
        <ele>414.8</ele>
        <time>2022-09-07T10:27:48Z</time>
      </trkpt>
      <trkpt lat="43.11077" lon="0.01265">
        <ele>415.8</ele>
        <time>2022-09-07T10:27:54Z</time>
      </trkpt>
      <trkpt lat="43.11076" lon="0.01263">
        <ele>416</ele>
        <time>2022-09-07T10:27:55Z</time>
      </trkpt>
      <trkpt lat="43.11071" lon="0.01254">
        <ele>417</ele>
        <time>2022-09-07T10:28:00Z</time>
      </trkpt>
      <trkpt lat="43.11069" lon="0.01251">
        <ele>417.4</ele>
        <time>2022-09-07T10:28:02Z</time>
      </trkpt>
      <trkpt lat="43.11066" lon="0.01241">
        <ele>418.2</ele>
        <time>2022-09-07T10:28:07Z</time>
      </trkpt>
      <trkpt lat="43.11064" lon="0.01235">
        <ele>418.8</ele>
        <time>2022-09-07T10:28:10Z</time>
      </trkpt>
      <trkpt lat="43.11063" lon="0.01232">
        <ele>419.2</ele>
        <time>2022-09-07T10:28:12Z</time>
      </trkpt>
      <trkpt lat="43.11059" lon="0.01219">
        <ele>420</ele>
        <time>2022-09-07T10:28:18Z</time>
      </trkpt>
      <trkpt lat="43.11059" lon="0.01217">
        <ele>420.4</ele>
        <time>2022-09-07T10:28:19Z</time>
      </trkpt>
      <trkpt lat="43.11056" lon="0.01205">
        <ele>421.4</ele>
        <time>2022-09-07T10:28:25Z</time>
      </trkpt>
      <trkpt lat="43.11055" lon="0.01203">
        <ele>421.4</ele>
        <time>2022-09-07T10:28:26Z</time>
      </trkpt>
      <trkpt lat="43.11053" lon="0.0119">
        <ele>422.4</ele>
        <time>2022-09-07T10:28:32Z</time>
      </trkpt>
      <trkpt lat="43.11052" lon="0.01186">
        <ele>422.6</ele>
        <time>2022-09-07T10:28:34Z</time>
      </trkpt>
      <trkpt lat="43.1105" lon="0.01179">
        <ele>423.2</ele>
        <time>2022-09-07T10:28:38Z</time>
      </trkpt>
      <trkpt lat="43.11049" lon="0.01176">
        <ele>423.4</ele>
        <time>2022-09-07T10:28:39Z</time>
      </trkpt>
      <trkpt lat="43.11049" lon="0.01172">
        <ele>423.8</ele>
        <time>2022-09-07T10:28:41Z</time>
      </trkpt>
      <trkpt lat="43.11047" lon="0.01169">
        <ele>424</ele>
        <time>2022-09-07T10:28:43Z</time>
      </trkpt>
      <trkpt lat="43.11042" lon="0.01161">
        <ele>424.8</ele>
        <time>2022-09-07T10:28:47Z</time>
      </trkpt>
      <trkpt lat="43.11041" lon="0.01159">
        <ele>424.8</ele>
        <time>2022-09-07T10:28:48Z</time>
      </trkpt>
      <trkpt lat="43.11037" lon="0.01153">
        <ele>425</ele>
        <time>2022-09-07T10:28:51Z</time>
      </trkpt>
      <trkpt lat="43.11025" lon="0.0114">
        <ele>425</ele>
        <time>2022-09-07T10:28:59Z</time>
      </trkpt>
      <trkpt lat="43.11008" lon="0.01121">
        <ele>424.6</ele>
        <time>2022-09-07T10:29:06Z</time>
      </trkpt>
      <trkpt lat="43.10994" lon="0.011">
        <ele>424.2</ele>
        <time>2022-09-07T10:29:12Z</time>
      </trkpt>
      <trkpt lat="43.10981" lon="0.01069">
        <ele>425.2</ele>
        <time>2022-09-07T10:29:20Z</time>
      </trkpt>
      <trkpt lat="43.10974" lon="0.01046">
        <ele>425.8</ele>
        <time>2022-09-07T10:29:26Z</time>
      </trkpt>
      <trkpt lat="43.1097" lon="0.01038">
        <ele>426</ele>
        <time>2022-09-07T10:29:28Z</time>
      </trkpt>
      <trkpt lat="43.10953" lon="0.01015">
        <ele>425.8</ele>
        <time>2022-09-07T10:29:34Z</time>
      </trkpt>
      <trkpt lat="43.10927" lon="0.00994">
        <ele>426.4</ele>
        <time>2022-09-07T10:29:42Z</time>
      </trkpt>
      <trkpt lat="43.10919" lon="0.00988">
        <ele>426.8</ele>
        <time>2022-09-07T10:29:45Z</time>
      </trkpt>
      <trkpt lat="43.10909" lon="0.00981">
        <ele>427.6</ele>
        <time>2022-09-07T10:29:50Z</time>
      </trkpt>
      <trkpt lat="43.10905" lon="0.00979">
        <ele>427.8</ele>
        <time>2022-09-07T10:29:52Z</time>
      </trkpt>
      <trkpt lat="43.10899" lon="0.00975">
        <ele>428.4</ele>
        <time>2022-09-07T10:29:56Z</time>
      </trkpt>
      <trkpt lat="43.10896" lon="0.00972">
        <ele>429</ele>
        <time>2022-09-07T10:29:58Z</time>
      </trkpt>
      <trkpt lat="43.10892" lon="0.0097">
        <ele>429.2</ele>
        <time>2022-09-07T10:30:00Z</time>
      </trkpt>
      <trkpt lat="43.10889" lon="0.00968">
        <ele>429.4</ele>
        <time>2022-09-07T10:30:02Z</time>
      </trkpt>
      <trkpt lat="43.10886" lon="0.00964">
        <ele>429.6</ele>
        <time>2022-09-07T10:30:04Z</time>
      </trkpt>
      <trkpt lat="43.10882" lon="0.0096">
        <ele>430</ele>
        <time>2022-09-07T10:30:07Z</time>
      </trkpt>
      <trkpt lat="43.10875" lon="0.00951">
        <ele>431</ele>
        <time>2022-09-07T10:30:12Z</time>
      </trkpt>
      <trkpt lat="43.1087" lon="0.00946">
        <ele>431.4</ele>
        <time>2022-09-07T10:30:15Z</time>
      </trkpt>
      <trkpt lat="43.10861" lon="0.00938">
        <ele>432</ele>
        <time>2022-09-07T10:30:20Z</time>
      </trkpt>
      <trkpt lat="43.10857" lon="0.00935">
        <ele>432.8</ele>
        <time>2022-09-07T10:30:23Z</time>
      </trkpt>
      <trkpt lat="43.10854" lon="0.00933">
        <ele>433</ele>
        <time>2022-09-07T10:30:25Z</time>
      </trkpt>
      <trkpt lat="43.10844" lon="0.00928">
        <ele>433.6</ele>
        <time>2022-09-07T10:30:30Z</time>
      </trkpt>
      <trkpt lat="43.10839" lon="0.00924">
        <ele>434.2</ele>
        <time>2022-09-07T10:30:33Z</time>
      </trkpt>
      <trkpt lat="43.10832" lon="0.00918">
        <ele>435</ele>
        <time>2022-09-07T10:30:38Z</time>
      </trkpt>
      <trkpt lat="43.10829" lon="0.00917">
        <ele>435.2</ele>
        <time>2022-09-07T10:30:40Z</time>
      </trkpt>
      <trkpt lat="43.10825" lon="0.00915">
        <ele>435.4</ele>
        <time>2022-09-07T10:30:42Z</time>
      </trkpt>
      <trkpt lat="43.10823" lon="0.00912">
        <ele>435.8</ele>
        <time>2022-09-07T10:30:44Z</time>
      </trkpt>
      <trkpt lat="43.1082" lon="0.00911">
        <ele>436.4</ele>
        <time>2022-09-07T10:30:46Z</time>
      </trkpt>
      <trkpt lat="43.10816" lon="0.00908">
        <ele>436.4</ele>
        <time>2022-09-07T10:30:49Z</time>
      </trkpt>
      <trkpt lat="43.10807" lon="0.00902">
        <ele>437.2</ele>
        <time>2022-09-07T10:30:55Z</time>
      </trkpt>
      <trkpt lat="43.10806" lon="0.009">
        <ele>437.4</ele>
        <time>2022-09-07T10:30:56Z</time>
      </trkpt>
      <trkpt lat="43.10803" lon="0.00898">
        <ele>437.4</ele>
        <time>2022-09-07T10:30:58Z</time>
      </trkpt>
      <trkpt lat="43.10797" lon="0.00893">
        <ele>437.6</ele>
        <time>2022-09-07T10:31:02Z</time>
      </trkpt>
      <trkpt lat="43.10785" lon="0.00886">
        <ele>438.6</ele>
        <time>2022-09-07T10:31:09Z</time>
      </trkpt>
      <trkpt lat="43.10783" lon="0.00885">
        <ele>438.6</ele>
        <time>2022-09-07T10:31:10Z</time>
      </trkpt>
      <trkpt lat="43.10772" lon="0.00877">
        <ele>439.6</ele>
        <time>2022-09-07T10:31:17Z</time>
      </trkpt>
      <trkpt lat="43.1077" lon="0.00875">
        <ele>439.6</ele>
        <time>2022-09-07T10:31:18Z</time>
      </trkpt>
      <trkpt lat="43.10764" lon="0.00867">
        <ele>440</ele>
        <time>2022-09-07T10:31:23Z</time>
      </trkpt>
      <trkpt lat="43.10761" lon="0.00862">
        <ele>440.6</ele>
        <time>2022-09-07T10:31:26Z</time>
      </trkpt>
      <trkpt lat="43.10756" lon="0.00855">
        <ele>441.2</ele>
        <time>2022-09-07T10:31:30Z</time>
      </trkpt>
      <trkpt lat="43.1075" lon="0.00848">
        <ele>441.8</ele>
        <time>2022-09-07T10:31:34Z</time>
      </trkpt>
      <trkpt lat="43.10747" lon="0.00845">
        <ele>442.2</ele>
        <time>2022-09-07T10:31:36Z</time>
      </trkpt>
      <trkpt lat="43.10745" lon="0.00841">
        <ele>442.4</ele>
        <time>2022-09-07T10:31:38Z</time>
      </trkpt>
      <trkpt lat="43.10738" lon="0.00826">
        <ele>442.8</ele>
        <time>2022-09-07T10:31:45Z</time>
      </trkpt>
      <trkpt lat="43.10736" lon="0.00819">
        <ele>443</ele>
        <time>2022-09-07T10:31:48Z</time>
      </trkpt>
      <trkpt lat="43.10734" lon="0.00814">
        <ele>443.2</ele>
        <time>2022-09-07T10:31:50Z</time>
      </trkpt>
      <trkpt lat="43.10728" lon="0.00797">
        <ele>443.4</ele>
        <time>2022-09-07T10:31:56Z</time>
      </trkpt>
      <trkpt lat="43.1072" lon="0.00775">
        <ele>443.2</ele>
        <time>2022-09-07T10:32:03Z</time>
      </trkpt>
      <trkpt lat="43.10714" lon="0.00755">
        <ele>443</ele>
        <time>2022-09-07T10:32:08Z</time>
      </trkpt>
      <trkpt lat="43.10698" lon="0.0072">
        <ele>443.2</ele>
        <time>2022-09-07T10:32:16Z</time>
      </trkpt>
      <trkpt lat="43.10678" lon="0.00696">
        <ele>443.2</ele>
        <time>2022-09-07T10:32:23Z</time>
      </trkpt>
      <trkpt lat="43.10661" lon="0.00679">
        <ele>443.6</ele>
        <time>2022-09-07T10:32:29Z</time>
      </trkpt>
      <trkpt lat="43.10642" lon="0.00653">
        <ele>443.8</ele>
        <time>2022-09-07T10:32:37Z</time>
      </trkpt>
      <trkpt lat="43.1064" lon="0.00649">
        <ele>444</ele>
        <time>2022-09-07T10:32:38Z</time>
      </trkpt>
      <trkpt lat="43.10627" lon="0.00622">
        <ele>444.6</ele>
        <time>2022-09-07T10:32:45Z</time>
      </trkpt>
      <trkpt lat="43.10619" lon="0.00599">
        <ele>444.8</ele>
        <time>2022-09-07T10:32:51Z</time>
      </trkpt>
      <trkpt lat="43.10614" lon="0.00582">
        <ele>445.2</ele>
        <time>2022-09-07T10:32:55Z</time>
      </trkpt>
      <trkpt lat="43.10608" lon="0.00565">
        <ele>445</ele>
        <time>2022-09-07T10:32:59Z</time>
      </trkpt>
      <trkpt lat="43.10597" lon="0.00528">
        <ele>445</ele>
        <time>2022-09-07T10:33:08Z</time>
      </trkpt>
      <trkpt lat="43.1059" lon="0.00501">
        <ele>445.8</ele>
        <time>2022-09-07T10:33:15Z</time>
      </trkpt>
      <trkpt lat="43.10586" lon="0.00493">
        <ele>446.2</ele>
        <time>2022-09-07T10:33:18Z</time>
      </trkpt>
      <trkpt lat="43.10578" lon="0.00481">
        <ele>446.8</ele>
        <time>2022-09-07T10:33:24Z</time>
      </trkpt>
      <trkpt lat="43.10573" lon="0.00473">
        <ele>447.4</ele>
        <time>2022-09-07T10:33:29Z</time>
      </trkpt>
      <trkpt lat="43.10569" lon="0.00472">
        <ele>447.8</ele>
        <time>2022-09-07T10:33:31Z</time>
      </trkpt>
      <trkpt lat="43.10568" lon="0.00472">
        <ele>448.2</ele>
        <time>2022-09-07T10:33:32Z</time>
      </trkpt>
      <trkpt lat="43.10566" lon="0.00469">
        <ele>448.8</ele>
        <time>2022-09-07T10:33:34Z</time>
      </trkpt>
      <trkpt lat="43.10565" lon="0.00466">
        <ele>448.8</ele>
        <time>2022-09-07T10:33:36Z</time>
      </trkpt>
      <trkpt lat="43.10561" lon="0.00463">
        <ele>449.6</ele>
        <time>2022-09-07T10:33:40Z</time>
      </trkpt>
      <trkpt lat="43.1056" lon="0.00461">
        <ele>449.8</ele>
        <time>2022-09-07T10:33:41Z</time>
      </trkpt>
      <trkpt lat="43.10557" lon="0.00457">
        <ele>450.2</ele>
        <time>2022-09-07T10:33:44Z</time>
      </trkpt>
      <trkpt lat="43.10556" lon="0.00456">
        <ele>450.2</ele>
        <time>2022-09-07T10:33:45Z</time>
      </trkpt>
      <trkpt lat="43.10553" lon="0.00453">
        <ele>450.8</ele>
        <time>2022-09-07T10:33:48Z</time>
      </trkpt>
      <trkpt lat="43.10552" lon="0.0045">
        <ele>451</ele>
        <time>2022-09-07T10:33:50Z</time>
      </trkpt>
      <trkpt lat="43.10546" lon="0.00444">
        <ele>451.8</ele>
        <time>2022-09-07T10:33:55Z</time>
      </trkpt>
      <trkpt lat="43.10545" lon="0.00443">
        <ele>452</ele>
        <time>2022-09-07T10:33:56Z</time>
      </trkpt>
      <trkpt lat="43.10543" lon="0.00436">
        <ele>452.6</ele>
        <time>2022-09-07T10:34:01Z</time>
      </trkpt>
      <trkpt lat="43.10542" lon="0.00435">
        <ele>452.6</ele>
        <time>2022-09-07T10:34:02Z</time>
      </trkpt>
      <trkpt lat="43.10539" lon="0.00432">
        <ele>453</ele>
        <time>2022-09-07T10:34:04Z</time>
      </trkpt>
      <trkpt lat="43.10532" lon="0.00421">
        <ele>453.8</ele>
        <time>2022-09-07T10:34:12Z</time>
      </trkpt>
      <trkpt lat="43.10531" lon="0.00419">
        <ele>454</ele>
        <time>2022-09-07T10:34:13Z</time>
      </trkpt>
      <trkpt lat="43.10526" lon="0.0041">
        <ele>454.8</ele>
        <time>2022-09-07T10:34:19Z</time>
      </trkpt>
      <trkpt lat="43.10524" lon="0.00408">
        <ele>455</ele>
        <time>2022-09-07T10:34:20Z</time>
      </trkpt>
      <trkpt lat="43.10518" lon="0.00401">
        <ele>455.4</ele>
        <time>2022-09-07T10:34:25Z</time>
      </trkpt>
      <trkpt lat="43.10515" lon="0.00392">
        <ele>456.2</ele>
        <time>2022-09-07T10:34:30Z</time>
      </trkpt>
      <trkpt lat="43.10514" lon="0.0039">
        <ele>456.4</ele>
        <time>2022-09-07T10:34:31Z</time>
      </trkpt>
      <trkpt lat="43.10508" lon="0.00382">
        <ele>457.2</ele>
        <time>2022-09-07T10:34:37Z</time>
      </trkpt>
      <trkpt lat="43.10507" lon="0.0038">
        <ele>457.4</ele>
        <time>2022-09-07T10:34:38Z</time>
      </trkpt>
      <trkpt lat="43.10504" lon="0.00372">
        <ele>458.2</ele>
        <time>2022-09-07T10:34:43Z</time>
      </trkpt>
      <trkpt lat="43.10503" lon="0.0037">
        <ele>458.4</ele>
        <time>2022-09-07T10:34:44Z</time>
      </trkpt>
      <trkpt lat="43.10497" lon="0.00361">
        <ele>459.6</ele>
        <time>2022-09-07T10:34:50Z</time>
      </trkpt>
      <trkpt lat="43.10491" lon="0.00352">
        <ele>460.8</ele>
        <time>2022-09-07T10:34:56Z</time>
      </trkpt>
      <trkpt lat="43.10486" lon="0.00342">
        <ele>461.6</ele>
        <time>2022-09-07T10:35:02Z</time>
      </trkpt>
      <trkpt lat="43.10484" lon="0.00339">
        <ele>461.8</ele>
        <time>2022-09-07T10:35:04Z</time>
      </trkpt>
      <trkpt lat="43.10479" lon="0.00331">
        <ele>462.4</ele>
        <time>2022-09-07T10:35:09Z</time>
      </trkpt>
      <trkpt lat="43.10478" lon="0.00327">
        <ele>462.8</ele>
        <time>2022-09-07T10:35:11Z</time>
      </trkpt>
      <trkpt lat="43.10474" lon="0.0032">
        <ele>463.2</ele>
        <time>2022-09-07T10:35:15Z</time>
      </trkpt>
      <trkpt lat="43.1047" lon="0.00315">
        <ele>463.4</ele>
        <time>2022-09-07T10:35:18Z</time>
      </trkpt>
      <trkpt lat="43.10464" lon="0.00307">
        <ele>463.8</ele>
        <time>2022-09-07T10:35:23Z</time>
      </trkpt>
      <trkpt lat="43.10463" lon="0.00305">
        <ele>464</ele>
        <time>2022-09-07T10:35:24Z</time>
      </trkpt>
      <trkpt lat="43.10451" lon="0.00288">
        <ele>464.8</ele>
        <time>2022-09-07T10:35:34Z</time>
      </trkpt>
      <trkpt lat="43.1045" lon="0.00286">
        <ele>465</ele>
        <time>2022-09-07T10:35:35Z</time>
      </trkpt>
      <trkpt lat="43.10442" lon="0.00277">
        <ele>465.6</ele>
        <time>2022-09-07T10:35:41Z</time>
      </trkpt>
      <trkpt lat="43.10438" lon="0.00273">
        <ele>466.2</ele>
        <time>2022-09-07T10:35:44Z</time>
      </trkpt>
      <trkpt lat="43.10434" lon="0.00269">
        <ele>466.2</ele>
        <time>2022-09-07T10:35:47Z</time>
      </trkpt>
      <trkpt lat="43.10428" lon="0.00263">
        <ele>467.2</ele>
        <time>2022-09-07T10:35:52Z</time>
      </trkpt>
      <trkpt lat="43.10422" lon="0.00258">
        <ele>467.8</ele>
        <time>2022-09-07T10:35:56Z</time>
      </trkpt>
      <trkpt lat="43.10421" lon="0.00257">
        <ele>468</ele>
        <time>2022-09-07T10:35:57Z</time>
      </trkpt>
      <trkpt lat="43.1042" lon="0.00255">
        <ele>468.4</ele>
        <time>2022-09-07T10:35:58Z</time>
      </trkpt>
      <trkpt lat="43.10418" lon="0.00248">
        <ele>469</ele>
        <time>2022-09-07T10:36:02Z</time>
      </trkpt>
      <trkpt lat="43.10416" lon="0.00243">
        <ele>469.6</ele>
        <time>2022-09-07T10:36:05Z</time>
      </trkpt>
      <trkpt lat="43.10412" lon="0.00236">
        <ele>470.2</ele>
        <time>2022-09-07T10:36:09Z</time>
      </trkpt>
      <trkpt lat="43.10411" lon="0.00233">
        <ele>470.8</ele>
        <time>2022-09-07T10:36:11Z</time>
      </trkpt>
      <trkpt lat="43.10406" lon="0.00226">
        <ele>471.8</ele>
        <time>2022-09-07T10:36:16Z</time>
      </trkpt>
      <trkpt lat="43.10404" lon="0.00225">
        <ele>472</ele>
        <time>2022-09-07T10:36:17Z</time>
      </trkpt>
      <trkpt lat="43.10403" lon="0.00223">
        <ele>472.2</ele>
        <time>2022-09-07T10:36:18Z</time>
      </trkpt>
      <trkpt lat="43.10403" lon="0.00218">
        <ele>472.8</ele>
        <time>2022-09-07T10:36:21Z</time>
      </trkpt>
      <trkpt lat="43.10403" lon="0.00216">
        <ele>473.2</ele>
        <time>2022-09-07T10:36:22Z</time>
      </trkpt>
      <trkpt lat="43.10399" lon="0.00212">
        <ele>473.8</ele>
        <time>2022-09-07T10:36:26Z</time>
      </trkpt>
      <trkpt lat="43.10399" lon="0.00209">
        <ele>474.2</ele>
        <time>2022-09-07T10:36:28Z</time>
      </trkpt>
      <trkpt lat="43.10399" lon="0.00204">
        <ele>474.6</ele>
        <time>2022-09-07T10:36:31Z</time>
      </trkpt>
      <trkpt lat="43.10398" lon="0.00203">
        <ele>474.8</ele>
        <time>2022-09-07T10:36:32Z</time>
      </trkpt>
      <trkpt lat="43.10395" lon="0.002">
        <ele>475.2</ele>
        <time>2022-09-07T10:36:35Z</time>
      </trkpt>
      <trkpt lat="43.10395" lon="0.00199">
        <ele>475.4</ele>
        <time>2022-09-07T10:36:36Z</time>
      </trkpt>
      <trkpt lat="43.10392" lon="0.00191">
        <ele>476.2</ele>
        <time>2022-09-07T10:36:42Z</time>
      </trkpt>
      <trkpt lat="43.10391" lon="0.00186">
        <ele>476.8</ele>
        <time>2022-09-07T10:36:45Z</time>
      </trkpt>
      <trkpt lat="43.10391" lon="0.00184">
        <ele>477</ele>
        <time>2022-09-07T10:36:46Z</time>
      </trkpt>
      <trkpt lat="43.10391" lon="0.00181">
        <ele>477.2</ele>
        <time>2022-09-07T10:36:48Z</time>
      </trkpt>
      <trkpt lat="43.1039" lon="0.0018">
        <ele>477.6</ele>
        <time>2022-09-07T10:36:49Z</time>
      </trkpt>
      <trkpt lat="43.10388" lon="0.00177">
        <ele>478</ele>
        <time>2022-09-07T10:36:51Z</time>
      </trkpt>
      <trkpt lat="43.10386" lon="0.00168">
        <ele>478.6</ele>
        <time>2022-09-07T10:36:57Z</time>
      </trkpt>
      <trkpt lat="43.10385" lon="0.00163">
        <ele>479.2</ele>
        <time>2022-09-07T10:37:01Z</time>
      </trkpt>
      <trkpt lat="43.10385" lon="0.00162">
        <ele>479.4</ele>
        <time>2022-09-07T10:37:02Z</time>
      </trkpt>
      <trkpt lat="43.10385" lon="0.00158">
        <ele>479.6</ele>
        <time>2022-09-07T10:37:04Z</time>
      </trkpt>
      <trkpt lat="43.10383" lon="0.00155">
        <ele>479.8</ele>
        <time>2022-09-07T10:37:06Z</time>
      </trkpt>
      <trkpt lat="43.10383" lon="0.00154">
        <ele>480</ele>
        <time>2022-09-07T10:37:07Z</time>
      </trkpt>
      <trkpt lat="43.10381" lon="0.00152">
        <ele>480.4</ele>
        <time>2022-09-07T10:37:09Z</time>
      </trkpt>
      <trkpt lat="43.1038" lon="0.00147">
        <ele>481</ele>
        <time>2022-09-07T10:37:12Z</time>
      </trkpt>
      <trkpt lat="43.10379" lon="0.00146">
        <ele>481</ele>
        <time>2022-09-07T10:37:13Z</time>
      </trkpt>
      <trkpt lat="43.1037" lon="0.00139">
        <ele>481.6</ele>
        <time>2022-09-07T10:37:20Z</time>
      </trkpt>
      <trkpt lat="43.10359" lon="0.00129">
        <ele>482</ele>
        <time>2022-09-07T10:37:27Z</time>
      </trkpt>
      <trkpt lat="43.10358" lon="0.00128">
        <ele>482</ele>
        <time>2022-09-07T10:37:28Z</time>
      </trkpt>
      <trkpt lat="43.10348" lon="0.00122">
        <ele>482.4</ele>
        <time>2022-09-07T10:37:33Z</time>
      </trkpt>
      <trkpt lat="43.10346" lon="0.00121">
        <ele>482.8</ele>
        <time>2022-09-07T10:37:34Z</time>
      </trkpt>
      <trkpt lat="43.10339" lon="0.00118">
        <ele>483</ele>
        <time>2022-09-07T10:37:38Z</time>
      </trkpt>
      <trkpt lat="43.10336" lon="0.00117">
        <ele>483.2</ele>
        <time>2022-09-07T10:37:40Z</time>
      </trkpt>
      <trkpt lat="43.10327" lon="0.00114">
        <ele>484</ele>
        <time>2022-09-07T10:37:45Z</time>
      </trkpt>
      <trkpt lat="43.10322" lon="0.00114">
        <ele>484.6</ele>
        <time>2022-09-07T10:37:48Z</time>
      </trkpt>
      <trkpt lat="43.10314" lon="0.00115">
        <ele>484.6</ele>
        <time>2022-09-07T10:37:54Z</time>
      </trkpt>
      <trkpt lat="43.10307" lon="0.00113">
        <ele>485.2</ele>
        <time>2022-09-07T10:37:58Z</time>
      </trkpt>
      <trkpt lat="43.103" lon="0.00111">
        <ele>485.6</ele>
        <time>2022-09-07T10:38:01Z</time>
      </trkpt>
      <trkpt lat="43.10289" lon="0.00109">
        <ele>486.4</ele>
        <time>2022-09-07T10:38:06Z</time>
      </trkpt>
      <trkpt lat="43.10285" lon="0.00108">
        <ele>486.6</ele>
        <time>2022-09-07T10:38:08Z</time>
      </trkpt>
      <trkpt lat="43.10273" lon="0.00107">
        <ele>487.4</ele>
        <time>2022-09-07T10:38:15Z</time>
      </trkpt>
      <trkpt lat="43.1027" lon="0.00108">
        <ele>488</ele>
        <time>2022-09-07T10:38:17Z</time>
      </trkpt>
      <trkpt lat="43.10267" lon="0.00107">
        <ele>488.4</ele>
        <time>2022-09-07T10:38:19Z</time>
      </trkpt>
      <trkpt lat="43.10261" lon="0.00107">
        <ele>489.2</ele>
        <time>2022-09-07T10:38:23Z</time>
      </trkpt>
      <trkpt lat="43.10256" lon="0.00106">
        <ele>489.4</ele>
        <time>2022-09-07T10:38:26Z</time>
      </trkpt>
      <trkpt lat="43.10246" lon="0.00102">
        <ele>490.6</ele>
        <time>2022-09-07T10:38:32Z</time>
      </trkpt>
      <trkpt lat="43.10234" lon="0.00097">
        <ele>489.6</ele>
        <time>2022-09-07T10:38:39Z</time>
      </trkpt>
      <trkpt lat="43.10231" lon="0.00096">
        <ele>489.4</ele>
        <time>2022-09-07T10:38:40Z</time>
      </trkpt>
      <trkpt lat="43.10227" lon="0.00095">
        <ele>488.8</ele>
        <time>2022-09-07T10:38:44Z</time>
      </trkpt>
      <trkpt lat="43.10225" lon="0.00092">
        <ele>489.8</ele>
        <time>2022-09-07T10:39:54Z</time>
      </trkpt>
      <trkpt lat="43.10223" lon="0.00086">
        <ele>489.6</ele>
        <time>2022-09-07T10:39:56Z</time>
      </trkpt>
      <trkpt lat="43.10219" lon="0.00067">
        <ele>489.6</ele>
        <time>2022-09-07T10:40:01Z</time>
      </trkpt>
      <trkpt lat="43.10219" lon="0.00037">
        <ele>488.8</ele>
        <time>2022-09-07T10:40:06Z</time>
      </trkpt>
      <trkpt lat="43.10221" lon="0.00014">
        <ele>488.4</ele>
        <time>2022-09-07T10:40:09Z</time>
      </trkpt>
      <trkpt lat="43.10222" lon="-0.00012">
        <ele>487</ele>
        <time>2022-09-07T10:40:12Z</time>
      </trkpt>
      <trkpt lat="43.10226" lon="-0.00073">
        <ele>486.8</ele>
        <time>2022-09-07T10:40:19Z</time>
      </trkpt>
      <trkpt lat="43.10228" lon="-0.001">
        <ele>485.2</ele>
        <time>2022-09-07T10:40:22Z</time>
      </trkpt>
      <trkpt lat="43.10231" lon="-0.00128">
        <ele>484.4</ele>
        <time>2022-09-07T10:40:25Z</time>
      </trkpt>
      <trkpt lat="43.10232" lon="-0.00137">
        <ele>484.2</ele>
        <time>2022-09-07T10:40:26Z</time>
      </trkpt>
      <trkpt lat="43.10235" lon="-0.00171">
        <ele>483.4</ele>
        <time>2022-09-07T10:40:30Z</time>
      </trkpt>
      <trkpt lat="43.10238" lon="-0.00198">
        <ele>483.8</ele>
        <time>2022-09-07T10:40:35Z</time>
      </trkpt>
      <trkpt lat="43.10237" lon="-0.00203">
        <ele>483.6</ele>
        <time>2022-09-07T10:40:36Z</time>
      </trkpt>
      <trkpt lat="43.1023" lon="-0.00207">
        <ele>482.8</ele>
        <time>2022-09-07T10:40:38Z</time>
      </trkpt>
      <trkpt lat="43.10225" lon="-0.00204">
        <ele>482.2</ele>
        <time>2022-09-07T10:40:39Z</time>
      </trkpt>
      <trkpt lat="43.1022" lon="-0.00198">
        <ele>481.6</ele>
        <time>2022-09-07T10:40:40Z</time>
      </trkpt>
      <trkpt lat="43.10216" lon="-0.00192">
        <ele>480.8</ele>
        <time>2022-09-07T10:40:41Z</time>
      </trkpt>
      <trkpt lat="43.10213" lon="-0.00188">
        <ele>479.8</ele>
        <time>2022-09-07T10:40:42Z</time>
      </trkpt>
      <trkpt lat="43.10211" lon="-0.00184">
        <ele>478.8</ele>
        <time>2022-09-07T10:40:43Z</time>
      </trkpt>
      <trkpt lat="43.10209" lon="-0.0018">
        <ele>477.4</ele>
        <time>2022-09-07T10:40:45Z</time>
      </trkpt>
      <trkpt lat="43.10207" lon="-0.00176">
        <ele>476.6</ele>
        <time>2022-09-07T10:40:47Z</time>
      </trkpt>
      <trkpt lat="43.10205" lon="-0.00173">
        <ele>476.8</ele>
        <time>2022-09-07T10:41:31Z</time>
      </trkpt>
      <trkpt lat="43.10204" lon="-0.00169">
        <ele>476.6</ele>
        <time>2022-09-07T10:41:32Z</time>
      </trkpt>
      <trkpt lat="43.10201" lon="-0.00164">
        <ele>476.4</ele>
        <time>2022-09-07T10:41:33Z</time>
      </trkpt>
      <trkpt lat="43.10193" lon="-0.00152">
        <ele>475.4</ele>
        <time>2022-09-07T10:41:35Z</time>
      </trkpt>
      <trkpt lat="43.10188" lon="-0.00145">
        <ele>474.8</ele>
        <time>2022-09-07T10:41:36Z</time>
      </trkpt>
      <trkpt lat="43.1018" lon="-0.00126">
        <ele>473</ele>
        <time>2022-09-07T10:41:38Z</time>
      </trkpt>
      <trkpt lat="43.10175" lon="-0.00115">
        <ele>472</ele>
        <time>2022-09-07T10:41:39Z</time>
      </trkpt>
      <trkpt lat="43.10171" lon="-0.00103">
        <ele>471.4</ele>
        <time>2022-09-07T10:41:40Z</time>
      </trkpt>
      <trkpt lat="43.10164" lon="-0.00077">
        <ele>469.6</ele>
        <time>2022-09-07T10:41:42Z</time>
      </trkpt>
      <trkpt lat="43.1016" lon="-0.00063">
        <ele>468.8</ele>
        <time>2022-09-07T10:41:43Z</time>
      </trkpt>
      <trkpt lat="43.10155" lon="-0.00049">
        <ele>467.4</ele>
        <time>2022-09-07T10:41:44Z</time>
      </trkpt>
      <trkpt lat="43.1015" lon="-0.00035">
        <ele>466.4</ele>
        <time>2022-09-07T10:41:45Z</time>
      </trkpt>
      <trkpt lat="43.10145" lon="-0.00022">
        <ele>465.2</ele>
        <time>2022-09-07T10:41:46Z</time>
      </trkpt>
      <trkpt lat="43.10133" lon="5.0E-5">
        <ele>464.2</ele>
        <time>2022-09-07T10:41:48Z</time>
      </trkpt>
      <trkpt lat="43.10121" lon="0.00031">
        <ele>461.4</ele>
        <time>2022-09-07T10:41:50Z</time>
      </trkpt>
      <trkpt lat="43.10116" lon="0.00044">
        <ele>459.6</ele>
        <time>2022-09-07T10:41:51Z</time>
      </trkpt>
      <trkpt lat="43.1011" lon="0.00056">
        <ele>457.8</ele>
        <time>2022-09-07T10:41:52Z</time>
      </trkpt>
      <trkpt lat="43.10104" lon="0.00067">
        <ele>456.8</ele>
        <time>2022-09-07T10:41:53Z</time>
      </trkpt>
      <trkpt lat="43.10098" lon="0.00079">
        <ele>455.4</ele>
        <time>2022-09-07T10:41:54Z</time>
      </trkpt>
      <trkpt lat="43.10092" lon="0.00091">
        <ele>454.2</ele>
        <time>2022-09-07T10:41:55Z</time>
      </trkpt>
      <trkpt lat="43.10086" lon="0.00102">
        <ele>453</ele>
        <time>2022-09-07T10:41:56Z</time>
      </trkpt>
      <trkpt lat="43.10081" lon="0.00112">
        <ele>452</ele>
        <time>2022-09-07T10:41:57Z</time>
      </trkpt>
      <trkpt lat="43.10076" lon="0.00121">
        <ele>450.2</ele>
        <time>2022-09-07T10:41:58Z</time>
      </trkpt>
      <trkpt lat="43.1007" lon="0.00131">
        <ele>449</ele>
        <time>2022-09-07T10:41:59Z</time>
      </trkpt>
      <trkpt lat="43.10066" lon="0.0014">
        <ele>448</ele>
        <time>2022-09-07T10:42:00Z</time>
      </trkpt>
      <trkpt lat="43.10062" lon="0.00149">
        <ele>446.6</ele>
        <time>2022-09-07T10:42:01Z</time>
      </trkpt>
      <trkpt lat="43.10055" lon="0.00169">
        <ele>444.8</ele>
        <time>2022-09-07T10:42:03Z</time>
      </trkpt>
      <trkpt lat="43.10053" lon="0.00178">
        <ele>444</ele>
        <time>2022-09-07T10:42:04Z</time>
      </trkpt>
      <trkpt lat="43.10052" lon="0.00187">
        <ele>443.2</ele>
        <time>2022-09-07T10:42:05Z</time>
      </trkpt>
      <trkpt lat="43.10049" lon="0.00193">
        <ele>442.4</ele>
        <time>2022-09-07T10:42:06Z</time>
      </trkpt>
      <trkpt lat="43.10045" lon="0.00196">
        <ele>441.6</ele>
        <time>2022-09-07T10:42:07Z</time>
      </trkpt>
      <trkpt lat="43.10036" lon="0.00191">
        <ele>441</ele>
        <time>2022-09-07T10:42:09Z</time>
      </trkpt>
      <trkpt lat="43.10035" lon="0.00181">
        <ele>440.4</ele>
        <time>2022-09-07T10:42:10Z</time>
      </trkpt>
      <trkpt lat="43.10036" lon="0.00171">
        <ele>439.6</ele>
        <time>2022-09-07T10:42:11Z</time>
      </trkpt>
      <trkpt lat="43.10037" lon="0.00161">
        <ele>438.6</ele>
        <time>2022-09-07T10:42:12Z</time>
      </trkpt>
      <trkpt lat="43.10038" lon="0.0015">
        <ele>438</ele>
        <time>2022-09-07T10:42:13Z</time>
      </trkpt>
      <trkpt lat="43.10041" lon="0.0014">
        <ele>437.6</ele>
        <time>2022-09-07T10:42:14Z</time>
      </trkpt>
      <trkpt lat="43.10044" lon="0.00128">
        <ele>436.8</ele>
        <time>2022-09-07T10:42:15Z</time>
      </trkpt>
      <trkpt lat="43.10046" lon="0.00117">
        <ele>436.2</ele>
        <time>2022-09-07T10:42:16Z</time>
      </trkpt>
      <trkpt lat="43.10051" lon="0.00091">
        <ele>434.6</ele>
        <time>2022-09-07T10:42:18Z</time>
      </trkpt>
      <trkpt lat="43.10053" lon="0.00077">
        <ele>434</ele>
        <time>2022-09-07T10:42:19Z</time>
      </trkpt>
      <trkpt lat="43.10056" lon="0.00064">
        <ele>433.4</ele>
        <time>2022-09-07T10:42:20Z</time>
      </trkpt>
      <trkpt lat="43.10064" lon="0.00035">
        <ele>431.4</ele>
        <time>2022-09-07T10:42:22Z</time>
      </trkpt>
      <trkpt lat="43.10071" lon="6.0E-5">
        <ele>429.6</ele>
        <time>2022-09-07T10:42:24Z</time>
      </trkpt>
      <trkpt lat="43.10077" lon="-0.00024">
        <ele>428.4</ele>
        <time>2022-09-07T10:42:26Z</time>
      </trkpt>
      <trkpt lat="43.1008" lon="-0.0004">
        <ele>427.2</ele>
        <time>2022-09-07T10:42:27Z</time>
      </trkpt>
      <trkpt lat="43.10085" lon="-0.0007">
        <ele>425.6</ele>
        <time>2022-09-07T10:42:29Z</time>
      </trkpt>
      <trkpt lat="43.10088" lon="-0.00085">
        <ele>425.4</ele>
        <time>2022-09-07T10:42:30Z</time>
      </trkpt>
      <trkpt lat="43.10096" lon="-0.0014">
        <ele>424.4</ele>
        <time>2022-09-07T10:42:35Z</time>
      </trkpt>
      <trkpt lat="43.10097" lon="-0.00154">
        <ele>424.2</ele>
        <time>2022-09-07T10:42:36Z</time>
      </trkpt>
      <trkpt lat="43.10096" lon="-0.00203">
        <ele>423.6</ele>
        <time>2022-09-07T10:42:40Z</time>
      </trkpt>
      <trkpt lat="43.10095" lon="-0.00225">
        <ele>423.2</ele>
        <time>2022-09-07T10:42:42Z</time>
      </trkpt>
      <trkpt lat="43.10093" lon="-0.00255">
        <ele>421.6</ele>
        <time>2022-09-07T10:42:45Z</time>
      </trkpt>
      <trkpt lat="43.10093" lon="-0.00265">
        <ele>420.8</ele>
        <time>2022-09-07T10:42:46Z</time>
      </trkpt>
      <trkpt lat="43.1009" lon="-0.00297">
        <ele>419.6</ele>
        <time>2022-09-07T10:42:49Z</time>
      </trkpt>
      <trkpt lat="43.10089" lon="-0.00308">
        <ele>418.6</ele>
        <time>2022-09-07T10:42:50Z</time>
      </trkpt>
      <trkpt lat="43.10087" lon="-0.00319">
        <ele>418</ele>
        <time>2022-09-07T10:42:51Z</time>
      </trkpt>
      <trkpt lat="43.10085" lon="-0.00339">
        <ele>417.2</ele>
        <time>2022-09-07T10:42:53Z</time>
      </trkpt>
      <trkpt lat="43.10083" lon="-0.00348">
        <ele>416</ele>
        <time>2022-09-07T10:42:54Z</time>
      </trkpt>
      <trkpt lat="43.10081" lon="-0.00357">
        <ele>414.2</ele>
        <time>2022-09-07T10:42:55Z</time>
      </trkpt>
      <trkpt lat="43.1008" lon="-0.00364">
        <ele>412.4</ele>
        <time>2022-09-07T10:42:56Z</time>
      </trkpt>
      <trkpt lat="43.10078" lon="-0.00371">
        <ele>411.4</ele>
        <time>2022-09-07T10:42:57Z</time>
      </trkpt>
      <trkpt lat="43.10072" lon="-0.00383">
        <ele>409.6</ele>
        <time>2022-09-07T10:42:59Z</time>
      </trkpt>
      <trkpt lat="43.10069" lon="-0.00388">
        <ele>409</ele>
        <time>2022-09-07T10:43:00Z</time>
      </trkpt>
      <trkpt lat="43.10066" lon="-0.00392">
        <ele>408.4</ele>
        <time>2022-09-07T10:43:01Z</time>
      </trkpt>
      <trkpt lat="43.10063" lon="-0.004">
        <ele>407.2</ele>
        <time>2022-09-07T10:43:03Z</time>
      </trkpt>
      <trkpt lat="43.10062" lon="-0.00405">
        <ele>406.8</ele>
        <time>2022-09-07T10:43:04Z</time>
      </trkpt>
      <trkpt lat="43.10063" lon="-0.00409">
        <ele>406.6</ele>
        <time>2022-09-07T10:43:05Z</time>
      </trkpt>
      <trkpt lat="43.10065" lon="-0.00415">
        <ele>406.2</ele>
        <time>2022-09-07T10:43:06Z</time>
      </trkpt>
      <trkpt lat="43.10069" lon="-0.00424">
        <ele>406.2</ele>
        <time>2022-09-07T10:43:08Z</time>
      </trkpt>
      <trkpt lat="43.10073" lon="-0.00434">
        <ele>406.6</ele>
        <time>2022-09-07T10:43:10Z</time>
      </trkpt>
      <trkpt lat="43.10085" lon="-0.00477">
        <ele>405.8</ele>
        <time>2022-09-07T10:43:18Z</time>
      </trkpt>
      <trkpt lat="43.10086" lon="-0.00482">
        <ele>405.8</ele>
        <time>2022-09-07T10:43:19Z</time>
      </trkpt>
      <trkpt lat="43.10092" lon="-0.0051">
        <ele>405.8</ele>
        <time>2022-09-07T10:43:24Z</time>
      </trkpt>
      <trkpt lat="43.101" lon="-0.00543">
        <ele>405.8</ele>
        <time>2022-09-07T10:43:30Z</time>
      </trkpt>
      <trkpt lat="43.10103" lon="-0.00559">
        <ele>406</ele>
        <time>2022-09-07T10:43:33Z</time>
      </trkpt>
      <trkpt lat="43.10105" lon="-0.00592">
        <ele>406.6</ele>
        <time>2022-09-07T10:43:39Z</time>
      </trkpt>
      <trkpt lat="43.10105" lon="-0.00628">
        <ele>406.6</ele>
        <time>2022-09-07T10:43:46Z</time>
      </trkpt>
      <trkpt lat="43.10101" lon="-0.00659">
        <ele>406</ele>
        <time>2022-09-07T10:43:52Z</time>
      </trkpt>
      <trkpt lat="43.10096" lon="-0.00701">
        <ele>405.8</ele>
        <time>2022-09-07T10:44:00Z</time>
      </trkpt>
      <trkpt lat="43.10096" lon="-0.00743">
        <ele>405.6</ele>
        <time>2022-09-07T10:44:07Z</time>
      </trkpt>
      <trkpt lat="43.10096" lon="-0.00749">
        <ele>405.6</ele>
        <time>2022-09-07T10:44:08Z</time>
      </trkpt>
      <trkpt lat="43.10097" lon="-0.00761">
        <ele>406</ele>
        <time>2022-09-07T10:44:10Z</time>
      </trkpt>
      <trkpt lat="43.10097" lon="-0.00772">
        <ele>405.8</ele>
        <time>2022-09-07T10:44:12Z</time>
      </trkpt>
      <trkpt lat="43.10095" lon="-0.00792">
        <ele>405.8</ele>
        <time>2022-09-07T10:44:17Z</time>
      </trkpt>
      <trkpt lat="43.10094" lon="-0.00802">
        <ele>405.4</ele>
        <time>2022-09-07T10:44:22Z</time>
      </trkpt>
      <trkpt lat="43.10095" lon="-0.00807">
        <ele>405.6</ele>
        <time>2022-09-07T10:44:39Z</time>
      </trkpt>
      <trkpt lat="43.10095" lon="-0.00809">
        <ele>405.6</ele>
        <time>2022-09-07T10:44:40Z</time>
      </trkpt>
      <trkpt lat="43.10096" lon="-0.00831">
        <ele>406</ele>
        <time>2022-09-07T10:44:46Z</time>
      </trkpt>
      <trkpt lat="43.10094" lon="-0.00862">
        <ele>406.4</ele>
        <time>2022-09-07T10:44:53Z</time>
      </trkpt>
      <trkpt lat="43.10092" lon="-0.009">
        <ele>406</ele>
        <time>2022-09-07T10:45:01Z</time>
      </trkpt>
      <trkpt lat="43.10081" lon="-0.00933">
        <ele>406</ele>
        <time>2022-09-07T10:45:08Z</time>
      </trkpt>
      <trkpt lat="43.10067" lon="-0.00966">
        <ele>405.6</ele>
        <time>2022-09-07T10:45:15Z</time>
      </trkpt>
      <trkpt lat="43.10062" lon="-0.00994">
        <ele>405.6</ele>
        <time>2022-09-07T10:45:20Z</time>
      </trkpt>
      <trkpt lat="43.10061" lon="-0.01">
        <ele>405.6</ele>
        <time>2022-09-07T10:45:21Z</time>
      </trkpt>
      <trkpt lat="43.10059" lon="-0.01011">
        <ele>405.6</ele>
        <time>2022-09-07T10:45:23Z</time>
      </trkpt>
      <trkpt lat="43.10052" lon="-0.01031">
        <ele>405.6</ele>
        <time>2022-09-07T10:45:27Z</time>
      </trkpt>
      <trkpt lat="43.10039" lon="-0.01061">
        <ele>406.8</ele>
        <time>2022-09-07T10:45:34Z</time>
      </trkpt>
      <trkpt lat="43.10032" lon="-0.01088">
        <ele>406.4</ele>
        <time>2022-09-07T10:45:40Z</time>
      </trkpt>
      <trkpt lat="43.10035" lon="-0.01119">
        <ele>406.2</ele>
        <time>2022-09-07T10:45:46Z</time>
      </trkpt>
      <trkpt lat="43.10037" lon="-0.0114">
        <ele>407</ele>
        <time>2022-09-07T10:45:50Z</time>
      </trkpt>
      <trkpt lat="43.10039" lon="-0.01159">
        <ele>406.6</ele>
        <time>2022-09-07T10:45:54Z</time>
      </trkpt>
      <trkpt lat="43.10042" lon="-0.0119">
        <ele>407.4</ele>
        <time>2022-09-07T10:46:00Z</time>
      </trkpt>
      <trkpt lat="43.10048" lon="-0.01231">
        <ele>407.6</ele>
        <time>2022-09-07T10:46:08Z</time>
      </trkpt>
      <trkpt lat="43.1005" lon="-0.01256">
        <ele>407.8</ele>
        <time>2022-09-07T10:46:13Z</time>
      </trkpt>
      <trkpt lat="43.10049" lon="-0.01288">
        <ele>408</ele>
        <time>2022-09-07T10:46:19Z</time>
      </trkpt>
      <trkpt lat="43.10046" lon="-0.01332">
        <ele>407.8</ele>
        <time>2022-09-07T10:46:27Z</time>
      </trkpt>
      <trkpt lat="43.10046" lon="-0.01347">
        <ele>408.4</ele>
        <time>2022-09-07T10:46:30Z</time>
      </trkpt>
      <trkpt lat="43.10049" lon="-0.0138">
        <ele>408.8</ele>
        <time>2022-09-07T10:46:36Z</time>
      </trkpt>
      <trkpt lat="43.10046" lon="-0.01415">
        <ele>408.4</ele>
        <time>2022-09-07T10:46:43Z</time>
      </trkpt>
      <trkpt lat="43.10034" lon="-0.01457">
        <ele>409.2</ele>
        <time>2022-09-07T10:46:52Z</time>
      </trkpt>
      <trkpt lat="43.10029" lon="-0.01491">
        <ele>408.8</ele>
        <time>2022-09-07T10:46:59Z</time>
      </trkpt>
      <trkpt lat="43.10035" lon="-0.01527">
        <ele>409.8</ele>
        <time>2022-09-07T10:47:06Z</time>
      </trkpt>
      <trkpt lat="43.10043" lon="-0.0156">
        <ele>408.6</ele>
        <time>2022-09-07T10:47:13Z</time>
      </trkpt>
      <trkpt lat="43.10045" lon="-0.01565">
        <ele>408.6</ele>
        <time>2022-09-07T10:47:14Z</time>
      </trkpt>
      <trkpt lat="43.10056" lon="-0.01611">
        <ele>409.2</ele>
        <time>2022-09-07T10:47:23Z</time>
      </trkpt>
      <trkpt lat="43.10067" lon="-0.01656">
        <ele>409</ele>
        <time>2022-09-07T10:47:32Z</time>
      </trkpt>
      <trkpt lat="43.10073" lon="-0.01694">
        <ele>409.2</ele>
        <time>2022-09-07T10:47:39Z</time>
      </trkpt>
      <trkpt lat="43.10081" lon="-0.01732">
        <ele>409.4</ele>
        <time>2022-09-07T10:47:46Z</time>
      </trkpt>
      <trkpt lat="43.10082" lon="-0.01737">
        <ele>409.4</ele>
        <time>2022-09-07T10:47:47Z</time>
      </trkpt>
      <trkpt lat="43.10085" lon="-0.01754">
        <ele>409.6</ele>
        <time>2022-09-07T10:47:50Z</time>
      </trkpt>
      <trkpt lat="43.10091" lon="-0.01783">
        <ele>410</ele>
        <time>2022-09-07T10:47:56Z</time>
      </trkpt>
      <trkpt lat="43.10097" lon="-0.01816">
        <ele>409.6</ele>
        <time>2022-09-07T10:48:02Z</time>
      </trkpt>
      <trkpt lat="43.10098" lon="-0.01827">
        <ele>409.8</ele>
        <time>2022-09-07T10:48:04Z</time>
      </trkpt>
      <trkpt lat="43.10099" lon="-0.01846">
        <ele>409.8</ele>
        <time>2022-09-07T10:48:07Z</time>
      </trkpt>
      <trkpt lat="43.10098" lon="-0.01864">
        <ele>409.6</ele>
        <time>2022-09-07T10:48:10Z</time>
      </trkpt>
      <trkpt lat="43.10097" lon="-0.0187">
        <ele>409.6</ele>
        <time>2022-09-07T10:48:11Z</time>
      </trkpt>
      <trkpt lat="43.10091" lon="-0.01891">
        <ele>409</ele>
        <time>2022-09-07T10:48:15Z</time>
      </trkpt>
      <trkpt lat="43.10087" lon="-0.01901">
        <ele>409</ele>
        <time>2022-09-07T10:48:17Z</time>
      </trkpt>
      <trkpt lat="43.10072" lon="-0.01947">
        <ele>409.4</ele>
        <time>2022-09-07T10:48:25Z</time>
      </trkpt>
      <trkpt lat="43.10071" lon="-0.01953">
        <ele>409.6</ele>
        <time>2022-09-07T10:48:26Z</time>
      </trkpt>
      <trkpt lat="43.10072" lon="-0.01969">
        <ele>409.6</ele>
        <time>2022-09-07T10:48:29Z</time>
      </trkpt>
      <trkpt lat="43.10082" lon="-0.01996">
        <ele>410.2</ele>
        <time>2022-09-07T10:48:35Z</time>
      </trkpt>
      <trkpt lat="43.10089" lon="-0.02024">
        <ele>410.6</ele>
        <time>2022-09-07T10:48:41Z</time>
      </trkpt>
      <trkpt lat="43.10093" lon="-0.02039">
        <ele>410.8</ele>
        <time>2022-09-07T10:48:44Z</time>
      </trkpt>
      <trkpt lat="43.10104" lon="-0.02076">
        <ele>410.2</ele>
        <time>2022-09-07T10:48:51Z</time>
      </trkpt>
      <trkpt lat="43.1011" lon="-0.02097">
        <ele>409.8</ele>
        <time>2022-09-07T10:48:55Z</time>
      </trkpt>
      <trkpt lat="43.10113" lon="-0.02106">
        <ele>410</ele>
        <time>2022-09-07T10:48:57Z</time>
      </trkpt>
      <trkpt lat="43.10121" lon="-0.02129">
        <ele>409.6</ele>
        <time>2022-09-07T10:49:02Z</time>
      </trkpt>
      <trkpt lat="43.10122" lon="-0.02134">
        <ele>409.4</ele>
        <time>2022-09-07T10:49:03Z</time>
      </trkpt>
      <trkpt lat="43.10127" lon="-0.0215">
        <ele>409.6</ele>
        <time>2022-09-07T10:49:06Z</time>
      </trkpt>
      <trkpt lat="43.10132" lon="-0.02167">
        <ele>409</ele>
        <time>2022-09-07T10:49:09Z</time>
      </trkpt>
      <trkpt lat="43.10142" lon="-0.02198">
        <ele>409.4</ele>
        <time>2022-09-07T10:49:15Z</time>
      </trkpt>
      <trkpt lat="43.10153" lon="-0.02234">
        <ele>409.4</ele>
        <time>2022-09-07T10:49:22Z</time>
      </trkpt>
      <trkpt lat="43.10162" lon="-0.02262">
        <ele>409.6</ele>
        <time>2022-09-07T10:49:28Z</time>
      </trkpt>
      <trkpt lat="43.10168" lon="-0.02277">
        <ele>409</ele>
        <time>2022-09-07T10:49:33Z</time>
      </trkpt>
      <trkpt lat="43.1017" lon="-0.02278">
        <ele>409.2</ele>
        <time>2022-09-07T10:49:34Z</time>
      </trkpt>
      <trkpt lat="43.10179" lon="-0.02281">
        <ele>410</ele>
        <time>2022-09-07T10:49:38Z</time>
      </trkpt>
      <trkpt lat="43.10184" lon="-0.02281">
        <ele>410.4</ele>
        <time>2022-09-07T10:49:40Z</time>
      </trkpt>
      <trkpt lat="43.10186" lon="-0.02283">
        <ele>410.8</ele>
        <time>2022-09-07T10:49:41Z</time>
      </trkpt>
      <trkpt lat="43.10188" lon="-0.02285">
        <ele>411.2</ele>
        <time>2022-09-07T10:49:42Z</time>
      </trkpt>
      <trkpt lat="43.10192" lon="-0.02294">
        <ele>411.4</ele>
        <time>2022-09-07T10:49:45Z</time>
      </trkpt>
      <trkpt lat="43.10193" lon="-0.02302">
        <ele>411.4</ele>
        <time>2022-09-07T10:49:47Z</time>
      </trkpt>
      <trkpt lat="43.10196" lon="-0.02336">
        <ele>411.2</ele>
        <time>2022-09-07T10:49:55Z</time>
      </trkpt>
      <trkpt lat="43.10198" lon="-0.02369">
        <ele>411</ele>
        <time>2022-09-07T10:50:02Z</time>
      </trkpt>
      <trkpt lat="43.102" lon="-0.02384">
        <ele>410.6</ele>
        <time>2022-09-07T10:50:05Z</time>
      </trkpt>
      <trkpt lat="43.10202" lon="-0.02396">
        <ele>410.2</ele>
        <time>2022-09-07T10:50:07Z</time>
      </trkpt>
      <trkpt lat="43.10212" lon="-0.02445">
        <ele>410.6</ele>
        <time>2022-09-07T10:50:15Z</time>
      </trkpt>
      <trkpt lat="43.10218" lon="-0.02472">
        <ele>409.8</ele>
        <time>2022-09-07T10:50:19Z</time>
      </trkpt>
      <trkpt lat="43.10228" lon="-0.02514">
        <ele>409.4</ele>
        <time>2022-09-07T10:50:25Z</time>
      </trkpt>
      <trkpt lat="43.10243" lon="-0.02567">
        <ele>409</ele>
        <time>2022-09-07T10:50:33Z</time>
      </trkpt>
      <trkpt lat="43.10256" lon="-0.0262">
        <ele>409</ele>
        <time>2022-09-07T10:50:42Z</time>
      </trkpt>
      <trkpt lat="43.10265" lon="-0.0266">
        <ele>409.2</ele>
        <time>2022-09-07T10:50:50Z</time>
      </trkpt>
      <trkpt lat="43.10275" lon="-0.02705">
        <ele>409</ele>
        <time>2022-09-07T10:50:59Z</time>
      </trkpt>
      <trkpt lat="43.10279" lon="-0.0272">
        <ele>408.6</ele>
        <time>2022-09-07T10:51:02Z</time>
      </trkpt>
      <trkpt lat="43.10282" lon="-0.02739">
        <ele>408.2</ele>
        <time>2022-09-07T10:51:06Z</time>
      </trkpt>
      <trkpt lat="43.10285" lon="-0.02765">
        <ele>408.6</ele>
        <time>2022-09-07T10:51:12Z</time>
      </trkpt>
      <trkpt lat="43.10285" lon="-0.02792">
        <ele>408.8</ele>
        <time>2022-09-07T10:51:17Z</time>
      </trkpt>
      <trkpt lat="43.10281" lon="-0.02827">
        <ele>409.6</ele>
        <time>2022-09-07T10:51:24Z</time>
      </trkpt>
      <trkpt lat="43.10275" lon="-0.02863">
        <ele>410</ele>
        <time>2022-09-07T10:51:31Z</time>
      </trkpt>
      <trkpt lat="43.10274" lon="-0.02873">
        <ele>410</ele>
        <time>2022-09-07T10:51:33Z</time>
      </trkpt>
      <trkpt lat="43.10268" lon="-0.02901">
        <ele>410.8</ele>
        <time>2022-09-07T10:51:39Z</time>
      </trkpt>
      <trkpt lat="43.10266" lon="-0.0291">
        <ele>411</ele>
        <time>2022-09-07T10:51:41Z</time>
      </trkpt>
      <trkpt lat="43.10263" lon="-0.02927">
        <ele>411.6</ele>
        <time>2022-09-07T10:51:45Z</time>
      </trkpt>
      <trkpt lat="43.10261" lon="-0.02939">
        <ele>412</ele>
        <time>2022-09-07T10:51:48Z</time>
      </trkpt>
      <trkpt lat="43.10257" lon="-0.02959">
        <ele>412.2</ele>
        <time>2022-09-07T10:51:53Z</time>
      </trkpt>
      <trkpt lat="43.10251" lon="-0.02984">
        <ele>412.2</ele>
        <time>2022-09-07T10:52:01Z</time>
      </trkpt>
      <trkpt lat="43.10244" lon="-0.03003">
        <ele>412.4</ele>
        <time>2022-09-07T10:52:08Z</time>
      </trkpt>
      <trkpt lat="43.10239" lon="-0.03012">
        <ele>412.2</ele>
        <time>2022-09-07T10:52:12Z</time>
      </trkpt>
      <trkpt lat="43.10233" lon="-0.03015">
        <ele>412.6</ele>
        <time>2022-09-07T10:52:58Z</time>
      </trkpt>
      <trkpt lat="43.10228" lon="-0.03019">
        <ele>412.4</ele>
        <time>2022-09-07T10:53:01Z</time>
      </trkpt>
      <trkpt lat="43.10217" lon="-0.03028">
        <ele>412.4</ele>
        <time>2022-09-07T10:53:07Z</time>
      </trkpt>
      <trkpt lat="43.10197" lon="-0.03042">
        <ele>412</ele>
        <time>2022-09-07T10:53:14Z</time>
      </trkpt>
      <trkpt lat="43.10179" lon="-0.0305">
        <ele>410.8</ele>
        <time>2022-09-07T10:53:18Z</time>
      </trkpt>
      <trkpt lat="43.10175" lon="-0.03051">
        <ele>410.6</ele>
        <time>2022-09-07T10:53:19Z</time>
      </trkpt>
      <trkpt lat="43.10151" lon="-0.03053">
        <ele>409.6</ele>
        <time>2022-09-07T10:53:24Z</time>
      </trkpt>
      <trkpt lat="43.10146" lon="-0.03053">
        <ele>409.6</ele>
        <time>2022-09-07T10:53:25Z</time>
      </trkpt>
      <trkpt lat="43.10135" lon="-0.03051">
        <ele>409.4</ele>
        <time>2022-09-07T10:53:27Z</time>
      </trkpt>
      <trkpt lat="43.10116" lon="-0.03049">
        <ele>408.8</ele>
        <time>2022-09-07T10:53:30Z</time>
      </trkpt>
      <trkpt lat="43.1011" lon="-0.03048">
        <ele>408</ele>
        <time>2022-09-07T10:53:31Z</time>
      </trkpt>
      <trkpt lat="43.10095" lon="-0.03049">
        <ele>408</ele>
        <time>2022-09-07T10:53:33Z</time>
      </trkpt>
      <trkpt lat="43.10081" lon="-0.03053">
        <ele>408.2</ele>
        <time>2022-09-07T10:53:35Z</time>
      </trkpt>
      <trkpt lat="43.10073" lon="-0.03055">
        <ele>407</ele>
        <time>2022-09-07T10:53:36Z</time>
      </trkpt>
      <trkpt lat="43.10059" lon="-0.03062">
        <ele>406.6</ele>
        <time>2022-09-07T10:53:38Z</time>
      </trkpt>
      <trkpt lat="43.10045" lon="-0.03072">
        <ele>406</ele>
        <time>2022-09-07T10:53:40Z</time>
      </trkpt>
      <trkpt lat="43.10039" lon="-0.03077">
        <ele>405.4</ele>
        <time>2022-09-07T10:53:41Z</time>
      </trkpt>
      <trkpt lat="43.1002" lon="-0.03092">
        <ele>405.2</ele>
        <time>2022-09-07T10:53:44Z</time>
      </trkpt>
      <trkpt lat="43.10009" lon="-0.03103">
        <ele>404.6</ele>
        <time>2022-09-07T10:53:46Z</time>
      </trkpt>
      <trkpt lat="43.10002" lon="-0.03107">
        <ele>404.6</ele>
        <time>2022-09-07T10:53:47Z</time>
      </trkpt>
      <trkpt lat="43.0999" lon="-0.03115">
        <ele>404.4</ele>
        <time>2022-09-07T10:53:49Z</time>
      </trkpt>
      <trkpt lat="43.09984" lon="-0.03118">
        <ele>404</ele>
        <time>2022-09-07T10:53:50Z</time>
      </trkpt>
      <trkpt lat="43.09955" lon="-0.03137">
        <ele>403.2</ele>
        <time>2022-09-07T10:53:55Z</time>
      </trkpt>
      <trkpt lat="43.09949" lon="-0.0314">
        <ele>403</ele>
        <time>2022-09-07T10:53:56Z</time>
      </trkpt>
      <trkpt lat="43.09944" lon="-0.03143">
        <ele>403</ele>
        <time>2022-09-07T10:53:57Z</time>
      </trkpt>
      <trkpt lat="43.09902" lon="-0.03167">
        <ele>403.2</ele>
        <time>2022-09-07T10:54:05Z</time>
      </trkpt>
      <trkpt lat="43.09867" lon="-0.03187">
        <ele>402</ele>
        <time>2022-09-07T10:54:12Z</time>
      </trkpt>
      <trkpt lat="43.09862" lon="-0.0319">
        <ele>401.8</ele>
        <time>2022-09-07T10:54:13Z</time>
      </trkpt>
      <trkpt lat="43.09833" lon="-0.03206">
        <ele>401.4</ele>
        <time>2022-09-07T10:54:19Z</time>
      </trkpt>
      <trkpt lat="43.0983" lon="-0.03212">
        <ele>401.4</ele>
        <time>2022-09-07T10:54:20Z</time>
      </trkpt>
      <trkpt lat="43.09825" lon="-0.03232">
        <ele>401</ele>
        <time>2022-09-07T10:54:23Z</time>
      </trkpt>
      <trkpt lat="43.09822" lon="-0.03238">
        <ele>400.8</ele>
        <time>2022-09-07T10:54:24Z</time>
      </trkpt>
      <trkpt lat="43.09809" lon="-0.0325">
        <ele>400.8</ele>
        <time>2022-09-07T10:54:27Z</time>
      </trkpt>
      <trkpt lat="43.09794" lon="-0.03248">
        <ele>401.2</ele>
        <time>2022-09-07T10:54:30Z</time>
      </trkpt>
      <trkpt lat="43.09786" lon="-0.03241">
        <ele>401</ele>
        <time>2022-09-07T10:54:32Z</time>
      </trkpt>
      <trkpt lat="43.0978" lon="-0.03239">
        <ele>400.8</ele>
        <time>2022-09-07T10:54:33Z</time>
      </trkpt>
      <trkpt lat="43.09775" lon="-0.03238">
        <ele>400.6</ele>
        <time>2022-09-07T10:54:34Z</time>
      </trkpt>
      <trkpt lat="43.09759" lon="-0.03246">
        <ele>400.4</ele>
        <time>2022-09-07T10:54:37Z</time>
      </trkpt>
      <trkpt lat="43.09719" lon="-0.03267">
        <ele>400.2</ele>
        <time>2022-09-07T10:54:45Z</time>
      </trkpt>
      <trkpt lat="43.09704" lon="-0.03276">
        <ele>399.6</ele>
        <time>2022-09-07T10:54:48Z</time>
      </trkpt>
      <trkpt lat="43.09686" lon="-0.03289">
        <ele>400.6</ele>
        <time>2022-09-07T10:54:52Z</time>
      </trkpt>
      <trkpt lat="43.09682" lon="-0.03293">
        <ele>400.4</ele>
        <time>2022-09-07T10:54:53Z</time>
      </trkpt>
      <trkpt lat="43.09673" lon="-0.03301">
        <ele>399.6</ele>
        <time>2022-09-07T10:54:55Z</time>
      </trkpt>
      <trkpt lat="43.09653" lon="-0.03321">
        <ele>398.8</ele>
        <time>2022-09-07T10:55:00Z</time>
      </trkpt>
      <trkpt lat="43.09626" lon="-0.03362">
        <ele>398.8</ele>
        <time>2022-09-07T10:55:08Z</time>
      </trkpt>
      <trkpt lat="43.09623" lon="-0.03367">
        <ele>398.6</ele>
        <time>2022-09-07T10:55:09Z</time>
      </trkpt>
      <trkpt lat="43.09608" lon="-0.03399">
        <ele>398.4</ele>
        <time>2022-09-07T10:55:15Z</time>
      </trkpt>
      <trkpt lat="43.09593" lon="-0.03442">
        <ele>397.4</ele>
        <time>2022-09-07T10:55:23Z</time>
      </trkpt>
      <trkpt lat="43.09587" lon="-0.03472">
        <ele>397.4</ele>
        <time>2022-09-07T10:55:29Z</time>
      </trkpt>
      <trkpt lat="43.09582" lon="-0.03507">
        <ele>397</ele>
        <time>2022-09-07T10:55:37Z</time>
      </trkpt>
      <trkpt lat="43.09581" lon="-0.03548">
        <ele>397</ele>
        <time>2022-09-07T10:55:45Z</time>
      </trkpt>
      <trkpt lat="43.09585" lon="-0.03599">
        <ele>396.4</ele>
        <time>2022-09-07T10:55:54Z</time>
      </trkpt>
      <trkpt lat="43.09593" lon="-0.03648">
        <ele>396.2</ele>
        <time>2022-09-07T10:56:03Z</time>
      </trkpt>
      <trkpt lat="43.09603" lon="-0.03697">
        <ele>396.8</ele>
        <time>2022-09-07T10:56:12Z</time>
      </trkpt>
      <trkpt lat="43.09611" lon="-0.03732">
        <ele>396.4</ele>
        <time>2022-09-07T10:56:19Z</time>
      </trkpt>
      <trkpt lat="43.09616" lon="-0.03747">
        <ele>396</ele>
        <time>2022-09-07T10:56:22Z</time>
      </trkpt>
      <trkpt lat="43.09625" lon="-0.03758">
        <ele>395.8</ele>
        <time>2022-09-07T10:56:25Z</time>
      </trkpt>
      <trkpt lat="43.09628" lon="-0.03762">
        <ele>395.8</ele>
        <time>2022-09-07T10:56:26Z</time>
      </trkpt>
      <trkpt lat="43.09647" lon="-0.0378">
        <ele>395.8</ele>
        <time>2022-09-07T10:56:32Z</time>
      </trkpt>
      <trkpt lat="43.09683" lon="-0.03811">
        <ele>395.8</ele>
        <time>2022-09-07T10:56:42Z</time>
      </trkpt>
      <trkpt lat="43.09711" lon="-0.03836">
        <ele>395.8</ele>
        <time>2022-09-07T10:56:52Z</time>
      </trkpt>
      <trkpt lat="43.09728" lon="-0.03851">
        <ele>397</ele>
        <time>2022-09-07T10:56:59Z</time>
      </trkpt>
      <trkpt lat="43.09746" lon="-0.03867">
        <ele>395.6</ele>
        <time>2022-09-07T10:57:05Z</time>
      </trkpt>
      <trkpt lat="43.09755" lon="-0.03876">
        <ele>395.6</ele>
        <time>2022-09-07T10:57:08Z</time>
      </trkpt>
      <trkpt lat="43.09761" lon="-0.03882">
        <ele>395.4</ele>
        <time>2022-09-07T10:57:10Z</time>
      </trkpt>
      <trkpt lat="43.09767" lon="-0.03888">
        <ele>395.2</ele>
        <time>2022-09-07T10:57:12Z</time>
      </trkpt>
      <trkpt lat="43.09785" lon="-0.03914">
        <ele>394.8</ele>
        <time>2022-09-07T10:57:18Z</time>
      </trkpt>
      <trkpt lat="43.09803" lon="-0.03944">
        <ele>394.4</ele>
        <time>2022-09-07T10:57:24Z</time>
      </trkpt>
      <trkpt lat="43.09812" lon="-0.03959">
        <ele>394.2</ele>
        <time>2022-09-07T10:57:27Z</time>
      </trkpt>
      <trkpt lat="43.09834" lon="-0.03995">
        <ele>393.8</ele>
        <time>2022-09-07T10:57:34Z</time>
      </trkpt>
      <trkpt lat="43.09841" lon="-0.04006">
        <ele>393.2</ele>
        <time>2022-09-07T10:57:36Z</time>
      </trkpt>
      <trkpt lat="43.09853" lon="-0.04028">
        <ele>392.8</ele>
        <time>2022-09-07T10:57:40Z</time>
      </trkpt>
      <trkpt lat="43.09857" lon="-0.04041">
        <ele>393.2</ele>
        <time>2022-09-07T10:57:42Z</time>
      </trkpt>
      <trkpt lat="43.09859" lon="-0.04054">
        <ele>392.6</ele>
        <time>2022-09-07T10:57:44Z</time>
      </trkpt>
      <trkpt lat="43.09859" lon="-0.04074">
        <ele>392.4</ele>
        <time>2022-09-07T10:57:47Z</time>
      </trkpt>
      <trkpt lat="43.09857" lon="-0.04087">
        <ele>392</ele>
        <time>2022-09-07T10:57:49Z</time>
      </trkpt>
      <trkpt lat="43.09856" lon="-0.04094">
        <ele>392</ele>
        <time>2022-09-07T10:57:50Z</time>
      </trkpt>
      <trkpt lat="43.09852" lon="-0.04113">
        <ele>391.6</ele>
        <time>2022-09-07T10:57:53Z</time>
      </trkpt>
      <trkpt lat="43.0984" lon="-0.04166">
        <ele>391.6</ele>
        <time>2022-09-07T10:58:02Z</time>
      </trkpt>
      <trkpt lat="43.09839" lon="-0.04172">
        <ele>391.4</ele>
        <time>2022-09-07T10:58:03Z</time>
      </trkpt>
      <trkpt lat="43.09837" lon="-0.04182">
        <ele>391.4</ele>
        <time>2022-09-07T10:58:05Z</time>
      </trkpt>
      <trkpt lat="43.09837" lon="-0.04199">
        <ele>391</ele>
        <time>2022-09-07T10:58:08Z</time>
      </trkpt>
      <trkpt lat="43.0984" lon="-0.0425">
        <ele>391.4</ele>
        <time>2022-09-07T10:58:17Z</time>
      </trkpt>
      <trkpt lat="43.09841" lon="-0.04282">
        <ele>392.4</ele>
        <time>2022-09-07T10:58:23Z</time>
      </trkpt>
      <trkpt lat="43.09841" lon="-0.04287">
        <ele>392.8</ele>
        <time>2022-09-07T10:58:24Z</time>
      </trkpt>
      <trkpt lat="43.09842" lon="-0.04329">
        <ele>393.2</ele>
        <time>2022-09-07T10:58:33Z</time>
      </trkpt>
      <trkpt lat="43.09843" lon="-0.04364">
        <ele>392.4</ele>
        <time>2022-09-07T10:58:40Z</time>
      </trkpt>
      <trkpt lat="43.09844" lon="-0.04395">
        <ele>391.4</ele>
        <time>2022-09-07T10:58:45Z</time>
      </trkpt>
      <trkpt lat="43.09843" lon="-0.04401">
        <ele>391.4</ele>
        <time>2022-09-07T10:58:46Z</time>
      </trkpt>
      <trkpt lat="43.09842" lon="-0.04407">
        <ele>391.4</ele>
        <time>2022-09-07T10:58:47Z</time>
      </trkpt>
      <trkpt lat="43.09834" lon="-0.04423">
        <ele>390.6</ele>
        <time>2022-09-07T10:58:50Z</time>
      </trkpt>
      <trkpt lat="43.09831" lon="-0.04429">
        <ele>390.2</ele>
        <time>2022-09-07T10:58:51Z</time>
      </trkpt>
      <trkpt lat="43.09822" lon="-0.04447">
        <ele>389.8</ele>
        <time>2022-09-07T10:58:54Z</time>
      </trkpt>
      <trkpt lat="43.09814" lon="-0.04468">
        <ele>389.4</ele>
        <time>2022-09-07T10:58:57Z</time>
      </trkpt>
      <trkpt lat="43.09812" lon="-0.04476">
        <ele>389.4</ele>
        <time>2022-09-07T10:58:58Z</time>
      </trkpt>
      <trkpt lat="43.0981" lon="-0.04483">
        <ele>389.2</ele>
        <time>2022-09-07T10:58:59Z</time>
      </trkpt>
      <trkpt lat="43.09808" lon="-0.04498">
        <ele>388.8</ele>
        <time>2022-09-07T10:59:01Z</time>
      </trkpt>
      <trkpt lat="43.09807" lon="-0.04512">
        <ele>389.2</ele>
        <time>2022-09-07T10:59:03Z</time>
      </trkpt>
      <trkpt lat="43.0981" lon="-0.04546">
        <ele>389.2</ele>
        <time>2022-09-07T10:59:08Z</time>
      </trkpt>
      <trkpt lat="43.0981" lon="-0.04558">
        <ele>389.2</ele>
        <time>2022-09-07T10:59:10Z</time>
      </trkpt>
      <trkpt lat="43.09809" lon="-0.04574">
        <ele>389.2</ele>
        <time>2022-09-07T10:59:13Z</time>
      </trkpt>
      <trkpt lat="43.09812" lon="-0.04607">
        <ele>388.6</ele>
        <time>2022-09-07T10:59:19Z</time>
      </trkpt>
      <trkpt lat="43.09809" lon="-0.04638">
        <ele>388.4</ele>
        <time>2022-09-07T10:59:25Z</time>
      </trkpt>
      <trkpt lat="43.09809" lon="-0.04641">
        <ele>388</ele>
        <time>2022-09-07T10:59:26Z</time>
      </trkpt>
      <trkpt lat="43.0981" lon="-0.04659">
        <ele>387.6</ele>
        <time>2022-09-07T10:59:30Z</time>
      </trkpt>
      <trkpt lat="43.09807" lon="-0.04678">
        <ele>387</ele>
        <time>2022-09-07T10:59:36Z</time>
      </trkpt>
      <trkpt lat="43.09807" lon="-0.04688">
        <ele>387</ele>
        <time>2022-09-07T10:59:39Z</time>
      </trkpt>
      <trkpt lat="43.09808" lon="-0.04697">
        <ele>387</ele>
        <time>2022-09-07T10:59:42Z</time>
      </trkpt>
      <trkpt lat="43.0981" lon="-0.04716">
        <ele>386.4</ele>
        <time>2022-09-07T10:59:50Z</time>
      </trkpt>
      <trkpt lat="43.0981" lon="-0.04728">
        <ele>386.8</ele>
        <time>2022-09-07T11:00:01Z</time>
      </trkpt>
      <trkpt lat="43.0981" lon="-0.04735">
        <ele>386.6</ele>
        <time>2022-09-07T11:00:05Z</time>
      </trkpt>
      <trkpt lat="43.09812" lon="-0.04751">
        <ele>387</ele>
        <time>2022-09-07T11:00:50Z</time>
      </trkpt>
      <trkpt lat="43.09813" lon="-0.04754">
        <ele>387</ele>
        <time>2022-09-07T11:00:51Z</time>
      </trkpt>
      <trkpt lat="43.09821" lon="-0.04773">
        <ele>386.6</ele>
        <time>2022-09-07T11:01:00Z</time>
      </trkpt>
      <trkpt lat="43.09825" lon="-0.04782">
        <ele>386.6</ele>
        <time>2022-09-07T11:01:05Z</time>
      </trkpt>
      <trkpt lat="43.09829" lon="-0.04794">
        <ele>386.6</ele>
        <time>2022-09-07T11:01:12Z</time>
      </trkpt>
      <trkpt lat="43.09825" lon="-0.04798">
        <ele>386.8</ele>
        <time>2022-09-07T11:01:36Z</time>
      </trkpt>
      <trkpt lat="43.09814" lon="-0.04806">
        <ele>387.4</ele>
        <time>2022-09-07T11:01:43Z</time>
      </trkpt>
      <trkpt lat="43.09811" lon="-0.04811">
        <ele>387.8</ele>
        <time>2022-09-07T11:01:46Z</time>
      </trkpt>
      <trkpt lat="43.09809" lon="-0.04815">
        <ele>388.2</ele>
        <time>2022-09-07T11:01:48Z</time>
      </trkpt>
      <trkpt lat="43.09808" lon="-0.04819">
        <ele>388.4</ele>
        <time>2022-09-07T11:01:50Z</time>
      </trkpt>
      <trkpt lat="43.09808" lon="-0.04823">
        <ele>388.6</ele>
        <time>2022-09-07T11:01:52Z</time>
      </trkpt>
      <trkpt lat="43.09808" lon="-0.04831">
        <ele>389.2</ele>
        <time>2022-09-07T11:01:56Z</time>
      </trkpt>
      <trkpt lat="43.09808" lon="-0.04833">
        <ele>389.4</ele>
        <time>2022-09-07T11:01:57Z</time>
      </trkpt>
      <trkpt lat="43.09809" lon="-0.0484">
        <ele>389.8</ele>
        <time>2022-09-07T11:02:00Z</time>
      </trkpt>
      <trkpt lat="43.09807" lon="-0.04843">
        <ele>390</ele>
        <time>2022-09-07T11:02:02Z</time>
      </trkpt>
      <trkpt lat="43.09806" lon="-0.04844">
        <ele>390</ele>
        <time>2022-09-07T11:02:03Z</time>
      </trkpt>
      <trkpt lat="43.09801" lon="-0.04832">
        <ele>390</ele>
        <time>2022-09-07T11:02:59Z</time>
      </trkpt>
      <trkpt lat="43.09801" lon="-0.04824">
        <ele>389.8</ele>
        <time>2022-09-07T11:03:01Z</time>
      </trkpt>
      <trkpt lat="43.09808" lon="-0.04809">
        <ele>388.8</ele>
        <time>2022-09-07T11:03:06Z</time>
      </trkpt>
      <trkpt lat="43.09811" lon="-0.04809">
        <ele>388</ele>
        <time>2022-09-07T11:03:08Z</time>
      </trkpt>
      <trkpt lat="43.09813" lon="-0.04809">
        <ele>387.4</ele>
        <time>2022-09-07T11:03:09Z</time>
      </trkpt>
      <trkpt lat="43.09815" lon="-0.04808">
        <ele>386.8</ele>
        <time>2022-09-07T11:03:11Z</time>
      </trkpt>
      <trkpt lat="43.09817" lon="-0.04799">
        <ele>386.2</ele>
        <time>2022-09-07T11:03:45Z</time>
      </trkpt>
      <trkpt lat="43.09816" lon="-0.04797">
        <ele>386.4</ele>
        <time>2022-09-07T11:03:46Z</time>
      </trkpt>
      <trkpt lat="43.09814" lon="-0.04785">
        <ele>386.4</ele>
        <time>2022-09-07T11:03:50Z</time>
      </trkpt>
      <trkpt lat="43.09815" lon="-0.04775">
        <ele>386.4</ele>
        <time>2022-09-07T11:03:53Z</time>
      </trkpt>
      <trkpt lat="43.09816" lon="-0.04768">
        <ele>386.6</ele>
        <time>2022-09-07T11:03:58Z</time>
      </trkpt>
      <trkpt lat="43.09815" lon="-0.0478">
        <ele>392.6</ele>
        <time>2022-09-07T12:10:52Z</time>
      </trkpt>
      <trkpt lat="43.09817" lon="-0.04784">
        <ele>392.4</ele>
        <time>2022-09-07T12:10:54Z</time>
      </trkpt>
      <trkpt lat="43.09821" lon="-0.04796">
        <ele>392.4</ele>
        <time>2022-09-07T12:11:00Z</time>
      </trkpt>
      <trkpt lat="43.09822" lon="-0.048">
        <ele>392.2</ele>
        <time>2022-09-07T12:11:02Z</time>
      </trkpt>
      <trkpt lat="43.09825" lon="-0.04804">
        <ele>392.2</ele>
        <time>2022-09-07T12:11:04Z</time>
      </trkpt>
      <trkpt lat="43.09829" lon="-0.04811">
        <ele>392.2</ele>
        <time>2022-09-07T12:11:08Z</time>
      </trkpt>
      <trkpt lat="43.09832" lon="-0.04827">
        <ele>391.8</ele>
        <time>2022-09-07T12:11:14Z</time>
      </trkpt>
      <trkpt lat="43.09832" lon="-0.0483">
        <ele>391.6</ele>
        <time>2022-09-07T12:11:15Z</time>
      </trkpt>
      <trkpt lat="43.09839" lon="-0.04851">
        <ele>391.8</ele>
        <time>2022-09-07T12:11:21Z</time>
      </trkpt>
      <trkpt lat="43.09842" lon="-0.04875">
        <ele>391</ele>
        <time>2022-09-07T12:11:27Z</time>
      </trkpt>
      <trkpt lat="43.09844" lon="-0.04881">
        <ele>390.4</ele>
        <time>2022-09-07T12:11:29Z</time>
      </trkpt>
      <trkpt lat="43.09846" lon="-0.04897">
        <ele>389.8</ele>
        <time>2022-09-07T12:11:34Z</time>
      </trkpt>
      <trkpt lat="43.09849" lon="-0.04908">
        <ele>389.4</ele>
        <time>2022-09-07T12:11:37Z</time>
      </trkpt>
      <trkpt lat="43.09851" lon="-0.04922">
        <ele>388.8</ele>
        <time>2022-09-07T12:11:41Z</time>
      </trkpt>
      <trkpt lat="43.0985" lon="-0.0493">
        <ele>388.2</ele>
        <time>2022-09-07T12:11:43Z</time>
      </trkpt>
      <trkpt lat="43.09849" lon="-0.04941">
        <ele>387.6</ele>
        <time>2022-09-07T12:11:47Z</time>
      </trkpt>
      <trkpt lat="43.09846" lon="-0.0495">
        <ele>387.2</ele>
        <time>2022-09-07T12:11:53Z</time>
      </trkpt>
      <trkpt lat="43.09845" lon="-0.04958">
        <ele>387</ele>
        <time>2022-09-07T12:12:01Z</time>
      </trkpt>
      <trkpt lat="43.09844" lon="-0.04963">
        <ele>387</ele>
        <time>2022-09-07T12:12:03Z</time>
      </trkpt>
      <trkpt lat="43.09838" lon="-0.04979">
        <ele>386.6</ele>
        <time>2022-09-07T12:12:09Z</time>
      </trkpt>
      <trkpt lat="43.09834" lon="-0.04986">
        <ele>386</ele>
        <time>2022-09-07T12:12:12Z</time>
      </trkpt>
      <trkpt lat="43.09829" lon="-0.04994">
        <ele>385.8</ele>
        <time>2022-09-07T12:12:16Z</time>
      </trkpt>
      <trkpt lat="43.09819" lon="-0.05">
        <ele>385.4</ele>
        <time>2022-09-07T12:21:27Z</time>
      </trkpt>
      <trkpt lat="43.09822" lon="-0.05032">
        <ele>384.4</ele>
        <time>2022-09-07T12:21:35Z</time>
      </trkpt>
      <trkpt lat="43.09821" lon="-0.0504">
        <ele>384</ele>
        <time>2022-09-07T12:21:37Z</time>
      </trkpt>
      <trkpt lat="43.09819" lon="-0.0506">
        <ele>384</ele>
        <time>2022-09-07T12:21:42Z</time>
      </trkpt>
      <trkpt lat="43.09818" lon="-0.05086">
        <ele>383.8</ele>
        <time>2022-09-07T12:21:49Z</time>
      </trkpt>
      <trkpt lat="43.09815" lon="-0.05113">
        <ele>384</ele>
        <time>2022-09-07T12:21:57Z</time>
      </trkpt>
      <trkpt lat="43.09815" lon="-0.05136">
        <ele>384.2</ele>
        <time>2022-09-07T12:22:05Z</time>
      </trkpt>
      <trkpt lat="43.09813" lon="-0.05158">
        <ele>384</ele>
        <time>2022-09-07T12:22:12Z</time>
      </trkpt>
      <trkpt lat="43.09812" lon="-0.05172">
        <ele>383.4</ele>
        <time>2022-09-07T12:22:18Z</time>
      </trkpt>
      <trkpt lat="43.0981" lon="-0.05175">
        <ele>383</ele>
        <time>2022-09-07T12:22:20Z</time>
      </trkpt>
      <trkpt lat="43.09809" lon="-0.05177">
        <ele>383</ele>
        <time>2022-09-07T12:22:21Z</time>
      </trkpt>
      <trkpt lat="43.0981" lon="-0.05179">
        <ele>383</ele>
        <time>2022-09-07T12:22:24Z</time>
      </trkpt>
      <trkpt lat="43.09807" lon="-0.05172">
        <ele>383.6</ele>
        <time>2022-09-07T12:23:40Z</time>
      </trkpt>
      <trkpt lat="43.09802" lon="-0.05172">
        <ele>383.6</ele>
        <time>2022-09-07T12:23:43Z</time>
      </trkpt>
      <trkpt lat="43.09799" lon="-0.05176">
        <ele>383.4</ele>
        <time>2022-09-07T12:23:46Z</time>
      </trkpt>
      <trkpt lat="43.09795" lon="-0.05181">
        <ele>383.6</ele>
        <time>2022-09-07T12:23:49Z</time>
      </trkpt>
      <trkpt lat="43.0978" lon="-0.05185">
        <ele>382.8</ele>
        <time>2022-09-07T12:23:55Z</time>
      </trkpt>
      <trkpt lat="43.09763" lon="-0.05185">
        <ele>381.8</ele>
        <time>2022-09-07T12:24:00Z</time>
      </trkpt>
      <trkpt lat="43.09752" lon="-0.05185">
        <ele>381.2</ele>
        <time>2022-09-07T12:24:05Z</time>
      </trkpt>
      <trkpt lat="43.09745" lon="-0.05186">
        <ele>380.6</ele>
        <time>2022-09-07T12:24:09Z</time>
      </trkpt>
      <trkpt lat="43.09737" lon="-0.05189">
        <ele>380.8</ele>
        <time>2022-09-07T12:24:13Z</time>
      </trkpt>
      <trkpt lat="43.09722" lon="-0.05197">
        <ele>379.8</ele>
        <time>2022-09-07T12:24:20Z</time>
      </trkpt>
      <trkpt lat="43.09716" lon="-0.05204">
        <ele>379.6</ele>
        <time>2022-09-07T12:24:24Z</time>
      </trkpt>
      <trkpt lat="43.09714" lon="-0.05209">
        <ele>379.6</ele>
        <time>2022-09-07T12:24:26Z</time>
      </trkpt>
      <trkpt lat="43.09706" lon="-0.05224">
        <ele>379.8</ele>
        <time>2022-09-07T12:24:31Z</time>
      </trkpt>
      <trkpt lat="43.09695" lon="-0.05246">
        <ele>379.2</ele>
        <time>2022-09-07T12:24:38Z</time>
      </trkpt>
      <trkpt lat="43.0969" lon="-0.05268">
        <ele>379.4</ele>
        <time>2022-09-07T12:24:46Z</time>
      </trkpt>
      <trkpt lat="43.09687" lon="-0.05293">
        <ele>380</ele>
        <time>2022-09-07T12:24:55Z</time>
      </trkpt>
      <trkpt lat="43.09684" lon="-0.05314">
        <ele>380.6</ele>
        <time>2022-09-07T12:25:03Z</time>
      </trkpt>
      <trkpt lat="43.09683" lon="-0.05317">
        <ele>380.6</ele>
        <time>2022-09-07T12:25:04Z</time>
      </trkpt>
      <trkpt lat="43.09683" lon="-0.05338">
        <ele>381.4</ele>
        <time>2022-09-07T12:25:11Z</time>
      </trkpt>
      <trkpt lat="43.09684" lon="-0.05349">
        <ele>382</ele>
        <time>2022-09-07T12:25:14Z</time>
      </trkpt>
      <trkpt lat="43.09685" lon="-0.05361">
        <ele>382.2</ele>
        <time>2022-09-07T12:25:17Z</time>
      </trkpt>
      <trkpt lat="43.09686" lon="-0.05373">
        <ele>381.6</ele>
        <time>2022-09-07T12:25:21Z</time>
      </trkpt>
      <trkpt lat="43.0969" lon="-0.05393">
        <ele>382.2</ele>
        <time>2022-09-07T12:25:29Z</time>
      </trkpt>
      <trkpt lat="43.09685" lon="-0.05407">
        <ele>382.2</ele>
        <time>2022-09-07T12:25:35Z</time>
      </trkpt>
      <trkpt lat="43.09679" lon="-0.05414">
        <ele>382.4</ele>
        <time>2022-09-07T12:25:40Z</time>
      </trkpt>
      <trkpt lat="43.09678" lon="-0.05417">
        <ele>382.4</ele>
        <time>2022-09-07T12:25:41Z</time>
      </trkpt>
      <trkpt lat="43.09673" lon="-0.05435">
        <ele>382.8</ele>
        <time>2022-09-07T12:25:48Z</time>
      </trkpt>
      <trkpt lat="43.09672" lon="-0.0544">
        <ele>383</ele>
        <time>2022-09-07T12:25:50Z</time>
      </trkpt>
      <trkpt lat="43.0967" lon="-0.05454">
        <ele>383</ele>
        <time>2022-09-07T12:25:56Z</time>
      </trkpt>
      <trkpt lat="43.09665" lon="-0.05474">
        <ele>383</ele>
        <time>2022-09-07T12:26:04Z</time>
      </trkpt>
      <trkpt lat="43.09662" lon="-0.05503">
        <ele>383.2</ele>
        <time>2022-09-07T12:26:13Z</time>
      </trkpt>
      <trkpt lat="43.09664" lon="-0.05522">
        <ele>383.4</ele>
        <time>2022-09-07T12:26:19Z</time>
      </trkpt>
      <trkpt lat="43.09665" lon="-0.05538">
        <ele>383.8</ele>
        <time>2022-09-07T12:26:26Z</time>
      </trkpt>
      <trkpt lat="43.09666" lon="-0.0554">
        <ele>383.8</ele>
        <time>2022-09-07T12:26:27Z</time>
      </trkpt>
      <trkpt lat="43.09667" lon="-0.05542">
        <ele>384</ele>
        <time>2022-09-07T12:26:28Z</time>
      </trkpt>
      <trkpt lat="43.09667" lon="-0.05543">
        <ele>384</ele>
        <time>2022-09-07T12:26:29Z</time>
      </trkpt>
      <trkpt lat="43.09667" lon="-0.05552">
        <ele>384.4</ele>
        <time>2022-09-07T12:26:33Z</time>
      </trkpt>
      <trkpt lat="43.09668" lon="-0.05557">
        <ele>384.4</ele>
        <time>2022-09-07T12:26:35Z</time>
      </trkpt>
      <trkpt lat="43.09669" lon="-0.05572">
        <ele>385</ele>
        <time>2022-09-07T12:26:41Z</time>
      </trkpt>
      <trkpt lat="43.09672" lon="-0.05589">
        <ele>386.2</ele>
        <time>2022-09-07T12:26:48Z</time>
      </trkpt>
      <trkpt lat="43.09672" lon="-0.05594">
        <ele>386.4</ele>
        <time>2022-09-07T12:26:50Z</time>
      </trkpt>
      <trkpt lat="43.09673" lon="-0.05605">
        <ele>387</ele>
        <time>2022-09-07T12:26:55Z</time>
      </trkpt>
      <trkpt lat="43.09674" lon="-0.0561">
        <ele>387.4</ele>
        <time>2022-09-07T12:26:57Z</time>
      </trkpt>
      <trkpt lat="43.09676" lon="-0.05618">
        <ele>387.4</ele>
        <time>2022-09-07T12:27:00Z</time>
      </trkpt>
      <trkpt lat="43.09677" lon="-0.05632">
        <ele>388</ele>
        <time>2022-09-07T12:27:08Z</time>
      </trkpt>
      <trkpt lat="43.09678" lon="-0.05638">
        <ele>388.4</ele>
        <time>2022-09-07T12:27:11Z</time>
      </trkpt>
      <trkpt lat="43.0968" lon="-0.05646">
        <ele>388.8</ele>
        <time>2022-09-07T12:27:15Z</time>
      </trkpt>
      <trkpt lat="43.09682" lon="-0.05658">
        <ele>389.4</ele>
        <time>2022-09-07T12:27:21Z</time>
      </trkpt>
      <trkpt lat="43.09682" lon="-0.0566">
        <ele>389.6</ele>
        <time>2022-09-07T12:27:22Z</time>
      </trkpt>
      <trkpt lat="43.09685" lon="-0.05674">
        <ele>390</ele>
        <time>2022-09-07T12:27:30Z</time>
      </trkpt>
      <trkpt lat="43.09687" lon="-0.05683">
        <ele>390.6</ele>
        <time>2022-09-07T12:27:34Z</time>
      </trkpt>
      <trkpt lat="43.0969" lon="-0.05693">
        <ele>390.6</ele>
        <time>2022-09-07T12:27:39Z</time>
      </trkpt>
      <trkpt lat="43.09697" lon="-0.05709">
        <ele>391.4</ele>
        <time>2022-09-07T12:27:47Z</time>
      </trkpt>
      <trkpt lat="43.09699" lon="-0.05713">
        <ele>391.6</ele>
        <time>2022-09-07T12:27:49Z</time>
      </trkpt>
      <trkpt lat="43.09704" lon="-0.05726">
        <ele>392.4</ele>
        <time>2022-09-07T12:27:55Z</time>
      </trkpt>
      <trkpt lat="43.09707" lon="-0.05733">
        <ele>392.8</ele>
        <time>2022-09-07T12:27:58Z</time>
      </trkpt>
      <trkpt lat="43.0971" lon="-0.05741">
        <ele>393.2</ele>
        <time>2022-09-07T12:28:02Z</time>
      </trkpt>
      <trkpt lat="43.09713" lon="-0.05751">
        <ele>393.8</ele>
        <time>2022-09-07T12:28:07Z</time>
      </trkpt>
      <trkpt lat="43.09715" lon="-0.05758">
        <ele>394.4</ele>
        <time>2022-09-07T12:28:10Z</time>
      </trkpt>
      <trkpt lat="43.09718" lon="-0.05764">
        <ele>394.8</ele>
        <time>2022-09-07T12:28:13Z</time>
      </trkpt>
      <trkpt lat="43.09722" lon="-0.05776">
        <ele>395.6</ele>
        <time>2022-09-07T12:28:18Z</time>
      </trkpt>
      <trkpt lat="43.09725" lon="-0.0579">
        <ele>396</ele>
        <time>2022-09-07T12:28:24Z</time>
      </trkpt>
      <trkpt lat="43.09725" lon="-0.05796">
        <ele>396.2</ele>
        <time>2022-09-07T12:28:26Z</time>
      </trkpt>
      <trkpt lat="43.09724" lon="-0.0582">
        <ele>397</ele>
        <time>2022-09-07T12:28:35Z</time>
      </trkpt>
      <trkpt lat="43.09722" lon="-0.05832">
        <ele>398</ele>
        <time>2022-09-07T12:28:40Z</time>
      </trkpt>
      <trkpt lat="43.09721" lon="-0.05837">
        <ele>398.2</ele>
        <time>2022-09-07T12:28:42Z</time>
      </trkpt>
      <trkpt lat="43.09721" lon="-0.05861">
        <ele>398.8</ele>
        <time>2022-09-07T12:28:51Z</time>
      </trkpt>
      <trkpt lat="43.09721" lon="-0.05872">
        <ele>399</ele>
        <time>2022-09-07T12:28:55Z</time>
      </trkpt>
      <trkpt lat="43.0972" lon="-0.05881">
        <ele>399.6</ele>
        <time>2022-09-07T12:28:59Z</time>
      </trkpt>
      <trkpt lat="43.09719" lon="-0.05895">
        <ele>400.2</ele>
        <time>2022-09-07T12:29:05Z</time>
      </trkpt>
      <trkpt lat="43.09719" lon="-0.05898">
        <ele>400.4</ele>
        <time>2022-09-07T12:29:06Z</time>
      </trkpt>
      <trkpt lat="43.09718" lon="-0.05916">
        <ele>401</ele>
        <time>2022-09-07T12:29:14Z</time>
      </trkpt>
      <trkpt lat="43.09717" lon="-0.05921">
        <ele>401.2</ele>
        <time>2022-09-07T12:29:16Z</time>
      </trkpt>
      <trkpt lat="43.09718" lon="-0.05943">
        <ele>402</ele>
        <time>2022-09-07T12:29:24Z</time>
      </trkpt>
      <trkpt lat="43.09718" lon="-0.05946">
        <ele>402.2</ele>
        <time>2022-09-07T12:29:25Z</time>
      </trkpt>
      <trkpt lat="43.09718" lon="-0.05949">
        <ele>402.4</ele>
        <time>2022-09-07T12:29:26Z</time>
      </trkpt>
      <trkpt lat="43.09719" lon="-0.05964">
        <ele>402.8</ele>
        <time>2022-09-07T12:29:32Z</time>
      </trkpt>
      <trkpt lat="43.09721" lon="-0.05978">
        <ele>403.4</ele>
        <time>2022-09-07T12:29:37Z</time>
      </trkpt>
      <trkpt lat="43.09721" lon="-0.05983">
        <ele>404</ele>
        <time>2022-09-07T12:29:39Z</time>
      </trkpt>
      <trkpt lat="43.09723" lon="-0.06003">
        <ele>404.6</ele>
        <time>2022-09-07T12:29:46Z</time>
      </trkpt>
      <trkpt lat="43.09724" lon="-0.06009">
        <ele>404.6</ele>
        <time>2022-09-07T12:29:48Z</time>
      </trkpt>
      <trkpt lat="43.09725" lon="-0.06038">
        <ele>405.4</ele>
        <time>2022-09-07T12:29:57Z</time>
      </trkpt>
      <trkpt lat="43.09726" lon="-0.06057">
        <ele>405.6</ele>
        <time>2022-09-07T12:30:03Z</time>
      </trkpt>
      <trkpt lat="43.09725" lon="-0.06064">
        <ele>405.6</ele>
        <time>2022-09-07T12:30:05Z</time>
      </trkpt>
      <trkpt lat="43.09725" lon="-0.06088">
        <ele>406.2</ele>
        <time>2022-09-07T12:30:12Z</time>
      </trkpt>
      <trkpt lat="43.09725" lon="-0.06108">
        <ele>406.6</ele>
        <time>2022-09-07T12:30:18Z</time>
      </trkpt>
      <trkpt lat="43.09725" lon="-0.06111">
        <ele>406.6</ele>
        <time>2022-09-07T12:30:19Z</time>
      </trkpt>
      <trkpt lat="43.09726" lon="-0.06138">
        <ele>407.6</ele>
        <time>2022-09-07T12:30:27Z</time>
      </trkpt>
      <trkpt lat="43.09726" lon="-0.06141">
        <ele>407.6</ele>
        <time>2022-09-07T12:30:28Z</time>
      </trkpt>
      <trkpt lat="43.09729" lon="-0.06162">
        <ele>408</ele>
        <time>2022-09-07T12:30:34Z</time>
      </trkpt>
      <trkpt lat="43.09732" lon="-0.06189">
        <ele>408.8</ele>
        <time>2022-09-07T12:30:42Z</time>
      </trkpt>
      <trkpt lat="43.09732" lon="-0.06193">
        <ele>408.8</ele>
        <time>2022-09-07T12:30:43Z</time>
      </trkpt>
      <trkpt lat="43.09736" lon="-0.06216">
        <ele>409.8</ele>
        <time>2022-09-07T12:30:50Z</time>
      </trkpt>
      <trkpt lat="43.09736" lon="-0.06219">
        <ele>409.8</ele>
        <time>2022-09-07T12:30:51Z</time>
      </trkpt>
      <trkpt lat="43.0974" lon="-0.06242">
        <ele>411</ele>
        <time>2022-09-07T12:30:58Z</time>
      </trkpt>
      <trkpt lat="43.09746" lon="-0.06274">
        <ele>411.8</ele>
        <time>2022-09-07T12:31:07Z</time>
      </trkpt>
      <trkpt lat="43.09749" lon="-0.06288">
        <ele>412</ele>
        <time>2022-09-07T12:31:11Z</time>
      </trkpt>
      <trkpt lat="43.0975" lon="-0.06296">
        <ele>412.2</ele>
        <time>2022-09-07T12:31:13Z</time>
      </trkpt>
      <trkpt lat="43.09757" lon="-0.06323">
        <ele>412.4</ele>
        <time>2022-09-07T12:31:20Z</time>
      </trkpt>
      <trkpt lat="43.09762" lon="-0.06348">
        <ele>413</ele>
        <time>2022-09-07T12:31:27Z</time>
      </trkpt>
      <trkpt lat="43.09765" lon="-0.06359">
        <ele>413.2</ele>
        <time>2022-09-07T12:31:30Z</time>
      </trkpt>
      <trkpt lat="43.09767" lon="-0.06372">
        <ele>413.4</ele>
        <time>2022-09-07T12:31:34Z</time>
      </trkpt>
      <trkpt lat="43.09772" lon="-0.06398">
        <ele>412.8</ele>
        <time>2022-09-07T12:31:41Z</time>
      </trkpt>
      <trkpt lat="43.09779" lon="-0.06424">
        <ele>412.4</ele>
        <time>2022-09-07T12:31:46Z</time>
      </trkpt>
      <trkpt lat="43.09784" lon="-0.06449">
        <ele>412</ele>
        <time>2022-09-07T12:31:50Z</time>
      </trkpt>
      <trkpt lat="43.09789" lon="-0.0647">
        <ele>411.2</ele>
        <time>2022-09-07T12:31:53Z</time>
      </trkpt>
      <trkpt lat="43.09793" lon="-0.06477">
        <ele>410.8</ele>
        <time>2022-09-07T12:31:54Z</time>
      </trkpt>
      <trkpt lat="43.09806" lon="-0.06497">
        <ele>409.8</ele>
        <time>2022-09-07T12:31:57Z</time>
      </trkpt>
      <trkpt lat="43.09811" lon="-0.06504">
        <ele>409.6</ele>
        <time>2022-09-07T12:31:58Z</time>
      </trkpt>
      <trkpt lat="43.09828" lon="-0.06523">
        <ele>408.6</ele>
        <time>2022-09-07T12:32:01Z</time>
      </trkpt>
      <trkpt lat="43.09839" lon="-0.06538">
        <ele>408.2</ele>
        <time>2022-09-07T12:32:03Z</time>
      </trkpt>
      <trkpt lat="43.09844" lon="-0.06546">
        <ele>408</ele>
        <time>2022-09-07T12:32:04Z</time>
      </trkpt>
      <trkpt lat="43.09847" lon="-0.06555">
        <ele>407.4</ele>
        <time>2022-09-07T12:32:05Z</time>
      </trkpt>
      <trkpt lat="43.09854" lon="-0.06576">
        <ele>406.6</ele>
        <time>2022-09-07T12:32:07Z</time>
      </trkpt>
      <trkpt lat="43.09856" lon="-0.06587">
        <ele>406.2</ele>
        <time>2022-09-07T12:32:08Z</time>
      </trkpt>
      <trkpt lat="43.09859" lon="-0.06609">
        <ele>405.2</ele>
        <time>2022-09-07T12:32:10Z</time>
      </trkpt>
      <trkpt lat="43.0986" lon="-0.0662">
        <ele>405</ele>
        <time>2022-09-07T12:32:11Z</time>
      </trkpt>
      <trkpt lat="43.09861" lon="-0.06631">
        <ele>404.6</ele>
        <time>2022-09-07T12:32:12Z</time>
      </trkpt>
      <trkpt lat="43.09862" lon="-0.06655">
        <ele>403.6</ele>
        <time>2022-09-07T12:32:14Z</time>
      </trkpt>
      <trkpt lat="43.09862" lon="-0.06691">
        <ele>402.6</ele>
        <time>2022-09-07T12:32:17Z</time>
      </trkpt>
      <trkpt lat="43.09861" lon="-0.06702">
        <ele>402.4</ele>
        <time>2022-09-07T12:32:18Z</time>
      </trkpt>
      <trkpt lat="43.09856" lon="-0.0673">
        <ele>401.2</ele>
        <time>2022-09-07T12:32:21Z</time>
      </trkpt>
      <trkpt lat="43.09844" lon="-0.06779">
        <ele>400</ele>
        <time>2022-09-07T12:32:27Z</time>
      </trkpt>
      <trkpt lat="43.09838" lon="-0.06803">
        <ele>399.2</ele>
        <time>2022-09-07T12:32:30Z</time>
      </trkpt>
      <trkpt lat="43.09827" lon="-0.06834">
        <ele>398.6</ele>
        <time>2022-09-07T12:32:34Z</time>
      </trkpt>
      <trkpt lat="43.09821" lon="-0.06847">
        <ele>398.6</ele>
        <time>2022-09-07T12:32:36Z</time>
      </trkpt>
      <trkpt lat="43.0981" lon="-0.06868">
        <ele>397.4</ele>
        <time>2022-09-07T12:32:40Z</time>
      </trkpt>
      <trkpt lat="43.09799" lon="-0.06889">
        <ele>397.4</ele>
        <time>2022-09-07T12:32:46Z</time>
      </trkpt>
      <trkpt lat="43.09783" lon="-0.06908">
        <ele>396.4</ele>
        <time>2022-09-07T12:32:51Z</time>
      </trkpt>
      <trkpt lat="43.09779" lon="-0.06912">
        <ele>396.2</ele>
        <time>2022-09-07T12:32:52Z</time>
      </trkpt>
      <trkpt lat="43.09774" lon="-0.06915">
        <ele>396</ele>
        <time>2022-09-07T12:32:53Z</time>
      </trkpt>
      <trkpt lat="43.09754" lon="-0.06927">
        <ele>395.8</ele>
        <time>2022-09-07T12:32:57Z</time>
      </trkpt>
      <trkpt lat="43.09748" lon="-0.06928">
        <ele>395.4</ele>
        <time>2022-09-07T12:32:58Z</time>
      </trkpt>
      <trkpt lat="43.09733" lon="-0.06928">
        <ele>395.2</ele>
        <time>2022-09-07T12:33:01Z</time>
      </trkpt>
      <trkpt lat="43.09713" lon="-0.06918">
        <ele>395</ele>
        <time>2022-09-07T12:33:05Z</time>
      </trkpt>
      <trkpt lat="43.09707" lon="-0.06918">
        <ele>394.6</ele>
        <time>2022-09-07T12:33:06Z</time>
      </trkpt>
      <trkpt lat="43.09701" lon="-0.0692">
        <ele>394.4</ele>
        <time>2022-09-07T12:33:07Z</time>
      </trkpt>
      <trkpt lat="43.09694" lon="-0.06925">
        <ele>394</ele>
        <time>2022-09-07T12:33:09Z</time>
      </trkpt>
      <trkpt lat="43.09679" lon="-0.06933">
        <ele>393.6</ele>
        <time>2022-09-07T12:33:14Z</time>
      </trkpt>
      <trkpt lat="43.09668" lon="-0.06946">
        <ele>394.4</ele>
        <time>2022-09-07T12:33:18Z</time>
      </trkpt>
      <trkpt lat="43.09667" lon="-0.06969">
        <ele>394.8</ele>
        <time>2022-09-07T12:33:23Z</time>
      </trkpt>
      <trkpt lat="43.09668" lon="-0.06984">
        <ele>395.4</ele>
        <time>2022-09-07T12:33:27Z</time>
      </trkpt>
      <trkpt lat="43.09669" lon="-0.06989">
        <ele>395.4</ele>
        <time>2022-09-07T12:33:29Z</time>
      </trkpt>
      <trkpt lat="43.09667" lon="-0.06986">
        <ele>395.2</ele>
        <time>2022-09-07T12:36:01Z</time>
      </trkpt>
      <trkpt lat="43.09665" lon="-0.06967">
        <ele>394.6</ele>
        <time>2022-09-07T12:36:06Z</time>
      </trkpt>
      <trkpt lat="43.09664" lon="-0.06962">
        <ele>394.6</ele>
        <time>2022-09-07T12:36:07Z</time>
      </trkpt>
      <trkpt lat="43.09664" lon="-0.06948">
        <ele>394.2</ele>
        <time>2022-09-07T12:36:10Z</time>
      </trkpt>
      <trkpt lat="43.09665" lon="-0.0694">
        <ele>394</ele>
        <time>2022-09-07T12:36:12Z</time>
      </trkpt>
      <trkpt lat="43.09667" lon="-0.06936">
        <ele>394</ele>
        <time>2022-09-07T12:36:13Z</time>
      </trkpt>
      <trkpt lat="43.09673" lon="-0.06931">
        <ele>394</ele>
        <time>2022-09-07T12:36:15Z</time>
      </trkpt>
      <trkpt lat="43.0969" lon="-0.06935">
        <ele>393.8</ele>
        <time>2022-09-07T12:36:19Z</time>
      </trkpt>
      <trkpt lat="43.09698" lon="-0.06943">
        <ele>393.4</ele>
        <time>2022-09-07T12:36:21Z</time>
      </trkpt>
      <trkpt lat="43.09707" lon="-0.06951">
        <ele>393.2</ele>
        <time>2022-09-07T12:36:23Z</time>
      </trkpt>
      <trkpt lat="43.09713" lon="-0.06954">
        <ele>392.8</ele>
        <time>2022-09-07T12:36:24Z</time>
      </trkpt>
      <trkpt lat="43.09726" lon="-0.0696">
        <ele>391.8</ele>
        <time>2022-09-07T12:36:26Z</time>
      </trkpt>
      <trkpt lat="43.0974" lon="-0.06963">
        <ele>390.8</ele>
        <time>2022-09-07T12:36:28Z</time>
      </trkpt>
      <trkpt lat="43.09747" lon="-0.06964">
        <ele>390.4</ele>
        <time>2022-09-07T12:36:29Z</time>
      </trkpt>
      <trkpt lat="43.09777" lon="-0.0697">
        <ele>389</ele>
        <time>2022-09-07T12:36:33Z</time>
      </trkpt>
      <trkpt lat="43.09783" lon="-0.0697">
        <ele>387.8</ele>
        <time>2022-09-07T12:36:34Z</time>
      </trkpt>
      <trkpt lat="43.09793" lon="-0.06971">
        <ele>386.8</ele>
        <time>2022-09-07T12:36:36Z</time>
      </trkpt>
      <trkpt lat="43.09799" lon="-0.06972">
        <ele>385.6</ele>
        <time>2022-09-07T12:36:38Z</time>
      </trkpt>
      <trkpt lat="43.09809" lon="-0.06972">
        <ele>384.6</ele>
        <time>2022-09-07T12:36:43Z</time>
      </trkpt>
      <trkpt lat="43.09811" lon="-0.06977">
        <ele>384.6</ele>
        <time>2022-09-07T12:36:45Z</time>
      </trkpt>
      <trkpt lat="43.09808" lon="-0.0698">
        <ele>385</ele>
        <time>2022-09-07T12:36:47Z</time>
      </trkpt>
      <trkpt lat="43.098" lon="-0.06981">
        <ele>385.6</ele>
        <time>2022-09-07T12:36:52Z</time>
      </trkpt>
      <trkpt lat="43.09795" lon="-0.06984">
        <ele>385.4</ele>
        <time>2022-09-07T12:37:01Z</time>
      </trkpt>
      <trkpt lat="43.09793" lon="-0.06986">
        <ele>385.6</ele>
        <time>2022-09-07T12:37:02Z</time>
      </trkpt>
      <trkpt lat="43.09779" lon="-0.07007">
        <ele>384.4</ele>
        <time>2022-09-07T12:37:08Z</time>
      </trkpt>
      <trkpt lat="43.09761" lon="-0.07033">
        <ele>383.4</ele>
        <time>2022-09-07T12:37:14Z</time>
      </trkpt>
      <trkpt lat="43.09758" lon="-0.07038">
        <ele>383.6</ele>
        <time>2022-09-07T12:37:15Z</time>
      </trkpt>
      <trkpt lat="43.09746" lon="-0.07062">
        <ele>383</ele>
        <time>2022-09-07T12:37:20Z</time>
      </trkpt>
      <trkpt lat="43.09741" lon="-0.07072">
        <ele>383.2</ele>
        <time>2022-09-07T12:37:22Z</time>
      </trkpt>
      <trkpt lat="43.09739" lon="-0.07078">
        <ele>382.4</ele>
        <time>2022-09-07T12:37:23Z</time>
      </trkpt>
      <trkpt lat="43.09733" lon="-0.07093">
        <ele>382</ele>
        <time>2022-09-07T12:37:25Z</time>
      </trkpt>
      <trkpt lat="43.09728" lon="-0.07112">
        <ele>380.6</ele>
        <time>2022-09-07T12:37:27Z</time>
      </trkpt>
      <trkpt lat="43.09728" lon="-0.07131">
        <ele>380.6</ele>
        <time>2022-09-07T12:37:29Z</time>
      </trkpt>
      <trkpt lat="43.09727" lon="-0.07152">
        <ele>381.4</ele>
        <time>2022-09-07T12:37:32Z</time>
      </trkpt>
      <trkpt lat="43.09727" lon="-0.0717">
        <ele>380.4</ele>
        <time>2022-09-07T12:37:35Z</time>
      </trkpt>
      <trkpt lat="43.09727" lon="-0.07185">
        <ele>379.6</ele>
        <time>2022-09-07T12:37:37Z</time>
      </trkpt>
      <trkpt lat="43.09726" lon="-0.07193">
        <ele>379.6</ele>
        <time>2022-09-07T12:37:38Z</time>
      </trkpt>
      <trkpt lat="43.09724" lon="-0.07202">
        <ele>380</ele>
        <time>2022-09-07T12:37:39Z</time>
      </trkpt>
      <trkpt lat="43.09721" lon="-0.0722">
        <ele>380.6</ele>
        <time>2022-09-07T12:37:41Z</time>
      </trkpt>
      <trkpt lat="43.09718" lon="-0.07237">
        <ele>378.4</ele>
        <time>2022-09-07T12:37:43Z</time>
      </trkpt>
      <trkpt lat="43.09709" lon="-0.07279">
        <ele>378</ele>
        <time>2022-09-07T12:37:48Z</time>
      </trkpt>
      <trkpt lat="43.09707" lon="-0.07287">
        <ele>377.4</ele>
        <time>2022-09-07T12:37:49Z</time>
      </trkpt>
      <trkpt lat="43.09704" lon="-0.07303">
        <ele>376.6</ele>
        <time>2022-09-07T12:37:51Z</time>
      </trkpt>
      <trkpt lat="43.09702" lon="-0.07336">
        <ele>376.4</ele>
        <time>2022-09-07T12:37:55Z</time>
      </trkpt>
      <trkpt lat="43.09702" lon="-0.07344">
        <ele>376.2</ele>
        <time>2022-09-07T12:37:56Z</time>
      </trkpt>
      <trkpt lat="43.09702" lon="-0.07381">
        <ele>375.2</ele>
        <time>2022-09-07T12:38:01Z</time>
      </trkpt>
      <trkpt lat="43.09706" lon="-0.07431">
        <ele>374.8</ele>
        <time>2022-09-07T12:38:09Z</time>
      </trkpt>
      <trkpt lat="43.0971" lon="-0.07468">
        <ele>374.8</ele>
        <time>2022-09-07T12:38:16Z</time>
      </trkpt>
      <trkpt lat="43.09714" lon="-0.07497">
        <ele>374.6</ele>
        <time>2022-09-07T12:38:22Z</time>
      </trkpt>
      <trkpt lat="43.09723" lon="-0.07529">
        <ele>375</ele>
        <time>2022-09-07T12:38:29Z</time>
      </trkpt>
      <trkpt lat="43.09733" lon="-0.07567">
        <ele>374.6</ele>
        <time>2022-09-07T12:38:37Z</time>
      </trkpt>
      <trkpt lat="43.09737" lon="-0.07601">
        <ele>375</ele>
        <time>2022-09-07T12:38:45Z</time>
      </trkpt>
      <trkpt lat="43.09743" lon="-0.07628">
        <ele>374.2</ele>
        <time>2022-09-07T12:38:50Z</time>
      </trkpt>
      <trkpt lat="43.09745" lon="-0.07636">
        <ele>374</ele>
        <time>2022-09-07T12:38:51Z</time>
      </trkpt>
      <trkpt lat="43.09751" lon="-0.07659">
        <ele>373</ele>
        <time>2022-09-07T12:38:54Z</time>
      </trkpt>
      <trkpt lat="43.09753" lon="-0.07666">
        <ele>373</ele>
        <time>2022-09-07T12:38:55Z</time>
      </trkpt>
      <trkpt lat="43.09758" lon="-0.07693">
        <ele>373.6</ele>
        <time>2022-09-07T12:39:00Z</time>
      </trkpt>
      <trkpt lat="43.09764" lon="-0.07728">
        <ele>373.6</ele>
        <time>2022-09-07T12:39:07Z</time>
      </trkpt>
      <trkpt lat="43.09764" lon="-0.0775">
        <ele>374</ele>
        <time>2022-09-07T12:39:12Z</time>
      </trkpt>
      <trkpt lat="43.09764" lon="-0.07753">
        <ele>374.4</ele>
        <time>2022-09-07T12:39:13Z</time>
      </trkpt>
      <trkpt lat="43.09765" lon="-0.07768">
        <ele>375</ele>
        <time>2022-09-07T12:39:19Z</time>
      </trkpt>
      <trkpt lat="43.09765" lon="-0.07771">
        <ele>375.2</ele>
        <time>2022-09-07T12:39:20Z</time>
      </trkpt>
      <trkpt lat="43.09764" lon="-0.07774">
        <ele>375.6</ele>
        <time>2022-09-07T12:39:23Z</time>
      </trkpt>
      <trkpt lat="43.09779" lon="-0.0779">
        <ele>374.4</ele>
        <time>2022-09-07T12:39:53Z</time>
      </trkpt>
      <trkpt lat="43.09782" lon="-0.07797">
        <ele>374.2</ele>
        <time>2022-09-07T12:39:55Z</time>
      </trkpt>
      <trkpt lat="43.09784" lon="-0.078">
        <ele>374</ele>
        <time>2022-09-07T12:39:56Z</time>
      </trkpt>
      <trkpt lat="43.0979" lon="-0.07811">
        <ele>373.4</ele>
        <time>2022-09-07T12:40:00Z</time>
      </trkpt>
      <trkpt lat="43.09794" lon="-0.07824">
        <ele>373</ele>
        <time>2022-09-07T12:40:04Z</time>
      </trkpt>
      <trkpt lat="43.09795" lon="-0.07827">
        <ele>372.8</ele>
        <time>2022-09-07T12:40:05Z</time>
      </trkpt>
      <trkpt lat="43.09797" lon="-0.07847">
        <ele>372.8</ele>
        <time>2022-09-07T12:40:10Z</time>
      </trkpt>
      <trkpt lat="43.09799" lon="-0.07871">
        <ele>373.8</ele>
        <time>2022-09-07T12:40:17Z</time>
      </trkpt>
      <trkpt lat="43.09803" lon="-0.0789">
        <ele>374</ele>
        <time>2022-09-07T12:40:23Z</time>
      </trkpt>
      <trkpt lat="43.09806" lon="-0.07903">
        <ele>374.2</ele>
        <time>2022-09-07T12:40:27Z</time>
      </trkpt>
      <trkpt lat="43.09808" lon="-0.07915">
        <ele>374.6</ele>
        <time>2022-09-07T12:40:30Z</time>
      </trkpt>
      <trkpt lat="43.09809" lon="-0.0793">
        <ele>375</ele>
        <time>2022-09-07T12:40:33Z</time>
      </trkpt>
      <trkpt lat="43.09812" lon="-0.07945">
        <ele>375</ele>
        <time>2022-09-07T12:40:37Z</time>
      </trkpt>
      <trkpt lat="43.09817" lon="-0.07964">
        <ele>375</ele>
        <time>2022-09-07T12:40:42Z</time>
      </trkpt>
      <trkpt lat="43.0982" lon="-0.07977">
        <ele>375.6</ele>
        <time>2022-09-07T12:40:46Z</time>
      </trkpt>
      <trkpt lat="43.09827" lon="-0.07991">
        <ele>376.2</ele>
        <time>2022-09-07T12:40:51Z</time>
      </trkpt>
      <trkpt lat="43.09828" lon="-0.07994">
        <ele>376.2</ele>
        <time>2022-09-07T12:40:52Z</time>
      </trkpt>
      <trkpt lat="43.09831" lon="-0.08013">
        <ele>376.6</ele>
        <time>2022-09-07T12:40:58Z</time>
      </trkpt>
      <trkpt lat="43.09835" lon="-0.08028">
        <ele>377</ele>
        <time>2022-09-07T12:41:04Z</time>
      </trkpt>
      <trkpt lat="43.09838" lon="-0.08035">
        <ele>377.2</ele>
        <time>2022-09-07T12:41:06Z</time>
      </trkpt>
      <trkpt lat="43.09844" lon="-0.08051">
        <ele>377.4</ele>
        <time>2022-09-07T12:41:12Z</time>
      </trkpt>
      <trkpt lat="43.09854" lon="-0.08061">
        <ele>377</ele>
        <time>2022-09-07T12:41:17Z</time>
      </trkpt>
      <trkpt lat="43.09865" lon="-0.08076">
        <ele>377</ele>
        <time>2022-09-07T12:41:22Z</time>
      </trkpt>
      <trkpt lat="43.09875" lon="-0.08091">
        <ele>377.4</ele>
        <time>2022-09-07T12:41:28Z</time>
      </trkpt>
      <trkpt lat="43.09887" lon="-0.08109">
        <ele>376.6</ele>
        <time>2022-09-07T12:41:35Z</time>
      </trkpt>
      <trkpt lat="43.09891" lon="-0.08129">
        <ele>376.2</ele>
        <time>2022-09-07T12:41:41Z</time>
      </trkpt>
      <trkpt lat="43.09902" lon="-0.0815">
        <ele>375.6</ele>
        <time>2022-09-07T12:41:48Z</time>
      </trkpt>
      <trkpt lat="43.09907" lon="-0.08157">
        <ele>375</ele>
        <time>2022-09-07T12:41:50Z</time>
      </trkpt>
      <trkpt lat="43.09916" lon="-0.08172">
        <ele>374.8</ele>
        <time>2022-09-07T12:41:54Z</time>
      </trkpt>
      <trkpt lat="43.09924" lon="-0.08192">
        <ele>374</ele>
        <time>2022-09-07T12:41:58Z</time>
      </trkpt>
      <trkpt lat="43.09926" lon="-0.08196">
        <ele>374</ele>
        <time>2022-09-07T12:41:59Z</time>
      </trkpt>
      <trkpt lat="43.09932" lon="-0.08211">
        <ele>374.2</ele>
        <time>2022-09-07T12:42:04Z</time>
      </trkpt>
      <trkpt lat="43.09932" lon="-0.08218">
        <ele>374.6</ele>
        <time>2022-09-07T12:42:06Z</time>
      </trkpt>
      <trkpt lat="43.09933" lon="-0.08223">
        <ele>374.8</ele>
        <time>2022-09-07T12:42:10Z</time>
      </trkpt>
      <trkpt lat="43.09939" lon="-0.08242">
        <ele>376.2</ele>
        <time>2022-09-07T12:43:22Z</time>
      </trkpt>
      <trkpt lat="43.09941" lon="-0.08246">
        <ele>376.4</ele>
        <time>2022-09-07T12:43:24Z</time>
      </trkpt>
      <trkpt lat="43.09944" lon="-0.08255">
        <ele>377.2</ele>
        <time>2022-09-07T12:43:28Z</time>
      </trkpt>
      <trkpt lat="43.09946" lon="-0.08259">
        <ele>377.4</ele>
        <time>2022-09-07T12:43:30Z</time>
      </trkpt>
      <trkpt lat="43.09949" lon="-0.08272">
        <ele>377.6</ele>
        <time>2022-09-07T12:43:35Z</time>
      </trkpt>
      <trkpt lat="43.09952" lon="-0.08287">
        <ele>377.6</ele>
        <time>2022-09-07T12:43:41Z</time>
      </trkpt>
      <trkpt lat="43.09956" lon="-0.08306">
        <ele>377.4</ele>
        <time>2022-09-07T12:43:48Z</time>
      </trkpt>
      <trkpt lat="43.0996" lon="-0.08331">
        <ele>377.2</ele>
        <time>2022-09-07T12:43:56Z</time>
      </trkpt>
      <trkpt lat="43.09963" lon="-0.08351">
        <ele>376.8</ele>
        <time>2022-09-07T12:44:03Z</time>
      </trkpt>
      <trkpt lat="43.09965" lon="-0.08356">
        <ele>376.8</ele>
        <time>2022-09-07T12:44:06Z</time>
      </trkpt>
      <trkpt lat="43.09967" lon="-0.08362">
        <ele>376.6</ele>
        <time>2022-09-07T12:44:08Z</time>
      </trkpt>
      <trkpt lat="43.0997" lon="-0.0838">
        <ele>376.2</ele>
        <time>2022-09-07T12:44:13Z</time>
      </trkpt>
      <trkpt lat="43.09969" lon="-0.08387">
        <ele>375.8</ele>
        <time>2022-09-07T12:44:14Z</time>
      </trkpt>
      <trkpt lat="43.0997" lon="-0.084">
        <ele>375.2</ele>
        <time>2022-09-07T12:44:16Z</time>
      </trkpt>
      <trkpt lat="43.09971" lon="-0.08415">
        <ele>374.4</ele>
        <time>2022-09-07T12:44:18Z</time>
      </trkpt>
      <trkpt lat="43.09972" lon="-0.08421">
        <ele>374</ele>
        <time>2022-09-07T12:44:19Z</time>
      </trkpt>
      <trkpt lat="43.09975" lon="-0.08434">
        <ele>373.4</ele>
        <time>2022-09-07T12:44:21Z</time>
      </trkpt>
      <trkpt lat="43.09977" lon="-0.0844">
        <ele>373</ele>
        <time>2022-09-07T12:44:22Z</time>
      </trkpt>
      <trkpt lat="43.09981" lon="-0.0845">
        <ele>372.4</ele>
        <time>2022-09-07T12:44:24Z</time>
      </trkpt>
      <trkpt lat="43.09982" lon="-0.08455">
        <ele>372</ele>
        <time>2022-09-07T12:44:26Z</time>
      </trkpt>
      <trkpt lat="43.09984" lon="-0.08457">
        <ele>371.4</ele>
        <time>2022-09-07T12:44:28Z</time>
      </trkpt>
      <trkpt lat="43.09983" lon="-0.08476">
        <ele>371.2</ele>
        <time>2022-09-07T12:47:14Z</time>
      </trkpt>
      <trkpt lat="43.09983" lon="-0.08479">
        <ele>371.4</ele>
        <time>2022-09-07T12:47:15Z</time>
      </trkpt>
      <trkpt lat="43.09984" lon="-0.08501">
        <ele>371</ele>
        <time>2022-09-07T12:47:22Z</time>
      </trkpt>
      <trkpt lat="43.09985" lon="-0.08516">
        <ele>371</ele>
        <time>2022-09-07T12:47:27Z</time>
      </trkpt>
      <trkpt lat="43.09985" lon="-0.0852">
        <ele>371</ele>
        <time>2022-09-07T12:47:29Z</time>
      </trkpt>
      <trkpt lat="43.09985" lon="-0.08522">
        <ele>370.8</ele>
        <time>2022-09-07T12:47:30Z</time>
      </trkpt>
      <trkpt lat="43.09987" lon="-0.08537">
        <ele>370.6</ele>
        <time>2022-09-07T12:47:34Z</time>
      </trkpt>
      <trkpt lat="43.09994" lon="-0.0856">
        <ele>370.4</ele>
        <time>2022-09-07T12:47:40Z</time>
      </trkpt>
      <trkpt lat="43.09999" lon="-0.08585">
        <ele>370.4</ele>
        <time>2022-09-07T12:47:47Z</time>
      </trkpt>
      <trkpt lat="43.09996" lon="-0.08605">
        <ele>370.2</ele>
        <time>2022-09-07T12:47:52Z</time>
      </trkpt>
      <trkpt lat="43.0999" lon="-0.0863">
        <ele>370</ele>
        <time>2022-09-07T12:47:58Z</time>
      </trkpt>
      <trkpt lat="43.0999" lon="-0.08636">
        <ele>370</ele>
        <time>2022-09-07T12:47:59Z</time>
      </trkpt>
      <trkpt lat="43.09991" lon="-0.08646">
        <ele>369.8</ele>
        <time>2022-09-07T12:48:02Z</time>
      </trkpt>
      <trkpt lat="43.0999" lon="-0.08665">
        <ele>369.6</ele>
        <time>2022-09-07T12:48:07Z</time>
      </trkpt>
      <trkpt lat="43.09987" lon="-0.08692">
        <ele>369.4</ele>
        <time>2022-09-07T12:48:13Z</time>
      </trkpt>
      <trkpt lat="43.09984" lon="-0.08718">
        <ele>369.4</ele>
        <time>2022-09-07T12:48:19Z</time>
      </trkpt>
      <trkpt lat="43.09983" lon="-0.0874">
        <ele>369.6</ele>
        <time>2022-09-07T12:48:25Z</time>
      </trkpt>
      <trkpt lat="43.09985" lon="-0.08764">
        <ele>369.4</ele>
        <time>2022-09-07T12:48:31Z</time>
      </trkpt>
      <trkpt lat="43.09985" lon="-0.0877">
        <ele>369.4</ele>
        <time>2022-09-07T12:48:33Z</time>
      </trkpt>
      <trkpt lat="43.09986" lon="-0.08775">
        <ele>369.4</ele>
        <time>2022-09-07T12:48:35Z</time>
      </trkpt>
      <trkpt lat="43.09987" lon="-0.08792">
        <ele>369.4</ele>
        <time>2022-09-07T12:48:39Z</time>
      </trkpt>
      <trkpt lat="43.09987" lon="-0.08801">
        <ele>369.4</ele>
        <time>2022-09-07T12:48:41Z</time>
      </trkpt>
      <trkpt lat="43.09986" lon="-0.08827">
        <ele>369.4</ele>
        <time>2022-09-07T12:48:47Z</time>
      </trkpt>
      <trkpt lat="43.09983" lon="-0.08843">
        <ele>369.4</ele>
        <time>2022-09-07T12:48:51Z</time>
      </trkpt>
      <trkpt lat="43.09982" lon="-0.08848">
        <ele>369.2</ele>
        <time>2022-09-07T12:48:52Z</time>
      </trkpt>
      <trkpt lat="43.0998" lon="-0.08854">
        <ele>368.8</ele>
        <time>2022-09-07T12:48:53Z</time>
      </trkpt>
      <trkpt lat="43.09976" lon="-0.08873">
        <ele>368.6</ele>
        <time>2022-09-07T12:48:57Z</time>
      </trkpt>
      <trkpt lat="43.09968" lon="-0.08897">
        <ele>368.2</ele>
        <time>2022-09-07T12:49:02Z</time>
      </trkpt>
      <trkpt lat="43.09962" lon="-0.0891">
        <ele>368.4</ele>
        <time>2022-09-07T12:49:07Z</time>
      </trkpt>
      <trkpt lat="43.09957" lon="-0.08931">
        <ele>369</ele>
        <time>2022-09-07T12:49:12Z</time>
      </trkpt>
      <trkpt lat="43.09957" lon="-0.08944">
        <ele>369.2</ele>
        <time>2022-09-07T12:49:15Z</time>
      </trkpt>
      <trkpt lat="43.09958" lon="-0.08953">
        <ele>369</ele>
        <time>2022-09-07T12:49:17Z</time>
      </trkpt>
      <trkpt lat="43.09958" lon="-0.08967">
        <ele>369.6</ele>
        <time>2022-09-07T12:49:20Z</time>
      </trkpt>
      <trkpt lat="43.09957" lon="-0.08974">
        <ele>369.8</ele>
        <time>2022-09-07T12:49:22Z</time>
      </trkpt>
      <trkpt lat="43.09957" lon="-0.0898">
        <ele>369.8</ele>
        <time>2022-09-07T12:49:24Z</time>
      </trkpt>
      <trkpt lat="43.09957" lon="-0.08995">
        <ele>370.2</ele>
        <time>2022-09-07T12:49:28Z</time>
      </trkpt>
      <trkpt lat="43.09956" lon="-0.09018">
        <ele>369.8</ele>
        <time>2022-09-07T12:49:35Z</time>
      </trkpt>
      <trkpt lat="43.09957" lon="-0.09036">
        <ele>369.8</ele>
        <time>2022-09-07T12:49:41Z</time>
      </trkpt>
      <trkpt lat="43.09957" lon="-0.09065">
        <ele>369.6</ele>
        <time>2022-09-07T12:49:48Z</time>
      </trkpt>
      <trkpt lat="43.09955" lon="-0.09088">
        <ele>369.4</ele>
        <time>2022-09-07T12:49:54Z</time>
      </trkpt>
      <trkpt lat="43.09954" lon="-0.09113">
        <ele>369.2</ele>
        <time>2022-09-07T12:50:01Z</time>
      </trkpt>
      <trkpt lat="43.09949" lon="-0.0913">
        <ele>369.2</ele>
        <time>2022-09-07T12:50:06Z</time>
      </trkpt>
      <trkpt lat="43.09942" lon="-0.09153">
        <ele>369.8</ele>
        <time>2022-09-07T12:50:13Z</time>
      </trkpt>
      <trkpt lat="43.0994" lon="-0.09172">
        <ele>369.6</ele>
        <time>2022-09-07T12:50:18Z</time>
      </trkpt>
      <trkpt lat="43.09935" lon="-0.09196">
        <ele>369.4</ele>
        <time>2022-09-07T12:50:25Z</time>
      </trkpt>
      <trkpt lat="43.09931" lon="-0.09221">
        <ele>369.2</ele>
        <time>2022-09-07T12:50:32Z</time>
      </trkpt>
      <trkpt lat="43.09927" lon="-0.09238">
        <ele>368.6</ele>
        <time>2022-09-07T12:50:36Z</time>
      </trkpt>
      <trkpt lat="43.09925" lon="-0.09252">
        <ele>368.4</ele>
        <time>2022-09-07T12:50:39Z</time>
      </trkpt>
      <trkpt lat="43.09918" lon="-0.09295">
        <ele>367.8</ele>
        <time>2022-09-07T12:50:48Z</time>
      </trkpt>
      <trkpt lat="43.09915" lon="-0.09319">
        <ele>368.2</ele>
        <time>2022-09-07T12:50:54Z</time>
      </trkpt>
      <trkpt lat="43.09915" lon="-0.09341">
        <ele>368.4</ele>
        <time>2022-09-07T12:51:00Z</time>
      </trkpt>
      <trkpt lat="43.09912" lon="-0.09362">
        <ele>368</ele>
        <time>2022-09-07T12:51:06Z</time>
      </trkpt>
      <trkpt lat="43.09909" lon="-0.09389">
        <ele>368.2</ele>
        <time>2022-09-07T12:51:13Z</time>
      </trkpt>
      <trkpt lat="43.09904" lon="-0.09404">
        <ele>368.4</ele>
        <time>2022-09-07T12:51:18Z</time>
      </trkpt>
      <trkpt lat="43.09901" lon="-0.09423">
        <ele>369.6</ele>
        <time>2022-09-07T12:51:25Z</time>
      </trkpt>
      <trkpt lat="43.09901" lon="-0.09426">
        <ele>369.8</ele>
        <time>2022-09-07T12:51:26Z</time>
      </trkpt>
      <trkpt lat="43.09899" lon="-0.09444">
        <ele>370.6</ele>
        <time>2022-09-07T12:51:32Z</time>
      </trkpt>
      <trkpt lat="43.09899" lon="-0.09446">
        <ele>370.8</ele>
        <time>2022-09-07T12:51:33Z</time>
      </trkpt>
      <trkpt lat="43.09899" lon="-0.09451">
        <ele>371.2</ele>
        <time>2022-09-07T12:51:35Z</time>
      </trkpt>
      <trkpt lat="43.09899" lon="-0.09457">
        <ele>371.4</ele>
        <time>2022-09-07T12:51:38Z</time>
      </trkpt>
      <trkpt lat="43.099" lon="-0.09459">
        <ele>371.4</ele>
        <time>2022-09-07T12:51:39Z</time>
      </trkpt>
      <trkpt lat="43.099" lon="-0.0947">
        <ele>371.8</ele>
        <time>2022-09-07T12:51:43Z</time>
      </trkpt>
      <trkpt lat="43.099" lon="-0.09475">
        <ele>372</ele>
        <time>2022-09-07T12:51:45Z</time>
      </trkpt>
      <trkpt lat="43.09901" lon="-0.09481">
        <ele>373</ele>
        <time>2022-09-07T12:51:49Z</time>
      </trkpt>
      <trkpt lat="43.09901" lon="-0.09484">
        <ele>373</ele>
        <time>2022-09-07T12:51:50Z</time>
      </trkpt>
      <trkpt lat="43.09904" lon="-0.09504">
        <ele>373.8</ele>
        <time>2022-09-07T12:51:59Z</time>
      </trkpt>
      <trkpt lat="43.09904" lon="-0.0951">
        <ele>373.8</ele>
        <time>2022-09-07T12:52:01Z</time>
      </trkpt>
      <trkpt lat="43.09904" lon="-0.09515">
        <ele>374</ele>
        <time>2022-09-07T12:52:03Z</time>
      </trkpt>
      <trkpt lat="43.09905" lon="-0.09534">
        <ele>374.8</ele>
        <time>2022-09-07T12:52:11Z</time>
      </trkpt>
      <trkpt lat="43.09904" lon="-0.09543">
        <ele>375.2</ele>
        <time>2022-09-07T12:52:15Z</time>
      </trkpt>
      <trkpt lat="43.09904" lon="-0.09548">
        <ele>375.4</ele>
        <time>2022-09-07T12:52:17Z</time>
      </trkpt>
      <trkpt lat="43.09905" lon="-0.09555">
        <ele>375.2</ele>
        <time>2022-09-07T12:52:20Z</time>
      </trkpt>
      <trkpt lat="43.09906" lon="-0.09565">
        <ele>375.4</ele>
        <time>2022-09-07T12:52:24Z</time>
      </trkpt>
      <trkpt lat="43.09911" lon="-0.09578">
        <ele>375.2</ele>
        <time>2022-09-07T12:52:29Z</time>
      </trkpt>
      <trkpt lat="43.09913" lon="-0.09598">
        <ele>375</ele>
        <time>2022-09-07T12:52:35Z</time>
      </trkpt>
      <trkpt lat="43.09914" lon="-0.09619">
        <ele>375</ele>
        <time>2022-09-07T12:52:42Z</time>
      </trkpt>
      <trkpt lat="43.09915" lon="-0.09637">
        <ele>375</ele>
        <time>2022-09-07T12:52:48Z</time>
      </trkpt>
      <trkpt lat="43.09916" lon="-0.0964">
        <ele>375.2</ele>
        <time>2022-09-07T12:52:49Z</time>
      </trkpt>
      <trkpt lat="43.09918" lon="-0.09653">
        <ele>375.4</ele>
        <time>2022-09-07T12:52:54Z</time>
      </trkpt>
      <trkpt lat="43.09921" lon="-0.09671">
        <ele>375.4</ele>
        <time>2022-09-07T12:53:00Z</time>
      </trkpt>
      <trkpt lat="43.09923" lon="-0.09681">
        <ele>375.2</ele>
        <time>2022-09-07T12:53:04Z</time>
      </trkpt>
      <trkpt lat="43.09923" lon="-0.09683">
        <ele>375.2</ele>
        <time>2022-09-07T12:53:05Z</time>
      </trkpt>
      <trkpt lat="43.09929" lon="-0.09698">
        <ele>375.4</ele>
        <time>2022-09-07T12:53:10Z</time>
      </trkpt>
      <trkpt lat="43.09934" lon="-0.09717">
        <ele>375</ele>
        <time>2022-09-07T12:53:16Z</time>
      </trkpt>
      <trkpt lat="43.09941" lon="-0.09738">
        <ele>374.6</ele>
        <time>2022-09-07T12:53:21Z</time>
      </trkpt>
      <trkpt lat="43.09942" lon="-0.09744">
        <ele>374.2</ele>
        <time>2022-09-07T12:53:24Z</time>
      </trkpt>
      <trkpt lat="43.09943" lon="-0.09746">
        <ele>374.2</ele>
        <time>2022-09-07T12:53:25Z</time>
      </trkpt>
      <trkpt lat="43.09947" lon="-0.09756">
        <ele>374.4</ele>
        <time>2022-09-07T12:53:37Z</time>
      </trkpt>
      <trkpt lat="43.09952" lon="-0.0977">
        <ele>374.4</ele>
        <time>2022-09-07T12:53:42Z</time>
      </trkpt>
      <trkpt lat="43.09962" lon="-0.09787">
        <ele>374.2</ele>
        <time>2022-09-07T12:53:48Z</time>
      </trkpt>
      <trkpt lat="43.09964" lon="-0.0979">
        <ele>374</ele>
        <time>2022-09-07T12:53:49Z</time>
      </trkpt>
      <trkpt lat="43.09971" lon="-0.09807">
        <ele>373.6</ele>
        <time>2022-09-07T12:53:53Z</time>
      </trkpt>
      <trkpt lat="43.0998" lon="-0.09828">
        <ele>372.8</ele>
        <time>2022-09-07T12:53:57Z</time>
      </trkpt>
      <trkpt lat="43.09986" lon="-0.0984">
        <ele>372.2</ele>
        <time>2022-09-07T12:53:59Z</time>
      </trkpt>
      <trkpt lat="43.09988" lon="-0.09847">
        <ele>372</ele>
        <time>2022-09-07T12:54:00Z</time>
      </trkpt>
      <trkpt lat="43.09993" lon="-0.09859">
        <ele>372.2</ele>
        <time>2022-09-07T12:54:02Z</time>
      </trkpt>
      <trkpt lat="43.09998" lon="-0.0987">
        <ele>372</ele>
        <time>2022-09-07T12:54:04Z</time>
      </trkpt>
      <trkpt lat="43.1" lon="-0.09876">
        <ele>371.6</ele>
        <time>2022-09-07T12:54:05Z</time>
      </trkpt>
      <trkpt lat="43.1001" lon="-0.09904">
        <ele>370.8</ele>
        <time>2022-09-07T12:54:10Z</time>
      </trkpt>
      <trkpt lat="43.10011" lon="-0.09907">
        <ele>370.6</ele>
        <time>2022-09-07T12:54:11Z</time>
      </trkpt>
      <trkpt lat="43.10012" lon="-0.09913">
        <ele>369.8</ele>
        <time>2022-09-07T12:54:14Z</time>
      </trkpt>
      <trkpt lat="43.10019" lon="-0.09935">
        <ele>369.6</ele>
        <time>2022-09-07T12:54:49Z</time>
      </trkpt>
      <trkpt lat="43.1002" lon="-0.09937">
        <ele>369.6</ele>
        <time>2022-09-07T12:54:50Z</time>
      </trkpt>
      <trkpt lat="43.10025" lon="-0.09944">
        <ele>369.4</ele>
        <time>2022-09-07T12:54:53Z</time>
      </trkpt>
      <trkpt lat="43.10029" lon="-0.09954">
        <ele>369.4</ele>
        <time>2022-09-07T12:54:57Z</time>
      </trkpt>
      <trkpt lat="43.10035" lon="-0.09964">
        <ele>369.8</ele>
        <time>2022-09-07T12:55:02Z</time>
      </trkpt>
      <trkpt lat="43.10044" lon="-0.09983">
        <ele>369.6</ele>
        <time>2022-09-07T12:55:08Z</time>
      </trkpt>
      <trkpt lat="43.1005" lon="-0.10001">
        <ele>369</ele>
        <time>2022-09-07T12:55:13Z</time>
      </trkpt>
      <trkpt lat="43.10057" lon="-0.10033">
        <ele>369</ele>
        <time>2022-09-07T12:55:21Z</time>
      </trkpt>
      <trkpt lat="43.10063" lon="-0.10053">
        <ele>368.8</ele>
        <time>2022-09-07T12:55:26Z</time>
      </trkpt>
      <trkpt lat="43.1007" lon="-0.10075">
        <ele>369</ele>
        <time>2022-09-07T12:55:31Z</time>
      </trkpt>
      <trkpt lat="43.10075" lon="-0.10103">
        <ele>369</ele>
        <time>2022-09-07T12:55:37Z</time>
      </trkpt>
      <trkpt lat="43.10077" lon="-0.10124">
        <ele>368.6</ele>
        <time>2022-09-07T12:55:42Z</time>
      </trkpt>
      <trkpt lat="43.10079" lon="-0.1013">
        <ele>368.4</ele>
        <time>2022-09-07T12:55:44Z</time>
      </trkpt>
      <trkpt lat="43.1008" lon="-0.10136">
        <ele>368.4</ele>
        <time>2022-09-07T12:55:46Z</time>
      </trkpt>
      <trkpt lat="43.10083" lon="-0.10146">
        <ele>368.8</ele>
        <time>2022-09-07T12:55:52Z</time>
      </trkpt>
      <trkpt lat="43.10085" lon="-0.10152">
        <ele>368.6</ele>
        <time>2022-09-07T12:55:54Z</time>
      </trkpt>
      <trkpt lat="43.10094" lon="-0.10168">
        <ele>368.6</ele>
        <time>2022-09-07T12:56:00Z</time>
      </trkpt>
      <trkpt lat="43.10099" lon="-0.10188">
        <ele>368.6</ele>
        <time>2022-09-07T12:56:05Z</time>
      </trkpt>
      <trkpt lat="43.10102" lon="-0.10205">
        <ele>368.6</ele>
        <time>2022-09-07T12:56:10Z</time>
      </trkpt>
      <trkpt lat="43.10105" lon="-0.10227">
        <ele>368.6</ele>
        <time>2022-09-07T12:56:15Z</time>
      </trkpt>
      <trkpt lat="43.10109" lon="-0.10249">
        <ele>368.6</ele>
        <time>2022-09-07T12:56:20Z</time>
      </trkpt>
      <trkpt lat="43.10112" lon="-0.1027">
        <ele>368.6</ele>
        <time>2022-09-07T12:56:25Z</time>
      </trkpt>
      <trkpt lat="43.10117" lon="-0.10295">
        <ele>369.2</ele>
        <time>2022-09-07T12:56:32Z</time>
      </trkpt>
      <trkpt lat="43.10118" lon="-0.10299">
        <ele>369.2</ele>
        <time>2022-09-07T12:56:33Z</time>
      </trkpt>
      <trkpt lat="43.10118" lon="-0.10307">
        <ele>369.4</ele>
        <time>2022-09-07T12:56:35Z</time>
      </trkpt>
      <trkpt lat="43.10118" lon="-0.10313">
        <ele>370.2</ele>
        <time>2022-09-07T12:56:37Z</time>
      </trkpt>
      <trkpt lat="43.10117" lon="-0.10321">
        <ele>370.4</ele>
        <time>2022-09-07T12:56:40Z</time>
      </trkpt>
      <trkpt lat="43.10117" lon="-0.10323">
        <ele>370.6</ele>
        <time>2022-09-07T12:56:41Z</time>
      </trkpt>
      <trkpt lat="43.10118" lon="-0.10328">
        <ele>370.8</ele>
        <time>2022-09-07T12:56:43Z</time>
      </trkpt>
      <trkpt lat="43.10118" lon="-0.10331">
        <ele>371</ele>
        <time>2022-09-07T12:56:44Z</time>
      </trkpt>
      <trkpt lat="43.10119" lon="-0.10341">
        <ele>371.6</ele>
        <time>2022-09-07T12:56:48Z</time>
      </trkpt>
      <trkpt lat="43.10122" lon="-0.10353">
        <ele>372.6</ele>
        <time>2022-09-07T12:56:52Z</time>
      </trkpt>
      <trkpt lat="43.10122" lon="-0.10356">
        <ele>372.8</ele>
        <time>2022-09-07T12:56:53Z</time>
      </trkpt>
      <trkpt lat="43.10121" lon="-0.10365">
        <ele>374</ele>
        <time>2022-09-07T12:56:57Z</time>
      </trkpt>
      <trkpt lat="43.10121" lon="-0.1037">
        <ele>375</ele>
        <time>2022-09-07T12:57:00Z</time>
      </trkpt>
      <trkpt lat="43.10121" lon="-0.10371">
        <ele>375.2</ele>
        <time>2022-09-07T12:57:01Z</time>
      </trkpt>
      <trkpt lat="43.10121" lon="-0.10371">
        <ele>375.4</ele>
        <time>2022-09-07T12:57:02Z</time>
      </trkpt>
      <trkpt lat="43.10126" lon="-0.10463">
        <ele>386.8</ele>
        <time>2022-09-07T12:59:36Z</time>
      </trkpt>
      <trkpt lat="43.10127" lon="-0.10469">
        <ele>386.6</ele>
        <time>2022-09-07T12:59:38Z</time>
      </trkpt>
      <trkpt lat="43.1013" lon="-0.10482">
        <ele>386.2</ele>
        <time>2022-09-07T12:59:44Z</time>
      </trkpt>
      <trkpt lat="43.1013" lon="-0.10484">
        <ele>386.2</ele>
        <time>2022-09-07T12:59:45Z</time>
      </trkpt>
      <trkpt lat="43.10131" lon="-0.10495">
        <ele>386</ele>
        <time>2022-09-07T12:59:49Z</time>
      </trkpt>
      <trkpt lat="43.10132" lon="-0.10505">
        <ele>386</ele>
        <time>2022-09-07T12:59:52Z</time>
      </trkpt>
      <trkpt lat="43.10135" lon="-0.10522">
        <ele>385.8</ele>
        <time>2022-09-07T12:59:57Z</time>
      </trkpt>
      <trkpt lat="43.10138" lon="-0.10544">
        <ele>386.2</ele>
        <time>2022-09-07T13:01:02Z</time>
      </trkpt>
      <trkpt lat="43.10141" lon="-0.10561">
        <ele>386.4</ele>
        <time>2022-09-07T13:01:06Z</time>
      </trkpt>
      <trkpt lat="43.10146" lon="-0.1058">
        <ele>385.8</ele>
        <time>2022-09-07T13:01:10Z</time>
      </trkpt>
      <trkpt lat="43.10148" lon="-0.10585">
        <ele>385.6</ele>
        <time>2022-09-07T13:01:11Z</time>
      </trkpt>
      <trkpt lat="43.10158" lon="-0.10616">
        <ele>385.4</ele>
        <time>2022-09-07T13:01:18Z</time>
      </trkpt>
      <trkpt lat="43.10162" lon="-0.10645">
        <ele>385.4</ele>
        <time>2022-09-07T13:01:23Z</time>
      </trkpt>
      <trkpt lat="43.10166" lon="-0.10683">
        <ele>384.8</ele>
        <time>2022-09-07T13:01:29Z</time>
      </trkpt>
      <trkpt lat="43.10168" lon="-0.10696">
        <ele>384.6</ele>
        <time>2022-09-07T13:01:31Z</time>
      </trkpt>
      <trkpt lat="43.10175" lon="-0.10726">
        <ele>384</ele>
        <time>2022-09-07T13:01:36Z</time>
      </trkpt>
      <trkpt lat="43.10177" lon="-0.10733">
        <ele>383.6</ele>
        <time>2022-09-07T13:01:37Z</time>
      </trkpt>
      <trkpt lat="43.10185" lon="-0.10775">
        <ele>383.2</ele>
        <time>2022-09-07T13:01:43Z</time>
      </trkpt>
      <trkpt lat="43.10192" lon="-0.1081">
        <ele>382.6</ele>
        <time>2022-09-07T13:01:48Z</time>
      </trkpt>
      <trkpt lat="43.10195" lon="-0.10823">
        <ele>382</ele>
        <time>2022-09-07T13:01:50Z</time>
      </trkpt>
      <trkpt lat="43.10204" lon="-0.10878">
        <ele>381.8</ele>
        <time>2022-09-07T13:01:58Z</time>
      </trkpt>
      <trkpt lat="43.10206" lon="-0.10908">
        <ele>381.2</ele>
        <time>2022-09-07T13:02:02Z</time>
      </trkpt>
      <trkpt lat="43.10209" lon="-0.10932">
        <ele>380.2</ele>
        <time>2022-09-07T13:02:05Z</time>
      </trkpt>
      <trkpt lat="43.10211" lon="-0.10948">
        <ele>380</ele>
        <time>2022-09-07T13:02:07Z</time>
      </trkpt>
      <trkpt lat="43.10218" lon="-0.10979">
        <ele>380</ele>
        <time>2022-09-07T13:02:11Z</time>
      </trkpt>
      <trkpt lat="43.10223" lon="-0.10995">
        <ele>379</ele>
        <time>2022-09-07T13:02:13Z</time>
      </trkpt>
      <trkpt lat="43.10228" lon="-0.11021">
        <ele>377.8</ele>
        <time>2022-09-07T13:02:16Z</time>
      </trkpt>
      <trkpt lat="43.1023" lon="-0.1103">
        <ele>377.2</ele>
        <time>2022-09-07T13:02:17Z</time>
      </trkpt>
      <trkpt lat="43.10234" lon="-0.11048">
        <ele>376.6</ele>
        <time>2022-09-07T13:02:19Z</time>
      </trkpt>
      <trkpt lat="43.10242" lon="-0.11084">
        <ele>376</ele>
        <time>2022-09-07T13:02:23Z</time>
      </trkpt>
      <trkpt lat="43.10248" lon="-0.11111">
        <ele>375.4</ele>
        <time>2022-09-07T13:02:26Z</time>
      </trkpt>
      <trkpt lat="43.10253" lon="-0.11139">
        <ele>374.2</ele>
        <time>2022-09-07T13:02:29Z</time>
      </trkpt>
      <trkpt lat="43.10255" lon="-0.11148">
        <ele>373.6</ele>
        <time>2022-09-07T13:02:30Z</time>
      </trkpt>
      <trkpt lat="43.10258" lon="-0.11166">
        <ele>373</ele>
        <time>2022-09-07T13:02:32Z</time>
      </trkpt>
      <trkpt lat="43.10258" lon="-0.11175">
        <ele>372.6</ele>
        <time>2022-09-07T13:02:33Z</time>
      </trkpt>
      <trkpt lat="43.10258" lon="-0.11185">
        <ele>372.4</ele>
        <time>2022-09-07T13:02:34Z</time>
      </trkpt>
      <trkpt lat="43.10257" lon="-0.11213">
        <ele>371.6</ele>
        <time>2022-09-07T13:02:37Z</time>
      </trkpt>
      <trkpt lat="43.10254" lon="-0.11248">
        <ele>371.2</ele>
        <time>2022-09-07T13:02:41Z</time>
      </trkpt>
      <trkpt lat="43.10251" lon="-0.11288">
        <ele>371</ele>
        <time>2022-09-07T13:02:46Z</time>
      </trkpt>
      <trkpt lat="43.10252" lon="-0.11311">
        <ele>370.6</ele>
        <time>2022-09-07T13:02:49Z</time>
      </trkpt>
      <trkpt lat="43.10254" lon="-0.11326">
        <ele>370.4</ele>
        <time>2022-09-07T13:02:51Z</time>
      </trkpt>
      <trkpt lat="43.10256" lon="-0.1135">
        <ele>369.2</ele>
        <time>2022-09-07T13:02:54Z</time>
      </trkpt>
      <trkpt lat="43.10257" lon="-0.11359">
        <ele>369.2</ele>
        <time>2022-09-07T13:02:55Z</time>
      </trkpt>
      <trkpt lat="43.1026" lon="-0.11376">
        <ele>368.8</ele>
        <time>2022-09-07T13:02:57Z</time>
      </trkpt>
      <trkpt lat="43.10261" lon="-0.11385">
        <ele>368.2</ele>
        <time>2022-09-07T13:02:58Z</time>
      </trkpt>
      <trkpt lat="43.10262" lon="-0.11412">
        <ele>366.6</ele>
        <time>2022-09-07T13:03:01Z</time>
      </trkpt>
      <trkpt lat="43.10261" lon="-0.11432">
        <ele>366.8</ele>
        <time>2022-09-07T13:03:03Z</time>
      </trkpt>
      <trkpt lat="43.10259" lon="-0.11467">
        <ele>366.6</ele>
        <time>2022-09-07T13:03:07Z</time>
      </trkpt>
      <trkpt lat="43.10258" lon="-0.11474">
        <ele>366.6</ele>
        <time>2022-09-07T13:03:08Z</time>
      </trkpt>
      <trkpt lat="43.10255" lon="-0.11491">
        <ele>366.4</ele>
        <time>2022-09-07T13:03:10Z</time>
      </trkpt>
      <trkpt lat="43.10251" lon="-0.11516">
        <ele>366.4</ele>
        <time>2022-09-07T13:03:13Z</time>
      </trkpt>
      <trkpt lat="43.10249" lon="-0.11525">
        <ele>366.4</ele>
        <time>2022-09-07T13:03:14Z</time>
      </trkpt>
      <trkpt lat="43.10246" lon="-0.11547">
        <ele>365.4</ele>
        <time>2022-09-07T13:03:17Z</time>
      </trkpt>
      <trkpt lat="43.10245" lon="-0.11554">
        <ele>365.8</ele>
        <time>2022-09-07T13:03:18Z</time>
      </trkpt>
      <trkpt lat="43.10241" lon="-0.11576">
        <ele>365.4</ele>
        <time>2022-09-07T13:03:21Z</time>
      </trkpt>
      <trkpt lat="43.10238" lon="-0.11593">
        <ele>365.2</ele>
        <time>2022-09-07T13:03:24Z</time>
      </trkpt>
      <trkpt lat="43.10234" lon="-0.11615">
        <ele>364.4</ele>
        <time>2022-09-07T13:03:27Z</time>
      </trkpt>
      <trkpt lat="43.10232" lon="-0.11628">
        <ele>364.8</ele>
        <time>2022-09-07T13:03:29Z</time>
      </trkpt>
      <trkpt lat="43.10231" lon="-0.11633">
        <ele>365</ele>
        <time>2022-09-07T13:03:30Z</time>
      </trkpt>
      <trkpt lat="43.10227" lon="-0.11655">
        <ele>364.6</ele>
        <time>2022-09-07T13:03:34Z</time>
      </trkpt>
      <trkpt lat="43.10221" lon="-0.11687">
        <ele>363.8</ele>
        <time>2022-09-07T13:03:40Z</time>
      </trkpt>
      <trkpt lat="43.1022" lon="-0.11693">
        <ele>363.8</ele>
        <time>2022-09-07T13:03:41Z</time>
      </trkpt>
      <trkpt lat="43.10217" lon="-0.11713">
        <ele>364</ele>
        <time>2022-09-07T13:03:45Z</time>
      </trkpt>
      <trkpt lat="43.10213" lon="-0.11736">
        <ele>363.4</ele>
        <time>2022-09-07T13:03:50Z</time>
      </trkpt>
      <trkpt lat="43.10212" lon="-0.11741">
        <ele>363.2</ele>
        <time>2022-09-07T13:03:51Z</time>
      </trkpt>
      <trkpt lat="43.1021" lon="-0.11763">
        <ele>363.4</ele>
        <time>2022-09-07T13:03:56Z</time>
      </trkpt>
      <trkpt lat="43.1021" lon="-0.11791">
        <ele>363</ele>
        <time>2022-09-07T13:04:01Z</time>
      </trkpt>
      <trkpt lat="43.10209" lon="-0.11829">
        <ele>362.4</ele>
        <time>2022-09-07T13:04:07Z</time>
      </trkpt>
      <trkpt lat="43.10207" lon="-0.11842">
        <ele>362.4</ele>
        <time>2022-09-07T13:04:09Z</time>
      </trkpt>
      <trkpt lat="43.10202" lon="-0.1189">
        <ele>361.6</ele>
        <time>2022-09-07T13:04:16Z</time>
      </trkpt>
      <trkpt lat="43.10195" lon="-0.1192">
        <ele>361.4</ele>
        <time>2022-09-07T13:04:21Z</time>
      </trkpt>
      <trkpt lat="43.10192" lon="-0.11931">
        <ele>361.2</ele>
        <time>2022-09-07T13:04:23Z</time>
      </trkpt>
      <trkpt lat="43.1019" lon="-0.11936">
        <ele>361.2</ele>
        <time>2022-09-07T13:04:24Z</time>
      </trkpt>
      <trkpt lat="43.10182" lon="-0.11968">
        <ele>360.8</ele>
        <time>2022-09-07T13:04:30Z</time>
      </trkpt>
      <trkpt lat="43.10176" lon="-0.11983">
        <ele>360.8</ele>
        <time>2022-09-07T13:04:33Z</time>
      </trkpt>
      <trkpt lat="43.10171" lon="-0.11993">
        <ele>360.8</ele>
        <time>2022-09-07T13:04:35Z</time>
      </trkpt>
      <trkpt lat="43.1016" lon="-0.12011">
        <ele>360.8</ele>
        <time>2022-09-07T13:04:39Z</time>
      </trkpt>
      <trkpt lat="43.10154" lon="-0.1202">
        <ele>360.8</ele>
        <time>2022-09-07T13:04:41Z</time>
      </trkpt>
      <trkpt lat="43.10144" lon="-0.12037">
        <ele>360.4</ele>
        <time>2022-09-07T13:04:45Z</time>
      </trkpt>
      <trkpt lat="43.10141" lon="-0.12042">
        <ele>360.2</ele>
        <time>2022-09-07T13:04:46Z</time>
      </trkpt>
      <trkpt lat="43.10138" lon="-0.12047">
        <ele>360.2</ele>
        <time>2022-09-07T13:04:47Z</time>
      </trkpt>
      <trkpt lat="43.10126" lon="-0.12078">
        <ele>360.6</ele>
        <time>2022-09-07T13:04:53Z</time>
      </trkpt>
      <trkpt lat="43.10124" lon="-0.12088">
        <ele>360.4</ele>
        <time>2022-09-07T13:04:55Z</time>
      </trkpt>
      <trkpt lat="43.1012" lon="-0.12104">
        <ele>360.4</ele>
        <time>2022-09-07T13:04:58Z</time>
      </trkpt>
      <trkpt lat="43.10114" lon="-0.12131">
        <ele>360.8</ele>
        <time>2022-09-07T13:05:04Z</time>
      </trkpt>
      <trkpt lat="43.10113" lon="-0.12141">
        <ele>361.4</ele>
        <time>2022-09-07T13:05:07Z</time>
      </trkpt>
      <trkpt lat="43.10112" lon="-0.1215">
        <ele>361.8</ele>
        <time>2022-09-07T13:05:10Z</time>
      </trkpt>
      <trkpt lat="43.10112" lon="-0.12159">
        <ele>362.4</ele>
        <time>2022-09-07T13:05:14Z</time>
      </trkpt>
      <trkpt lat="43.1011" lon="-0.12163">
        <ele>362.6</ele>
        <time>2022-09-07T13:05:16Z</time>
      </trkpt>
      <trkpt lat="43.1011" lon="-0.12166">
        <ele>362.8</ele>
        <time>2022-09-07T13:05:18Z</time>
      </trkpt>
      <trkpt lat="43.1011" lon="-0.12173">
        <ele>363.2</ele>
        <time>2022-09-07T13:05:22Z</time>
      </trkpt>
      <trkpt lat="43.10109" lon="-0.12174">
        <ele>363.2</ele>
        <time>2022-09-07T13:05:23Z</time>
      </trkpt>
      <trkpt lat="43.10109" lon="-0.12176">
        <ele>363.4</ele>
        <time>2022-09-07T13:05:24Z</time>
      </trkpt>
      <trkpt lat="43.10109" lon="-0.12182">
        <ele>364</ele>
        <time>2022-09-07T13:05:27Z</time>
      </trkpt>
      <trkpt lat="43.10108" lon="-0.12183">
        <ele>364.2</ele>
        <time>2022-09-07T13:05:28Z</time>
      </trkpt>
      <trkpt lat="43.10106" lon="-0.12189">
        <ele>364.4</ele>
        <time>2022-09-07T13:05:31Z</time>
      </trkpt>
      <trkpt lat="43.10105" lon="-0.12193">
        <ele>364.6</ele>
        <time>2022-09-07T13:05:33Z</time>
      </trkpt>
      <trkpt lat="43.10103" lon="-0.12201">
        <ele>365.2</ele>
        <time>2022-09-07T13:05:37Z</time>
      </trkpt>
      <trkpt lat="43.10102" lon="-0.12204">
        <ele>365.4</ele>
        <time>2022-09-07T13:05:39Z</time>
      </trkpt>
      <trkpt lat="43.10102" lon="-0.12206">
        <ele>365.4</ele>
        <time>2022-09-07T13:05:40Z</time>
      </trkpt>
      <trkpt lat="43.101" lon="-0.1221">
        <ele>365.8</ele>
        <time>2022-09-07T13:05:42Z</time>
      </trkpt>
      <trkpt lat="43.10097" lon="-0.12217">
        <ele>366.4</ele>
        <time>2022-09-07T13:05:46Z</time>
      </trkpt>
      <trkpt lat="43.10097" lon="-0.12222">
        <ele>366.6</ele>
        <time>2022-09-07T13:05:48Z</time>
      </trkpt>
      <trkpt lat="43.10096" lon="-0.12228">
        <ele>366.8</ele>
        <time>2022-09-07T13:05:51Z</time>
      </trkpt>
      <trkpt lat="43.10096" lon="-0.12232">
        <ele>367.2</ele>
        <time>2022-09-07T13:05:53Z</time>
      </trkpt>
      <trkpt lat="43.10096" lon="-0.12242">
        <ele>367.6</ele>
        <time>2022-09-07T13:05:58Z</time>
      </trkpt>
      <trkpt lat="43.10096" lon="-0.12244">
        <ele>367.8</ele>
        <time>2022-09-07T13:05:59Z</time>
      </trkpt>
      <trkpt lat="43.10095" lon="-0.12254">
        <ele>368.2</ele>
        <time>2022-09-07T13:06:04Z</time>
      </trkpt>
      <trkpt lat="43.10094" lon="-0.12259">
        <ele>368.6</ele>
        <time>2022-09-07T13:06:07Z</time>
      </trkpt>
      <trkpt lat="43.10092" lon="-0.1227">
        <ele>369.2</ele>
        <time>2022-09-07T13:06:12Z</time>
      </trkpt>
      <trkpt lat="43.10092" lon="-0.12274">
        <ele>369.4</ele>
        <time>2022-09-07T13:06:14Z</time>
      </trkpt>
      <trkpt lat="43.10091" lon="-0.12284">
        <ele>369.6</ele>
        <time>2022-09-07T13:06:18Z</time>
      </trkpt>
      <trkpt lat="43.10088" lon="-0.12293">
        <ele>370</ele>
        <time>2022-09-07T13:06:22Z</time>
      </trkpt>
      <trkpt lat="43.10079" lon="-0.12318">
        <ele>370</ele>
        <time>2022-09-07T13:06:30Z</time>
      </trkpt>
      <trkpt lat="43.10067" lon="-0.12338">
        <ele>370.2</ele>
        <time>2022-09-07T13:06:36Z</time>
      </trkpt>
      <trkpt lat="43.10058" lon="-0.12354">
        <ele>370.6</ele>
        <time>2022-09-07T13:06:40Z</time>
      </trkpt>
      <trkpt lat="43.10054" lon="-0.12362">
        <ele>370.4</ele>
        <time>2022-09-07T13:06:42Z</time>
      </trkpt>
      <trkpt lat="43.10043" lon="-0.12384">
        <ele>370</ele>
        <time>2022-09-07T13:06:48Z</time>
      </trkpt>
      <trkpt lat="43.10037" lon="-0.12397">
        <ele>369.8</ele>
        <time>2022-09-07T13:06:51Z</time>
      </trkpt>
      <trkpt lat="43.10033" lon="-0.12407">
        <ele>369.6</ele>
        <time>2022-09-07T13:06:53Z</time>
      </trkpt>
      <trkpt lat="43.10027" lon="-0.12416">
        <ele>369.6</ele>
        <time>2022-09-07T13:06:55Z</time>
      </trkpt>
      <trkpt lat="43.10015" lon="-0.12433">
        <ele>369.2</ele>
        <time>2022-09-07T13:06:59Z</time>
      </trkpt>
      <trkpt lat="43.10001" lon="-0.12457">
        <ele>369.2</ele>
        <time>2022-09-07T13:07:04Z</time>
      </trkpt>
      <trkpt lat="43.09995" lon="-0.12466">
        <ele>369.2</ele>
        <time>2022-09-07T13:07:06Z</time>
      </trkpt>
      <trkpt lat="43.09985" lon="-0.12479">
        <ele>368.8</ele>
        <time>2022-09-07T13:07:09Z</time>
      </trkpt>
      <trkpt lat="43.09974" lon="-0.12487">
        <ele>369</ele>
        <time>2022-09-07T13:07:12Z</time>
      </trkpt>
      <trkpt lat="43.09945" lon="-0.1251">
        <ele>369.2</ele>
        <time>2022-09-07T13:07:20Z</time>
      </trkpt>
      <trkpt lat="43.09932" lon="-0.12522">
        <ele>368.6</ele>
        <time>2022-09-07T13:07:24Z</time>
      </trkpt>
      <trkpt lat="43.09925" lon="-0.12527">
        <ele>368.6</ele>
        <time>2022-09-07T13:07:26Z</time>
      </trkpt>
      <trkpt lat="43.09909" lon="-0.12542">
        <ele>368.2</ele>
        <time>2022-09-07T13:07:31Z</time>
      </trkpt>
      <trkpt lat="43.09901" lon="-0.12546">
        <ele>368.2</ele>
        <time>2022-09-07T13:07:33Z</time>
      </trkpt>
      <trkpt lat="43.09891" lon="-0.12554">
        <ele>368.2</ele>
        <time>2022-09-07T13:07:36Z</time>
      </trkpt>
      <trkpt lat="43.09887" lon="-0.12556">
        <ele>368</ele>
        <time>2022-09-07T13:07:37Z</time>
      </trkpt>
      <trkpt lat="43.09859" lon="-0.12575">
        <ele>368.4</ele>
        <time>2022-09-07T13:07:45Z</time>
      </trkpt>
      <trkpt lat="43.09844" lon="-0.12584">
        <ele>368.6</ele>
        <time>2022-09-07T13:07:50Z</time>
      </trkpt>
      <trkpt lat="43.09826" lon="-0.12598">
        <ele>368.8</ele>
        <time>2022-09-07T13:07:56Z</time>
      </trkpt>
      <trkpt lat="43.09817" lon="-0.12621">
        <ele>369.4</ele>
        <time>2022-09-07T13:08:02Z</time>
      </trkpt>
      <trkpt lat="43.09815" lon="-0.12624">
        <ele>369.6</ele>
        <time>2022-09-07T13:08:03Z</time>
      </trkpt>
      <trkpt lat="43.09812" lon="-0.12634">
        <ele>370.8</ele>
        <time>2022-09-07T13:08:07Z</time>
      </trkpt>
      <trkpt lat="43.09811" lon="-0.12636">
        <ele>371</ele>
        <time>2022-09-07T13:08:08Z</time>
      </trkpt>
      <trkpt lat="43.09808" lon="-0.12647">
        <ele>372.2</ele>
        <time>2022-09-07T13:08:13Z</time>
      </trkpt>
      <trkpt lat="43.09807" lon="-0.1265">
        <ele>372.2</ele>
        <time>2022-09-07T13:08:16Z</time>
      </trkpt>
      <trkpt lat="43.09804" lon="-0.1266">
        <ele>372.2</ele>
        <time>2022-09-07T13:11:38Z</time>
      </trkpt>
      <trkpt lat="43.09803" lon="-0.12664">
        <ele>372</ele>
        <time>2022-09-07T13:11:39Z</time>
      </trkpt>
      <trkpt lat="43.09799" lon="-0.12686">
        <ele>371</ele>
        <time>2022-09-07T13:11:44Z</time>
      </trkpt>
      <trkpt lat="43.09796" lon="-0.12696">
        <ele>370.6</ele>
        <time>2022-09-07T13:11:46Z</time>
      </trkpt>
      <trkpt lat="43.09794" lon="-0.12706">
        <ele>369.8</ele>
        <time>2022-09-07T13:11:48Z</time>
      </trkpt>
      <trkpt lat="43.09793" lon="-0.12722">
        <ele>369</ele>
        <time>2022-09-07T13:11:51Z</time>
      </trkpt>
      <trkpt lat="43.09793" lon="-0.12729">
        <ele>368.8</ele>
        <time>2022-09-07T13:11:52Z</time>
      </trkpt>
      <trkpt lat="43.09793" lon="-0.12735">
        <ele>368.6</ele>
        <time>2022-09-07T13:11:53Z</time>
      </trkpt>
      <trkpt lat="43.09798" lon="-0.12767">
        <ele>368.8</ele>
        <time>2022-09-07T13:11:59Z</time>
      </trkpt>
      <trkpt lat="43.09798" lon="-0.12787">
        <ele>369</ele>
        <time>2022-09-07T13:12:04Z</time>
      </trkpt>
      <trkpt lat="43.09787" lon="-0.12807">
        <ele>369.4</ele>
        <time>2022-09-07T13:12:10Z</time>
      </trkpt>
      <trkpt lat="43.09781" lon="-0.12814">
        <ele>370</ele>
        <time>2022-09-07T13:12:13Z</time>
      </trkpt>
      <trkpt lat="43.09775" lon="-0.12823">
        <ele>370</ele>
        <time>2022-09-07T13:12:17Z</time>
      </trkpt>
      <trkpt lat="43.09779" lon="-0.12834">
        <ele>370.4</ele>
        <time>2022-09-07T13:12:21Z</time>
      </trkpt>
      <trkpt lat="43.09781" lon="-0.12836">
        <ele>370.4</ele>
        <time>2022-09-07T13:12:22Z</time>
      </trkpt>
      <trkpt lat="43.09791" lon="-0.12853">
        <ele>371</ele>
        <time>2022-09-07T13:12:28Z</time>
      </trkpt>
      <trkpt lat="43.09792" lon="-0.12859">
        <ele>371.4</ele>
        <time>2022-09-07T13:12:30Z</time>
      </trkpt>
      <trkpt lat="43.09794" lon="-0.12872">
        <ele>372</ele>
        <time>2022-09-07T13:12:35Z</time>
      </trkpt>
      <trkpt lat="43.09794" lon="-0.12874">
        <ele>372.2</ele>
        <time>2022-09-07T13:12:36Z</time>
      </trkpt>
      <trkpt lat="43.09794" lon="-0.12887">
        <ele>373.2</ele>
        <time>2022-09-07T13:12:41Z</time>
      </trkpt>
      <trkpt lat="43.09794" lon="-0.12896">
        <ele>373.4</ele>
        <time>2022-09-07T13:12:45Z</time>
      </trkpt>
      <trkpt lat="43.09793" lon="-0.1291">
        <ele>374.2</ele>
        <time>2022-09-07T13:12:51Z</time>
      </trkpt>
      <trkpt lat="43.09793" lon="-0.12912">
        <ele>374.2</ele>
        <time>2022-09-07T13:12:52Z</time>
      </trkpt>
      <trkpt lat="43.09795" lon="-0.12931">
        <ele>374.8</ele>
        <time>2022-09-07T13:13:00Z</time>
      </trkpt>
      <trkpt lat="43.09795" lon="-0.12934">
        <ele>375.2</ele>
        <time>2022-09-07T13:13:01Z</time>
      </trkpt>
      <trkpt lat="43.09795" lon="-0.12952">
        <ele>375.6</ele>
        <time>2022-09-07T13:13:08Z</time>
      </trkpt>
      <trkpt lat="43.09795" lon="-0.12971">
        <ele>376.2</ele>
        <time>2022-09-07T13:13:15Z</time>
      </trkpt>
      <trkpt lat="43.09795" lon="-0.12974">
        <ele>376.2</ele>
        <time>2022-09-07T13:13:16Z</time>
      </trkpt>
      <trkpt lat="43.09795" lon="-0.12996">
        <ele>376</ele>
        <time>2022-09-07T13:13:22Z</time>
      </trkpt>
      <trkpt lat="43.09802" lon="-0.13028">
        <ele>375.4</ele>
        <time>2022-09-07T13:13:29Z</time>
      </trkpt>
      <trkpt lat="43.09813" lon="-0.13054">
        <ele>375.2</ele>
        <time>2022-09-07T13:13:35Z</time>
      </trkpt>
      <trkpt lat="43.09817" lon="-0.13065">
        <ele>375.2</ele>
        <time>2022-09-07T13:13:37Z</time>
      </trkpt>
      <trkpt lat="43.09826" lon="-0.13088">
        <ele>374.2</ele>
        <time>2022-09-07T13:13:41Z</time>
      </trkpt>
      <trkpt lat="43.09833" lon="-0.13108">
        <ele>373.6</ele>
        <time>2022-09-07T13:13:44Z</time>
      </trkpt>
      <trkpt lat="43.09836" lon="-0.13114">
        <ele>373.6</ele>
        <time>2022-09-07T13:13:45Z</time>
      </trkpt>
      <trkpt lat="43.09847" lon="-0.13132">
        <ele>373.2</ele>
        <time>2022-09-07T13:13:48Z</time>
      </trkpt>
      <trkpt lat="43.09855" lon="-0.13147">
        <ele>372</ele>
        <time>2022-09-07T13:13:50Z</time>
      </trkpt>
      <trkpt lat="43.09873" lon="-0.1318">
        <ele>370.6</ele>
        <time>2022-09-07T13:13:54Z</time>
      </trkpt>
      <trkpt lat="43.09879" lon="-0.13189">
        <ele>370</ele>
        <time>2022-09-07T13:13:55Z</time>
      </trkpt>
      <trkpt lat="43.0989" lon="-0.13206">
        <ele>369.4</ele>
        <time>2022-09-07T13:13:57Z</time>
      </trkpt>
      <trkpt lat="43.09909" lon="-0.13229">
        <ele>367.8</ele>
        <time>2022-09-07T13:14:00Z</time>
      </trkpt>
      <trkpt lat="43.09921" lon="-0.13246">
        <ele>366.6</ele>
        <time>2022-09-07T13:14:02Z</time>
      </trkpt>
      <trkpt lat="43.09926" lon="-0.13255">
        <ele>366.4</ele>
        <time>2022-09-07T13:14:03Z</time>
      </trkpt>
      <trkpt lat="43.09936" lon="-0.13275">
        <ele>365.4</ele>
        <time>2022-09-07T13:14:05Z</time>
      </trkpt>
      <trkpt lat="43.09956" lon="-0.13319">
        <ele>364.6</ele>
        <time>2022-09-07T13:14:10Z</time>
      </trkpt>
      <trkpt lat="43.09958" lon="-0.13328">
        <ele>364.4</ele>
        <time>2022-09-07T13:14:11Z</time>
      </trkpt>
      <trkpt lat="43.09963" lon="-0.1335">
        <ele>364.8</ele>
        <time>2022-09-07T13:14:14Z</time>
      </trkpt>
      <trkpt lat="43.09969" lon="-0.13375">
        <ele>365.6</ele>
        <time>2022-09-07T13:14:19Z</time>
      </trkpt>
      <trkpt lat="43.09978" lon="-0.13407">
        <ele>366</ele>
        <time>2022-09-07T13:14:26Z</time>
      </trkpt>
      <trkpt lat="43.09984" lon="-0.13424">
        <ele>366.6</ele>
        <time>2022-09-07T13:14:30Z</time>
      </trkpt>
      <trkpt lat="43.09989" lon="-0.13436">
        <ele>366.6</ele>
        <time>2022-09-07T13:14:33Z</time>
      </trkpt>
      <trkpt lat="43.10004" lon="-0.13467">
        <ele>366.4</ele>
        <time>2022-09-07T13:14:40Z</time>
      </trkpt>
      <trkpt lat="43.10008" lon="-0.13482">
        <ele>367</ele>
        <time>2022-09-07T13:14:43Z</time>
      </trkpt>
      <trkpt lat="43.1001" lon="-0.13498">
        <ele>366.6</ele>
        <time>2022-09-07T13:14:46Z</time>
      </trkpt>
      <trkpt lat="43.10009" lon="-0.13534">
        <ele>367</ele>
        <time>2022-09-07T13:14:53Z</time>
      </trkpt>
      <trkpt lat="43.10004" lon="-0.13551">
        <ele>367.8</ele>
        <time>2022-09-07T13:14:57Z</time>
      </trkpt>
      <trkpt lat="43.1" lon="-0.13558">
        <ele>368</ele>
        <time>2022-09-07T13:14:59Z</time>
      </trkpt>
      <trkpt lat="43.09991" lon="-0.13587">
        <ele>368</ele>
        <time>2022-09-07T13:15:07Z</time>
      </trkpt>
      <trkpt lat="43.09982" lon="-0.13622">
        <ele>368.2</ele>
        <time>2022-09-07T13:15:15Z</time>
      </trkpt>
      <trkpt lat="43.09973" lon="-0.13662">
        <ele>367.8</ele>
        <time>2022-09-07T13:15:23Z</time>
      </trkpt>
      <trkpt lat="43.09963" lon="-0.13705">
        <ele>367.6</ele>
        <time>2022-09-07T13:15:31Z</time>
      </trkpt>
      <trkpt lat="43.09962" lon="-0.1371">
        <ele>367.6</ele>
        <time>2022-09-07T13:15:32Z</time>
      </trkpt>
      <trkpt lat="43.09959" lon="-0.13734">
        <ele>367</ele>
        <time>2022-09-07T13:15:36Z</time>
      </trkpt>
      <trkpt lat="43.09952" lon="-0.13785">
        <ele>366.6</ele>
        <time>2022-09-07T13:15:44Z</time>
      </trkpt>
      <trkpt lat="43.09951" lon="-0.13791">
        <ele>366.6</ele>
        <time>2022-09-07T13:15:45Z</time>
      </trkpt>
      <trkpt lat="43.09949" lon="-0.1382">
        <ele>366.6</ele>
        <time>2022-09-07T13:15:50Z</time>
      </trkpt>
      <trkpt lat="43.0995" lon="-0.13825">
        <ele>366.4</ele>
        <time>2022-09-07T13:15:51Z</time>
      </trkpt>
      <trkpt lat="43.09958" lon="-0.13835">
        <ele>366.4</ele>
        <time>2022-09-07T13:15:54Z</time>
      </trkpt>
      <trkpt lat="43.0997" lon="-0.13839">
        <ele>366.6</ele>
        <time>2022-09-07T13:15:57Z</time>
      </trkpt>
      <trkpt lat="43.09979" lon="-0.1384">
        <ele>366.4</ele>
        <time>2022-09-07T13:15:59Z</time>
      </trkpt>
      <trkpt lat="43.10008" lon="-0.13842">
        <ele>367.4</ele>
        <time>2022-09-07T13:16:07Z</time>
      </trkpt>
      <trkpt lat="43.10015" lon="-0.13845">
        <ele>368</ele>
        <time>2022-09-07T13:16:09Z</time>
      </trkpt>
      <trkpt lat="43.10023" lon="-0.13855">
        <ele>368</ele>
        <time>2022-09-07T13:16:12Z</time>
      </trkpt>
      <trkpt lat="43.10026" lon="-0.13878">
        <ele>367.8</ele>
        <time>2022-09-07T13:16:17Z</time>
      </trkpt>
      <trkpt lat="43.10022" lon="-0.13907">
        <ele>367.6</ele>
        <time>2022-09-07T13:16:23Z</time>
      </trkpt>
      <trkpt lat="43.10022" lon="-0.13948">
        <ele>367.2</ele>
        <time>2022-09-07T13:16:31Z</time>
      </trkpt>
      <trkpt lat="43.10021" lon="-0.13979">
        <ele>367</ele>
        <time>2022-09-07T13:16:37Z</time>
      </trkpt>
      <trkpt lat="43.10021" lon="-0.13984">
        <ele>366.8</ele>
        <time>2022-09-07T13:16:38Z</time>
      </trkpt>
      <trkpt lat="43.10024" lon="-0.13999">
        <ele>366.4</ele>
        <time>2022-09-07T13:16:42Z</time>
      </trkpt>
      <trkpt lat="43.10024" lon="-0.14008">
        <ele>365.6</ele>
        <time>2022-09-07T13:17:19Z</time>
      </trkpt>
      <trkpt lat="43.10024" lon="-0.14015">
        <ele>365.6</ele>
        <time>2022-09-07T13:17:21Z</time>
      </trkpt>
      <trkpt lat="43.10024" lon="-0.14023">
        <ele>365.4</ele>
        <time>2022-09-07T13:17:23Z</time>
      </trkpt>
      <trkpt lat="43.10024" lon="-0.1404">
        <ele>365.4</ele>
        <time>2022-09-07T13:17:27Z</time>
      </trkpt>
      <trkpt lat="43.10028" lon="-0.14063">
        <ele>365</ele>
        <time>2022-09-07T13:17:33Z</time>
      </trkpt>
      <trkpt lat="43.1003" lon="-0.14069">
        <ele>365</ele>
        <time>2022-09-07T13:17:36Z</time>
      </trkpt>
      <trkpt lat="43.10028" lon="-0.14071">
        <ele>364.8</ele>
        <time>2022-09-07T13:17:38Z</time>
      </trkpt>
      <trkpt lat="43.10024" lon="-0.14062">
        <ele>364.6</ele>
        <time>2022-09-07T13:19:45Z</time>
      </trkpt>
      <trkpt lat="43.10023" lon="-0.14058">
        <ele>364.6</ele>
        <time>2022-09-07T13:19:46Z</time>
      </trkpt>
      <trkpt lat="43.10019" lon="-0.14042">
        <ele>363.4</ele>
        <time>2022-09-07T13:19:49Z</time>
      </trkpt>
      <trkpt lat="43.10018" lon="-0.14037">
        <ele>362.6</ele>
        <time>2022-09-07T13:19:50Z</time>
      </trkpt>
      <trkpt lat="43.10016" lon="-0.14033">
        <ele>361.2</ele>
        <time>2022-09-07T13:19:51Z</time>
      </trkpt>
      <trkpt lat="43.10009" lon="-0.14027">
        <ele>360</ele>
        <time>2022-09-07T13:19:53Z</time>
      </trkpt>
      <trkpt lat="43.1" lon="-0.1403">
        <ele>359</ele>
        <time>2022-09-07T13:19:55Z</time>
      </trkpt>
      <trkpt lat="43.09996" lon="-0.14033">
        <ele>358.8</ele>
        <time>2022-09-07T13:19:56Z</time>
      </trkpt>
      <trkpt lat="43.09988" lon="-0.14043">
        <ele>358.6</ele>
        <time>2022-09-07T13:19:59Z</time>
      </trkpt>
      <trkpt lat="43.09986" lon="-0.14047">
        <ele>358.4</ele>
        <time>2022-09-07T13:20:00Z</time>
      </trkpt>
      <trkpt lat="43.09986" lon="-0.14051">
        <ele>358.2</ele>
        <time>2022-09-07T13:20:01Z</time>
      </trkpt>
      <trkpt lat="43.09987" lon="-0.14054">
        <ele>358</ele>
        <time>2022-09-07T13:20:02Z</time>
      </trkpt>
      <trkpt lat="43.09987" lon="-0.1406">
        <ele>358.2</ele>
        <time>2022-09-07T13:20:04Z</time>
      </trkpt>
      <trkpt lat="43.09985" lon="-0.14068">
        <ele>359</ele>
        <time>2022-09-07T13:20:07Z</time>
      </trkpt>
      <trkpt lat="43.09985" lon="-0.14074">
        <ele>359.8</ele>
        <time>2022-09-07T13:20:10Z</time>
      </trkpt>
      <trkpt lat="43.09984" lon="-0.14077">
        <ele>360.2</ele>
        <time>2022-09-07T13:20:11Z</time>
      </trkpt>
      <trkpt lat="43.09951" lon="-0.14119">
        <ele>364.4</ele>
        <time>2022-09-07T13:20:40Z</time>
      </trkpt>
      <trkpt lat="43.09948" lon="-0.14127">
        <ele>364.4</ele>
        <time>2022-09-07T13:20:43Z</time>
      </trkpt>
      <trkpt lat="43.09945" lon="-0.1414">
        <ele>364.8</ele>
        <time>2022-09-07T13:20:49Z</time>
      </trkpt>
      <trkpt lat="43.09945" lon="-0.14142">
        <ele>365</ele>
        <time>2022-09-07T13:20:50Z</time>
      </trkpt>
      <trkpt lat="43.09944" lon="-0.14152">
        <ele>365.4</ele>
        <time>2022-09-07T13:20:54Z</time>
      </trkpt>
      <trkpt lat="43.09942" lon="-0.14155">
        <ele>365.6</ele>
        <time>2022-09-07T13:20:55Z</time>
      </trkpt>
      <trkpt lat="43.09942" lon="-0.14158">
        <ele>365.6</ele>
        <time>2022-09-07T13:20:56Z</time>
      </trkpt>
      <trkpt lat="43.09938" lon="-0.14175">
        <ele>366.4</ele>
        <time>2022-09-07T13:21:02Z</time>
      </trkpt>
      <trkpt lat="43.09937" lon="-0.1418">
        <ele>366.8</ele>
        <time>2022-09-07T13:21:04Z</time>
      </trkpt>
      <trkpt lat="43.09933" lon="-0.14193">
        <ele>367.6</ele>
        <time>2022-09-07T13:21:09Z</time>
      </trkpt>
      <trkpt lat="43.09932" lon="-0.14195">
        <ele>367.6</ele>
        <time>2022-09-07T13:21:10Z</time>
      </trkpt>
      <trkpt lat="43.09928" lon="-0.14208">
        <ele>368.6</ele>
        <time>2022-09-07T13:21:15Z</time>
      </trkpt>
      <trkpt lat="43.09928" lon="-0.14207">
        <ele>368.8</ele>
        <time>2022-09-07T13:21:16Z</time>
      </trkpt>
      <trkpt lat="43.09905" lon="-0.14272">
        <ele>372.8</ele>
        <time>2022-09-07T13:21:47Z</time>
      </trkpt>
      <trkpt lat="43.09904" lon="-0.14276">
        <ele>373</ele>
        <time>2022-09-07T13:21:49Z</time>
      </trkpt>
      <trkpt lat="43.09903" lon="-0.14287">
        <ele>373.8</ele>
        <time>2022-09-07T13:21:54Z</time>
      </trkpt>
      <trkpt lat="43.09902" lon="-0.14288">
        <ele>373.8</ele>
        <time>2022-09-07T13:21:55Z</time>
      </trkpt>
      <trkpt lat="43.09901" lon="-0.14291">
        <ele>374</ele>
        <time>2022-09-07T13:21:56Z</time>
      </trkpt>
      <trkpt lat="43.099" lon="-0.14295">
        <ele>374.2</ele>
        <time>2022-09-07T13:21:58Z</time>
      </trkpt>
      <trkpt lat="43.09899" lon="-0.14303">
        <ele>375</ele>
        <time>2022-09-07T13:22:02Z</time>
      </trkpt>
      <trkpt lat="43.09897" lon="-0.14313">
        <ele>375.6</ele>
        <time>2022-09-07T13:22:07Z</time>
      </trkpt>
      <trkpt lat="43.09896" lon="-0.14315">
        <ele>375.8</ele>
        <time>2022-09-07T13:22:08Z</time>
      </trkpt>
      <trkpt lat="43.09896" lon="-0.14317">
        <ele>376</ele>
        <time>2022-09-07T13:22:09Z</time>
      </trkpt>
      <trkpt lat="43.09895" lon="-0.14324">
        <ele>376.2</ele>
        <time>2022-09-07T13:22:12Z</time>
      </trkpt>
      <trkpt lat="43.09894" lon="-0.14326">
        <ele>376.4</ele>
        <time>2022-09-07T13:22:13Z</time>
      </trkpt>
      <trkpt lat="43.09892" lon="-0.14335">
        <ele>377</ele>
        <time>2022-09-07T13:22:17Z</time>
      </trkpt>
      <trkpt lat="43.09892" lon="-0.14338">
        <ele>377.2</ele>
        <time>2022-09-07T13:22:18Z</time>
      </trkpt>
      <trkpt lat="43.09892" lon="-0.14341">
        <ele>377.4</ele>
        <time>2022-09-07T13:22:20Z</time>
      </trkpt>
      <trkpt lat="43.09892" lon="-0.14357">
        <ele>378.2</ele>
        <time>2022-09-07T13:22:26Z</time>
      </trkpt>
      <trkpt lat="43.09891" lon="-0.14359">
        <ele>378.4</ele>
        <time>2022-09-07T13:22:27Z</time>
      </trkpt>
      <trkpt lat="43.09888" lon="-0.14376">
        <ele>378.8</ele>
        <time>2022-09-07T13:22:33Z</time>
      </trkpt>
      <trkpt lat="43.09878" lon="-0.144">
        <ele>378.4</ele>
        <time>2022-09-07T13:22:39Z</time>
      </trkpt>
      <trkpt lat="43.09866" lon="-0.14418">
        <ele>377.6</ele>
        <time>2022-09-07T13:22:44Z</time>
      </trkpt>
      <trkpt lat="43.09862" lon="-0.14426">
        <ele>377.2</ele>
        <time>2022-09-07T13:22:46Z</time>
      </trkpt>
      <trkpt lat="43.0986" lon="-0.14434">
        <ele>375.8</ele>
        <time>2022-09-07T13:22:48Z</time>
      </trkpt>
      <trkpt lat="43.09858" lon="-0.14437">
        <ele>375.4</ele>
        <time>2022-09-07T13:22:49Z</time>
      </trkpt>
      <trkpt lat="43.09852" lon="-0.14452">
        <ele>374.6</ele>
        <time>2022-09-07T13:22:52Z</time>
      </trkpt>
      <trkpt lat="43.09849" lon="-0.14463">
        <ele>373.6</ele>
        <time>2022-09-07T13:22:54Z</time>
      </trkpt>
      <trkpt lat="43.09847" lon="-0.14474">
        <ele>372.2</ele>
        <time>2022-09-07T13:22:56Z</time>
      </trkpt>
      <trkpt lat="43.09845" lon="-0.14479">
        <ele>371.4</ele>
        <time>2022-09-07T13:22:57Z</time>
      </trkpt>
      <trkpt lat="43.09842" lon="-0.14486">
        <ele>370.4</ele>
        <time>2022-09-07T13:22:58Z</time>
      </trkpt>
      <trkpt lat="43.09839" lon="-0.14494">
        <ele>370</ele>
        <time>2022-09-07T13:22:59Z</time>
      </trkpt>
      <trkpt lat="43.0983" lon="-0.14516">
        <ele>372</ele>
        <time>2022-09-07T13:23:03Z</time>
      </trkpt>
      <trkpt lat="43.0982" lon="-0.1453">
        <ele>373</ele>
        <time>2022-09-07T13:23:07Z</time>
      </trkpt>
      <trkpt lat="43.09818" lon="-0.14534">
        <ele>373</ele>
        <time>2022-09-07T13:23:08Z</time>
      </trkpt>
      <trkpt lat="43.09811" lon="-0.14558">
        <ele>371.6</ele>
        <time>2022-09-07T13:23:12Z</time>
      </trkpt>
      <trkpt lat="43.09806" lon="-0.14565">
        <ele>371</ele>
        <time>2022-09-07T13:23:13Z</time>
      </trkpt>
      <trkpt lat="43.09801" lon="-0.14573">
        <ele>370.4</ele>
        <time>2022-09-07T13:23:14Z</time>
      </trkpt>
      <trkpt lat="43.09796" lon="-0.14581">
        <ele>369.8</ele>
        <time>2022-09-07T13:23:15Z</time>
      </trkpt>
      <trkpt lat="43.09791" lon="-0.14587">
        <ele>369.2</ele>
        <time>2022-09-07T13:23:16Z</time>
      </trkpt>
      <trkpt lat="43.09778" lon="-0.14605">
        <ele>367.8</ele>
        <time>2022-09-07T13:23:19Z</time>
      </trkpt>
      <trkpt lat="43.0977" lon="-0.14621">
        <ele>366.4</ele>
        <time>2022-09-07T13:23:21Z</time>
      </trkpt>
      <trkpt lat="43.09765" lon="-0.1463">
        <ele>365.6</ele>
        <time>2022-09-07T13:23:22Z</time>
      </trkpt>
      <trkpt lat="43.09761" lon="-0.14638">
        <ele>364.6</ele>
        <time>2022-09-07T13:23:23Z</time>
      </trkpt>
      <trkpt lat="43.09754" lon="-0.14647">
        <ele>363.8</ele>
        <time>2022-09-07T13:23:24Z</time>
      </trkpt>
      <trkpt lat="43.09748" lon="-0.14655">
        <ele>363.4</ele>
        <time>2022-09-07T13:23:25Z</time>
      </trkpt>
      <trkpt lat="43.09735" lon="-0.14669">
        <ele>363</ele>
        <time>2022-09-07T13:23:27Z</time>
      </trkpt>
      <trkpt lat="43.09716" lon="-0.14698">
        <ele>363</ele>
        <time>2022-09-07T13:23:31Z</time>
      </trkpt>
      <trkpt lat="43.09712" lon="-0.14706">
        <ele>363.2</ele>
        <time>2022-09-07T13:23:32Z</time>
      </trkpt>
      <trkpt lat="43.09707" lon="-0.1472">
        <ele>363.6</ele>
        <time>2022-09-07T13:23:34Z</time>
      </trkpt>
      <trkpt lat="43.09704" lon="-0.14728">
        <ele>364.2</ele>
        <time>2022-09-07T13:23:36Z</time>
      </trkpt>
      <trkpt lat="43.09701" lon="-0.14736">
        <ele>364.6</ele>
        <time>2022-09-07T13:23:38Z</time>
      </trkpt>
      <trkpt lat="43.09698" lon="-0.14744">
        <ele>364.6</ele>
        <time>2022-09-07T13:23:40Z</time>
      </trkpt>
      <trkpt lat="43.09692" lon="-0.14764">
        <ele>364.6</ele>
        <time>2022-09-07T13:23:44Z</time>
      </trkpt>
      <trkpt lat="43.09687" lon="-0.1478">
        <ele>365</ele>
        <time>2022-09-07T13:23:47Z</time>
      </trkpt>
      <trkpt lat="43.09682" lon="-0.14801">
        <ele>365.6</ele>
        <time>2022-09-07T13:23:51Z</time>
      </trkpt>
      <trkpt lat="43.09679" lon="-0.14817">
        <ele>366</ele>
        <time>2022-09-07T13:23:54Z</time>
      </trkpt>
      <trkpt lat="43.09677" lon="-0.14835">
        <ele>366.4</ele>
        <time>2022-09-07T13:23:58Z</time>
      </trkpt>
      <trkpt lat="43.09675" lon="-0.14856">
        <ele>366.6</ele>
        <time>2022-09-07T13:24:02Z</time>
      </trkpt>
      <trkpt lat="43.09674" lon="-0.14862">
        <ele>366.8</ele>
        <time>2022-09-07T13:24:03Z</time>
      </trkpt>
      <trkpt lat="43.09674" lon="-0.14868">
        <ele>366.8</ele>
        <time>2022-09-07T13:24:04Z</time>
      </trkpt>
      <trkpt lat="43.09674" lon="-0.14876">
        <ele>367.4</ele>
        <time>2022-09-07T13:24:06Z</time>
      </trkpt>
      <trkpt lat="43.09673" lon="-0.14883">
        <ele>368</ele>
        <time>2022-09-07T13:24:08Z</time>
      </trkpt>
      <trkpt lat="43.09673" lon="-0.14898">
        <ele>368.6</ele>
        <time>2022-09-07T13:24:13Z</time>
      </trkpt>
      <trkpt lat="43.09673" lon="-0.14919">
        <ele>368</ele>
        <time>2022-09-07T13:24:18Z</time>
      </trkpt>
      <trkpt lat="43.09674" lon="-0.14925">
        <ele>368</ele>
        <time>2022-09-07T13:24:19Z</time>
      </trkpt>
      <trkpt lat="43.09676" lon="-0.14944">
        <ele>367.6</ele>
        <time>2022-09-07T13:24:22Z</time>
      </trkpt>
      <trkpt lat="43.09679" lon="-0.14958">
        <ele>367.2</ele>
        <time>2022-09-07T13:24:24Z</time>
      </trkpt>
      <trkpt lat="43.09681" lon="-0.14965">
        <ele>367</ele>
        <time>2022-09-07T13:24:25Z</time>
      </trkpt>
      <trkpt lat="43.09683" lon="-0.14973">
        <ele>366.6</ele>
        <time>2022-09-07T13:24:26Z</time>
      </trkpt>
      <trkpt lat="43.09685" lon="-0.1498">
        <ele>365.8</ele>
        <time>2022-09-07T13:24:27Z</time>
      </trkpt>
      <trkpt lat="43.09689" lon="-0.14996">
        <ele>365</ele>
        <time>2022-09-07T13:24:29Z</time>
      </trkpt>
      <trkpt lat="43.09691" lon="-0.15004">
        <ele>364.6</ele>
        <time>2022-09-07T13:24:30Z</time>
      </trkpt>
      <trkpt lat="43.09697" lon="-0.15024">
        <ele>363.2</ele>
        <time>2022-09-07T13:24:32Z</time>
      </trkpt>
      <trkpt lat="43.09705" lon="-0.15044">
        <ele>361.8</ele>
        <time>2022-09-07T13:24:34Z</time>
      </trkpt>
      <trkpt lat="43.09715" lon="-0.15063">
        <ele>360.6</ele>
        <time>2022-09-07T13:24:36Z</time>
      </trkpt>
      <trkpt lat="43.09731" lon="-0.15097">
        <ele>361.4</ele>
        <time>2022-09-07T13:24:40Z</time>
      </trkpt>
      <trkpt lat="43.09734" lon="-0.15105">
        <ele>361.4</ele>
        <time>2022-09-07T13:24:41Z</time>
      </trkpt>
      <trkpt lat="43.09736" lon="-0.15113">
        <ele>361.2</ele>
        <time>2022-09-07T13:24:42Z</time>
      </trkpt>
      <trkpt lat="43.09739" lon="-0.15125">
        <ele>361.4</ele>
        <time>2022-09-07T13:24:44Z</time>
      </trkpt>
      <trkpt lat="43.09741" lon="-0.15166">
        <ele>361.2</ele>
        <time>2022-09-07T13:24:50Z</time>
      </trkpt>
      <trkpt lat="43.09745" lon="-0.15196">
        <ele>360.6</ele>
        <time>2022-09-07T13:24:54Z</time>
      </trkpt>
      <trkpt lat="43.09747" lon="-0.15203">
        <ele>360.4</ele>
        <time>2022-09-07T13:24:55Z</time>
      </trkpt>
      <trkpt lat="43.0975" lon="-0.1524">
        <ele>360.2</ele>
        <time>2022-09-07T13:25:00Z</time>
      </trkpt>
      <trkpt lat="43.09748" lon="-0.15278">
        <ele>360.8</ele>
        <time>2022-09-07T13:25:06Z</time>
      </trkpt>
      <trkpt lat="43.09749" lon="-0.15313">
        <ele>360.8</ele>
        <time>2022-09-07T13:25:13Z</time>
      </trkpt>
      <trkpt lat="43.09752" lon="-0.15335">
        <ele>361</ele>
        <time>2022-09-07T13:25:18Z</time>
      </trkpt>
      <trkpt lat="43.09759" lon="-0.15359">
        <ele>360.6</ele>
        <time>2022-09-07T13:25:23Z</time>
      </trkpt>
      <trkpt lat="43.09762" lon="-0.15372">
        <ele>360.4</ele>
        <time>2022-09-07T13:25:25Z</time>
      </trkpt>
      <trkpt lat="43.09765" lon="-0.15387">
        <ele>359.4</ele>
        <time>2022-09-07T13:25:27Z</time>
      </trkpt>
      <trkpt lat="43.09766" lon="-0.15396">
        <ele>359.2</ele>
        <time>2022-09-07T13:25:28Z</time>
      </trkpt>
      <trkpt lat="43.09768" lon="-0.15421">
        <ele>358.8</ele>
        <time>2022-09-07T13:25:31Z</time>
      </trkpt>
      <trkpt lat="43.09768" lon="-0.15471">
        <ele>358.2</ele>
        <time>2022-09-07T13:25:37Z</time>
      </trkpt>
      <trkpt lat="43.09768" lon="-0.15487">
        <ele>358.4</ele>
        <time>2022-09-07T13:25:39Z</time>
      </trkpt>
      <trkpt lat="43.09771" lon="-0.15505">
        <ele>357.8</ele>
        <time>2022-09-07T13:25:41Z</time>
      </trkpt>
      <trkpt lat="43.09777" lon="-0.15525">
        <ele>357</ele>
        <time>2022-09-07T13:25:43Z</time>
      </trkpt>
      <trkpt lat="43.09787" lon="-0.15543">
        <ele>355.8</ele>
        <time>2022-09-07T13:25:45Z</time>
      </trkpt>
      <trkpt lat="43.09798" lon="-0.1556">
        <ele>355</ele>
        <time>2022-09-07T13:25:47Z</time>
      </trkpt>
      <trkpt lat="43.09804" lon="-0.15567">
        <ele>354.4</ele>
        <time>2022-09-07T13:25:48Z</time>
      </trkpt>
      <trkpt lat="43.09829" lon="-0.15596">
        <ele>353.8</ele>
        <time>2022-09-07T13:25:52Z</time>
      </trkpt>
      <trkpt lat="43.09834" lon="-0.15604">
        <ele>353.2</ele>
        <time>2022-09-07T13:25:53Z</time>
      </trkpt>
      <trkpt lat="43.09846" lon="-0.15622">
        <ele>351.8</ele>
        <time>2022-09-07T13:25:55Z</time>
      </trkpt>
      <trkpt lat="43.09856" lon="-0.15643">
        <ele>351.2</ele>
        <time>2022-09-07T13:25:57Z</time>
      </trkpt>
      <trkpt lat="43.09861" lon="-0.15664">
        <ele>350.4</ele>
        <time>2022-09-07T13:25:59Z</time>
      </trkpt>
      <trkpt lat="43.09864" lon="-0.15686">
        <ele>349.4</ele>
        <time>2022-09-07T13:26:01Z</time>
      </trkpt>
      <trkpt lat="43.09868" lon="-0.15742">
        <ele>348.6</ele>
        <time>2022-09-07T13:26:07Z</time>
      </trkpt>
      <trkpt lat="43.09866" lon="-0.15791">
        <ele>348.8</ele>
        <time>2022-09-07T13:26:13Z</time>
      </trkpt>
      <trkpt lat="43.09865" lon="-0.15827">
        <ele>349.2</ele>
        <time>2022-09-07T13:26:18Z</time>
      </trkpt>
      <trkpt lat="43.09864" lon="-0.15856">
        <ele>350.4</ele>
        <time>2022-09-07T13:26:23Z</time>
      </trkpt>
      <trkpt lat="43.09863" lon="-0.1586">
        <ele>350.8</ele>
        <time>2022-09-07T13:26:24Z</time>
      </trkpt>
      <trkpt lat="43.09863" lon="-0.15873">
        <ele>351.4</ele>
        <time>2022-09-07T13:26:27Z</time>
      </trkpt>
      <trkpt lat="43.09862" lon="-0.15883">
        <ele>352</ele>
        <time>2022-09-07T13:26:30Z</time>
      </trkpt>
      <trkpt lat="43.09861" lon="-0.15894">
        <ele>352.6</ele>
        <time>2022-09-07T13:26:34Z</time>
      </trkpt>
      <trkpt lat="43.09861" lon="-0.15902">
        <ele>353.6</ele>
        <time>2022-09-07T13:26:39Z</time>
      </trkpt>
      <trkpt lat="43.09859" lon="-0.15916">
        <ele>354</ele>
        <time>2022-09-07T13:26:46Z</time>
      </trkpt>
      <trkpt lat="43.09859" lon="-0.15936">
        <ele>354.6</ele>
        <time>2022-09-07T13:26:53Z</time>
      </trkpt>
      <trkpt lat="43.0986" lon="-0.15966">
        <ele>354.6</ele>
        <time>2022-09-07T13:26:59Z</time>
      </trkpt>
      <trkpt lat="43.09864" lon="-0.16001">
        <ele>354.4</ele>
        <time>2022-09-07T13:27:06Z</time>
      </trkpt>
      <trkpt lat="43.09867" lon="-0.16035">
        <ele>354.4</ele>
        <time>2022-09-07T13:27:12Z</time>
      </trkpt>
      <trkpt lat="43.09859" lon="-0.1606">
        <ele>354.4</ele>
        <time>2022-09-07T13:27:17Z</time>
      </trkpt>
      <trkpt lat="43.09838" lon="-0.16109">
        <ele>355</ele>
        <time>2022-09-07T13:27:27Z</time>
      </trkpt>
      <trkpt lat="43.09823" lon="-0.16152">
        <ele>355.4</ele>
        <time>2022-09-07T13:27:36Z</time>
      </trkpt>
      <trkpt lat="43.09819" lon="-0.16166">
        <ele>355.8</ele>
        <time>2022-09-07T13:27:39Z</time>
      </trkpt>
      <trkpt lat="43.09818" lon="-0.16181">
        <ele>356</ele>
        <time>2022-09-07T13:27:42Z</time>
      </trkpt>
      <trkpt lat="43.09819" lon="-0.16196">
        <ele>356.4</ele>
        <time>2022-09-07T13:27:46Z</time>
      </trkpt>
      <trkpt lat="43.0982" lon="-0.16203">
        <ele>356.8</ele>
        <time>2022-09-07T13:27:48Z</time>
      </trkpt>
      <trkpt lat="43.0982" lon="-0.16207">
        <ele>357</ele>
        <time>2022-09-07T13:27:49Z</time>
      </trkpt>
      <trkpt lat="43.09823" lon="-0.16222">
        <ele>357.8</ele>
        <time>2022-09-07T13:27:54Z</time>
      </trkpt>
      <trkpt lat="43.09823" lon="-0.16225">
        <ele>358</ele>
        <time>2022-09-07T13:27:55Z</time>
      </trkpt>
      <trkpt lat="43.09826" lon="-0.16241">
        <ele>359</ele>
        <time>2022-09-07T13:28:01Z</time>
      </trkpt>
      <trkpt lat="43.09827" lon="-0.16245">
        <ele>359.4</ele>
        <time>2022-09-07T13:28:03Z</time>
      </trkpt>
      <trkpt lat="43.09837" lon="-0.16262">
        <ele>359</ele>
        <time>2022-09-07T13:28:09Z</time>
      </trkpt>
      <trkpt lat="43.09852" lon="-0.16284">
        <ele>358.2</ele>
        <time>2022-09-07T13:28:13Z</time>
      </trkpt>
      <trkpt lat="43.09857" lon="-0.16292">
        <ele>358</ele>
        <time>2022-09-07T13:28:14Z</time>
      </trkpt>
      <trkpt lat="43.09861" lon="-0.163">
        <ele>357.2</ele>
        <time>2022-09-07T13:28:15Z</time>
      </trkpt>
      <trkpt lat="43.09869" lon="-0.16317">
        <ele>356.2</ele>
        <time>2022-09-07T13:28:17Z</time>
      </trkpt>
      <trkpt lat="43.09872" lon="-0.16327">
        <ele>356</ele>
        <time>2022-09-07T13:28:18Z</time>
      </trkpt>
      <trkpt lat="43.09884" lon="-0.16367">
        <ele>356</ele>
        <time>2022-09-07T13:28:22Z</time>
      </trkpt>
      <trkpt lat="43.09888" lon="-0.16376">
        <ele>354.8</ele>
        <time>2022-09-07T13:28:23Z</time>
      </trkpt>
      <trkpt lat="43.09894" lon="-0.16384">
        <ele>353.6</ele>
        <time>2022-09-07T13:28:24Z</time>
      </trkpt>
      <trkpt lat="43.09899" lon="-0.16393">
        <ele>352.6</ele>
        <time>2022-09-07T13:28:25Z</time>
      </trkpt>
      <trkpt lat="43.09904" lon="-0.16402">
        <ele>351.8</ele>
        <time>2022-09-07T13:28:26Z</time>
      </trkpt>
      <trkpt lat="43.09907" lon="-0.16412">
        <ele>351.6</ele>
        <time>2022-09-07T13:28:27Z</time>
      </trkpt>
      <trkpt lat="43.09909" lon="-0.16424">
        <ele>350.8</ele>
        <time>2022-09-07T13:28:28Z</time>
      </trkpt>
      <trkpt lat="43.09911" lon="-0.16435">
        <ele>350</ele>
        <time>2022-09-07T13:28:29Z</time>
      </trkpt>
      <trkpt lat="43.09913" lon="-0.16447">
        <ele>349</ele>
        <time>2022-09-07T13:28:30Z</time>
      </trkpt>
      <trkpt lat="43.09916" lon="-0.16479">
        <ele>349.6</ele>
        <time>2022-09-07T13:28:33Z</time>
      </trkpt>
      <trkpt lat="43.09917" lon="-0.16488">
        <ele>349.6</ele>
        <time>2022-09-07T13:28:34Z</time>
      </trkpt>
      <trkpt lat="43.09918" lon="-0.16495">
        <ele>350.2</ele>
        <time>2022-09-07T13:28:35Z</time>
      </trkpt>
      <trkpt lat="43.09925" lon="-0.16502">
        <ele>350.2</ele>
        <time>2022-09-07T13:28:37Z</time>
      </trkpt>
      <trkpt lat="43.09929" lon="-0.16504">
        <ele>350</ele>
        <time>2022-09-07T13:28:38Z</time>
      </trkpt>
      <trkpt lat="43.09945" lon="-0.16514">
        <ele>350.6</ele>
        <time>2022-09-07T13:28:43Z</time>
      </trkpt>
      <trkpt lat="43.0996" lon="-0.16522">
        <ele>351.2</ele>
        <time>2022-09-07T13:28:48Z</time>
      </trkpt>
      <trkpt lat="43.09976" lon="-0.1653">
        <ele>351.4</ele>
        <time>2022-09-07T13:28:53Z</time>
      </trkpt>
      <trkpt lat="43.09993" lon="-0.16536">
        <ele>350.8</ele>
        <time>2022-09-07T13:28:58Z</time>
      </trkpt>
      <trkpt lat="43.1001" lon="-0.16537">
        <ele>351.6</ele>
        <time>2022-09-07T13:29:04Z</time>
      </trkpt>
      <trkpt lat="43.10018" lon="-0.16536">
        <ele>351.8</ele>
        <time>2022-09-07T13:29:08Z</time>
      </trkpt>
      <trkpt lat="43.10019" lon="-0.16546">
        <ele>351.8</ele>
        <time>2022-09-07T13:29:11Z</time>
      </trkpt>
      <trkpt lat="43.1002" lon="-0.16548">
        <ele>351.8</ele>
        <time>2022-09-07T13:29:12Z</time>
      </trkpt>
      <trkpt lat="43.10022" lon="-0.1655">
        <ele>352</ele>
        <time>2022-09-07T13:29:13Z</time>
      </trkpt>
      <trkpt lat="43.10024" lon="-0.1655">
        <ele>352.4</ele>
        <time>2022-09-07T13:29:14Z</time>
      </trkpt>
      <trkpt lat="43.10029" lon="-0.16553">
        <ele>352.4</ele>
        <time>2022-09-07T13:29:16Z</time>
      </trkpt>
      <trkpt lat="43.10035" lon="-0.16568">
        <ele>352.4</ele>
        <time>2022-09-07T13:29:21Z</time>
      </trkpt>
      <trkpt lat="43.10046" lon="-0.16585">
        <ele>352</ele>
        <time>2022-09-07T13:29:27Z</time>
      </trkpt>
      <trkpt lat="43.10057" lon="-0.1659">
        <ele>352</ele>
        <time>2022-09-07T13:29:31Z</time>
      </trkpt>
      <trkpt lat="43.1007" lon="-0.16597">
        <ele>351</ele>
        <time>2022-09-07T13:29:36Z</time>
      </trkpt>
      <trkpt lat="43.10071" lon="-0.16599">
        <ele>350.8</ele>
        <time>2022-09-07T13:29:37Z</time>
      </trkpt>
      <trkpt lat="43.10082" lon="-0.16606">
        <ele>350.4</ele>
        <time>2022-09-07T13:29:42Z</time>
      </trkpt>
      <trkpt lat="43.10085" lon="-0.16605">
        <ele>350</ele>
        <time>2022-09-07T13:29:43Z</time>
      </trkpt>
      <trkpt lat="43.10092" lon="-0.166">
        <ele>349.2</ele>
        <time>2022-09-07T13:29:45Z</time>
      </trkpt>
      <trkpt lat="43.10095" lon="-0.16597">
        <ele>349</ele>
        <time>2022-09-07T13:29:46Z</time>
      </trkpt>
      <trkpt lat="43.10097" lon="-0.16595">
        <ele>348.6</ele>
        <time>2022-09-07T13:29:47Z</time>
      </trkpt>
      <trkpt lat="43.10105" lon="-0.16588">
        <ele>347.6</ele>
        <time>2022-09-07T13:29:50Z</time>
      </trkpt>
      <trkpt lat="43.10109" lon="-0.16583">
        <ele>346.8</ele>
        <time>2022-09-07T13:29:52Z</time>
      </trkpt>
      <trkpt lat="43.10111" lon="-0.16581">
        <ele>346.4</ele>
        <time>2022-09-07T13:29:53Z</time>
      </trkpt>
      <trkpt lat="43.1012" lon="-0.16579">
        <ele>345.6</ele>
        <time>2022-09-07T13:29:57Z</time>
      </trkpt>
      <trkpt lat="43.10122" lon="-0.16581">
        <ele>345.4</ele>
        <time>2022-09-07T13:29:58Z</time>
      </trkpt>
      <trkpt lat="43.10122" lon="-0.16585">
        <ele>345</ele>
        <time>2022-09-07T13:30:00Z</time>
      </trkpt>
      <trkpt lat="43.10116" lon="-0.16591">
        <ele>345.4</ele>
        <time>2022-09-07T13:30:03Z</time>
      </trkpt>
      <trkpt lat="43.10114" lon="-0.16593">
        <ele>345.4</ele>
        <time>2022-09-07T13:30:04Z</time>
      </trkpt>
      <trkpt lat="43.10098" lon="-0.1661">
        <ele>346.6</ele>
        <time>2022-09-07T13:30:12Z</time>
      </trkpt>
      <trkpt lat="43.10096" lon="-0.16613">
        <ele>346.6</ele>
        <time>2022-09-07T13:30:13Z</time>
      </trkpt>
      <trkpt lat="43.10088" lon="-0.1664">
        <ele>347.2</ele>
        <time>2022-09-07T13:30:20Z</time>
      </trkpt>
      <trkpt lat="43.10079" lon="-0.16678">
        <ele>346.8</ele>
        <time>2022-09-07T13:30:28Z</time>
      </trkpt>
      <trkpt lat="43.10069" lon="-0.16715">
        <ele>346</ele>
        <time>2022-09-07T13:30:35Z</time>
      </trkpt>
      <trkpt lat="43.10059" lon="-0.16749">
        <ele>345.4</ele>
        <time>2022-09-07T13:30:41Z</time>
      </trkpt>
      <trkpt lat="43.10056" lon="-0.1676">
        <ele>345.4</ele>
        <time>2022-09-07T13:30:43Z</time>
      </trkpt>
      <trkpt lat="43.1004" lon="-0.16813">
        <ele>344.6</ele>
        <time>2022-09-07T13:30:53Z</time>
      </trkpt>
      <trkpt lat="43.10026" lon="-0.16855">
        <ele>344.4</ele>
        <time>2022-09-07T13:31:00Z</time>
      </trkpt>
      <trkpt lat="43.10023" lon="-0.16862">
        <ele>344.2</ele>
        <time>2022-09-07T13:31:01Z</time>
      </trkpt>
      <trkpt lat="43.10007" lon="-0.16892">
        <ele>343.6</ele>
        <time>2022-09-07T13:31:06Z</time>
      </trkpt>
      <trkpt lat="43.09993" lon="-0.16916">
        <ele>343.2</ele>
        <time>2022-09-07T13:31:10Z</time>
      </trkpt>
      <trkpt lat="43.09981" lon="-0.16934">
        <ele>343</ele>
        <time>2022-09-07T13:31:13Z</time>
      </trkpt>
      <trkpt lat="43.09963" lon="-0.16974">
        <ele>342.4</ele>
        <time>2022-09-07T13:31:19Z</time>
      </trkpt>
      <trkpt lat="43.09955" lon="-0.17">
        <ele>342</ele>
        <time>2022-09-07T13:31:23Z</time>
      </trkpt>
      <trkpt lat="43.0995" lon="-0.1702">
        <ele>341.4</ele>
        <time>2022-09-07T13:31:26Z</time>
      </trkpt>
      <trkpt lat="43.09946" lon="-0.17044">
        <ele>341</ele>
        <time>2022-09-07T13:31:30Z</time>
      </trkpt>
      <trkpt lat="43.09944" lon="-0.17062">
        <ele>341.2</ele>
        <time>2022-09-07T13:31:33Z</time>
      </trkpt>
      <trkpt lat="43.09942" lon="-0.17075">
        <ele>341.4</ele>
        <time>2022-09-07T13:31:35Z</time>
      </trkpt>
      <trkpt lat="43.09939" lon="-0.17108">
        <ele>340.6</ele>
        <time>2022-09-07T13:31:40Z</time>
      </trkpt>
      <trkpt lat="43.09934" lon="-0.17152">
        <ele>340.4</ele>
        <time>2022-09-07T13:31:47Z</time>
      </trkpt>
      <trkpt lat="43.09931" lon="-0.17184">
        <ele>339.6</ele>
        <time>2022-09-07T13:31:52Z</time>
      </trkpt>
      <trkpt lat="43.09929" lon="-0.17209">
        <ele>339.2</ele>
        <time>2022-09-07T13:31:56Z</time>
      </trkpt>
      <trkpt lat="43.0992" lon="-0.17262">
        <ele>338.6</ele>
        <time>2022-09-07T13:32:04Z</time>
      </trkpt>
      <trkpt lat="43.09918" lon="-0.17268">
        <ele>338.4</ele>
        <time>2022-09-07T13:32:05Z</time>
      </trkpt>
      <trkpt lat="43.09909" lon="-0.17311">
        <ele>337.6</ele>
        <time>2022-09-07T13:32:11Z</time>
      </trkpt>
      <trkpt lat="43.09909" lon="-0.17319">
        <ele>337.4</ele>
        <time>2022-09-07T13:32:12Z</time>
      </trkpt>
      <trkpt lat="43.09911" lon="-0.17341">
        <ele>337.2</ele>
        <time>2022-09-07T13:32:15Z</time>
      </trkpt>
      <trkpt lat="43.09918" lon="-0.17396">
        <ele>336.6</ele>
        <time>2022-09-07T13:32:23Z</time>
      </trkpt>
      <trkpt lat="43.0992" lon="-0.1741">
        <ele>336.4</ele>
        <time>2022-09-07T13:32:25Z</time>
      </trkpt>
      <trkpt lat="43.09924" lon="-0.17424">
        <ele>336</ele>
        <time>2022-09-07T13:32:28Z</time>
      </trkpt>
      <trkpt lat="43.0993" lon="-0.17432">
        <ele>336.2</ele>
        <time>2022-09-07T13:32:32Z</time>
      </trkpt>
      <trkpt lat="43.09931" lon="-0.1744">
        <ele>336</ele>
        <time>2022-09-07T13:34:05Z</time>
      </trkpt>
      <trkpt lat="43.0994" lon="-0.17458">
        <ele>336.4</ele>
        <time>2022-09-07T13:34:11Z</time>
      </trkpt>
      <trkpt lat="43.09955" lon="-0.17478">
        <ele>336.6</ele>
        <time>2022-09-07T13:34:18Z</time>
      </trkpt>
      <trkpt lat="43.09966" lon="-0.17489">
        <ele>336.8</ele>
        <time>2022-09-07T13:34:24Z</time>
      </trkpt>
      <trkpt lat="43.09978" lon="-0.175">
        <ele>337</ele>
        <time>2022-09-07T13:34:31Z</time>
      </trkpt>
      <trkpt lat="43.09991" lon="-0.17511">
        <ele>337.4</ele>
        <time>2022-09-07T13:34:39Z</time>
      </trkpt>
      <trkpt lat="43.10002" lon="-0.1752">
        <ele>337.8</ele>
        <time>2022-09-07T13:34:45Z</time>
      </trkpt>
      <trkpt lat="43.10019" lon="-0.17536">
        <ele>338</ele>
        <time>2022-09-07T13:34:52Z</time>
      </trkpt>
      <trkpt lat="43.10023" lon="-0.17541">
        <ele>338.4</ele>
        <time>2022-09-07T13:34:54Z</time>
      </trkpt>
      <trkpt lat="43.10033" lon="-0.17559">
        <ele>339.4</ele>
        <time>2022-09-07T13:35:00Z</time>
      </trkpt>
      <trkpt lat="43.10034" lon="-0.17565">
        <ele>339.8</ele>
        <time>2022-09-07T13:35:02Z</time>
      </trkpt>
      <trkpt lat="43.10035" lon="-0.17578">
        <ele>340.4</ele>
        <time>2022-09-07T13:35:06Z</time>
      </trkpt>
      <trkpt lat="43.10034" lon="-0.17595">
        <ele>340.8</ele>
        <time>2022-09-07T13:35:11Z</time>
      </trkpt>
      <trkpt lat="43.10034" lon="-0.17598">
        <ele>340.8</ele>
        <time>2022-09-07T13:35:12Z</time>
      </trkpt>
      <trkpt lat="43.10029" lon="-0.1762">
        <ele>341.8</ele>
        <time>2022-09-07T13:35:19Z</time>
      </trkpt>
      <trkpt lat="43.10028" lon="-0.17626">
        <ele>341.8</ele>
        <time>2022-09-07T13:35:21Z</time>
      </trkpt>
      <trkpt lat="43.10025" lon="-0.17644">
        <ele>342.6</ele>
        <time>2022-09-07T13:35:27Z</time>
      </trkpt>
      <trkpt lat="43.10025" lon="-0.17646">
        <ele>342.8</ele>
        <time>2022-09-07T13:35:28Z</time>
      </trkpt>
      <trkpt lat="43.10021" lon="-0.17663">
        <ele>343</ele>
        <time>2022-09-07T13:35:33Z</time>
      </trkpt>
      <trkpt lat="43.10021" lon="-0.17688">
        <ele>343.4</ele>
        <time>2022-09-07T13:35:40Z</time>
      </trkpt>
      <trkpt lat="43.10027" lon="-0.1771">
        <ele>343.6</ele>
        <time>2022-09-07T13:35:46Z</time>
      </trkpt>
      <trkpt lat="43.10034" lon="-0.17729">
        <ele>343.8</ele>
        <time>2022-09-07T13:35:51Z</time>
      </trkpt>
      <trkpt lat="43.10039" lon="-0.17741">
        <ele>344</ele>
        <time>2022-09-07T13:35:54Z</time>
      </trkpt>
      <trkpt lat="43.10047" lon="-0.17761">
        <ele>344</ele>
        <time>2022-09-07T13:35:59Z</time>
      </trkpt>
      <trkpt lat="43.10056" lon="-0.17797">
        <ele>344.8</ele>
        <time>2022-09-07T13:36:07Z</time>
      </trkpt>
      <trkpt lat="43.10058" lon="-0.17802">
        <ele>344.8</ele>
        <time>2022-09-07T13:36:08Z</time>
      </trkpt>
      <trkpt lat="43.10061" lon="-0.17829">
        <ele>345.2</ele>
        <time>2022-09-07T13:36:14Z</time>
      </trkpt>
      <trkpt lat="43.10066" lon="-0.17863">
        <ele>345.6</ele>
        <time>2022-09-07T13:36:21Z</time>
      </trkpt>
      <trkpt lat="43.1007" lon="-0.17881">
        <ele>346</ele>
        <time>2022-09-07T13:36:25Z</time>
      </trkpt>
      <trkpt lat="43.10071" lon="-0.17885">
        <ele>346.2</ele>
        <time>2022-09-07T13:36:26Z</time>
      </trkpt>
      <trkpt lat="43.10083" lon="-0.17923">
        <ele>346.8</ele>
        <time>2022-09-07T13:36:35Z</time>
      </trkpt>
      <trkpt lat="43.10086" lon="-0.17931">
        <ele>347</ele>
        <time>2022-09-07T13:36:37Z</time>
      </trkpt>
      <trkpt lat="43.10095" lon="-0.17951">
        <ele>346.8</ele>
        <time>2022-09-07T13:36:42Z</time>
      </trkpt>
      <trkpt lat="43.1011" lon="-0.17987">
        <ele>346.2</ele>
        <time>2022-09-07T13:36:49Z</time>
      </trkpt>
      <trkpt lat="43.10114" lon="-0.17994">
        <ele>345.8</ele>
        <time>2022-09-07T13:36:50Z</time>
      </trkpt>
      <trkpt lat="43.10126" lon="-0.18018">
        <ele>344.4</ele>
        <time>2022-09-07T13:36:53Z</time>
      </trkpt>
      <trkpt lat="43.10137" lon="-0.18037">
        <ele>343</ele>
        <time>2022-09-07T13:36:55Z</time>
      </trkpt>
      <trkpt lat="43.1015" lon="-0.18055">
        <ele>341.6</ele>
        <time>2022-09-07T13:36:57Z</time>
      </trkpt>
      <trkpt lat="43.10164" lon="-0.18074">
        <ele>340.2</ele>
        <time>2022-09-07T13:36:59Z</time>
      </trkpt>
      <trkpt lat="43.102" lon="-0.18117">
        <ele>339.2</ele>
        <time>2022-09-07T13:37:04Z</time>
      </trkpt>
      <trkpt lat="43.10207" lon="-0.18126">
        <ele>339</ele>
        <time>2022-09-07T13:37:05Z</time>
      </trkpt>
      <trkpt lat="43.10225" lon="-0.18155">
        <ele>338.6</ele>
        <time>2022-09-07T13:37:08Z</time>
      </trkpt>
      <trkpt lat="43.10229" lon="-0.18166">
        <ele>338.4</ele>
        <time>2022-09-07T13:37:09Z</time>
      </trkpt>
      <trkpt lat="43.10234" lon="-0.18177">
        <ele>338.2</ele>
        <time>2022-09-07T13:37:10Z</time>
      </trkpt>
      <trkpt lat="43.10245" lon="-0.18221">
        <ele>337.6</ele>
        <time>2022-09-07T13:37:14Z</time>
      </trkpt>
      <trkpt lat="43.10249" lon="-0.18266">
        <ele>336.8</ele>
        <time>2022-09-07T13:37:18Z</time>
      </trkpt>
      <trkpt lat="43.10249" lon="-0.18278">
        <ele>336.2</ele>
        <time>2022-09-07T13:37:19Z</time>
      </trkpt>
      <trkpt lat="43.10249" lon="-0.18289">
        <ele>335.4</ele>
        <time>2022-09-07T13:37:20Z</time>
      </trkpt>
      <trkpt lat="43.10249" lon="-0.18345">
        <ele>334.2</ele>
        <time>2022-09-07T13:37:25Z</time>
      </trkpt>
      <trkpt lat="43.10248" lon="-0.18356">
        <ele>334</ele>
        <time>2022-09-07T13:37:26Z</time>
      </trkpt>
      <trkpt lat="43.10247" lon="-0.18412">
        <ele>333.4</ele>
        <time>2022-09-07T13:37:32Z</time>
      </trkpt>
      <trkpt lat="43.10246" lon="-0.1846">
        <ele>334.8</ele>
        <time>2022-09-07T13:37:38Z</time>
      </trkpt>
      <trkpt lat="43.10245" lon="-0.18467">
        <ele>335</ele>
        <time>2022-09-07T13:37:39Z</time>
      </trkpt>
      <trkpt lat="43.10241" lon="-0.18494">
        <ele>334.4</ele>
        <time>2022-09-07T13:37:43Z</time>
      </trkpt>
      <trkpt lat="43.10229" lon="-0.18556">
        <ele>333.6</ele>
        <time>2022-09-07T13:37:52Z</time>
      </trkpt>
      <trkpt lat="43.10226" lon="-0.18577">
        <ele>333.2</ele>
        <time>2022-09-07T13:37:55Z</time>
      </trkpt>
      <trkpt lat="43.10227" lon="-0.186">
        <ele>333.2</ele>
        <time>2022-09-07T13:37:58Z</time>
      </trkpt>
      <trkpt lat="43.10227" lon="-0.18608">
        <ele>333</ele>
        <time>2022-09-07T13:37:59Z</time>
      </trkpt>
      <trkpt lat="43.10239" lon="-0.18655">
        <ele>332.2</ele>
        <time>2022-09-07T13:38:05Z</time>
      </trkpt>
      <trkpt lat="43.1024" lon="-0.18662">
        <ele>332.2</ele>
        <time>2022-09-07T13:38:06Z</time>
      </trkpt>
      <trkpt lat="43.10245" lon="-0.18677">
        <ele>333.2</ele>
        <time>2022-09-07T13:38:08Z</time>
      </trkpt>
      <trkpt lat="43.10251" lon="-0.187">
        <ele>332</ele>
        <time>2022-09-07T13:38:11Z</time>
      </trkpt>
      <trkpt lat="43.10253" lon="-0.18708">
        <ele>331.8</ele>
        <time>2022-09-07T13:38:12Z</time>
      </trkpt>
      <trkpt lat="43.10272" lon="-0.1876">
        <ele>331.2</ele>
        <time>2022-09-07T13:38:19Z</time>
      </trkpt>
      <trkpt lat="43.103" lon="-0.1881">
        <ele>331.2</ele>
        <time>2022-09-07T13:38:27Z</time>
      </trkpt>
      <trkpt lat="43.1032" lon="-0.18846">
        <ele>331.6</ele>
        <time>2022-09-07T13:38:33Z</time>
      </trkpt>
      <trkpt lat="43.10336" lon="-0.18879">
        <ele>331</ele>
        <time>2022-09-07T13:38:38Z</time>
      </trkpt>
      <trkpt lat="43.10345" lon="-0.18891">
        <ele>330.2</ele>
        <time>2022-09-07T13:38:40Z</time>
      </trkpt>
      <trkpt lat="43.10354" lon="-0.18901">
        <ele>330</ele>
        <time>2022-09-07T13:38:42Z</time>
      </trkpt>
      <trkpt lat="43.10359" lon="-0.18905">
        <ele>329.8</ele>
        <time>2022-09-07T13:38:43Z</time>
      </trkpt>
      <trkpt lat="43.10369" lon="-0.18913">
        <ele>329.6</ele>
        <time>2022-09-07T13:38:45Z</time>
      </trkpt>
      <trkpt lat="43.10397" lon="-0.18945">
        <ele>329.6</ele>
        <time>2022-09-07T13:38:51Z</time>
      </trkpt>
      <trkpt lat="43.10413" lon="-0.18968">
        <ele>330</ele>
        <time>2022-09-07T13:38:55Z</time>
      </trkpt>
      <trkpt lat="43.10417" lon="-0.18981">
        <ele>330.4</ele>
        <time>2022-09-07T13:38:57Z</time>
      </trkpt>
      <trkpt lat="43.10426" lon="-0.19015">
        <ele>330.4</ele>
        <time>2022-09-07T13:39:02Z</time>
      </trkpt>
      <trkpt lat="43.10428" lon="-0.19023">
        <ele>330.4</ele>
        <time>2022-09-07T13:39:03Z</time>
      </trkpt>
      <trkpt lat="43.10438" lon="-0.19048">
        <ele>330.4</ele>
        <time>2022-09-07T13:39:07Z</time>
      </trkpt>
      <trkpt lat="43.10442" lon="-0.19054">
        <ele>330.2</ele>
        <time>2022-09-07T13:39:08Z</time>
      </trkpt>
      <trkpt lat="43.10465" lon="-0.19099">
        <ele>329.8</ele>
        <time>2022-09-07T13:39:15Z</time>
      </trkpt>
      <trkpt lat="43.10468" lon="-0.19106">
        <ele>329.8</ele>
        <time>2022-09-07T13:39:16Z</time>
      </trkpt>
      <trkpt lat="43.1047" lon="-0.19113">
        <ele>329.8</ele>
        <time>2022-09-07T13:39:17Z</time>
      </trkpt>
      <trkpt lat="43.10475" lon="-0.19137">
        <ele>330.4</ele>
        <time>2022-09-07T13:39:21Z</time>
      </trkpt>
      <trkpt lat="43.10478" lon="-0.19157">
        <ele>331</ele>
        <time>2022-09-07T13:39:25Z</time>
      </trkpt>
      <trkpt lat="43.1048" lon="-0.19162">
        <ele>331.2</ele>
        <time>2022-09-07T13:39:26Z</time>
      </trkpt>
      <trkpt lat="43.10493" lon="-0.19186">
        <ele>331.6</ele>
        <time>2022-09-07T13:39:32Z</time>
      </trkpt>
      <trkpt lat="43.10502" lon="-0.19197">
        <ele>331.2</ele>
        <time>2022-09-07T13:39:36Z</time>
      </trkpt>
      <trkpt lat="43.10517" lon="-0.19203">
        <ele>331</ele>
        <time>2022-09-07T13:39:40Z</time>
      </trkpt>
      <trkpt lat="43.10532" lon="-0.19207">
        <ele>332</ele>
        <time>2022-09-07T13:39:43Z</time>
      </trkpt>
      <trkpt lat="43.10548" lon="-0.19211">
        <ele>331</ele>
        <time>2022-09-07T13:39:46Z</time>
      </trkpt>
      <trkpt lat="43.10554" lon="-0.19212">
        <ele>330.8</ele>
        <time>2022-09-07T13:39:47Z</time>
      </trkpt>
      <trkpt lat="43.10583" lon="-0.19221">
        <ele>330.4</ele>
        <time>2022-09-07T13:39:52Z</time>
      </trkpt>
      <trkpt lat="43.10592" lon="-0.19224">
        <ele>329.8</ele>
        <time>2022-09-07T13:39:54Z</time>
      </trkpt>
      <trkpt lat="43.10608" lon="-0.19228">
        <ele>329.4</ele>
        <time>2022-09-07T13:39:57Z</time>
      </trkpt>
      <trkpt lat="43.1065" lon="-0.19231">
        <ele>329.2</ele>
        <time>2022-09-07T13:40:04Z</time>
      </trkpt>
      <trkpt lat="43.10697" lon="-0.19233">
        <ele>328.8</ele>
        <time>2022-09-07T13:40:12Z</time>
      </trkpt>
      <trkpt lat="43.10737" lon="-0.19236">
        <ele>328.6</ele>
        <time>2022-09-07T13:40:19Z</time>
      </trkpt>
      <trkpt lat="43.10776" lon="-0.19238">
        <ele>328.8</ele>
        <time>2022-09-07T13:40:26Z</time>
      </trkpt>
      <trkpt lat="43.10804" lon="-0.19241">
        <ele>329.2</ele>
        <time>2022-09-07T13:40:32Z</time>
      </trkpt>
      <trkpt lat="43.10808" lon="-0.19242">
        <ele>329.2</ele>
        <time>2022-09-07T13:40:33Z</time>
      </trkpt>
      <trkpt lat="43.10821" lon="-0.19254">
        <ele>329.6</ele>
        <time>2022-09-07T13:40:37Z</time>
      </trkpt>
      <trkpt lat="43.10823" lon="-0.19257">
        <ele>329.8</ele>
        <time>2022-09-07T13:40:38Z</time>
      </trkpt>
      <trkpt lat="43.10826" lon="-0.1926">
        <ele>330</ele>
        <time>2022-09-07T13:40:39Z</time>
      </trkpt>
      <trkpt lat="43.10845" lon="-0.19276">
        <ele>331</ele>
        <time>2022-09-07T13:40:45Z</time>
      </trkpt>
      <trkpt lat="43.10861" lon="-0.1928">
        <ele>331.4</ele>
        <time>2022-09-07T13:40:50Z</time>
      </trkpt>
      <trkpt lat="43.10884" lon="-0.19286">
        <ele>331.8</ele>
        <time>2022-09-07T13:40:57Z</time>
      </trkpt>
      <trkpt lat="43.10895" lon="-0.19289">
        <ele>332</ele>
        <time>2022-09-07T13:41:00Z</time>
      </trkpt>
      <trkpt lat="43.10915" lon="-0.19292">
        <ele>332.4</ele>
        <time>2022-09-07T13:41:05Z</time>
      </trkpt>
      <trkpt lat="43.10957" lon="-0.19303">
        <ele>332.8</ele>
        <time>2022-09-07T13:41:16Z</time>
      </trkpt>
      <trkpt lat="43.11" lon="-0.19314">
        <ele>332.6</ele>
        <time>2022-09-07T13:41:26Z</time>
      </trkpt>
      <trkpt lat="43.11043" lon="-0.19324">
        <ele>332.6</ele>
        <time>2022-09-07T13:41:35Z</time>
      </trkpt>
      <trkpt lat="43.11078" lon="-0.19331">
        <ele>332</ele>
        <time>2022-09-07T13:41:42Z</time>
      </trkpt>
      <trkpt lat="43.11126" lon="-0.19338">
        <ele>331.8</ele>
        <time>2022-09-07T13:41:51Z</time>
      </trkpt>
      <trkpt lat="43.11181" lon="-0.19347">
        <ele>331.2</ele>
        <time>2022-09-07T13:42:01Z</time>
      </trkpt>
      <trkpt lat="43.11226" lon="-0.19363">
        <ele>331.6</ele>
        <time>2022-09-07T13:42:09Z</time>
      </trkpt>
      <trkpt lat="43.11231" lon="-0.19367">
        <ele>331.8</ele>
        <time>2022-09-07T13:42:10Z</time>
      </trkpt>
      <trkpt lat="43.11242" lon="-0.19375">
        <ele>331.4</ele>
        <time>2022-09-07T13:42:12Z</time>
      </trkpt>
      <trkpt lat="43.11251" lon="-0.19385">
        <ele>330.6</ele>
        <time>2022-09-07T13:42:14Z</time>
      </trkpt>
      <trkpt lat="43.11287" lon="-0.19422">
        <ele>330.4</ele>
        <time>2022-09-07T13:42:22Z</time>
      </trkpt>
      <trkpt lat="43.11296" lon="-0.19431">
        <ele>329.4</ele>
        <time>2022-09-07T13:42:24Z</time>
      </trkpt>
      <trkpt lat="43.11301" lon="-0.19434">
        <ele>329.6</ele>
        <time>2022-09-07T13:42:25Z</time>
      </trkpt>
      <trkpt lat="43.1132" lon="-0.19448">
        <ele>330</ele>
        <time>2022-09-07T13:42:29Z</time>
      </trkpt>
      <trkpt lat="43.11352" lon="-0.19468">
        <ele>329.6</ele>
        <time>2022-09-07T13:42:36Z</time>
      </trkpt>
      <trkpt lat="43.11393" lon="-0.19484">
        <ele>328.4</ele>
        <time>2022-09-07T13:42:44Z</time>
      </trkpt>
      <trkpt lat="43.11421" lon="-0.19493">
        <ele>327.4</ele>
        <time>2022-09-07T13:42:49Z</time>
      </trkpt>
      <trkpt lat="43.11443" lon="-0.19501">
        <ele>327.4</ele>
        <time>2022-09-07T13:42:53Z</time>
      </trkpt>
      <trkpt lat="43.11472" lon="-0.1951">
        <ele>327.6</ele>
        <time>2022-09-07T13:42:59Z</time>
      </trkpt>
      <trkpt lat="43.11477" lon="-0.19512">
        <ele>327.4</ele>
        <time>2022-09-07T13:43:00Z</time>
      </trkpt>
      <trkpt lat="43.11511" lon="-0.19523">
        <ele>327.2</ele>
        <time>2022-09-07T13:43:07Z</time>
      </trkpt>
      <trkpt lat="43.11552" lon="-0.19537">
        <ele>326.8</ele>
        <time>2022-09-07T13:43:16Z</time>
      </trkpt>
      <trkpt lat="43.11556" lon="-0.19539">
        <ele>326.8</ele>
        <time>2022-09-07T13:43:17Z</time>
      </trkpt>
      <trkpt lat="43.11581" lon="-0.19549">
        <ele>326.4</ele>
        <time>2022-09-07T13:43:23Z</time>
      </trkpt>
      <trkpt lat="43.11603" lon="-0.19564">
        <ele>326</ele>
        <time>2022-09-07T13:43:28Z</time>
      </trkpt>
      <trkpt lat="43.11607" lon="-0.19567">
        <ele>325.8</ele>
        <time>2022-09-07T13:43:29Z</time>
      </trkpt>
      <trkpt lat="43.11639" lon="-0.19599">
        <ele>325.6</ele>
        <time>2022-09-07T13:43:37Z</time>
      </trkpt>
      <trkpt lat="43.11656" lon="-0.19627">
        <ele>325.6</ele>
        <time>2022-09-07T13:43:44Z</time>
      </trkpt>
      <trkpt lat="43.11664" lon="-0.1964">
        <ele>325.8</ele>
        <time>2022-09-07T13:43:48Z</time>
      </trkpt>
      <trkpt lat="43.11671" lon="-0.1965">
        <ele>325.8</ele>
        <time>2022-09-07T13:43:51Z</time>
      </trkpt>
      <trkpt lat="43.11686" lon="-0.19675">
        <ele>325.8</ele>
        <time>2022-09-07T13:43:58Z</time>
      </trkpt>
      <trkpt lat="43.11706" lon="-0.19708">
        <ele>325.6</ele>
        <time>2022-09-07T13:44:06Z</time>
      </trkpt>
      <trkpt lat="43.1171" lon="-0.19712">
        <ele>325.4</ele>
        <time>2022-09-07T13:44:07Z</time>
      </trkpt>
      <trkpt lat="43.1172" lon="-0.19729">
        <ele>325.4</ele>
        <time>2022-09-07T13:44:11Z</time>
      </trkpt>
      <trkpt lat="43.11723" lon="-0.19733">
        <ele>325</ele>
        <time>2022-09-07T13:44:12Z</time>
      </trkpt>
      <trkpt lat="43.11744" lon="-0.19763">
        <ele>325.2</ele>
        <time>2022-09-07T13:44:19Z</time>
      </trkpt>
      <trkpt lat="43.11772" lon="-0.19804">
        <ele>324.8</ele>
        <time>2022-09-07T13:44:28Z</time>
      </trkpt>
      <trkpt lat="43.11783" lon="-0.19818">
        <ele>324.8</ele>
        <time>2022-09-07T13:44:31Z</time>
      </trkpt>
      <trkpt lat="43.11791" lon="-0.19825">
        <ele>325.2</ele>
        <time>2022-09-07T13:44:33Z</time>
      </trkpt>
      <trkpt lat="43.11798" lon="-0.19833">
        <ele>325.2</ele>
        <time>2022-09-07T13:44:35Z</time>
      </trkpt>
      <trkpt lat="43.11809" lon="-0.1985">
        <ele>325</ele>
        <time>2022-09-07T13:44:39Z</time>
      </trkpt>
      <trkpt lat="43.11825" lon="-0.19888">
        <ele>324</ele>
        <time>2022-09-07T13:44:46Z</time>
      </trkpt>
      <trkpt lat="43.11827" lon="-0.19896">
        <ele>323.8</ele>
        <time>2022-09-07T13:44:47Z</time>
      </trkpt>
      <trkpt lat="43.11836" lon="-0.19924">
        <ele>323</ele>
        <time>2022-09-07T13:44:51Z</time>
      </trkpt>
      <trkpt lat="43.11844" lon="-0.19952">
        <ele>322.6</ele>
        <time>2022-09-07T13:44:55Z</time>
      </trkpt>
      <trkpt lat="43.11847" lon="-0.19976">
        <ele>323</ele>
        <time>2022-09-07T13:44:58Z</time>
      </trkpt>
      <trkpt lat="43.11853" lon="-0.20015">
        <ele>320.8</ele>
        <time>2022-09-07T13:45:02Z</time>
      </trkpt>
      <trkpt lat="43.11855" lon="-0.20025">
        <ele>321.2</ele>
        <time>2022-09-07T13:45:03Z</time>
      </trkpt>
      <trkpt lat="43.11859" lon="-0.20044">
        <ele>320.8</ele>
        <time>2022-09-07T13:45:05Z</time>
      </trkpt>
      <trkpt lat="43.1187" lon="-0.20072">
        <ele>319.8</ele>
        <time>2022-09-07T13:45:08Z</time>
      </trkpt>
      <trkpt lat="43.11885" lon="-0.20122">
        <ele>318.8</ele>
        <time>2022-09-07T13:45:13Z</time>
      </trkpt>
      <trkpt lat="43.11888" lon="-0.20131">
        <ele>318.6</ele>
        <time>2022-09-07T13:45:14Z</time>
      </trkpt>
      <trkpt lat="43.11895" lon="-0.20164">
        <ele>318</ele>
        <time>2022-09-07T13:45:18Z</time>
      </trkpt>
      <trkpt lat="43.11898" lon="-0.20179">
        <ele>318.2</ele>
        <time>2022-09-07T13:45:20Z</time>
      </trkpt>
      <trkpt lat="43.11903" lon="-0.20199">
        <ele>318.6</ele>
        <time>2022-09-07T13:45:23Z</time>
      </trkpt>
      <trkpt lat="43.11906" lon="-0.20206">
        <ele>318.6</ele>
        <time>2022-09-07T13:45:24Z</time>
      </trkpt>
      <trkpt lat="43.11915" lon="-0.2023">
        <ele>319.2</ele>
        <time>2022-09-07T13:45:28Z</time>
      </trkpt>
      <trkpt lat="43.11917" lon="-0.20235">
        <ele>319.4</ele>
        <time>2022-09-07T13:45:29Z</time>
      </trkpt>
      <trkpt lat="43.11932" lon="-0.20273">
        <ele>319.2</ele>
        <time>2022-09-07T13:45:35Z</time>
      </trkpt>
      <trkpt lat="43.11948" lon="-0.20301">
        <ele>318.8</ele>
        <time>2022-09-07T13:45:40Z</time>
      </trkpt>
      <trkpt lat="43.11967" lon="-0.20313">
        <ele>319</ele>
        <time>2022-09-07T13:45:44Z</time>
      </trkpt>
      <trkpt lat="43.11975" lon="-0.2032">
        <ele>319.2</ele>
        <time>2022-09-07T13:45:46Z</time>
      </trkpt>
      <trkpt lat="43.11982" lon="-0.20328">
        <ele>319.4</ele>
        <time>2022-09-07T13:45:48Z</time>
      </trkpt>
      <trkpt lat="43.12004" lon="-0.20352">
        <ele>319.6</ele>
        <time>2022-09-07T13:45:54Z</time>
      </trkpt>
      <trkpt lat="43.12005" lon="-0.20356">
        <ele>319.6</ele>
        <time>2022-09-07T13:45:55Z</time>
      </trkpt>
      <trkpt lat="43.12009" lon="-0.2036">
        <ele>319.6</ele>
        <time>2022-09-07T13:45:56Z</time>
      </trkpt>
      <trkpt lat="43.12016" lon="-0.20369">
        <ele>319.8</ele>
        <time>2022-09-07T13:45:58Z</time>
      </trkpt>
      <trkpt lat="43.12041" lon="-0.20399">
        <ele>319.8</ele>
        <time>2022-09-07T13:46:05Z</time>
      </trkpt>
      <trkpt lat="43.1206" lon="-0.20423">
        <ele>320.6</ele>
        <time>2022-09-07T13:46:11Z</time>
      </trkpt>
      <trkpt lat="43.12075" lon="-0.20441">
        <ele>320</ele>
        <time>2022-09-07T13:46:16Z</time>
      </trkpt>
      <trkpt lat="43.12083" lon="-0.20449">
        <ele>319.8</ele>
        <time>2022-09-07T13:46:18Z</time>
      </trkpt>
      <trkpt lat="43.12107" lon="-0.2047">
        <ele>319.8</ele>
        <time>2022-09-07T13:46:23Z</time>
      </trkpt>
      <trkpt lat="43.12129" lon="-0.20492">
        <ele>320</ele>
        <time>2022-09-07T13:46:28Z</time>
      </trkpt>
      <trkpt lat="43.12133" lon="-0.20497">
        <ele>320</ele>
        <time>2022-09-07T13:46:29Z</time>
      </trkpt>
      <trkpt lat="43.12155" lon="-0.20524">
        <ele>320.6</ele>
        <time>2022-09-07T13:46:35Z</time>
      </trkpt>
      <trkpt lat="43.12161" lon="-0.20532">
        <ele>320.8</ele>
        <time>2022-09-07T13:46:37Z</time>
      </trkpt>
      <trkpt lat="43.12182" lon="-0.20558">
        <ele>320.6</ele>
        <time>2022-09-07T13:46:44Z</time>
      </trkpt>
      <trkpt lat="43.12203" lon="-0.20585">
        <ele>320.2</ele>
        <time>2022-09-07T13:46:50Z</time>
      </trkpt>
      <trkpt lat="43.1221" lon="-0.20597">
        <ele>319.6</ele>
        <time>2022-09-07T13:46:52Z</time>
      </trkpt>
      <trkpt lat="43.12231" lon="-0.20625">
        <ele>318.4</ele>
        <time>2022-09-07T13:46:57Z</time>
      </trkpt>
      <trkpt lat="43.1226" lon="-0.20659">
        <ele>317.6</ele>
        <time>2022-09-07T13:47:04Z</time>
      </trkpt>
      <trkpt lat="43.12275" lon="-0.20676">
        <ele>318.6</ele>
        <time>2022-09-07T13:47:09Z</time>
      </trkpt>
      <trkpt lat="43.12292" lon="-0.20686">
        <ele>319</ele>
        <time>2022-09-07T13:47:15Z</time>
      </trkpt>
      <trkpt lat="43.12302" lon="-0.20683">
        <ele>319.8</ele>
        <time>2022-09-07T13:47:20Z</time>
      </trkpt>
      <trkpt lat="43.12312" lon="-0.2068">
        <ele>320.6</ele>
        <time>2022-09-07T13:47:25Z</time>
      </trkpt>
      <trkpt lat="43.12313" lon="-0.20679">
        <ele>320.8</ele>
        <time>2022-09-07T13:47:26Z</time>
      </trkpt>
      <trkpt lat="43.1232" lon="-0.20677">
        <ele>321.6</ele>
        <time>2022-09-07T13:47:31Z</time>
      </trkpt>
      <trkpt lat="43.1233" lon="-0.20677">
        <ele>322</ele>
        <time>2022-09-07T13:48:30Z</time>
      </trkpt>
      <trkpt lat="43.12335" lon="-0.20675">
        <ele>322.2</ele>
        <time>2022-09-07T13:48:32Z</time>
      </trkpt>
      <trkpt lat="43.12339" lon="-0.20673">
        <ele>322.2</ele>
        <time>2022-09-07T13:48:34Z</time>
      </trkpt>
      <trkpt lat="43.12345" lon="-0.20669">
        <ele>322.4</ele>
        <time>2022-09-07T13:49:01Z</time>
      </trkpt>
      <trkpt lat="43.12349" lon="-0.20668">
        <ele>322.2</ele>
        <time>2022-09-07T13:49:04Z</time>
      </trkpt>
      <trkpt lat="43.1236" lon="-0.20666">
        <ele>322</ele>
        <time>2022-09-07T13:49:10Z</time>
      </trkpt>
      <trkpt lat="43.12371" lon="-0.20678">
        <ele>321.4</ele>
        <time>2022-09-07T13:49:14Z</time>
      </trkpt>
      <trkpt lat="43.1238" lon="-0.20687">
        <ele>320.6</ele>
        <time>2022-09-07T13:49:16Z</time>
      </trkpt>
      <trkpt lat="43.12395" lon="-0.20704">
        <ele>319.8</ele>
        <time>2022-09-07T13:49:19Z</time>
      </trkpt>
      <trkpt lat="43.124" lon="-0.2071">
        <ele>318.8</ele>
        <time>2022-09-07T13:49:20Z</time>
      </trkpt>
      <trkpt lat="43.12412" lon="-0.20722">
        <ele>318.2</ele>
        <time>2022-09-07T13:49:22Z</time>
      </trkpt>
      <trkpt lat="43.12427" lon="-0.20732">
        <ele>317.6</ele>
        <time>2022-09-07T13:49:24Z</time>
      </trkpt>
      <trkpt lat="43.12442" lon="-0.20736">
        <ele>317</ele>
        <time>2022-09-07T13:49:26Z</time>
      </trkpt>
      <trkpt lat="43.12456" lon="-0.20739">
        <ele>316.6</ele>
        <time>2022-09-07T13:49:28Z</time>
      </trkpt>
      <trkpt lat="43.12463" lon="-0.2074">
        <ele>316.4</ele>
        <time>2022-09-07T13:49:29Z</time>
      </trkpt>
      <trkpt lat="43.12494" lon="-0.20744">
        <ele>316.6</ele>
        <time>2022-09-07T13:49:34Z</time>
      </trkpt>
      <trkpt lat="43.12523" lon="-0.20746">
        <ele>316.8</ele>
        <time>2022-09-07T13:49:40Z</time>
      </trkpt>
      <trkpt lat="43.12548" lon="-0.20746">
        <ele>317</ele>
        <time>2022-09-07T13:49:47Z</time>
      </trkpt>
      <trkpt lat="43.12564" lon="-0.20746">
        <ele>317.6</ele>
        <time>2022-09-07T13:49:52Z</time>
      </trkpt>
      <trkpt lat="43.1257" lon="-0.20746">
        <ele>317.8</ele>
        <time>2022-09-07T13:49:54Z</time>
      </trkpt>
      <trkpt lat="43.12592" lon="-0.20748">
        <ele>318.2</ele>
        <time>2022-09-07T13:50:01Z</time>
      </trkpt>
      <trkpt lat="43.12618" lon="-0.2075">
        <ele>318</ele>
        <time>2022-09-07T13:50:09Z</time>
      </trkpt>
      <trkpt lat="43.1264" lon="-0.2075">
        <ele>318</ele>
        <time>2022-09-07T13:50:16Z</time>
      </trkpt>
      <trkpt lat="43.12653" lon="-0.20751">
        <ele>318.6</ele>
        <time>2022-09-07T13:50:20Z</time>
      </trkpt>
      <trkpt lat="43.12663" lon="-0.20752">
        <ele>318.6</ele>
        <time>2022-09-07T13:50:23Z</time>
      </trkpt>
      <trkpt lat="43.12675" lon="-0.20751">
        <ele>319</ele>
        <time>2022-09-07T13:50:27Z</time>
      </trkpt>
      <trkpt lat="43.12696" lon="-0.20752">
        <ele>319.4</ele>
        <time>2022-09-07T13:50:34Z</time>
      </trkpt>
      <trkpt lat="43.1272" lon="-0.20752">
        <ele>319.6</ele>
        <time>2022-09-07T13:50:43Z</time>
      </trkpt>
      <trkpt lat="43.12729" lon="-0.20758">
        <ele>319.8</ele>
        <time>2022-09-07T13:50:47Z</time>
      </trkpt>
      <trkpt lat="43.12732" lon="-0.20761">
        <ele>319.8</ele>
        <time>2022-09-07T13:50:48Z</time>
      </trkpt>
      <trkpt lat="43.12734" lon="-0.20762">
        <ele>319.8</ele>
        <time>2022-09-07T13:50:49Z</time>
      </trkpt>
      <trkpt lat="43.12741" lon="-0.20763">
        <ele>320.2</ele>
        <time>2022-09-07T13:50:52Z</time>
      </trkpt>
      <trkpt lat="43.12743" lon="-0.20763">
        <ele>320.4</ele>
        <time>2022-09-07T13:50:53Z</time>
      </trkpt>
      <trkpt lat="43.1275" lon="-0.20763">
        <ele>320</ele>
        <time>2022-09-07T13:50:57Z</time>
      </trkpt>
      <trkpt lat="43.12759" lon="-0.20767">
        <ele>320</ele>
        <time>2022-09-07T13:51:03Z</time>
      </trkpt>
    </trkseg>
  </trk>
</gpx>